<?xml version='1.0' encoding='UTF-8'?><gpx version="1.1" creator="JPX - https://github.com/jenetics/jpx" xmlns="http://www.topografix.com/GPX/1/1"><trk><trkseg><trkpt lat="44.606923238572286" lon="10.468200771289675"><ele>267.33333333333337</ele><time>2026-04-04T14:58:42Z</time></trkpt><trkpt lat="44.60701008999454" lon="10.46823486093615"><ele>268.6666666666667</ele><time>2026-04-04T14:58:44Z</time></trkpt><trkpt lat="44.60714172303481" lon="10.468248811822514"><ele>270.0</ele><time>2026-04-04T14:58:47Z</time></trkpt><trkpt lat="44.607207623504564" lon="10.46823446662728"><ele>271.3333333333333</ele><time>2026-04-04T14:58:48Z</time></trkpt><trkpt lat="44.60727995016592" lon="10.468234019707698"><ele>272.66666666666663</ele><time>2026-04-04T14:58:49Z</time></trkpt><trkpt lat="44.6073653005958" lon="10.468259615094633"><ele>274.0</ele><time>2026-04-04T14:58:50Z</time></trkpt><trkpt lat="44.60742582217988" lon="10.46828870402454"><ele>274.0</ele><time>2026-04-04T14:58:51Z</time></trkpt><trkpt lat="44.60748835198396" lon="10.468329058490744"><ele>274.0</ele><time>2026-04-04T14:58:52Z</time></trkpt><trkpt lat="44.607581611689874" lon="10.468369897499718"><ele>274.0</ele><time>2026-04-04T14:58:54Z</time></trkpt><trkpt lat="44.60766759526271" lon="10.468252537010144"><ele>274.0</ele><time>2026-04-04T14:59:02Z</time></trkpt><trkpt lat="44.60757525815456" lon="10.468143368552347"><ele>274.0</ele><time>2026-04-04T14:59:04Z</time></trkpt><trkpt lat="44.60750723484879" lon="10.468102913654542"><ele>274.0</ele><time>2026-04-04T14:59:05Z</time></trkpt><trkpt lat="44.60745227979968" lon="10.468049545821202"><ele>274.0</ele><time>2026-04-04T14:59:06Z</time></trkpt><trkpt lat="44.607342253064445" lon="10.467948836649548"><ele>274.0</ele><time>2026-04-04T14:59:08Z</time></trkpt><trkpt lat="44.60726194376812" lon="10.46786772332449"><ele>274.0</ele><time>2026-04-04T14:59:09Z</time></trkpt><trkpt lat="44.60717425727607" lon="10.467775243108807"><ele>274.0</ele><time>2026-04-04T14:59:10Z</time></trkpt><trkpt lat="44.60711256593993" lon="10.467701150065535"><ele>275.16666666666663</ele><time>2026-04-04T14:59:11Z</time></trkpt><trkpt lat="44.607051522948126" lon="10.467647631822947"><ele>276.3333333333333</ele><time>2026-04-04T14:59:12Z</time></trkpt><trkpt lat="44.60700527464556" lon="10.467569248373048"><ele>277.5</ele><time>2026-04-04T14:59:13Z</time></trkpt><trkpt lat="44.606956141198495" lon="10.467473483446087"><ele>278.6666666666667</ele><time>2026-04-04T14:59:14Z</time></trkpt><trkpt lat="44.606894883267856" lon="10.467373838862159"><ele>279.83333333333337</ele><time>2026-04-04T14:59:16Z</time></trkpt><trkpt lat="44.60685506084162" lon="10.467243163987714"><ele>281.0</ele><time>2026-04-04T14:59:18Z</time></trkpt><trkpt lat="44.60680715717706" lon="10.467090258740974"><ele>283.5</ele><time>2026-04-04T14:59:20Z</time></trkpt><trkpt lat="44.60672979162957" lon="10.466991469120904"><ele>286.0</ele><time>2026-04-04T14:59:22Z</time></trkpt><trkpt lat="44.606688567519136" lon="10.466912546057253"><ele>288.5</ele><time>2026-04-04T14:59:23Z</time></trkpt><trkpt lat="44.60662761889651" lon="10.466849768550022"><ele>291.0</ele><time>2026-04-04T14:59:24Z</time></trkpt><trkpt lat="44.60659030222146" lon="10.466759426507094"><ele>293.5</ele><time>2026-04-04T14:59:26Z</time></trkpt><trkpt lat="44.60655593621365" lon="10.46665731159087"><ele>296.0</ele><time>2026-04-04T14:59:28.001Z</time></trkpt><trkpt lat="44.60649069041419" lon="10.46655962065872"><ele>296.0</ele><time>2026-04-04T14:59:30.001Z</time></trkpt><trkpt lat="44.60644473656594" lon="10.46649200788722"><ele>296.0</ele><time>2026-04-04T14:59:31.001Z</time></trkpt><trkpt lat="44.60637542577499" lon="10.466357898417"><ele>296.0</ele><time>2026-04-04T14:59:33.001Z</time></trkpt><trkpt lat="44.60629350600024" lon="10.466238611500476"><ele>296.0</ele><time>2026-04-04T14:59:35.001Z</time></trkpt><trkpt lat="44.606239624553595" lon="10.46617831611554"><ele>296.0</ele><time>2026-04-04T14:59:36.001Z</time></trkpt><trkpt lat="44.606181242515326" lon="10.466125717746829"><ele>296.0</ele><time>2026-04-04T14:59:37.001Z</time></trkpt><trkpt lat="44.60612577141704" lon="10.466075664279105"><ele>297.40000000000003</ele><time>2026-04-04T14:59:38.001Z</time></trkpt><trkpt lat="44.60605221472537" lon="10.466027592644874"><ele>298.8</ele><time>2026-04-04T14:59:39.001Z</time></trkpt><trkpt lat="44.605963237660994" lon="10.465961403955275"><ele>300.20000000000005</ele><time>2026-04-04T14:59:41.001Z</time></trkpt><trkpt lat="44.60588576879096" lon="10.465846783629354"><ele>301.6</ele><time>2026-04-04T14:59:43.001Z</time></trkpt><trkpt lat="44.605825318949485" lon="10.46570661758293"><ele>303.0</ele><time>2026-04-04T14:59:45.001Z</time></trkpt><trkpt lat="44.605779506939044" lon="10.46563378863127"><ele>303.0</ele><time>2026-04-04T14:59:46Z</time></trkpt><trkpt lat="44.60573116427406" lon="10.465547266627974"><ele>303.0</ele><time>2026-04-04T14:59:47Z</time></trkpt><trkpt lat="44.60566435926148" lon="10.465428397958215"><ele>303.0</ele><time>2026-04-04T14:59:49Z</time></trkpt><trkpt lat="44.605610474642674" lon="10.465311755725027"><ele>303.0</ele><time>2026-04-04T14:59:51Z</time></trkpt><trkpt lat="44.60558175416944" lon="10.465222464450292"><ele>303.0</ele><time>2026-04-04T14:59:53Z</time></trkpt><trkpt lat="44.60554644880568" lon="10.465142041931815"><ele>303.0</ele><time>2026-04-04T14:59:56Z</time></trkpt><trkpt lat="44.60560650582328" lon="10.46510714860811"><ele>306.2</ele><time>2026-04-04T14:59:58Z</time></trkpt><trkpt lat="44.60573066031234" lon="10.46497353596192"><ele>309.4</ele><time>2026-04-04T15:00:01Z</time></trkpt><trkpt lat="44.60584373629956" lon="10.464964143420385"><ele>312.59999999999997</ele><time>2026-04-04T15:00:03Z</time></trkpt><trkpt lat="44.60592099245186" lon="10.464947610078601"><ele>315.8</ele><time>2026-04-04T15:00:04Z</time></trkpt><trkpt lat="44.605998140170925" lon="10.464901686323167"><ele>319.0</ele><time>2026-04-04T15:00:05Z</time></trkpt><trkpt lat="44.606080476350996" lon="10.464824085580492"><ele>319.0</ele><time>2026-04-04T15:00:07Z</time></trkpt><trkpt lat="44.606155151733375" lon="10.464778584822781"><ele>319.0</ele><time>2026-04-04T15:00:09Z</time></trkpt><trkpt lat="44.606217512558786" lon="10.464759930472756"><ele>319.0</ele><time>2026-04-04T15:00:13Z</time></trkpt><trkpt lat="44.60629034563233" lon="10.464817701900499"><ele>319.0</ele><time>2026-04-04T15:00:19Z</time></trkpt><trkpt lat="44.606397877380154" lon="10.46489988610165"><ele>319.0</ele><time>2026-04-04T15:00:21Z</time></trkpt><trkpt lat="44.60648705688715" lon="10.464959824319147"><ele>323.4</ele><time>2026-04-04T15:00:23Z</time></trkpt><trkpt lat="44.606576246048334" lon="10.465016581581837"><ele>327.79999999999995</ele><time>2026-04-04T15:00:25Z</time></trkpt><trkpt lat="44.60667979036707" lon="10.465055231273904"><ele>332.20000000000005</ele><time>2026-04-04T15:00:27Z</time></trkpt><trkpt lat="44.60676588440089" lon="10.465142122942671"><ele>336.6</ele><time>2026-04-04T15:00:29Z</time></trkpt><trkpt lat="44.60687007932268" lon="10.465202240206859"><ele>341.0</ele><time>2026-04-04T15:00:31Z</time></trkpt><trkpt lat="44.6069379881657" lon="10.465221869230325"><ele>340.5</ele><time>2026-04-04T15:00:32Z</time></trkpt><trkpt lat="44.607019665410874" lon="10.46525905750924"><ele>340.0</ele><time>2026-04-04T15:00:34Z</time></trkpt><trkpt lat="44.60710695021958" lon="10.465305505709454"><ele>339.5</ele><time>2026-04-04T15:00:36Z</time></trkpt><trkpt lat="44.60717562342607" lon="10.465316929147619"><ele>339.0</ele><time>2026-04-04T15:00:37Z</time></trkpt><trkpt lat="44.60723796015659" lon="10.465335734376874"><ele>338.5</ele><time>2026-04-04T15:00:38Z</time></trkpt><trkpt lat="44.607324165407505" lon="10.465448665656444"><ele>338.0</ele><time>2026-04-04T15:00:40Z</time></trkpt><trkpt lat="44.60737332768314" lon="10.465515620537847"><ele>338.0</ele><time>2026-04-04T15:00:41Z</time></trkpt><trkpt lat="44.607424493212996" lon="10.465600832662036"><ele>338.0</ele><time>2026-04-04T15:00:42Z</time></trkpt><trkpt lat="44.60749279767625" lon="10.46568303236117"><ele>338.0</ele><time>2026-04-04T15:00:43Z</time></trkpt><trkpt lat="44.60754498063855" lon="10.465733073210133"><ele>338.0</ele><time>2026-04-04T15:00:44Z</time></trkpt><trkpt lat="44.6076242752303" lon="10.465828191044169"><ele>338.0</ele><time>2026-04-04T15:00:46Z</time></trkpt><trkpt lat="44.6076610564805" lon="10.465952248548174"><ele>338.0</ele><time>2026-04-04T15:00:48Z</time></trkpt><trkpt lat="44.60771955391416" lon="10.466013819882491"><ele>338.0</ele><time>2026-04-04T15:00:51Z</time></trkpt><trkpt lat="44.607782754241164" lon="10.466006321897172"><ele>338.0</ele><time>2026-04-04T15:00:53Z</time></trkpt><trkpt lat="44.607854115242574" lon="10.465968768123648"><ele>338.0</ele><time>2026-04-04T15:00:56Z</time></trkpt><trkpt lat="44.60799288731782" lon="10.465971698171138"><ele>338.0</ele><time>2026-04-04T15:00:58Z</time></trkpt><trkpt lat="44.6079902624231" lon="10.46584363434839"><ele>338.0</ele><time>2026-04-04T15:01:00Z</time></trkpt><trkpt lat="44.60794602639471" lon="10.465663128836466"><ele>337.5</ele><time>2026-04-04T15:01:02Z</time></trkpt><trkpt lat="44.60790367378108" lon="10.465550239927522"><ele>337.0</ele><time>2026-04-04T15:01:03Z</time></trkpt><trkpt lat="44.60786569601163" lon="10.46543390270687"><ele>336.5</ele><time>2026-04-04T15:01:04Z</time></trkpt><trkpt lat="44.60783314015412" lon="10.465341867909357"><ele>336.0</ele><time>2026-04-04T15:01:05Z</time></trkpt><trkpt lat="44.607801074924595" lon="10.465254999573041"><ele>335.5</ele><time>2026-04-04T15:01:06Z</time></trkpt><trkpt lat="44.60778057358085" lon="10.465166880035307"><ele>335.0</ele><time>2026-04-04T15:01:07Z</time></trkpt><trkpt lat="44.60776496279566" lon="10.465080279999038"><ele>338.1666666666667</ele><time>2026-04-04T15:01:08Z</time></trkpt><trkpt lat="44.60769133827845" lon="10.46496963995072"><ele>341.33333333333337</ele><time>2026-04-04T15:01:10Z</time></trkpt><trkpt lat="44.60763244685544" lon="10.464898655654014"><ele>344.5</ele><time>2026-04-04T15:01:12Z</time></trkpt><trkpt lat="44.60757221248032" lon="10.46480500621668"><ele>347.6666666666667</ele><time>2026-04-04T15:01:14Z</time></trkpt><trkpt lat="44.607486855020205" lon="10.464762463881588"><ele>350.8333333333333</ele><time>2026-04-04T15:01:17Z</time></trkpt><trkpt lat="44.60742679172554" lon="10.46471039385513"><ele>354.0</ele><time>2026-04-04T15:01:18Z</time></trkpt><trkpt lat="44.607359765290305" lon="10.464671257394155"><ele>354.0</ele><time>2026-04-04T15:01:19Z</time></trkpt><trkpt lat="44.607230911339386" lon="10.464662441011416"><ele>354.0</ele><time>2026-04-04T15:01:21Z</time></trkpt><trkpt lat="44.60713776304719" lon="10.46471312111927"><ele>354.0</ele><time>2026-04-04T15:01:23Z</time></trkpt><trkpt lat="44.607064573267955" lon="10.464608863101267"><ele>354.0</ele><time>2026-04-04T15:01:26Z</time></trkpt><trkpt lat="44.6070129624381" lon="10.464553216164527"><ele>354.0</ele><time>2026-04-04T15:01:29Z</time></trkpt><trkpt lat="44.60679937741912" lon="10.464327589102476"><ele>356.4</ele><time>2026-04-04T15:01:30Z</time></trkpt><trkpt lat="44.60677381284395" lon="10.464223053050677"><ele>358.79999999999995</ele><time>2026-04-04T15:01:32Z</time></trkpt><trkpt lat="44.60675997223611" lon="10.464114427580778"><ele>361.20000000000005</ele><time>2026-04-04T15:01:34.001Z</time></trkpt><trkpt lat="44.60672599858656" lon="10.464027499504091"><ele>363.6</ele><time>2026-04-04T15:01:36.001Z</time></trkpt><trkpt lat="44.60668369931814" lon="10.463878456100668"><ele>366.0</ele><time>2026-04-04T15:01:38.001Z</time></trkpt><trkpt lat="44.60662950096437" lon="10.46371028804452"><ele>368.8333333333333</ele><time>2026-04-04T15:01:40.001Z</time></trkpt><trkpt lat="44.60660032885032" lon="10.46362536135316"><ele>371.6666666666667</ele><time>2026-04-04T15:01:41.001Z</time></trkpt><trkpt lat="44.606571358092935" lon="10.46352614006925"><ele>374.5</ele><time>2026-04-04T15:01:42.001Z</time></trkpt><trkpt lat="44.60654286880212" lon="10.46335649522818"><ele>377.33333333333337</ele><time>2026-04-04T15:01:44.001Z</time></trkpt><trkpt lat="44.60651263094654" lon="10.46325985129502"><ele>380.1666666666667</ele><time>2026-04-04T15:01:45Z</time></trkpt><trkpt lat="44.60647535752724" lon="10.463182162018626"><ele>383.0</ele><time>2026-04-04T15:01:46Z</time></trkpt><trkpt lat="44.60646806786504" lon="10.463059406909862"><ele>382.59999999999997</ele><time>2026-04-04T15:01:48Z</time></trkpt><trkpt lat="44.60641282197926" lon="10.462851379797156"><ele>382.2</ele><time>2026-04-04T15:01:50Z</time></trkpt><trkpt lat="44.60633615612238" lon="10.462765431209835"><ele>381.8</ele><time>2026-04-04T15:01:51Z</time></trkpt><trkpt lat="44.606270141941366" lon="10.462673658080213"><ele>381.4</ele><time>2026-04-04T15:01:52Z</time></trkpt><trkpt lat="44.60621446819035" lon="10.462595234727791"><ele>381.0</ele><time>2026-04-04T15:01:53Z</time></trkpt><trkpt lat="44.606176431685945" lon="10.462506535969442"><ele>381.4</ele><time>2026-04-04T15:01:54Z</time></trkpt><trkpt lat="44.60613277886769" lon="10.462411261186576"><ele>381.8</ele><time>2026-04-04T15:01:55Z</time></trkpt><trkpt lat="44.606053282065034" lon="10.462317786334934"><ele>382.2</ele><time>2026-04-04T15:01:56Z</time></trkpt><trkpt lat="44.605980381720556" lon="10.462217930858223"><ele>382.59999999999997</ele><time>2026-04-04T15:01:57Z</time></trkpt><trkpt lat="44.60591197600506" lon="10.462094928434169"><ele>383.0</ele><time>2026-04-04T15:01:58Z</time></trkpt><trkpt lat="44.60586031744064" lon="10.4619901979245"><ele>385.79999999999995</ele><time>2026-04-04T15:01:59Z</time></trkpt><trkpt lat="44.60578762467552" lon="10.461926902634065"><ele>388.6</ele><time>2026-04-04T15:02:00Z</time></trkpt><trkpt lat="44.60570341540926" lon="10.461851614572304"><ele>391.4</ele><time>2026-04-04T15:02:01Z</time></trkpt><trkpt lat="44.60562660076824" lon="10.461792945537475"><ele>394.20000000000005</ele><time>2026-04-04T15:02:02Z</time></trkpt><trkpt lat="44.6055431653701" lon="10.461692682344124"><ele>397.0</ele><time>2026-04-04T15:02:03Z</time></trkpt><trkpt lat="44.60547093674474" lon="10.4616133507464"><ele>397.00000000000006</ele><time>2026-04-04T15:02:04Z</time></trkpt><trkpt lat="44.60540741812042" lon="10.461521269569877"><ele>397.0</ele><time>2026-04-04T15:02:05Z</time></trkpt><trkpt lat="44.60537233884185" lon="10.461422846469496"><ele>397.0</ele><time>2026-04-04T15:02:06Z</time></trkpt><trkpt lat="44.60533442390152" lon="10.461335936516077"><ele>397.0</ele><time>2026-04-04T15:02:07Z</time></trkpt><trkpt lat="44.60530154057472" lon="10.461248824373374"><ele>397.00000000000006</ele><time>2026-04-04T15:02:08Z</time></trkpt><trkpt lat="44.605281585184876" lon="10.46113148919507"><ele>397.0</ele><time>2026-04-04T15:02:09Z</time></trkpt><trkpt lat="44.60525780110413" lon="10.461012769051319"><ele>396.83333333333337</ele><time>2026-04-04T15:02:10Z</time></trkpt><trkpt lat="44.60522039875045" lon="10.460884001761737"><ele>396.6666666666667</ele><time>2026-04-04T15:02:11Z</time></trkpt><trkpt lat="44.605159118854885" lon="10.460804815288338"><ele>396.5</ele><time>2026-04-04T15:02:12Z</time></trkpt><trkpt lat="44.60509496979285" lon="10.460741765497097"><ele>396.33333333333337</ele><time>2026-04-04T15:02:13Z</time></trkpt><trkpt lat="44.60501436053645" lon="10.460725923392996"><ele>396.1666666666667</ele><time>2026-04-04T15:02:14Z</time></trkpt><trkpt lat="44.60494527337358" lon="10.460694107094701"><ele>396.0</ele><time>2026-04-04T15:02:15Z</time></trkpt><trkpt lat="44.60483421974767" lon="10.46072587634958"><ele>396.0</ele><time>2026-04-04T15:02:16Z</time></trkpt><trkpt lat="44.604727975462154" lon="10.460722742722721"><ele>396.0</ele><time>2026-04-04T15:02:17Z</time></trkpt><trkpt lat="44.60461897702096" lon="10.460761894754233"><ele>396.0</ele><time>2026-04-04T15:02:18Z</time></trkpt><trkpt lat="44.604500111973636" lon="10.46081372271379"><ele>396.0</ele><time>2026-04-04T15:02:19Z</time></trkpt><trkpt lat="44.60437203068986" lon="10.460828935336961"><ele>396.5</ele><time>2026-04-04T15:02:20Z</time></trkpt><trkpt lat="44.60424779134188" lon="10.460816967028439"><ele>397.0</ele><time>2026-04-04T15:02:21Z</time></trkpt><trkpt lat="44.604127733828676" lon="10.460787040482618"><ele>397.5</ele><time>2026-04-04T15:02:22Z</time></trkpt><trkpt lat="44.604012035881276" lon="10.460754475448386"><ele>398.0</ele><time>2026-04-04T15:02:23Z</time></trkpt><trkpt lat="44.60389499743811" lon="10.460725898274424"><ele>398.0</ele><time>2026-04-04T15:02:24Z</time></trkpt><trkpt lat="44.60379678451499" lon="10.460691238860319"><ele>398.0</ele><time>2026-04-04T15:02:25Z</time></trkpt><trkpt lat="44.603704493954474" lon="10.460659363422716"><ele>398.0</ele><time>2026-04-04T15:02:26Z</time></trkpt><trkpt lat="44.6036161153467" lon="10.46062274727336"><ele>398.0</ele><time>2026-04-04T15:02:27Z</time></trkpt><trkpt lat="44.60353477365879" lon="10.460563391389597"><ele>398.0</ele><time>2026-04-04T15:02:28Z</time></trkpt><trkpt lat="44.6034644473519" lon="10.460490493432593"><ele>398.66666666666663</ele><time>2026-04-04T15:02:29Z</time></trkpt><trkpt lat="44.60339631386638" lon="10.460421859827306"><ele>399.3333333333333</ele><time>2026-04-04T15:02:30Z</time></trkpt><trkpt lat="44.60331073944495" lon="10.460363076473506"><ele>400.0</ele><time>2026-04-04T15:02:31Z</time></trkpt><trkpt lat="44.603220059762386" lon="10.460322239287791"><ele>400.66666666666663</ele><time>2026-04-04T15:02:32Z</time></trkpt><trkpt lat="44.60313795871983" lon="10.460278993784101"><ele>401.3333333333333</ele><time>2026-04-04T15:02:33Z</time></trkpt><trkpt lat="44.60306902659755" lon="10.460204751154583"><ele>402.0</ele><time>2026-04-04T15:02:34Z</time></trkpt><trkpt lat="44.60298977191462" lon="10.460120655133592"><ele>402.0</ele><time>2026-04-04T15:02:35Z</time></trkpt><trkpt lat="44.60290381290107" lon="10.460053395098429"><ele>402.0</ele><time>2026-04-04T15:02:36Z</time></trkpt><trkpt lat="44.60282617329622" lon="10.459997126968723"><ele>402.0</ele><time>2026-04-04T15:02:37Z</time></trkpt><trkpt lat="44.60274897108775" lon="10.459950720563011"><ele>402.0</ele><time>2026-04-04T15:02:38Z</time></trkpt><trkpt lat="44.602680488233496" lon="10.459891262381916"><ele>402.0</ele><time>2026-04-04T15:02:39Z</time></trkpt><trkpt lat="44.60261790041948" lon="10.45982741561326"><ele>402.0</ele><time>2026-04-04T15:02:40Z</time></trkpt><trkpt lat="44.60255313120383" lon="10.459749044148401"><ele>400.6</ele><time>2026-04-04T15:02:41Z</time></trkpt><trkpt lat="44.602479475338534" lon="10.459653667230699"><ele>399.20000000000005</ele><time>2026-04-04T15:02:42Z</time></trkpt><trkpt lat="44.60242094548756" lon="10.459549620853892"><ele>397.8</ele><time>2026-04-04T15:02:43Z</time></trkpt><trkpt lat="44.602356477730126" lon="10.459464763038106"><ele>396.4</ele><time>2026-04-04T15:02:44Z</time></trkpt><trkpt lat="44.60225485995491" lon="10.459384125487649"><ele>395.0</ele><time>2026-04-04T15:02:45Z</time></trkpt><trkpt lat="44.60216373764759" lon="10.459291462157518"><ele>395.0</ele><time>2026-04-04T15:02:46Z</time></trkpt><trkpt lat="44.6020761060384" lon="10.459202432570699"><ele>395.0</ele><time>2026-04-04T15:02:47Z</time></trkpt><trkpt lat="44.60196308124908" lon="10.459130934701886"><ele>395.0</ele><time>2026-04-04T15:02:48Z</time></trkpt><trkpt lat="44.60181657905071" lon="10.459097638076859"><ele>395.0</ele><time>2026-04-04T15:02:49Z</time></trkpt><trkpt lat="44.60164838891563" lon="10.459087588782904"><ele>396.5</ele><time>2026-04-04T15:02:50Z</time></trkpt><trkpt lat="44.6015069125297" lon="10.459101187836604"><ele>398.0</ele><time>2026-04-04T15:02:51Z</time></trkpt><trkpt lat="44.60141289399683" lon="10.459133985388952"><ele>399.5</ele><time>2026-04-04T15:02:52Z</time></trkpt><trkpt lat="44.60130282724649" lon="10.459132581248005"><ele>401.0</ele><time>2026-04-04T15:02:53Z</time></trkpt><trkpt lat="44.60120303869578" lon="10.459087170412285"><ele>404.3333333333333</ele><time>2026-04-04T15:02:54Z</time></trkpt><trkpt lat="44.60106712990438" lon="10.458979335145957"><ele>407.66666666666663</ele><time>2026-04-04T15:02:55Z</time></trkpt><trkpt lat="44.60091705436829" lon="10.458899992913175"><ele>411.0</ele><time>2026-04-04T15:02:56Z</time></trkpt><trkpt lat="44.600740558654095" lon="10.45886366642766"><ele>411.0</ele><time>2026-04-04T15:02:57Z</time></trkpt><trkpt lat="44.60059124447893" lon="10.458864483456848"><ele>411.0</ele><time>2026-04-04T15:02:58Z</time></trkpt><trkpt lat="44.60044986281691" lon="10.458869538010793"><ele>411.0</ele><time>2026-04-04T15:02:59Z</time></trkpt><trkpt lat="44.60031658890635" lon="10.458880848775474"><ele>411.0</ele><time>2026-04-04T15:03:00Z</time></trkpt><trkpt lat="44.600207413477605" lon="10.458898566933161"><ele>413.6</ele><time>2026-04-04T15:03:01Z</time></trkpt><trkpt lat="44.60008841410446" lon="10.458913666659319"><ele>416.20000000000005</ele><time>2026-04-04T15:03:02Z</time></trkpt><trkpt lat="44.59997052235613" lon="10.458934492805675"><ele>418.79999999999995</ele><time>2026-04-04T15:03:03Z</time></trkpt><trkpt lat="44.59985928777538" lon="10.458941159397432"><ele>421.4</ele><time>2026-04-04T15:03:04Z</time></trkpt><trkpt lat="44.599763821894825" lon="10.45891423377928"><ele>424.0</ele><time>2026-04-04T15:03:05Z</time></trkpt><trkpt lat="44.59967956968093" lon="10.458869438539706"><ele>424.79999999999995</ele><time>2026-04-04T15:03:06Z</time></trkpt><trkpt lat="44.59957338570985" lon="10.458781933122918"><ele>425.59999999999997</ele><time>2026-04-04T15:03:07Z</time></trkpt><trkpt lat="44.59947505870426" lon="10.458673910738687"><ele>426.4</ele><time>2026-04-04T15:03:08Z</time></trkpt><trkpt lat="44.599402516759234" lon="10.458575153934262"><ele>427.2</ele><time>2026-04-04T15:03:09Z</time></trkpt><trkpt lat="44.59933983447198" lon="10.458497651885613"><ele>428.0</ele><time>2026-04-04T15:03:10Z</time></trkpt><trkpt lat="44.59927702967325" lon="10.45841319020115"><ele>430.59999999999997</ele><time>2026-04-04T15:03:11Z</time></trkpt><trkpt lat="44.59920027393943" lon="10.458336702488339"><ele>433.19999999999993</ele><time>2026-04-04T15:03:12Z</time></trkpt><trkpt lat="44.59910786057822" lon="10.458267568570495"><ele>435.8</ele><time>2026-04-04T15:03:13Z</time></trkpt><trkpt lat="44.59900271770409" lon="10.458209212825226"><ele>438.4</ele><time>2026-04-04T15:03:14Z</time></trkpt><trkpt lat="44.59888295781241" lon="10.458152213434087"><ele>441.0</ele><time>2026-04-04T15:03:15Z</time></trkpt><trkpt lat="44.59875363509337" lon="10.458084763111161"><ele>441.6</ele><time>2026-04-04T15:03:16Z</time></trkpt><trkpt lat="44.59865953351929" lon="10.45802855924634"><ele>442.20000000000005</ele><time>2026-04-04T15:03:17Z</time></trkpt><trkpt lat="44.598572826144185" lon="10.457974973527076"><ele>442.79999999999995</ele><time>2026-04-04T15:03:18Z</time></trkpt><trkpt lat="44.59847757323693" lon="10.457921926458187"><ele>443.4</ele><time>2026-04-04T15:03:19Z</time></trkpt><trkpt lat="44.59837373832549" lon="10.457860576959938"><ele>444.0</ele><time>2026-04-04T15:03:20Z</time></trkpt><trkpt lat="44.59827123153795" lon="10.457798488871292"><ele>444.5</ele><time>2026-04-04T15:03:21Z</time></trkpt><trkpt lat="44.59818403429569" lon="10.457730578156225"><ele>445.0</ele><time>2026-04-04T15:03:22Z</time></trkpt><trkpt lat="44.598108440540074" lon="10.457665350807137"><ele>445.5</ele><time>2026-04-04T15:03:23Z</time></trkpt><trkpt lat="44.598053420440905" lon="10.457597071066788"><ele>446.0</ele><time>2026-04-04T15:03:24Z</time></trkpt><trkpt lat="44.59800267942516" lon="10.457516780040788"><ele>446.5</ele><time>2026-04-04T15:03:25Z</time></trkpt><trkpt lat="44.59793860060147" lon="10.45742682333819"><ele>447.0</ele><time>2026-04-04T15:03:26Z</time></trkpt><trkpt lat="44.59785346993654" lon="10.457379724474297"><ele>447.75</ele><time>2026-04-04T15:03:27Z</time></trkpt><trkpt lat="44.59773450916544" lon="10.45734423137786"><ele>448.5</ele><time>2026-04-04T15:03:28Z</time></trkpt><trkpt lat="44.59761523417771" lon="10.457310971760117"><ele>449.25</ele><time>2026-04-04T15:03:29Z</time></trkpt><trkpt lat="44.59751751282978" lon="10.4572594697951"><ele>450.0</ele><time>2026-04-04T15:03:30Z</time></trkpt><trkpt lat="44.59741696846474" lon="10.457195870127332"><ele>450.0</ele><time>2026-04-04T15:03:31Z</time></trkpt><trkpt lat="44.597316811170806" lon="10.457143547866345"><ele>450.0</ele><time>2026-04-04T15:03:32Z</time></trkpt><trkpt lat="44.597213093044346" lon="10.457091057998841"><ele>450.0</ele><time>2026-04-04T15:03:33Z</time></trkpt><trkpt lat="44.59711248068713" lon="10.457036282758631"><ele>450.0</ele><time>2026-04-04T15:03:34Z</time></trkpt><trkpt lat="44.59701376105011" lon="10.45698039918132"><ele>450.0</ele><time>2026-04-04T15:03:35Z</time></trkpt><trkpt lat="44.59691022328777" lon="10.45694071928894"><ele>448.6</ele><time>2026-04-04T15:03:36Z</time></trkpt><trkpt lat="44.596805205656274" lon="10.456911375976338"><ele>447.2</ele><time>2026-04-04T15:03:37Z</time></trkpt><trkpt lat="44.59669873492357" lon="10.456905539006984"><ele>445.79999999999995</ele><time>2026-04-04T15:03:38Z</time></trkpt><trkpt lat="44.5965897175576" lon="10.45692256932232"><ele>444.4</ele><time>2026-04-04T15:03:39Z</time></trkpt><trkpt lat="44.59648858690972" lon="10.45691953967393"><ele>443.0</ele><time>2026-04-04T15:03:40Z</time></trkpt><trkpt lat="44.59638498479421" lon="10.456890609207516"><ele>443.0</ele><time>2026-04-04T15:03:41Z</time></trkpt><trkpt lat="44.59627779330867" lon="10.456844521403287"><ele>443.0</ele><time>2026-04-04T15:03:42Z</time></trkpt><trkpt lat="44.5961637859683" lon="10.45678990066401"><ele>443.0</ele><time>2026-04-04T15:03:43Z</time></trkpt><trkpt lat="44.59604520280091" lon="10.456734393366558"><ele>443.0</ele><time>2026-04-04T15:03:44Z</time></trkpt><trkpt lat="44.59591670797576" lon="10.456683955933219"><ele>444.25</ele><time>2026-04-04T15:03:45Z</time></trkpt><trkpt lat="44.5957845423775" lon="10.456631791365995"><ele>445.5</ele><time>2026-04-04T15:03:46Z</time></trkpt><trkpt lat="44.59564452415051" lon="10.456574132152028"><ele>446.75</ele><time>2026-04-04T15:03:47Z</time></trkpt><trkpt lat="44.595490880824094" lon="10.456516848028876"><ele>448.0</ele><time>2026-04-04T15:03:48Z</time></trkpt><trkpt lat="44.59533978829882" lon="10.456469240101557"><ele>450.5</ele><time>2026-04-04T15:03:49Z</time></trkpt><trkpt lat="44.59520770052156" lon="10.456427610256524"><ele>453.0</ele><time>2026-04-04T15:03:50Z</time></trkpt><trkpt lat="44.59507504788805" lon="10.456384431069193"><ele>455.5</ele><time>2026-04-04T15:03:51Z</time></trkpt><trkpt lat="44.59494900401455" lon="10.45634378064143"><ele>458.0</ele><time>2026-04-04T15:03:52Z</time></trkpt><trkpt lat="44.594819956513774" lon="10.456306091060508"><ele>456.5</ele><time>2026-04-04T15:03:53Z</time></trkpt><trkpt lat="44.594690955682836" lon="10.456282299972976"><ele>455.0</ele><time>2026-04-04T15:03:54Z</time></trkpt><trkpt lat="44.59456062399122" lon="10.456284753119602"><ele>453.5</ele><time>2026-04-04T15:03:55Z</time></trkpt><trkpt lat="44.59444191454128" lon="10.456316719663615"><ele>452.0</ele><time>2026-04-04T15:03:56Z</time></trkpt><trkpt lat="44.59432626079804" lon="10.45636458489102"><ele>456.0</ele><time>2026-04-04T15:03:57Z</time></trkpt><trkpt lat="44.594204019340346" lon="10.456398365756339"><ele>460.0</ele><time>2026-04-04T15:03:58Z</time></trkpt><trkpt lat="44.59406505568319" lon="10.456408624421664"><ele>464.0</ele><time>2026-04-04T15:03:59Z</time></trkpt><trkpt lat="44.59392378819255" lon="10.456414068877226"><ele>468.0</ele><time>2026-04-04T15:04:00Z</time></trkpt><trkpt lat="44.59379063024179" lon="10.456423757047041"><ele>471.25</ele><time>2026-04-04T15:04:01Z</time></trkpt><trkpt lat="44.59365556389298" lon="10.456445620093627"><ele>474.5</ele><time>2026-04-04T15:04:02Z</time></trkpt><trkpt lat="44.59351673891437" lon="10.45646335920506"><ele>477.75</ele><time>2026-04-04T15:04:03Z</time></trkpt><trkpt lat="44.5933767094613" lon="10.456469901008617"><ele>481.0</ele><time>2026-04-04T15:04:04Z</time></trkpt><trkpt lat="44.5932557281874" lon="10.456469787143952"><ele>481.0</ele><time>2026-04-04T15:04:05Z</time></trkpt><trkpt lat="44.593143020300374" lon="10.456469782877637"><ele>481.0</ele><time>2026-04-04T15:04:06Z</time></trkpt><trkpt lat="44.593047429085956" lon="10.456467939381628"><ele>481.0</ele><time>2026-04-04T15:04:07Z</time></trkpt><trkpt lat="44.592960224495855" lon="10.456466604882614"><ele>481.0</ele><time>2026-04-04T15:04:08Z</time></trkpt><trkpt lat="44.59286856801176" lon="10.45645911370184"><ele>481.0</ele><time>2026-04-04T15:04:09Z</time></trkpt><trkpt lat="44.592767273574616" lon="10.456440570507736"><ele>481.25</ele><time>2026-04-04T15:04:10Z</time></trkpt><trkpt lat="44.59265893629762" lon="10.456410843450758"><ele>481.5</ele><time>2026-04-04T15:04:11Z</time></trkpt><trkpt lat="44.59254171384477" lon="10.45638495818799"><ele>481.75</ele><time>2026-04-04T15:04:12Z</time></trkpt><trkpt lat="44.59241596699869" lon="10.456370746513256"><ele>482.0</ele><time>2026-04-04T15:04:13Z</time></trkpt><trkpt lat="44.59228944071139" lon="10.456358432466075"><ele>482.0</ele><time>2026-04-04T15:04:14Z</time></trkpt><trkpt lat="44.5921665698424" lon="10.456349085746513"><ele>482.0</ele><time>2026-04-04T15:04:15Z</time></trkpt><trkpt lat="44.592052279116025" lon="10.456345002228936"><ele>482.0</ele><time>2026-04-04T15:04:16Z</time></trkpt><trkpt lat="44.591929665479114" lon="10.456341001290424"><ele>482.0</ele><time>2026-04-04T15:04:17Z</time></trkpt><trkpt lat="44.59180986686962" lon="10.456318216551239"><ele>484.3333333333333</ele><time>2026-04-04T15:04:18Z</time></trkpt><trkpt lat="44.59171276380228" lon="10.456282026429395"><ele>486.66666666666663</ele><time>2026-04-04T15:04:19Z</time></trkpt><trkpt lat="44.59163957915477" lon="10.456237903148216"><ele>489.0</ele><time>2026-04-04T15:04:20Z</time></trkpt><trkpt lat="44.59157758922738" lon="10.456169539552205"><ele>491.33333333333337</ele><time>2026-04-04T15:04:21Z</time></trkpt><trkpt lat="44.59152250272588" lon="10.456083436662997"><ele>493.6666666666667</ele><time>2026-04-04T15:04:22Z</time></trkpt><trkpt lat="44.591475581894926" lon="10.455988094010223"><ele>496.0</ele><time>2026-04-04T15:04:23Z</time></trkpt><trkpt lat="44.59143050053392" lon="10.45588017324066"><ele>496.0</ele><time>2026-04-04T15:04:24Z</time></trkpt><trkpt lat="44.59137632088428" lon="10.455772890986283"><ele>496.0</ele><time>2026-04-04T15:04:25Z</time></trkpt><trkpt lat="44.59130487815251" lon="10.455660583799881"><ele>496.0</ele><time>2026-04-04T15:04:26Z</time></trkpt><trkpt lat="44.59121895425194" lon="10.455555459528155"><ele>496.0</ele><time>2026-04-04T15:04:27Z</time></trkpt><trkpt lat="44.591114852134325" lon="10.455455434587007"><ele>496.0</ele><time>2026-04-04T15:04:28Z</time></trkpt><trkpt lat="44.590996289829775" lon="10.45536282615215"><ele>499.25</ele><time>2026-04-04T15:04:29Z</time></trkpt><trkpt lat="44.59087598171527" lon="10.455302367920313"><ele>502.5</ele><time>2026-04-04T15:04:30Z</time></trkpt><trkpt lat="44.590761395466544" lon="10.455272653373443"><ele>505.75</ele><time>2026-04-04T15:04:31Z</time></trkpt><trkpt lat="44.59065037876786" lon="10.455207940817427"><ele>509.0</ele><time>2026-04-04T15:04:32Z</time></trkpt><trkpt lat="44.590536288811485" lon="10.455195086362053"><ele>509.0</ele><time>2026-04-04T15:04:33Z</time></trkpt><trkpt lat="44.59042795940843" lon="10.45515996441796"><ele>509.0</ele><time>2026-04-04T15:04:34Z</time></trkpt><trkpt lat="44.59031880732801" lon="10.45511468775264"><ele>509.0</ele><time>2026-04-04T15:04:35Z</time></trkpt><trkpt lat="44.59020975986224" lon="10.45506846183869"><ele>509.0</ele><time>2026-04-04T15:04:36Z</time></trkpt><trkpt lat="44.59010403902108" lon="10.455025802542659"><ele>509.0</ele><time>2026-04-04T15:04:37Z</time></trkpt><trkpt lat="44.59000990403825" lon="10.45498777736009"><ele>509.66666666666663</ele><time>2026-04-04T15:04:38Z</time></trkpt><trkpt lat="44.589937794194796" lon="10.454963806925145"><ele>510.3333333333333</ele><time>2026-04-04T15:04:39Z</time></trkpt><trkpt lat="44.58984671243435" lon="10.454928079115009"><ele>511.0</ele><time>2026-04-04T15:04:41Z</time></trkpt><trkpt lat="44.589786645086306" lon="10.45488745919697"><ele>511.66666666666663</ele><time>2026-04-04T15:04:47Z</time></trkpt><trkpt lat="44.589706624314985" lon="10.454822989788507"><ele>512.3333333333334</ele><time>2026-04-04T15:04:49Z</time></trkpt><trkpt lat="44.58963064377833" lon="10.454787292829659"><ele>513.0</ele><time>2026-04-04T15:04:51Z</time></trkpt><trkpt lat="44.58956953016669" lon="10.454634150657835"><ele>512.6</ele><time>2026-04-04T15:04:53Z</time></trkpt><trkpt lat="44.58954510211938" lon="10.45452910798877"><ele>512.1999999999999</ele><time>2026-04-04T15:04:54Z</time></trkpt><trkpt lat="44.58951597625493" lon="10.45440636268109"><ele>511.8</ele><time>2026-04-04T15:04:55Z</time></trkpt><trkpt lat="44.58946940669599" lon="10.454266605575599"><ele>511.4</ele><time>2026-04-04T15:04:56Z</time></trkpt><trkpt lat="44.58941048626073" lon="10.454124267778765"><ele>511.0</ele><time>2026-04-04T15:04:57Z</time></trkpt><trkpt lat="44.5893469894438" lon="10.453971410581753"><ele>511.0</ele><time>2026-04-04T15:04:58Z</time></trkpt><trkpt lat="44.58928456080937" lon="10.453818339108711"><ele>511.0</ele><time>2026-04-04T15:04:59Z</time></trkpt><trkpt lat="44.58922442294617" lon="10.453684893030301"><ele>511.0</ele><time>2026-04-04T15:05:00Z</time></trkpt><trkpt lat="44.589176076077614" lon="10.453566918049745"><ele>511.0</ele><time>2026-04-04T15:05:01Z</time></trkpt><trkpt lat="44.58912923756563" lon="10.45345101152376"><ele>511.0</ele><time>2026-04-04T15:05:02Z</time></trkpt><trkpt lat="44.589091572874075" lon="10.453335040356409"><ele>511.50000000000006</ele><time>2026-04-04T15:05:03Z</time></trkpt><trkpt lat="44.58906007989721" lon="10.453233478012017"><ele>512.0</ele><time>2026-04-04T15:05:04Z</time></trkpt><trkpt lat="44.58903686753018" lon="10.453142393961988"><ele>512.5</ele><time>2026-04-04T15:05:05Z</time></trkpt><trkpt lat="44.5890131182096" lon="10.453039632205252"><ele>513.0</ele><time>2026-04-04T15:05:06Z</time></trkpt><trkpt lat="44.58898458624982" lon="10.452931932488497"><ele>513.5</ele><time>2026-04-04T15:05:07Z</time></trkpt><trkpt lat="44.58894934370695" lon="10.452808580451546"><ele>514.0</ele><time>2026-04-04T15:05:08Z</time></trkpt><trkpt lat="44.58890470176744" lon="10.452695340019607"><ele>514.3333333333334</ele><time>2026-04-04T15:05:09Z</time></trkpt><trkpt lat="44.58884920427754" lon="10.452603317226432"><ele>514.6666666666667</ele><time>2026-04-04T15:05:10Z</time></trkpt><trkpt lat="44.588789718892215" lon="10.452518109081412"><ele>515.0</ele><time>2026-04-04T15:05:11Z</time></trkpt><trkpt lat="44.588730694349806" lon="10.452430556139635"><ele>515.3333333333334</ele><time>2026-04-04T15:05:12Z</time></trkpt><trkpt lat="44.58867859081653" lon="10.452347451767983"><ele>515.6666666666666</ele><time>2026-04-04T15:05:13Z</time></trkpt><trkpt lat="44.588630944029035" lon="10.452264170295742"><ele>516.0</ele><time>2026-04-04T15:05:14Z</time></trkpt><trkpt lat="44.588588661131986" lon="10.452175252361144"><ele>513.6666666666666</ele><time>2026-04-04T15:05:15Z</time></trkpt><trkpt lat="44.58854726399855" lon="10.45208921708193"><ele>511.33333333333337</ele><time>2026-04-04T15:05:16Z</time></trkpt><trkpt lat="44.58850624132112" lon="10.452004155229433"><ele>509.0</ele><time>2026-04-04T15:05:17Z</time></trkpt><trkpt lat="44.58847148316352" lon="10.4519183869947"><ele>506.6666666666667</ele><time>2026-04-04T15:05:18Z</time></trkpt><trkpt lat="44.58844561301008" lon="10.45182975928285"><ele>504.33333333333337</ele><time>2026-04-04T15:05:19Z</time></trkpt><trkpt lat="44.58843182600469" lon="10.451742909109118"><ele>502.0</ele><time>2026-04-04T15:05:20Z</time></trkpt><trkpt lat="44.58838777758661" lon="10.451591581815162"><ele>502.00000000000006</ele><time>2026-04-04T15:05:22Z</time></trkpt><trkpt lat="44.58836062622098" lon="10.45149386025161"><ele>502.0</ele><time>2026-04-04T15:05:23Z</time></trkpt><trkpt lat="44.58831602313885" lon="10.45141911097999"><ele>502.0</ele><time>2026-04-04T15:05:24Z</time></trkpt><trkpt lat="44.58822665546743" lon="10.45134824572924"><ele>502.0</ele><time>2026-04-04T15:05:26Z</time></trkpt><trkpt lat="44.58817541741805" lon="10.451240206220366"><ele>502.00000000000006</ele><time>2026-04-04T15:05:28Z</time></trkpt><trkpt lat="44.588162422534594" lon="10.451146061555509"><ele>502.0</ele><time>2026-04-04T15:05:29Z</time></trkpt><trkpt lat="44.58815520437749" lon="10.451042657808859"><ele>501.6666666666667</ele><time>2026-04-04T15:05:30Z</time></trkpt><trkpt lat="44.588165390527344" lon="10.450932039997916"><ele>501.33333333333337</ele><time>2026-04-04T15:05:31Z</time></trkpt><trkpt lat="44.588175493163234" lon="10.450815105110317"><ele>501.0</ele><time>2026-04-04T15:05:32Z</time></trkpt><trkpt lat="44.58816193755888" lon="10.450712387885716"><ele>500.66666666666663</ele><time>2026-04-04T15:05:33Z</time></trkpt><trkpt lat="44.58815955700789" lon="10.450611029642479"><ele>500.3333333333333</ele><time>2026-04-04T15:05:34Z</time></trkpt><trkpt lat="44.58815825591234" lon="10.450486989204652"><ele>500.0</ele><time>2026-04-04T15:05:35Z</time></trkpt><trkpt lat="44.58806309477021" lon="10.450365701035215"><ele>499.49999999999994</ele><time>2026-04-04T15:05:36Z</time></trkpt><trkpt lat="44.58804236878969" lon="10.450241257547146"><ele>499.0</ele><time>2026-04-04T15:05:37Z</time></trkpt><trkpt lat="44.588029451068046" lon="10.450123514783185"><ele>498.5</ele><time>2026-04-04T15:05:38Z</time></trkpt><trkpt lat="44.5880140387871" lon="10.450015058532067"><ele>498.0</ele><time>2026-04-04T15:05:39Z</time></trkpt><trkpt lat="44.58801416369759" lon="10.449904491752552"><ele>497.49999999999994</ele><time>2026-04-04T15:05:40Z</time></trkpt><trkpt lat="44.588048906951634" lon="10.449799697647403"><ele>497.0</ele><time>2026-04-04T15:05:41Z</time></trkpt><trkpt lat="44.5880789398811" lon="10.449704895030631"><ele>494.66666666666663</ele><time>2026-04-04T15:05:42Z</time></trkpt><trkpt lat="44.588075623166944" lon="10.449598346393696"><ele>492.3333333333333</ele><time>2026-04-04T15:05:43Z</time></trkpt><trkpt lat="44.58806976540055" lon="10.449492596583742"><ele>490.0</ele><time>2026-04-04T15:05:44Z</time></trkpt><trkpt lat="44.58806386455199" lon="10.44939120162295"><ele>487.66666666666663</ele><time>2026-04-04T15:05:45Z</time></trkpt><trkpt lat="44.58806020837874" lon="10.449219398534503"><ele>485.3333333333333</ele><time>2026-04-04T15:05:47Z</time></trkpt><trkpt lat="44.588102330771896" lon="10.449101214795617"><ele>483.0</ele><time>2026-04-04T15:05:49Z</time></trkpt><trkpt lat="44.58817659854185" lon="10.448975767592337"><ele>483.0</ele><time>2026-04-04T15:05:51Z</time></trkpt><trkpt lat="44.58821760539569" lon="10.44884290577851"><ele>483.0</ele><time>2026-04-04T15:05:53Z</time></trkpt><trkpt lat="44.58816123385348" lon="10.448782864116914"><ele>483.0</ele><time>2026-04-04T15:05:55Z</time></trkpt><trkpt lat="44.58811449065408" lon="10.448675670561679"><ele>483.0</ele><time>2026-04-04T15:05:57Z</time></trkpt><trkpt lat="44.588157775484156" lon="10.448584053836775"><ele>483.0</ele><time>2026-04-04T15:06:00Z</time></trkpt><trkpt lat="44.58824004277122" lon="10.44856347170388"><ele>483.0</ele><time>2026-04-04T15:06:04Z</time></trkpt><trkpt lat="44.588337345328625" lon="10.44855085443572"><ele>478.6666666666667</ele><time>2026-04-04T15:06:06Z</time></trkpt><trkpt lat="44.5884118327447" lon="10.448486759686027"><ele>474.33333333333337</ele><time>2026-04-04T15:06:08Z</time></trkpt><trkpt lat="44.58844638145633" lon="10.448394987984083"><ele>470.0</ele><time>2026-04-04T15:06:10Z</time></trkpt><trkpt lat="44.588531022682915" lon="10.448410702653163"><ele>465.6666666666667</ele><time>2026-04-04T15:06:12Z</time></trkpt><trkpt lat="44.58858864254414" lon="10.448342807039717"><ele>461.33333333333337</ele><time>2026-04-04T15:06:14Z</time></trkpt><trkpt lat="44.58868032858184" lon="10.448263616711731"><ele>457.0</ele><time>2026-04-04T15:06:16Z</time></trkpt><trkpt lat="44.58875054000007" lon="10.44823957659246"><ele>455.25</ele><time>2026-04-04T15:06:19Z</time></trkpt><trkpt lat="44.58878680613336" lon="10.44814666924118"><ele>453.5</ele><time>2026-04-04T15:06:22Z</time></trkpt><trkpt lat="44.58879702381044" lon="10.448044781043617"><ele>451.75</ele><time>2026-04-04T15:06:25Z</time></trkpt><trkpt lat="44.58889715740717" lon="10.447799906051905"><ele>450.0</ele><time>2026-04-04T15:06:27Z</time></trkpt><trkpt lat="44.588902310402915" lon="10.447627841910883"><ele>447.8</ele><time>2026-04-04T15:06:29Z</time></trkpt><trkpt lat="44.588925299184005" lon="10.447516431431993"><ele>445.6</ele><time>2026-04-04T15:06:30Z</time></trkpt><trkpt lat="44.58895386254206" lon="10.447383813995284"><ele>443.4</ele><time>2026-04-04T15:06:31Z</time></trkpt><trkpt lat="44.58900157922569" lon="10.447214416385744"><ele>441.2</ele><time>2026-04-04T15:06:32Z</time></trkpt><trkpt lat="44.58903204393484" lon="10.447037219375115"><ele>439.0</ele><time>2026-04-04T15:06:33Z</time></trkpt><trkpt lat="44.58905786431472" lon="10.44686372480334"><ele>438.5</ele><time>2026-04-04T15:06:34Z</time></trkpt><trkpt lat="44.589048265396286" lon="10.44668846084392"><ele>438.0</ele><time>2026-04-04T15:06:35Z</time></trkpt><trkpt lat="44.58903702602555" lon="10.446507017267031"><ele>437.5</ele><time>2026-04-04T15:06:36Z</time></trkpt><trkpt lat="44.58899521070299" lon="10.446328237420143"><ele>437.0</ele><time>2026-04-04T15:06:37Z</time></trkpt><trkpt lat="44.58898142507096" lon="10.446181879935352"><ele>436.8</ele><time>2026-04-04T15:06:38Z</time></trkpt><trkpt lat="44.58896095381084" lon="10.446049561550101"><ele>436.6</ele><time>2026-04-04T15:06:39Z</time></trkpt><trkpt lat="44.588952563910645" lon="10.445939660240564"><ele>436.40000000000003</ele><time>2026-04-04T15:06:40Z</time></trkpt><trkpt lat="44.58897099572058" lon="10.445794746879042"><ele>436.20000000000005</ele><time>2026-04-04T15:06:42Z</time></trkpt><trkpt lat="44.58899208754348" lon="10.445641067873579"><ele>436.0</ele><time>2026-04-04T15:06:44Z</time></trkpt><trkpt lat="44.58901705256869" lon="10.445557054922887"><ele>433.6</ele><time>2026-04-04T15:06:45Z</time></trkpt><trkpt lat="44.58906128836123" lon="10.445452112994213"><ele>431.20000000000005</ele><time>2026-04-04T15:06:47Z</time></trkpt><trkpt lat="44.589058449291" lon="10.44534835965631"><ele>428.79999999999995</ele><time>2026-04-04T15:06:49Z</time></trkpt><trkpt lat="44.58922666674136" lon="10.445308091702833"><ele>426.4</ele><time>2026-04-04T15:06:53Z</time></trkpt><trkpt lat="44.58930312161149" lon="10.44532697621425"><ele>424.0</ele><time>2026-04-04T15:06:54Z</time></trkpt><trkpt lat="44.58938603162656" lon="10.445321725494454"><ele>424.0</ele><time>2026-04-04T15:06:55Z</time></trkpt><trkpt lat="44.589456929370904" lon="10.445331666663932"><ele>424.0</ele><time>2026-04-04T15:06:56Z</time></trkpt><trkpt lat="44.58952505020447" lon="10.44534370740731"><ele>424.0</ele><time>2026-04-04T15:06:57Z</time></trkpt><trkpt lat="44.58962485436264" lon="10.445341342770103"><ele>424.0</ele><time>2026-04-04T15:06:59Z</time></trkpt><trkpt lat="44.58974368399173" lon="10.445319458452964"><ele>424.0</ele><time>2026-04-04T15:07:01Z</time></trkpt><trkpt lat="44.58978884649494" lon="10.44516445459419"><ele>426.00000000000006</ele><time>2026-04-04T15:07:03Z</time></trkpt><trkpt lat="44.589771881129515" lon="10.445025694405395"><ele>428.0</ele><time>2026-04-04T15:07:05Z</time></trkpt><trkpt lat="44.589718260256326" lon="10.444973932563316"><ele>430.0</ele><time>2026-04-04T15:07:07Z</time></trkpt><trkpt lat="44.5896407997272" lon="10.444867441396068"><ele>432.0</ele><time>2026-04-04T15:07:09Z</time></trkpt><trkpt lat="44.589593832833636" lon="10.44479051505387"><ele>434.00000000000006</ele><time>2026-04-04T15:07:10Z</time></trkpt><trkpt lat="44.589559691955024" lon="10.444698045918662"><ele>436.0</ele><time>2026-04-04T15:07:11Z</time></trkpt><trkpt lat="44.58952029251993" lon="10.444553968651798"><ele>436.0</ele><time>2026-04-04T15:07:13Z</time></trkpt><trkpt lat="44.58948500701069" lon="10.44441379380404"><ele>436.0</ele><time>2026-04-04T15:07:15Z</time></trkpt><trkpt lat="44.58948706584373" lon="10.444240214011389"><ele>436.0</ele><time>2026-04-04T15:07:17Z</time></trkpt><trkpt lat="44.589526588233994" lon="10.444143895660085"><ele>436.0</ele><time>2026-04-04T15:07:19Z</time></trkpt><trkpt lat="44.58953454958073" lon="10.444040100420182"><ele>436.0</ele><time>2026-04-04T15:07:21Z</time></trkpt><trkpt lat="44.589558915210645" lon="10.443940085424025"><ele>436.0</ele><time>2026-04-04T15:07:23Z</time></trkpt><trkpt lat="44.589569551304464" lon="10.443799823957702"><ele>436.0</ele><time>2026-04-04T15:07:26Z</time></trkpt><trkpt lat="44.58964756928876" lon="10.443712691824082"><ele>436.0</ele><time>2026-04-04T15:07:27Z</time></trkpt><trkpt lat="44.5897188177307" lon="10.443626790690285"><ele>436.0</ele><time>2026-04-04T15:07:28Z</time></trkpt><trkpt lat="44.58978276797919" lon="10.443520996030182"><ele>436.0</ele><time>2026-04-04T15:07:30Z</time></trkpt><trkpt lat="44.58988005072056" lon="10.443441305116865"><ele>430.0</ele><time>2026-04-04T15:07:32Z</time></trkpt><trkpt lat="44.58997678192717" lon="10.443408433989193"><ele>424.0</ele><time>2026-04-04T15:07:34Z</time></trkpt><trkpt lat="44.59004480237215" lon="10.44333713527803"><ele>418.0</ele><time>2026-04-04T15:07:36Z</time></trkpt><trkpt lat="44.5901116254617" lon="10.443215308682309"><ele>412.0</ele><time>2026-04-04T15:07:38Z</time></trkpt><trkpt lat="44.590201442288574" lon="10.443152300471697"><ele>406.0</ele><time>2026-04-04T15:07:40Z</time></trkpt><trkpt lat="44.590299270269036" lon="10.443055188663342"><ele>407.8</ele><time>2026-04-04T15:07:42Z</time></trkpt><trkpt lat="44.590341533643326" lon="10.442983820010019"><ele>409.6</ele><time>2026-04-04T15:07:43Z</time></trkpt><trkpt lat="44.59045860646834" lon="10.442890140324975"><ele>411.4</ele><time>2026-04-04T15:07:45Z</time></trkpt><trkpt lat="44.590529252305046" lon="10.442826104129537"><ele>413.2</ele><time>2026-04-04T15:07:46Z</time></trkpt><trkpt lat="44.59060864862817" lon="10.442795187260211"><ele>415.0</ele><time>2026-04-04T15:07:47Z</time></trkpt><trkpt lat="44.59070030753042" lon="10.442768886770997"><ele>409.2</ele><time>2026-04-04T15:07:48Z</time></trkpt><trkpt lat="44.590801934895566" lon="10.442727106712912"><ele>403.4</ele><time>2026-04-04T15:07:49Z</time></trkpt><trkpt lat="44.59090533344493" lon="10.442694405441996"><ele>397.6</ele><time>2026-04-04T15:07:50Z</time></trkpt><trkpt lat="44.5910190094538" lon="10.442688363932843"><ele>391.8</ele><time>2026-04-04T15:07:51Z</time></trkpt><trkpt lat="44.59112954831452" lon="10.44271176741467"><ele>386.0</ele><time>2026-04-04T15:07:52Z</time></trkpt><trkpt lat="44.59120827887449" lon="10.442723099571166"><ele>386.0</ele><time>2026-04-04T15:07:53Z</time></trkpt><trkpt lat="44.591296604024954" lon="10.442740750897622"><ele>386.0</ele><time>2026-04-04T15:07:54Z</time></trkpt><trkpt lat="44.591387102767165" lon="10.442757214122299"><ele>386.0</ele><time>2026-04-04T15:07:55Z</time></trkpt><trkpt lat="44.591479011867285" lon="10.44276371848595"><ele>386.0</ele><time>2026-04-04T15:07:56Z</time></trkpt><trkpt lat="44.591577347607895" lon="10.442766541216454"><ele>386.0</ele><time>2026-04-04T15:07:57Z</time></trkpt><trkpt lat="44.59169040169215" lon="10.442793306220768"><ele>386.0</ele><time>2026-04-04T15:07:58Z</time></trkpt><trkpt lat="44.59181166226866" lon="10.442809718556145"><ele>386.0</ele><time>2026-04-04T15:07:59Z</time></trkpt><trkpt lat="44.591918078952766" lon="10.442831970977714"><ele>386.0</ele><time>2026-04-04T15:08:00Z</time></trkpt><trkpt lat="44.592032573663936" lon="10.442886412243336"><ele>386.0</ele><time>2026-04-04T15:08:01Z</time></trkpt><trkpt lat="44.592149747208225" lon="10.442935931143037"><ele>390.0</ele><time>2026-04-04T15:08:02Z</time></trkpt><trkpt lat="44.592268023294984" lon="10.442977440715978"><ele>394.0</ele><time>2026-04-04T15:08:03Z</time></trkpt><trkpt lat="44.59238846068761" lon="10.443003369578074"><ele>398.0</ele><time>2026-04-04T15:08:04Z</time></trkpt><trkpt lat="44.59251156109273" lon="10.443006863549934"><ele>402.0</ele><time>2026-04-04T15:08:05Z</time></trkpt><trkpt lat="44.59264177408433" lon="10.442993126937266"><ele>402.0</ele><time>2026-04-04T15:08:06Z</time></trkpt><trkpt lat="44.59277409362714" lon="10.44297806697769"><ele>402.0</ele><time>2026-04-04T15:08:07Z</time></trkpt><trkpt lat="44.59288497099985" lon="10.442976415616442"><ele>402.0</ele><time>2026-04-04T15:08:08Z</time></trkpt><trkpt lat="44.59297617944031" lon="10.442969597191782"><ele>402.0</ele><time>2026-04-04T15:08:09Z</time></trkpt><trkpt lat="44.59305075450248" lon="10.442958298267635"><ele>402.0</ele><time>2026-04-04T15:08:10Z</time></trkpt><trkpt lat="44.59311682604309" lon="10.442945291580086"><ele>399.8</ele><time>2026-04-04T15:08:11Z</time></trkpt><trkpt lat="44.593215990939925" lon="10.442922800912593"><ele>397.6</ele><time>2026-04-04T15:08:13Z</time></trkpt><trkpt lat="44.593274326073654" lon="10.442799759897422"><ele>395.40000000000003</ele><time>2026-04-04T15:08:15Z</time></trkpt><trkpt lat="44.593300086116365" lon="10.442684949786473"><ele>393.20000000000005</ele><time>2026-04-04T15:08:16Z</time></trkpt><trkpt lat="44.59333736854151" lon="10.44256384089554"><ele>391.0</ele><time>2026-04-04T15:08:17Z</time></trkpt><trkpt lat="44.59339785160288" lon="10.442441323727673"><ele>391.00000000000006</ele><time>2026-04-04T15:08:18Z</time></trkpt><trkpt lat="44.59346079080344" lon="10.442324581561575"><ele>391.0</ele><time>2026-04-04T15:08:19Z</time></trkpt><trkpt lat="44.59350907472296" lon="10.442220285164918"><ele>391.0</ele><time>2026-04-04T15:08:20Z</time></trkpt><trkpt lat="44.59355310834678" lon="10.442117727645567"><ele>391.0</ele><time>2026-04-04T15:08:21Z</time></trkpt><trkpt lat="44.59358919664892" lon="10.442008073286734"><ele>391.00000000000006</ele><time>2026-04-04T15:08:22Z</time></trkpt><trkpt lat="44.593618805146036" lon="10.441899953463217"><ele>391.0</ele><time>2026-04-04T15:08:23Z</time></trkpt><trkpt lat="44.593645643849214" lon="10.441775532908903"><ele>388.5</ele><time>2026-04-04T15:08:24Z</time></trkpt><trkpt lat="44.59365396273329" lon="10.44163610448867"><ele>386.0</ele><time>2026-04-04T15:08:25Z</time></trkpt><trkpt lat="44.59366377387704" lon="10.441479669442568"><ele>383.5</ele><time>2026-04-04T15:08:26Z</time></trkpt><trkpt lat="44.593705236438716" lon="10.441296653044114"><ele>381.0</ele><time>2026-04-04T15:08:27Z</time></trkpt><trkpt lat="44.59376544460278" lon="10.44111192203191"><ele>378.6</ele><time>2026-04-04T15:08:28Z</time></trkpt><trkpt lat="44.593818665624234" lon="10.440943707997972"><ele>376.20000000000005</ele><time>2026-04-04T15:08:29Z</time></trkpt><trkpt lat="44.593866864958926" lon="10.44080266683126"><ele>373.79999999999995</ele><time>2026-04-04T15:08:30Z</time></trkpt><trkpt lat="44.593918806189336" lon="10.440671167339902"><ele>371.4</ele><time>2026-04-04T15:08:31Z</time></trkpt><trkpt lat="44.593966356838116" lon="10.440552567327577"><ele>369.0</ele><time>2026-04-04T15:08:32Z</time></trkpt><trkpt lat="44.594001549716204" lon="10.440400804924261"><ele>366.5</ele><time>2026-04-04T15:08:33Z</time></trkpt><trkpt lat="44.59403266845609" lon="10.44023134270282"><ele>364.0</ele><time>2026-04-04T15:08:34Z</time></trkpt><trkpt lat="44.59406198604621" lon="10.440061535500444"><ele>361.5</ele><time>2026-04-04T15:08:35Z</time></trkpt><trkpt lat="44.59408334387519" lon="10.439900348157538"><ele>359.0</ele><time>2026-04-04T15:08:36Z</time></trkpt><trkpt lat="44.59410443151331" lon="10.439744325959053"><ele>358.0</ele><time>2026-04-04T15:08:37Z</time></trkpt><trkpt lat="44.594129564012206" lon="10.439587463901132"><ele>357.0</ele><time>2026-04-04T15:08:38Z</time></trkpt><trkpt lat="44.594151673239566" lon="10.439437541796554"><ele>356.0</ele><time>2026-04-04T15:08:39Z</time></trkpt><trkpt lat="44.594179038575845" lon="10.439301247461431"><ele>355.0</ele><time>2026-04-04T15:08:40Z</time></trkpt><trkpt lat="44.594211625726025" lon="10.439169703404254"><ele>354.0</ele><time>2026-04-04T15:08:41Z</time></trkpt><trkpt lat="44.59423561562034" lon="10.43906527139029"><ele>354.0</ele><time>2026-04-04T15:08:42Z</time></trkpt><trkpt lat="44.59421964998225" lon="10.438898893046282"><ele>354.0</ele><time>2026-04-04T15:08:44Z</time></trkpt><trkpt lat="44.5941631941224" lon="10.43879170504108"><ele>354.0</ele><time>2026-04-04T15:08:45Z</time></trkpt><trkpt lat="44.59409811036804" lon="10.438659261240021"><ele>354.0</ele><time>2026-04-04T15:08:46Z</time></trkpt><trkpt lat="44.594053941191405" lon="10.438526748285673"><ele>354.0</ele><time>2026-04-04T15:08:47Z</time></trkpt><trkpt lat="44.59402512365322" lon="10.438406429417403"><ele>352.4</ele><time>2026-04-04T15:08:48Z</time></trkpt><trkpt lat="44.59401278562932" lon="10.438280746709424"><ele>350.79999999999995</ele><time>2026-04-04T15:08:49Z</time></trkpt><trkpt lat="44.59402655058309" lon="10.438148700209766"><ele>349.20000000000005</ele><time>2026-04-04T15:08:50Z</time></trkpt><trkpt lat="44.59407620078912" lon="10.43801116148624"><ele>347.6</ele><time>2026-04-04T15:08:51Z</time></trkpt><trkpt lat="44.59414203648519" lon="10.437871159168699"><ele>346.0</ele><time>2026-04-04T15:08:52Z</time></trkpt><trkpt lat="44.59420866566447" lon="10.437743684272396"><ele>344.20000000000005</ele><time>2026-04-04T15:08:53Z</time></trkpt><trkpt lat="44.594259662077484" lon="10.437614561178158"><ele>342.40000000000003</ele><time>2026-04-04T15:08:54Z</time></trkpt><trkpt lat="44.5942966958237" lon="10.437492807101478"><ele>340.6</ele><time>2026-04-04T15:08:55Z</time></trkpt><trkpt lat="44.594314657693914" lon="10.43738534929489"><ele>338.8</ele><time>2026-04-04T15:08:56Z</time></trkpt><trkpt lat="44.59430193793491" lon="10.437258996303244"><ele>337.0</ele><time>2026-04-04T15:08:57Z</time></trkpt><trkpt lat="44.594273206227506" lon="10.437105575493097"><ele>337.0</ele><time>2026-04-04T15:08:58Z</time></trkpt><trkpt lat="44.59425601411752" lon="10.436907542402803"><ele>337.0</ele><time>2026-04-04T15:08:59Z</time></trkpt><trkpt lat="44.594252193054686" lon="10.436679049406823"><ele>337.0</ele><time>2026-04-04T15:09:00Z</time></trkpt><trkpt lat="44.59423672568017" lon="10.436491573893413"><ele>337.0</ele><time>2026-04-04T15:09:01Z</time></trkpt><trkpt lat="44.59420739805608" lon="10.436357322935994"><ele>336.6</ele><time>2026-04-04T15:09:02Z</time></trkpt><trkpt lat="44.59417194403928" lon="10.436214795957953"><ele>336.20000000000005</ele><time>2026-04-04T15:09:03Z</time></trkpt><trkpt lat="44.59413490424446" lon="10.436063043883372"><ele>335.8</ele><time>2026-04-04T15:09:04Z</time></trkpt><trkpt lat="44.594095867943324" lon="10.435927740511532"><ele>335.4</ele><time>2026-04-04T15:09:05Z</time></trkpt><trkpt lat="44.59405733752924" lon="10.435788899614161"><ele>335.0</ele><time>2026-04-04T15:09:06Z</time></trkpt><trkpt lat="44.59401254909005" lon="10.435650796351219"><ele>335.0</ele><time>2026-04-04T15:09:07Z</time></trkpt><trkpt lat="44.59397007828353" lon="10.435533960340026"><ele>335.0</ele><time>2026-04-04T15:09:08Z</time></trkpt><trkpt lat="44.59393729354089" lon="10.435420936183718"><ele>335.0</ele><time>2026-04-04T15:09:09Z</time></trkpt><trkpt lat="44.59393167527598" lon="10.435303768177503"><ele>335.0</ele><time>2026-04-04T15:09:10Z</time></trkpt><trkpt lat="44.59394836243076" lon="10.435187952800328"><ele>335.0</ele><time>2026-04-04T15:09:11Z</time></trkpt><trkpt lat="44.593992467403744" lon="10.435070433547589"><ele>335.0</ele><time>2026-04-04T15:09:12Z</time></trkpt><trkpt lat="44.59406319964097" lon="10.434944702860527"><ele>333.6666666666667</ele><time>2026-04-04T15:09:13Z</time></trkpt><trkpt lat="44.59414403603145" lon="10.434801077983856"><ele>332.3333333333333</ele><time>2026-04-04T15:09:14Z</time></trkpt><trkpt lat="44.5942462350582" lon="10.434624656886434"><ele>331.0</ele><time>2026-04-04T15:09:15Z</time></trkpt><trkpt lat="44.59434525817243" lon="10.43442261660463"><ele>329.5</ele><time>2026-04-04T15:09:16Z</time></trkpt><trkpt lat="44.594426900120915" lon="10.43426508850503"><ele>328.0</ele><time>2026-04-04T15:09:17Z</time></trkpt><trkpt lat="44.59450579872153" lon="10.434127662284356"><ele>326.5</ele><time>2026-04-04T15:09:18Z</time></trkpt><trkpt lat="44.59457950619245" lon="10.434009429583671"><ele>325.0</ele><time>2026-04-04T15:09:19Z</time></trkpt><trkpt lat="44.594654959834955" lon="10.433879514785618"><ele>324.6</ele><time>2026-04-04T15:09:20Z</time></trkpt><trkpt lat="44.594731687756706" lon="10.433745453031518"><ele>324.2</ele><time>2026-04-04T15:09:21Z</time></trkpt><trkpt lat="44.59480428408431" lon="10.433622285808797"><ele>323.79999999999995</ele><time>2026-04-04T15:09:22Z</time></trkpt><trkpt lat="44.594872892568176" lon="10.433519187482002"><ele>323.4</ele><time>2026-04-04T15:09:23Z</time></trkpt><trkpt lat="44.59493714057386" lon="10.433431506562172"><ele>323.0</ele><time>2026-04-04T15:09:24Z</time></trkpt><trkpt lat="44.594998741093086" lon="10.433361626454682"><ele>323.0</ele><time>2026-04-04T15:09:25Z</time></trkpt><trkpt lat="44.59505378480267" lon="10.433289865426202"><ele>323.0</ele><time>2026-04-04T15:09:26Z</time></trkpt><trkpt lat="44.59512668269389" lon="10.433229786303093"><ele>323.0</ele><time>2026-04-04T15:09:27Z</time></trkpt><trkpt lat="44.59520988243517" lon="10.43319867076924"><ele>323.0</ele><time>2026-04-04T15:09:28Z</time></trkpt><trkpt lat="44.59528538188778" lon="10.433162578946757"><ele>323.0</ele><time>2026-04-04T15:09:29Z</time></trkpt><trkpt lat="44.59534872238777" lon="10.43310540600679"><ele>323.0</ele><time>2026-04-04T15:09:30Z</time></trkpt><trkpt lat="44.59539706973971" lon="10.433032627431624"><ele>321.1666666666667</ele><time>2026-04-04T15:09:31Z</time></trkpt><trkpt lat="44.59543601113437" lon="10.432958328098735"><ele>319.33333333333337</ele><time>2026-04-04T15:09:32Z</time></trkpt><trkpt lat="44.59548083059277" lon="10.432888546285172"><ele>317.5</ele><time>2026-04-04T15:09:33Z</time></trkpt><trkpt lat="44.59553823568232" lon="10.432793636857541"><ele>315.6666666666667</ele><time>2026-04-04T15:09:34Z</time></trkpt><trkpt lat="44.595610337976915" lon="10.432681949020816"><ele>313.8333333333333</ele><time>2026-04-04T15:09:35Z</time></trkpt><trkpt lat="44.59568185350497" lon="10.432583259031754"><ele>312.0</ele><time>2026-04-04T15:09:36Z</time></trkpt><trkpt lat="44.595740987570885" lon="10.432500086095299"><ele>312.0</ele><time>2026-04-04T15:09:37Z</time></trkpt><trkpt lat="44.59580994699059" lon="10.432443277446644"><ele>312.0</ele><time>2026-04-04T15:09:38Z</time></trkpt><trkpt lat="44.59587790217448" lon="10.432389473966493"><ele>312.0</ele><time>2026-04-04T15:09:39Z</time></trkpt><trkpt lat="44.59594293768871" lon="10.432307502343871"><ele>312.0</ele><time>2026-04-04T15:09:40Z</time></trkpt><trkpt lat="44.59599571208596" lon="10.432221270230333"><ele>312.0</ele><time>2026-04-04T15:09:41Z</time></trkpt><trkpt lat="44.596042747080226" lon="10.43213776241639"><ele>312.0</ele><time>2026-04-04T15:09:42Z</time></trkpt><trkpt lat="44.59610014378808" lon="10.432046787759196"><ele>310.0</ele><time>2026-04-04T15:09:43Z</time></trkpt><trkpt lat="44.5961611054479" lon="10.431907030138767"><ele>308.0</ele><time>2026-04-04T15:09:44Z</time></trkpt><trkpt lat="44.596216129562826" lon="10.43172031374566"><ele>306.0</ele><time>2026-04-04T15:09:45Z</time></trkpt><trkpt lat="44.59625911024806" lon="10.431478332565595"><ele>304.0</ele><time>2026-04-04T15:09:46Z</time></trkpt><trkpt lat="44.59629967315628" lon="10.43132574801849"><ele>304.2</ele><time>2026-04-04T15:09:47Z</time></trkpt><trkpt lat="44.59630631457185" lon="10.43122598111537"><ele>304.4</ele><time>2026-04-04T15:09:48Z</time></trkpt><trkpt lat="44.59626817898975" lon="10.431140949413262"><ele>304.6</ele><time>2026-04-04T15:09:48.999Z</time></trkpt><trkpt lat="44.59626952000046" lon="10.430967609320716"><ele>304.8</ele><time>2026-04-04T15:09:50.999Z</time></trkpt><trkpt lat="44.59630607599545" lon="10.430823409347052"><ele>305.0</ele><time>2026-04-04T15:09:51.999Z</time></trkpt><trkpt lat="44.59635411228741" lon="10.43067341414041"><ele>305.0</ele><time>2026-04-04T15:09:52.999Z</time></trkpt><trkpt lat="44.59642501062486" lon="10.430512490315836"><ele>305.0</ele><time>2026-04-04T15:09:53.999Z</time></trkpt><trkpt lat="44.596484134870295" lon="10.430383528541183"><ele>305.0</ele><time>2026-04-04T15:09:54.999Z</time></trkpt><trkpt lat="44.59653685848063" lon="10.430287967230285"><ele>305.0</ele><time>2026-04-04T15:09:55.999Z</time></trkpt><trkpt lat="44.59661906301057" lon="10.430233862241863"><ele>305.0</ele><time>2026-04-04T15:09:56.999Z</time></trkpt><trkpt lat="44.59673391330921" lon="10.430169192439733"><ele>303.75</ele><time>2026-04-04T15:09:58Z</time></trkpt><trkpt lat="44.59683911077855" lon="10.430045851571332"><ele>302.5</ele><time>2026-04-04T15:09:59Z</time></trkpt><trkpt lat="44.596935967273396" lon="10.429884281949695"><ele>301.25</ele><time>2026-04-04T15:10:00Z</time></trkpt><trkpt lat="44.597019475720714" lon="10.429744490508321"><ele>300.0</ele><time>2026-04-04T15:10:01Z</time></trkpt><trkpt lat="44.59708329221993" lon="10.429621415621645"><ele>298.75</ele><time>2026-04-04T15:10:02Z</time></trkpt><trkpt lat="44.59716182061955" lon="10.429479505147258"><ele>297.5</ele><time>2026-04-04T15:10:03Z</time></trkpt><trkpt lat="44.59724864462155" lon="10.429313091296669"><ele>296.25</ele><time>2026-04-04T15:10:04Z</time></trkpt><trkpt lat="44.597324402262046" lon="10.429170498919232"><ele>295.0</ele><time>2026-04-04T15:10:05Z</time></trkpt><trkpt lat="44.597390877055915" lon="10.42903615349488"><ele>295.0</ele><time>2026-04-04T15:10:06Z</time></trkpt><trkpt lat="44.597445822268234" lon="10.428912263482607"><ele>295.0</ele><time>2026-04-04T15:10:07Z</time></trkpt><trkpt lat="44.59748791682592" lon="10.428808023752431"><ele>295.0</ele><time>2026-04-04T15:10:08Z</time></trkpt><trkpt lat="44.59753201637757" lon="10.428726344912628"><ele>295.0</ele><time>2026-04-04T15:10:09Z</time></trkpt><trkpt lat="44.597594525963366" lon="10.428659760439078"><ele>295.0</ele><time>2026-04-04T15:10:10Z</time></trkpt><trkpt lat="44.59766080495613" lon="10.428581325172836"><ele>295.0</ele><time>2026-04-04T15:10:11Z</time></trkpt><trkpt lat="44.59767757908167" lon="10.428447552195294"><ele>294.2</ele><time>2026-04-04T15:10:12Z</time></trkpt><trkpt lat="44.59768095891009" lon="10.428302155604607"><ele>293.4</ele><time>2026-04-04T15:10:13Z</time></trkpt><trkpt lat="44.59769833945915" lon="10.428188749549399"><ele>292.6</ele><time>2026-04-04T15:10:14Z</time></trkpt><trkpt lat="44.59776898045382" lon="10.42810786581744"><ele>291.8</ele><time>2026-04-04T15:10:15Z</time></trkpt><trkpt lat="44.59785781470058" lon="10.42800716383101"><ele>291.0</ele><time>2026-04-04T15:10:16Z</time></trkpt><trkpt lat="44.59791122990423" lon="10.427910702437664"><ele>290.6</ele><time>2026-04-04T15:10:17Z</time></trkpt><trkpt lat="44.59795911811203" lon="10.427817775338669"><ele>290.20000000000005</ele><time>2026-04-04T15:10:18Z</time></trkpt><trkpt lat="44.59801432454881" lon="10.427706753050142"><ele>289.79999999999995</ele><time>2026-04-04T15:10:19Z</time></trkpt><trkpt lat="44.5980637802027" lon="10.427589729530284"><ele>289.4</ele><time>2026-04-04T15:10:20Z</time></trkpt><trkpt lat="44.59810656765298" lon="10.427476182003351"><ele>289.0</ele><time>2026-04-04T15:10:21Z</time></trkpt><trkpt lat="44.59814345095399" lon="10.427319978610713"><ele>288.75</ele><time>2026-04-04T15:10:22Z</time></trkpt><trkpt lat="44.598163969390974" lon="10.427130116749773"><ele>288.5</ele><time>2026-04-04T15:10:23Z</time></trkpt><trkpt lat="44.598171415366316" lon="10.426911797108332"><ele>288.25</ele><time>2026-04-04T15:10:24Z</time></trkpt><trkpt lat="44.59819322122321" lon="10.426743538220236"><ele>288.0</ele><time>2026-04-04T15:10:25Z</time></trkpt><trkpt lat="44.598204173575006" lon="10.426617058480598"><ele>288.0</ele><time>2026-04-04T15:10:26Z</time></trkpt><trkpt lat="44.59821460120222" lon="10.426489438890048"><ele>288.0</ele><time>2026-04-04T15:10:27Z</time></trkpt><trkpt lat="44.59823435003265" lon="10.4263736303555"><ele>288.0</ele><time>2026-04-04T15:10:28Z</time></trkpt><trkpt lat="44.59826593921871" lon="10.42628091759305"><ele>288.0</ele><time>2026-04-04T15:10:29Z</time></trkpt><trkpt lat="44.598336477602835" lon="10.426214690775689"><ele>288.0</ele><time>2026-04-04T15:10:30Z</time></trkpt><trkpt lat="44.59844371863187" lon="10.426111262347641"><ele>286.75</ele><time>2026-04-04T15:10:31Z</time></trkpt><trkpt lat="44.59855575588609" lon="10.42598412212967"><ele>285.5</ele><time>2026-04-04T15:10:32Z</time></trkpt><trkpt lat="44.59864190636014" lon="10.425863018908444"><ele>284.25</ele><time>2026-04-04T15:10:33Z</time></trkpt><trkpt lat="44.59871108591934" lon="10.42577267698358"><ele>283.0</ele><time>2026-04-04T15:10:34Z</time></trkpt><trkpt lat="44.59878031930032" lon="10.425689992238683"><ele>282.8</ele><time>2026-04-04T15:10:35Z</time></trkpt><trkpt lat="44.59886895481945" lon="10.425616212726101"><ele>282.6</ele><time>2026-04-04T15:10:36Z</time></trkpt><trkpt lat="44.59893870853995" lon="10.425547139372268"><ele>282.4</ele><time>2026-04-04T15:10:37Z</time></trkpt><trkpt lat="44.59897701096144" lon="10.425407858509422"><ele>282.2</ele><time>2026-04-04T15:10:38Z</time></trkpt><trkpt lat="44.598993199509366" lon="10.425236110808392"><ele>282.0</ele><time>2026-04-04T15:10:39Z</time></trkpt><trkpt lat="44.59897892176236" lon="10.425029597953026"><ele>283.0</ele><time>2026-04-04T15:10:40Z</time></trkpt><trkpt lat="44.59896917249613" lon="10.424813254434776"><ele>284.0</ele><time>2026-04-04T15:10:41Z</time></trkpt><trkpt lat="44.59901195668534" lon="10.42462864883308"><ele>285.0</ele><time>2026-04-04T15:10:42Z</time></trkpt><trkpt lat="44.5990614522599" lon="10.424480073496442"><ele>286.0</ele><time>2026-04-04T15:10:43Z</time></trkpt><trkpt lat="44.59909390511145" lon="10.42434920619109"><ele>286.2</ele><time>2026-04-04T15:10:44Z</time></trkpt><trkpt lat="44.599126202404896" lon="10.424247691691752"><ele>286.40000000000003</ele><time>2026-04-04T15:10:45Z</time></trkpt><trkpt lat="44.5992209647558" lon="10.424159244065802"><ele>286.6</ele><time>2026-04-04T15:10:47Z</time></trkpt><trkpt lat="44.599282584159575" lon="10.424138514369865"><ele>286.8</ele><time>2026-04-04T15:10:48Z</time></trkpt><trkpt lat="44.59934759722528" lon="10.424100547662029"><ele>287.0</ele><time>2026-04-04T15:10:49Z</time></trkpt><trkpt lat="44.599467088321575" lon="10.424040946864315"><ele>285.4</ele><time>2026-04-04T15:10:51Z</time></trkpt><trkpt lat="44.59953539139432" lon="10.424008131791647"><ele>283.79999999999995</ele><time>2026-04-04T15:10:52Z</time></trkpt><trkpt lat="44.599596939118534" lon="10.4239783247218"><ele>282.2</ele><time>2026-04-04T15:10:53Z</time></trkpt><trkpt lat="44.59973938037794" lon="10.423947572240893"><ele>280.59999999999997</ele><time>2026-04-04T15:10:55Z</time></trkpt><trkpt lat="44.59982152392178" lon="10.423919353471089"><ele>279.0</ele><time>2026-04-04T15:10:56Z</time></trkpt><trkpt lat="44.59990197603216" lon="10.42387960326789"><ele>279.0</ele><time>2026-04-04T15:10:57Z</time></trkpt><trkpt lat="44.5999810003302" lon="10.42384997981317"><ele>279.0</ele><time>2026-04-04T15:10:58Z</time></trkpt><trkpt lat="44.600058860980575" lon="10.423820046879605"><ele>279.0</ele><time>2026-04-04T15:10:59Z</time></trkpt><trkpt lat="44.60012360045047" lon="10.423776482856491"><ele>279.0</ele><time>2026-04-04T15:11:00Z</time></trkpt><trkpt lat="44.60018939634149" lon="10.423721111064491"><ele>279.0</ele><time>2026-04-04T15:11:01Z</time></trkpt><trkpt lat="44.600263549084076" lon="10.42365581215641"><ele>279.0</ele><time>2026-04-04T15:11:02Z</time></trkpt><trkpt lat="44.600327538472996" lon="10.423590880717617"><ele>276.0</ele><time>2026-04-04T15:11:03Z</time></trkpt><trkpt lat="44.60039718828508" lon="10.423507272890184"><ele>273.0</ele><time>2026-04-04T15:11:04Z</time></trkpt><trkpt lat="44.60046823660996" lon="10.423407470422628"><ele>270.0</ele><time>2026-04-04T15:11:05Z</time></trkpt><trkpt lat="44.600526333505606" lon="10.42332871354085"><ele>267.0</ele><time>2026-04-04T15:11:06Z</time></trkpt><trkpt lat="44.60061694262813" lon="10.423199361715197"><ele>264.0</ele><time>2026-04-04T15:11:08Z</time></trkpt><trkpt lat="44.60065308349366" lon="10.423115289702498"><ele>264.0</ele><time>2026-04-04T15:11:09Z</time></trkpt><trkpt lat="44.60069046641874" lon="10.422988777728099"><ele>264.0</ele><time>2026-04-04T15:11:11Z</time></trkpt><trkpt lat="44.60071968217952" lon="10.422888184960165"><ele>264.0</ele><time>2026-04-04T15:11:12Z</time></trkpt><trkpt lat="44.60075681451416" lon="10.422731562025142"><ele>264.0</ele><time>2026-04-04T15:11:13Z</time></trkpt><trkpt lat="44.60074051413912" lon="10.422580428058662"><ele>264.0</ele><time>2026-04-04T15:11:14Z</time></trkpt><trkpt lat="44.60073735710794" lon="10.422440390357364"><ele>263.4</ele><time>2026-04-04T15:11:15Z</time></trkpt><trkpt lat="44.60075715175333" lon="10.422331913728874"><ele>262.79999999999995</ele><time>2026-04-04T15:11:16Z</time></trkpt><trkpt lat="44.60078054869468" lon="10.422222248230094"><ele>262.20000000000005</ele><time>2026-04-04T15:11:17Z</time></trkpt><trkpt lat="44.60078851983172" lon="10.422127405466437"><ele>261.6</ele><time>2026-04-04T15:11:18Z</time></trkpt><trkpt lat="44.60084639194931" lon="10.421940510043358"><ele>261.0</ele><time>2026-04-04T15:11:20Z</time></trkpt><trkpt lat="44.60086459330118" lon="10.421798213747827"><ele>261.0</ele><time>2026-04-04T15:11:21Z</time></trkpt><trkpt lat="44.60089562307168" lon="10.421641925275063"><ele>261.0</ele><time>2026-04-04T15:11:22Z</time></trkpt><trkpt lat="44.600924192025126" lon="10.421480891455074"><ele>261.0</ele><time>2026-04-04T15:11:23Z</time></trkpt><trkpt lat="44.60095022738604" lon="10.421325071839606"><ele>261.0</ele><time>2026-04-04T15:11:24Z</time></trkpt><trkpt lat="44.60097718478529" lon="10.421156957314327"><ele>262.2</ele><time>2026-04-04T15:11:25Z</time></trkpt><trkpt lat="44.60099484676872" lon="10.421036929177063"><ele>263.40000000000003</ele><time>2026-04-04T15:11:26Z</time></trkpt><trkpt lat="44.60098854280829" lon="10.420928466914525"><ele>264.6</ele><time>2026-04-04T15:11:27Z</time></trkpt><trkpt lat="44.60099799831879" lon="10.420786062280703"><ele>265.8</ele><time>2026-04-04T15:11:28Z</time></trkpt><trkpt lat="44.60101939846914" lon="10.420632195926084"><ele>267.0</ele><time>2026-04-04T15:11:29Z</time></trkpt><trkpt lat="44.601031701434" lon="10.42046931734346"><ele>268.2</ele><time>2026-04-04T15:11:30Z</time></trkpt><trkpt lat="44.60103719054079" lon="10.420311983563835"><ele>269.4</ele><time>2026-04-04T15:11:31Z</time></trkpt><trkpt lat="44.60101964449833" lon="10.42019024345593"><ele>270.6</ele><time>2026-04-04T15:11:32Z</time></trkpt><trkpt lat="44.60111698188809" lon="10.420172449178594"><ele>271.8</ele><time>2026-04-04T15:11:36Z</time></trkpt><trkpt lat="44.60120400815655" lon="10.420199673252046"><ele>273.0</ele><time>2026-04-04T15:11:37Z</time></trkpt><trkpt lat="44.60132460384792" lon="10.420195661099628"><ele>273.75</ele><time>2026-04-04T15:11:38Z</time></trkpt><trkpt lat="44.601503623703245" lon="10.420179853603857"><ele>274.5</ele><time>2026-04-04T15:11:39Z</time></trkpt><trkpt lat="44.6016633570942" lon="10.420168530726585"><ele>275.25</ele><time>2026-04-04T15:11:40Z</time></trkpt><trkpt lat="44.60174724304085" lon="10.420154367230845"><ele>276.0</ele><time>2026-04-04T15:11:41Z</time></trkpt><trkpt lat="44.60182616831746" lon="10.420091830276391"><ele>276.0</ele><time>2026-04-04T15:11:41.999Z</time></trkpt><trkpt lat="44.601947244019975" lon="10.420027707302912"><ele>276.0</ele><time>2026-04-04T15:11:42.999Z</time></trkpt><trkpt lat="44.60207759772591" lon="10.42001298330734"><ele>276.0</ele><time>2026-04-04T15:11:43.999Z</time></trkpt><trkpt lat="44.6021674819123" lon="10.420028447762231"><ele>276.0</ele><time>2026-04-04T15:11:44.999Z</time></trkpt><trkpt lat="44.6022545901158" lon="10.42004580144849"><ele>276.0</ele><time>2026-04-04T15:11:45.999Z</time></trkpt><trkpt lat="44.60235046058953" lon="10.4200549113048"><ele>274.6</ele><time>2026-04-04T15:11:46.999Z</time></trkpt><trkpt lat="44.60244612477434" lon="10.420067505141072"><ele>273.20000000000005</ele><time>2026-04-04T15:11:47.999Z</time></trkpt><trkpt lat="44.60254428893573" lon="10.420086440678656"><ele>271.79999999999995</ele><time>2026-04-04T15:11:48.999Z</time></trkpt><trkpt lat="44.602637868125534" lon="10.420083472606104"><ele>270.4</ele><time>2026-04-04T15:11:49.999Z</time></trkpt><trkpt lat="44.602734644018675" lon="10.420053060753139"><ele>269.0</ele><time>2026-04-04T15:11:50.999Z</time></trkpt><trkpt lat="44.6028248865802" lon="10.419962528517388"><ele>266.8</ele><time>2026-04-04T15:11:51.999Z</time></trkpt><trkpt lat="44.60290868199884" lon="10.419847564369151"><ele>264.59999999999997</ele><time>2026-04-04T15:11:52.999Z</time></trkpt><trkpt lat="44.60299869078832" lon="10.419768804858984"><ele>262.4</ele><time>2026-04-04T15:11:53.999Z</time></trkpt><trkpt lat="44.603081110806045" lon="10.419704060254878"><ele>260.2</ele><time>2026-04-04T15:11:54.999Z</time></trkpt><trkpt lat="44.60316918990859" lon="10.419669049926059"><ele>258.0</ele><time>2026-04-04T15:11:55.999Z</time></trkpt><trkpt lat="44.603251774780574" lon="10.419669871746853"><ele>258.0</ele><time>2026-04-04T15:11:56.999Z</time></trkpt><trkpt lat="44.6033313023643" lon="10.41970435399256"><ele>258.0</ele><time>2026-04-04T15:11:57.999Z</time></trkpt><trkpt lat="44.603398344075465" lon="10.419744635263838"><ele>258.0</ele><time>2026-04-04T15:11:58.999Z</time></trkpt><trkpt lat="44.60350059893674" lon="10.419759535092952"><ele>258.0</ele><time>2026-04-04T15:12:00.999Z</time></trkpt><trkpt lat="44.603590929452146" lon="10.419696656640085"><ele>258.0</ele><time>2026-04-04T15:12:02.999Z</time></trkpt><trkpt lat="44.60369672425363" lon="10.419598552997135"><ele>254.5</ele><time>2026-04-04T15:12:05Z</time></trkpt><trkpt lat="44.60376468763985" lon="10.419559639374043"><ele>251.0</ele><time>2026-04-04T15:12:06Z</time></trkpt><trkpt lat="44.603834726165296" lon="10.419521214739849"><ele>247.5</ele><time>2026-04-04T15:12:07Z</time></trkpt><trkpt lat="44.603904050740134" lon="10.419478846568197"><ele>244.0</ele><time>2026-04-04T15:12:08Z</time></trkpt><trkpt lat="44.60397834886589" lon="10.419436887223"><ele>240.5</ele><time>2026-04-04T15:12:09Z</time></trkpt><trkpt lat="44.60405935112463" lon="10.419387842430384"><ele>237.0</ele><time>2026-04-04T15:12:10Z</time></trkpt><trkpt lat="44.60414168887642" lon="10.419332462769194"><ele>237.0</ele><time>2026-04-04T15:12:11Z</time></trkpt><trkpt lat="44.60422955545736" lon="10.419285166273733"><ele>237.0</ele><time>2026-04-04T15:12:12Z</time></trkpt><trkpt lat="44.60431886011187" lon="10.419237831876828"><ele>237.0</ele><time>2026-04-04T15:12:13Z</time></trkpt><trkpt lat="44.6044020761676" lon="10.419192625273938"><ele>237.0</ele><time>2026-04-04T15:12:14Z</time></trkpt><trkpt lat="44.60447358116903" lon="10.41915798177944"><ele>237.0</ele><time>2026-04-04T15:12:15Z</time></trkpt><trkpt lat="44.604538830522806" lon="10.419130498485435"><ele>237.0</ele><time>2026-04-04T15:12:16Z</time></trkpt><trkpt lat="44.60460283106066" lon="10.419118233586834"><ele>233.39999999999998</ele><time>2026-04-04T15:12:17Z</time></trkpt><trkpt lat="44.604715811291896" lon="10.41913352943608"><ele>229.79999999999998</ele><time>2026-04-04T15:12:19Z</time></trkpt><trkpt lat="44.60479174180685" lon="10.419097420086457"><ele>226.2</ele><time>2026-04-04T15:12:21Z</time></trkpt><trkpt lat="44.60474114205959" lon="10.418989878763956"><ele>222.6</ele><time>2026-04-04T15:12:25Z</time></trkpt><trkpt lat="44.60470281656317" lon="10.418845439650894"><ele>219.0</ele><time>2026-04-04T15:12:27Z</time></trkpt><trkpt lat="44.60476373822591" lon="10.418772800456326"><ele>218.0</ele><time>2026-04-04T15:12:29Z</time></trkpt><trkpt lat="44.60487464927657" lon="10.418715873952358"><ele>217.0</ele><time>2026-04-04T15:12:31Z</time></trkpt><trkpt lat="44.604946920743835" lon="10.418665976314923"><ele>216.0</ele><time>2026-04-04T15:12:32Z</time></trkpt><trkpt lat="44.60503009760967" lon="10.418620120949477"><ele>215.0</ele><time>2026-04-04T15:12:33Z</time></trkpt><trkpt lat="44.60510681419142" lon="10.418602447928961"><ele>214.0</ele><time>2026-04-04T15:12:34Z</time></trkpt><trkpt lat="44.60517401781047" lon="10.418591241181256"><ele>213.0</ele><time>2026-04-04T15:12:35Z</time></trkpt><trkpt lat="44.60527586781487" lon="10.41857403116327"><ele>211.2</ele><time>2026-04-04T15:12:37Z</time></trkpt><trkpt lat="44.6053780712408" lon="10.418537962235662"><ele>209.4</ele><time>2026-04-04T15:12:39Z</time></trkpt><trkpt lat="44.605434339211676" lon="10.418391054585713"><ele>207.6</ele><time>2026-04-04T15:12:41Z</time></trkpt><trkpt lat="44.60544618524639" lon="10.418279591253489"><ele>205.79999999999998</ele><time>2026-04-04T15:12:42Z</time></trkpt><trkpt lat="44.60547752140512" lon="10.418185983171071"><ele>204.0</ele><time>2026-04-04T15:12:43Z</time></trkpt><trkpt lat="44.60551860253924" lon="10.418093821360873"><ele>204.0</ele><time>2026-04-04T15:12:44Z</time></trkpt><trkpt lat="44.6055576268396" lon="10.418020279455975"><ele>204.0</ele><time>2026-04-04T15:12:45Z</time></trkpt><trkpt lat="44.605619620879274" lon="10.417913085152223"><ele>204.0</ele><time>2026-04-04T15:12:47Z</time></trkpt><trkpt lat="44.60565735164145" lon="10.417804379307995"><ele>204.0</ele><time>2026-04-04T15:12:50Z</time></trkpt><trkpt lat="44.60558301925512" lon="10.417715340042717"><ele>204.0</ele><time>2026-04-04T15:12:53Z</time></trkpt><trkpt lat="44.6054861095787" lon="10.417636874089899"><ele>204.16666666666666</ele><time>2026-04-04T15:12:55Z</time></trkpt><trkpt lat="44.60543106891211" lon="10.417585912686063"><ele>204.33333333333331</ele><time>2026-04-04T15:12:56Z</time></trkpt><trkpt lat="44.60533494888142" lon="10.417497447344411"><ele>204.5</ele><time>2026-04-04T15:12:58Z</time></trkpt><trkpt lat="44.60526125894694" lon="10.417418850803104"><ele>204.66666666666666</ele><time>2026-04-04T15:13:00Z</time></trkpt><trkpt lat="44.605190579947134" lon="10.417357837143303"><ele>204.83333333333331</ele><time>2026-04-04T15:13:02Z</time></trkpt><trkpt lat="44.60513038034009" lon="10.41727222226994"><ele>205.0</ele><time>2026-04-04T15:13:04Z</time></trkpt><trkpt lat="44.60507926133124" lon="10.41716177238635"><ele>204.4</ele><time>2026-04-04T15:13:06Z</time></trkpt><trkpt lat="44.60502898985645" lon="10.417048010719466"><ele>203.8</ele><time>2026-04-04T15:13:08Z</time></trkpt><trkpt lat="44.60497479350245" lon="10.416907388664017"><ele>203.2</ele><time>2026-04-04T15:13:10Z</time></trkpt><trkpt lat="44.60484453189169" lon="10.416905610350096"><ele>202.6</ele><time>2026-04-04T15:13:11Z</time></trkpt><trkpt lat="44.604775066130834" lon="10.416861203598861"><ele>202.0</ele><time>2026-04-04T15:13:12Z</time></trkpt><trkpt lat="44.604706102421524" lon="10.416801000134692"><ele>202.0</ele><time>2026-04-04T15:13:13Z</time></trkpt><trkpt lat="44.6046359910876" lon="10.41673622594709"><ele>202.0</ele><time>2026-04-04T15:13:14Z</time></trkpt><trkpt lat="44.604563857916595" lon="10.416666919766472"><ele>202.0</ele><time>2026-04-04T15:13:15Z</time></trkpt><trkpt lat="44.604472984093086" lon="10.416580524398146"><ele>202.0</ele><time>2026-04-04T15:13:16Z</time></trkpt><trkpt lat="44.6043617900112" lon="10.416483182802438"><ele>202.0</ele><time>2026-04-04T15:13:17Z</time></trkpt><trkpt lat="44.604272439755206" lon="10.416354501469755"><ele>202.33333333333331</ele><time>2026-04-04T15:13:18Z</time></trkpt><trkpt lat="44.60417797688753" lon="10.416238437899871"><ele>202.66666666666669</ele><time>2026-04-04T15:13:19Z</time></trkpt><trkpt lat="44.60405492323417" lon="10.416088134981283"><ele>203.0</ele><time>2026-04-04T15:13:20Z</time></trkpt><trkpt lat="44.603921569349566" lon="10.415934700278614"><ele>203.0</ele><time>2026-04-04T15:13:21Z</time></trkpt><trkpt lat="44.60375964305614" lon="10.415815573983236"><ele>203.0</ele><time>2026-04-04T15:13:22Z</time></trkpt><trkpt lat="44.603610596070716" lon="10.415693000791737"><ele>203.0</ele><time>2026-04-04T15:13:23Z</time></trkpt><trkpt lat="44.60346736934648" lon="10.415572964549002"><ele>203.25</ele><time>2026-04-04T15:13:24Z</time></trkpt><trkpt lat="44.603340904808576" lon="10.415473357390436"><ele>203.5</ele><time>2026-04-04T15:13:25Z</time></trkpt><trkpt lat="44.60322623420629" lon="10.415374781332616"><ele>203.75</ele><time>2026-04-04T15:13:26Z</time></trkpt><trkpt lat="44.6031181311006" lon="10.415288559519567"><ele>204.0</ele><time>2026-04-04T15:13:27Z</time></trkpt><trkpt lat="44.60302466409468" lon="10.41518812170588"><ele>204.0</ele><time>2026-04-04T15:13:28Z</time></trkpt><trkpt lat="44.602932026603234" lon="10.415101112580949"><ele>204.0</ele><time>2026-04-04T15:13:29Z</time></trkpt><trkpt lat="44.602829688427555" lon="10.415011248103074"><ele>204.0</ele><time>2026-04-04T15:13:30Z</time></trkpt><trkpt lat="44.602728136781344" lon="10.414895684607329"><ele>204.0</ele><time>2026-04-04T15:13:31Z</time></trkpt><trkpt lat="44.60260868124933" lon="10.414818418919163"><ele>204.0</ele><time>2026-04-04T15:13:32Z</time></trkpt><trkpt lat="44.602498723019956" lon="10.414758624826916"><ele>204.0</ele><time>2026-04-04T15:13:33Z</time></trkpt><trkpt lat="44.60240317934355" lon="10.41470337678642"><ele>204.0</ele><time>2026-04-04T15:13:34Z</time></trkpt><trkpt lat="44.60231137456432" lon="10.414648125011043"><ele>204.0</ele><time>2026-04-04T15:13:35Z</time></trkpt><trkpt lat="44.60220958793567" lon="10.414586636882857"><ele>204.0</ele><time>2026-04-04T15:13:35.999Z</time></trkpt><trkpt lat="44.6021086513339" lon="10.414519594153937"><ele>204.0</ele><time>2026-04-04T15:13:36.999Z</time></trkpt><trkpt lat="44.60202322739115" lon="10.414444248287483"><ele>204.0</ele><time>2026-04-04T15:13:37.999Z</time></trkpt><trkpt lat="44.601945708113455" lon="10.414363954960926"><ele>204.0</ele><time>2026-04-04T15:13:38.999Z</time></trkpt><trkpt lat="44.601872991520004" lon="10.414281495234418"><ele>204.0</ele><time>2026-04-04T15:13:39.999Z</time></trkpt><trkpt lat="44.60180349300346" lon="10.414206167408619"><ele>204.0</ele><time>2026-04-04T15:13:40.999Z</time></trkpt><trkpt lat="44.60173545774555" lon="10.414135518305565"><ele>204.0</ele><time>2026-04-04T15:13:41.999Z</time></trkpt><trkpt lat="44.60167335095654" lon="10.414071025459165"><ele>204.0</ele><time>2026-04-04T15:13:42.999Z</time></trkpt><trkpt lat="44.601612723217976" lon="10.414005641247503"><ele>204.0</ele><time>2026-04-04T15:13:43.999Z</time></trkpt><trkpt lat="44.601545281736705" lon="10.413958920971334"><ele>204.0</ele><time>2026-04-04T15:13:44.999Z</time></trkpt><trkpt lat="44.6014916758038" lon="10.413899302102033"><ele>204.0</ele><time>2026-04-04T15:13:45.999Z</time></trkpt><trkpt lat="44.601448772671866" lon="10.41383035588426"><ele>204.0</ele><time>2026-04-04T15:13:46.999Z</time></trkpt><trkpt lat="44.60135114176178" lon="10.413762323855998"><ele>203.5</ele><time>2026-04-04T15:13:48.999Z</time></trkpt><trkpt lat="44.601348838440174" lon="10.41364631202386"><ele>203.0</ele><time>2026-04-04T15:13:50.999Z</time></trkpt><trkpt lat="44.60138312080865" lon="10.41355964018382"><ele>202.5</ele><time>2026-04-04T15:13:51.999Z</time></trkpt><trkpt lat="44.60142370772962" lon="10.41347178554733"><ele>202.0</ele><time>2026-04-04T15:13:52.999Z</time></trkpt><trkpt lat="44.60148632560877" lon="10.413333975275902"><ele>201.5</ele><time>2026-04-04T15:13:54.999Z</time></trkpt><trkpt lat="44.60152825682913" lon="10.413206670614155"><ele>201.0</ele><time>2026-04-04T15:13:56.999Z</time></trkpt><trkpt lat="44.60144974879068" lon="10.413416433958705"><ele>196.0</ele><time>2026-04-04T15:14:04.999Z</time></trkpt><trkpt lat="44.60137010474787" lon="10.412747822653088"><ele>201.0</ele><time>2026-04-04T15:14:05.999Z</time></trkpt><trkpt lat="44.60143647641837" lon="10.4134059235524"><ele>201.0</ele><time>2026-04-04T15:14:06.999Z</time></trkpt><trkpt lat="44.60134954801313" lon="10.413384011095093"><ele>201.0</ele><time>2026-04-04T15:14:10Z</time></trkpt><trkpt lat="44.601246926681185" lon="10.413313664184972"><ele>201.0</ele><time>2026-04-04T15:14:12Z</time></trkpt><trkpt lat="44.601179016957175" lon="10.413276445261774"><ele>201.0</ele><time>2026-04-04T15:14:13Z</time></trkpt><trkpt lat="44.601110754764775" lon="10.413235847683499"><ele>201.0</ele><time>2026-04-04T15:14:14Z</time></trkpt><trkpt lat="44.601048695964494" lon="10.41318865744392"><ele>201.0</ele><time>2026-04-04T15:14:15Z</time></trkpt><trkpt lat="44.600989794514156" lon="10.413148394061807"><ele>200.4</ele><time>2026-04-04T15:14:16Z</time></trkpt><trkpt lat="44.60089795594429" lon="10.413065414152408"><ele>199.8</ele><time>2026-04-04T15:14:18Z</time></trkpt><trkpt lat="44.60086479835957" lon="10.412942767359297"><ele>199.20000000000002</ele><time>2026-04-04T15:14:20Z</time></trkpt><trkpt lat="44.60088672645028" lon="10.412844885798618"><ele>198.60000000000002</ele><time>2026-04-04T15:14:22Z</time></trkpt><trkpt lat="44.600850826728596" lon="10.412750598110946"><ele>198.0</ele><time>2026-04-04T15:14:25Z</time></trkpt><trkpt lat="44.600757076824024" lon="10.412601038646402"><ele>198.0</ele><time>2026-04-04T15:14:27Z</time></trkpt><trkpt lat="44.60069337398284" lon="10.41252589234841"><ele>198.0</ele><time>2026-04-04T15:14:28Z</time></trkpt><trkpt lat="44.60061896271668" lon="10.41246851646077"><ele>198.0</ele><time>2026-04-04T15:14:29Z</time></trkpt><trkpt lat="44.60053911450089" lon="10.412431731078685"><ele>198.0</ele><time>2026-04-04T15:14:30Z</time></trkpt><trkpt lat="44.60046318056757" lon="10.41238656032605"><ele>198.0</ele><time>2026-04-04T15:14:31Z</time></trkpt><trkpt lat="44.600398369859676" lon="10.412346588642826"><ele>198.0</ele><time>2026-04-04T15:14:32Z</time></trkpt><trkpt lat="44.600280282641634" lon="10.412264771895025"><ele>198.60000000000002</ele><time>2026-04-04T15:14:34Z</time></trkpt><trkpt lat="44.6002174880135" lon="10.412203549751277"><ele>199.20000000000002</ele><time>2026-04-04T15:14:35Z</time></trkpt><trkpt lat="44.60016259564832" lon="10.412154990779628"><ele>199.8</ele><time>2026-04-04T15:14:36Z</time></trkpt><trkpt lat="44.60005086992492" lon="10.412186845881731"><ele>200.4</ele><time>2026-04-04T15:14:38Z</time></trkpt><trkpt lat="44.60000570494837" lon="10.41231568816703"><ele>201.0</ele><time>2026-04-04T15:14:40Z</time></trkpt><trkpt lat="44.60006099599683" lon="10.412447568572876"><ele>201.20000000000002</ele><time>2026-04-04T15:14:42Z</time></trkpt><trkpt lat="44.60011808402362" lon="10.412562118833327"><ele>201.4</ele><time>2026-04-04T15:14:44Z</time></trkpt><trkpt lat="44.60006815698001" lon="10.412685480385514"><ele>201.6</ele><time>2026-04-04T15:14:46Z</time></trkpt><trkpt lat="44.60002577420676" lon="10.412861630494078"><ele>201.8</ele><time>2026-04-04T15:14:48Z</time></trkpt><trkpt lat="44.59998026150881" lon="10.412938602583967"><ele>202.0</ele><time>2026-04-04T15:14:49Z</time></trkpt><trkpt lat="44.599953589619204" lon="10.4130315918854"><ele>201.66666666666666</ele><time>2026-04-04T15:14:50Z</time></trkpt><trkpt lat="44.59992709894073" lon="10.413119504607282"><ele>201.33333333333331</ele><time>2026-04-04T15:14:51Z</time></trkpt><trkpt lat="44.59990217740113" lon="10.413221731032412"><ele>201.0</ele><time>2026-04-04T15:14:52Z</time></trkpt><trkpt lat="44.59987595216332" lon="10.413332220591439"><ele>200.66666666666669</ele><time>2026-04-04T15:14:53Z</time></trkpt><trkpt lat="44.59985619845135" lon="10.413431991001774"><ele>200.33333333333334</ele><time>2026-04-04T15:14:54Z</time></trkpt><trkpt lat="44.59982958351317" lon="10.413576096748297"><ele>200.0</ele><time>2026-04-04T15:14:56Z</time></trkpt><trkpt lat="44.599855458022105" lon="10.413678162251799"><ele>200.00000000000003</ele><time>2026-04-04T15:14:58Z</time></trkpt><trkpt lat="44.5999416686431" lon="10.413737655812907"><ele>200.0</ele><time>2026-04-04T15:15:00Z</time></trkpt><trkpt lat="44.60000821416143" lon="10.413785277829762"><ele>200.0</ele><time>2026-04-04T15:15:01Z</time></trkpt><trkpt lat="44.60007763903316" lon="10.41382235468637"><ele>200.0</ele><time>2026-04-04T15:15:02Z</time></trkpt><trkpt lat="44.60014114082905" lon="10.413836949956169"><ele>200.0</ele><time>2026-04-04T15:15:03Z</time></trkpt><trkpt lat="44.600197944227105" lon="10.413878125744878"><ele>200.00000000000003</ele><time>2026-04-04T15:15:04Z</time></trkpt><trkpt lat="44.60025897724729" lon="10.41391193361505"><ele>200.0</ele><time>2026-04-04T15:15:05Z</time></trkpt><trkpt lat="44.60032174426439" lon="10.413948583189844"><ele>199.83333333333334</ele><time>2026-04-04T15:15:06Z</time></trkpt><trkpt lat="44.60043581281133" lon="10.414003566735392"><ele>199.66666666666669</ele><time>2026-04-04T15:15:08Z</time></trkpt><trkpt lat="44.60049811790586" lon="10.414043833462172"><ele>199.5</ele><time>2026-04-04T15:15:09Z</time></trkpt><trkpt lat="44.600555101799806" lon="10.414095300799126"><ele>199.33333333333331</ele><time>2026-04-04T15:15:10Z</time></trkpt><trkpt lat="44.60059277461842" lon="10.4141696088169"><ele>199.16666666666666</ele><time>2026-04-04T15:15:11Z</time></trkpt><trkpt lat="44.60060063062574" lon="10.414314797424144"><ele>199.0</ele><time>2026-04-04T15:15:13Z</time></trkpt><trkpt lat="44.60055085823508" lon="10.414486679842028"><ele>198.99999999999997</ele><time>2026-04-04T15:15:15Z</time></trkpt><trkpt lat="44.600494190577564" lon="10.414566549227814"><ele>199.0</ele><time>2026-04-04T15:15:16Z</time></trkpt><trkpt lat="44.600433216346424" lon="10.414647153476"><ele>199.0</ele><time>2026-04-04T15:15:17Z</time></trkpt><trkpt lat="44.600376323953355" lon="10.414733376790405"><ele>199.0</ele><time>2026-04-04T15:15:18Z</time></trkpt><trkpt lat="44.60031969798988" lon="10.414833198332948"><ele>198.99999999999997</ele><time>2026-04-04T15:15:19Z</time></trkpt><trkpt lat="44.60025751304557" lon="10.414938939220997"><ele>199.0</ele><time>2026-04-04T15:15:20Z</time></trkpt><trkpt lat="44.600200405499685" lon="10.415019807521722"><ele>199.2</ele><time>2026-04-04T15:15:21Z</time></trkpt><trkpt lat="44.600116358562815" lon="10.415125142907009"><ele>199.39999999999998</ele><time>2026-04-04T15:15:23Z</time></trkpt><trkpt lat="44.60007348249592" lon="10.415235562099392"><ele>199.6</ele><time>2026-04-04T15:15:25Z</time></trkpt><trkpt lat="44.60004278949742" lon="10.415362520848465"><ele>199.8</ele><time>2026-04-04T15:15:27Z</time></trkpt><trkpt lat="44.600003587566924" lon="10.415467969398252"><ele>200.0</ele><time>2026-04-04T15:15:28Z</time></trkpt><trkpt lat="44.59995547087734" lon="10.415590885602697"><ele>199.5</ele><time>2026-04-04T15:15:29Z</time></trkpt><trkpt lat="44.59989640164041" lon="10.415734765459096"><ele>199.0</ele><time>2026-04-04T15:15:30Z</time></trkpt><trkpt lat="44.599827260222135" lon="10.415902374643785"><ele>198.5</ele><time>2026-04-04T15:15:31Z</time></trkpt><trkpt lat="44.5997532847554" lon="10.416081702307297"><ele>198.0</ele><time>2026-04-04T15:15:32Z</time></trkpt><trkpt lat="44.59968764123792" lon="10.416240832066045"><ele>198.5</ele><time>2026-04-04T15:15:33Z</time></trkpt><trkpt lat="44.599628673715614" lon="10.416390450967247"><ele>199.0</ele><time>2026-04-04T15:15:34Z</time></trkpt><trkpt lat="44.59958624770332" lon="10.416544171173909"><ele>199.5</ele><time>2026-04-04T15:15:35Z</time></trkpt><trkpt lat="44.5995360693786" lon="10.416686039260448"><ele>200.0</ele><time>2026-04-04T15:15:35.999Z</time></trkpt><trkpt lat="44.59948651795223" lon="10.416832431138237"><ele>200.2</ele><time>2026-04-04T15:15:36.999Z</time></trkpt><trkpt lat="44.59942218712786" lon="10.41698004723093"><ele>200.4</ele><time>2026-04-04T15:15:37.999Z</time></trkpt><trkpt lat="44.59937946411373" lon="10.417111451451015"><ele>200.60000000000002</ele><time>2026-04-04T15:15:38.999Z</time></trkpt><trkpt lat="44.59934093517848" lon="10.417223032967824"><ele>200.8</ele><time>2026-04-04T15:15:39.999Z</time></trkpt><trkpt lat="44.59930022710194" lon="10.41732884111012"><ele>201.0</ele><time>2026-04-04T15:15:40.999Z</time></trkpt><trkpt lat="44.59925075027106" lon="10.417428676806002"><ele>201.0</ele><time>2026-04-04T15:15:41.999Z</time></trkpt><trkpt lat="44.599190830887665" lon="10.4175205177592"><ele>201.0</ele><time>2026-04-04T15:15:42.999Z</time></trkpt><trkpt lat="44.599122812790455" lon="10.417588803829725"><ele>201.0</ele><time>2026-04-04T15:15:43.999Z</time></trkpt><trkpt lat="44.599040934757404" lon="10.417625758181522"><ele>201.0</ele><time>2026-04-04T15:15:44.999Z</time></trkpt><trkpt lat="44.59895835521082" lon="10.417643997497326"><ele>201.0</ele><time>2026-04-04T15:15:45.999Z</time></trkpt><trkpt lat="44.5988587059966" lon="10.417648699090336"><ele>201.0</ele><time>2026-04-04T15:15:46.999Z</time></trkpt><trkpt lat="44.59869902168715" lon="10.41764459909184"><ele>201.5</ele><time>2026-04-04T15:15:47.999Z</time></trkpt><trkpt lat="44.59853756755807" lon="10.417663947136907"><ele>202.0</ele><time>2026-04-04T15:15:48.999Z</time></trkpt><trkpt lat="44.59838655435336" lon="10.41772229234183"><ele>202.5</ele><time>2026-04-04T15:15:49.999Z</time></trkpt><trkpt lat="44.598286365915605" lon="10.417806629493981"><ele>203.0</ele><time>2026-04-04T15:15:50.999Z</time></trkpt><trkpt lat="44.598187680471796" lon="10.417896364583738"><ele>203.0</ele><time>2026-04-04T15:15:51.999Z</time></trkpt><trkpt lat="44.59809749430513" lon="10.417974380723829"><ele>203.0</ele><time>2026-04-04T15:15:52.999Z</time></trkpt><trkpt lat="44.59802546788219" lon="10.418050977744784"><ele>203.0</ele><time>2026-04-04T15:15:53.999Z</time></trkpt><trkpt lat="44.597961404369514" lon="10.418130933925246"><ele>203.0</ele><time>2026-04-04T15:15:54.999Z</time></trkpt><trkpt lat="44.59791539782435" lon="10.418248344625978"><ele>203.0</ele><time>2026-04-04T15:15:55.999Z</time></trkpt><trkpt lat="44.59786003011315" lon="10.41840578587473"><ele>203.66666666666669</ele><time>2026-04-04T15:15:56.999Z</time></trkpt><trkpt lat="44.59783662381508" lon="10.418617302748313"><ele>204.33333333333331</ele><time>2026-04-04T15:15:57.999Z</time></trkpt><trkpt lat="44.59782306299013" lon="10.418875126468937"><ele>205.0</ele><time>2026-04-04T15:15:58.999Z</time></trkpt><trkpt lat="44.59777306659326" lon="10.419139124108778"><ele>206.33333333333331</ele><time>2026-04-04T15:15:59.999Z</time></trkpt><trkpt lat="44.597742398822035" lon="10.419365348737813"><ele>207.66666666666669</ele><time>2026-04-04T15:16:00.999Z</time></trkpt><trkpt lat="44.59771126686829" lon="10.419559552440639"><ele>209.0</ele><time>2026-04-04T15:16:01.999Z</time></trkpt><trkpt lat="44.59768617223165" lon="10.419758623839584"><ele>209.0</ele><time>2026-04-04T15:16:02.999Z</time></trkpt><trkpt lat="44.597665543316694" lon="10.419947654194056"><ele>209.0</ele><time>2026-04-04T15:16:03.999Z</time></trkpt><trkpt lat="44.597629494917136" lon="10.420128222369877"><ele>209.0</ele><time>2026-04-04T15:16:04.999Z</time></trkpt><trkpt lat="44.597564988575364" lon="10.420291241595885"><ele>209.0</ele><time>2026-04-04T15:16:05.999Z</time></trkpt><trkpt lat="44.59748554082793" lon="10.420454087720069"><ele>209.25</ele><time>2026-04-04T15:16:06.999Z</time></trkpt><trkpt lat="44.59740988513477" lon="10.420600091134668"><ele>209.5</ele><time>2026-04-04T15:16:07.999Z</time></trkpt><trkpt lat="44.59734020292472" lon="10.420735679512745"><ele>209.75</ele><time>2026-04-04T15:16:08.999Z</time></trkpt><trkpt lat="44.597265586525296" lon="10.420854353151086"><ele>210.0</ele><time>2026-04-04T15:16:09.999Z</time></trkpt><trkpt lat="44.597173643951784" lon="10.42094819404757"><ele>210.0</ele><time>2026-04-04T15:16:10.999Z</time></trkpt><trkpt lat="44.59705583085518" lon="10.421003620838777"><ele>210.0</ele><time>2026-04-04T15:16:11.999Z</time></trkpt><trkpt lat="44.59695114224341" lon="10.421065062343128"><ele>210.0</ele><time>2026-04-04T15:16:12.999Z</time></trkpt><trkpt lat="44.59685051457802" lon="10.421118704455878"><ele>210.0</ele><time>2026-04-04T15:16:13.999Z</time></trkpt><trkpt lat="44.59674389402059" lon="10.421174234950309"><ele>210.5</ele><time>2026-04-04T15:16:14.999Z</time></trkpt><trkpt lat="44.596620276962" lon="10.42122216420365"><ele>211.0</ele><time>2026-04-04T15:16:16Z</time></trkpt><trkpt lat="44.59648979696439" lon="10.421243205793179"><ele>211.5</ele><time>2026-04-04T15:16:17Z</time></trkpt><trkpt lat="44.59638194666819" lon="10.421271149877414"><ele>212.0</ele><time>2026-04-04T15:16:18Z</time></trkpt><trkpt lat="44.596286537625296" lon="10.421317467806082"><ele>212.16666666666669</ele><time>2026-04-04T15:16:19Z</time></trkpt><trkpt lat="44.59620481693559" lon="10.42138118030418"><ele>212.33333333333334</ele><time>2026-04-04T15:16:20Z</time></trkpt><trkpt lat="44.59614252253627" lon="10.421470626467464"><ele>212.5</ele><time>2026-04-04T15:16:21Z</time></trkpt><trkpt lat="44.59609885260816" lon="10.421560005608182"><ele>212.66666666666669</ele><time>2026-04-04T15:16:22Z</time></trkpt><trkpt lat="44.59606079897777" lon="10.421649553333559"><ele>212.83333333333334</ele><time>2026-04-04T15:16:23Z</time></trkpt><trkpt lat="44.59602418503052" lon="10.421727412768819"><ele>213.0</ele><time>2026-04-04T15:16:24Z</time></trkpt><trkpt lat="44.59598630975291" lon="10.421862967581283"><ele>213.2</ele><time>2026-04-04T15:16:26Z</time></trkpt><trkpt lat="44.5959743313802" lon="10.422003330272632"><ele>213.4</ele><time>2026-04-04T15:16:28Z</time></trkpt><trkpt lat="44.59590424231163" lon="10.422013820170136"><ele>213.59999999999997</ele><time>2026-04-04T15:16:30Z</time></trkpt><trkpt lat="44.59583009590963" lon="10.42206377550676"><ele>213.79999999999998</ele><time>2026-04-04T15:16:31Z</time></trkpt><trkpt lat="44.59573620529828" lon="10.42208679916281"><ele>214.0</ele><time>2026-04-04T15:16:32Z</time></trkpt><trkpt lat="44.595634038378094" lon="10.422171866253848"><ele>214.0</ele><time>2026-04-04T15:16:33Z</time></trkpt><trkpt lat="44.595518669106376" lon="10.422200834942878"><ele>213.99999999999997</ele><time>2026-04-04T15:16:34Z</time></trkpt><trkpt lat="44.59542140591028" lon="10.422244391246261"><ele>213.99999999999997</ele><time>2026-04-04T15:16:35Z</time></trkpt><trkpt lat="44.595351556709694" lon="10.422297573911129"><ele>214.0</ele><time>2026-04-04T15:16:36Z</time></trkpt><trkpt lat="44.59526420598153" lon="10.42233615380144"><ele>214.0</ele><time>2026-04-04T15:16:38Z</time></trkpt><trkpt lat="44.59531547895048" lon="10.422462870451183"><ele>214.0</ele><time>2026-04-04T15:16:40Z</time></trkpt><trkpt lat="44.59541041679184" lon="10.4225132086442"><ele>213.99999999999997</ele><time>2026-04-04T15:16:42Z</time></trkpt><trkpt lat="44.595297393941145" lon="10.42259696308346"><ele>213.99999999999997</ele><time>2026-04-04T15:16:44Z</time></trkpt><trkpt lat="44.59522467132526" lon="10.422585390804905"><ele>214.0</ele><time>2026-04-04T15:16:45Z</time></trkpt><trkpt lat="44.59514259093423" lon="10.422648661065566"><ele>214.0</ele><time>2026-04-04T15:16:47Z</time></trkpt><trkpt lat="44.59514324750766" lon="10.422862193134664"><ele>215.42857142857144</ele><time>2026-04-04T15:16:48Z</time></trkpt><trkpt lat="44.59512133416957" lon="10.422956143764347"><ele>216.85714285714286</ele><time>2026-04-04T15:16:49Z</time></trkpt><trkpt lat="44.59509608220765" lon="10.4230375952803"><ele>218.28571428571428</ele><time>2026-04-04T15:16:50Z</time></trkpt><trkpt lat="44.5950445356455" lon="10.423112917852084"><ele>219.71428571428572</ele><time>2026-04-04T15:16:51Z</time></trkpt><trkpt lat="44.59499237011946" lon="10.423197494787663"><ele>221.14285714285714</ele><time>2026-04-04T15:16:52Z</time></trkpt><trkpt lat="44.59491817098068" lon="10.423242521199175"><ele>222.57142857142858</ele><time>2026-04-04T15:16:53Z</time></trkpt><trkpt lat="44.5948550412516" lon="10.423292601141611"><ele>224.0</ele><time>2026-04-04T15:16:54Z</time></trkpt><trkpt lat="44.59479163296095" lon="10.42333675620131"><ele>225.39999999999998</ele><time>2026-04-04T15:16:55Z</time></trkpt><trkpt lat="44.59471532143279" lon="10.423402963364033"><ele>226.79999999999998</ele><time>2026-04-04T15:16:56Z</time></trkpt><trkpt lat="44.59462869603635" lon="10.423461036416413"><ele>228.20000000000002</ele><time>2026-04-04T15:16:57Z</time></trkpt><trkpt lat="44.59454682799986" lon="10.423525388967533"><ele>229.60000000000002</ele><time>2026-04-04T15:16:58Z</time></trkpt><trkpt lat="44.59445921548745" lon="10.423556200565807"><ele>231.0</ele><time>2026-04-04T15:16:59Z</time></trkpt><trkpt lat="44.59437967051629" lon="10.42360170751626"><ele>234.0</ele><time>2026-04-04T15:17:00Z</time></trkpt><trkpt lat="44.594288434314514" lon="10.423649843570294"><ele>237.00000000000003</ele><time>2026-04-04T15:17:01Z</time></trkpt><trkpt lat="44.594190344516996" lon="10.423705341845718"><ele>240.00000000000003</ele><time>2026-04-04T15:17:02Z</time></trkpt><trkpt lat="44.59407110787873" lon="10.423786776187601"><ele>243.0</ele><time>2026-04-04T15:17:03Z</time></trkpt><trkpt lat="44.593983705913075" lon="10.423857620318499"><ele>246.0</ele><time>2026-04-04T15:17:04Z</time></trkpt><trkpt lat="44.59391226080353" lon="10.423919908463438"><ele>248.16666666666666</ele><time>2026-04-04T15:17:05Z</time></trkpt><trkpt lat="44.593852344254614" lon="10.423997570393079"><ele>250.33333333333331</ele><time>2026-04-04T15:17:06Z</time></trkpt><trkpt lat="44.59376456875202" lon="10.424052616681434"><ele>252.5</ele><time>2026-04-04T15:17:07Z</time></trkpt><trkpt lat="44.59369156719391" lon="10.42412781400372"><ele>254.66666666666666</ele><time>2026-04-04T15:17:08Z</time></trkpt><trkpt lat="44.59363296565833" lon="10.424198392521658"><ele>256.8333333333333</ele><time>2026-04-04T15:17:09Z</time></trkpt><trkpt lat="44.59356608476462" lon="10.424246648030522"><ele>259.0</ele><time>2026-04-04T15:17:10Z</time></trkpt><trkpt lat="44.59350479586251" lon="10.424328839723941"><ele>260.59999999999997</ele><time>2026-04-04T15:17:11Z</time></trkpt><trkpt lat="44.593412846881996" lon="10.424379444280888"><ele>262.2</ele><time>2026-04-04T15:17:12Z</time></trkpt><trkpt lat="44.59330543105951" lon="10.42444632431476"><ele>263.79999999999995</ele><time>2026-04-04T15:17:13Z</time></trkpt><trkpt lat="44.593197361640016" lon="10.42445072100178"><ele>265.4</ele><time>2026-04-04T15:17:14Z</time></trkpt><trkpt lat="44.59311162341787" lon="10.42447287320288"><ele>267.0</ele><time>2026-04-04T15:17:15Z</time></trkpt><trkpt lat="44.593038614337736" lon="10.424494130387167"><ele>267.0</ele><time>2026-04-04T15:17:16Z</time></trkpt><trkpt lat="44.59297072459412" lon="10.424541332871746"><ele>267.0</ele><time>2026-04-04T15:17:17Z</time></trkpt><trkpt lat="44.592897272751664" lon="10.42457094024044"><ele>267.0</ele><time>2026-04-04T15:17:18Z</time></trkpt><trkpt lat="44.59281972496263" lon="10.424651801294758"><ele>267.0</ele><time>2026-04-04T15:17:19Z</time></trkpt><trkpt lat="44.59275030739909" lon="10.424739889154065"><ele>267.0</ele><time>2026-04-04T15:17:20Z</time></trkpt><trkpt lat="44.59269003465234" lon="10.424811552887558"><ele>267.0</ele><time>2026-04-04T15:17:21Z</time></trkpt><trkpt lat="44.59260033952981" lon="10.424882117479232"><ele>270.4</ele><time>2026-04-04T15:17:22Z</time></trkpt><trkpt lat="44.59252129063998" lon="10.424917723220362"><ele>273.79999999999995</ele><time>2026-04-04T15:17:23Z</time></trkpt><trkpt lat="44.59245393564521" lon="10.424914423933226"><ele>277.2</ele><time>2026-04-04T15:17:24Z</time></trkpt><trkpt lat="44.5923879355609" lon="10.424916099799214"><ele>280.59999999999997</ele><time>2026-04-04T15:17:25Z</time></trkpt><trkpt lat="44.592285692647934" lon="10.424928062255024"><ele>284.0</ele><time>2026-04-04T15:17:26Z</time></trkpt><trkpt lat="44.59214491157937" lon="10.424977426333967"><ele>284.0</ele><time>2026-04-04T15:17:27Z</time></trkpt><trkpt lat="44.59201638464494" lon="10.424998101814342"><ele>284.0</ele><time>2026-04-04T15:17:28Z</time></trkpt><trkpt lat="44.59188402788261" lon="10.425044797472784"><ele>284.0</ele><time>2026-04-04T15:17:28.999Z</time></trkpt><trkpt lat="44.59176597729662" lon="10.425053918767446"><ele>284.0</ele><time>2026-04-04T15:17:29.999Z</time></trkpt><trkpt lat="44.59167196232536" lon="10.425074610474635"><ele>286.4</ele><time>2026-04-04T15:17:30.999Z</time></trkpt><trkpt lat="44.5915704239492" lon="10.425099451522161"><ele>288.79999999999995</ele><time>2026-04-04T15:17:31.999Z</time></trkpt><trkpt lat="44.59146714250632" lon="10.425124948699626"><ele>291.20000000000005</ele><time>2026-04-04T15:17:32.999Z</time></trkpt><trkpt lat="44.591367460623935" lon="10.425121511382102"><ele>293.6</ele><time>2026-04-04T15:17:33.999Z</time></trkpt><trkpt lat="44.59127371497863" lon="10.425140436571132"><ele>296.0</ele><time>2026-04-04T15:17:34.999Z</time></trkpt><trkpt lat="44.591180380236594" lon="10.42516923472627"><ele>299.0</ele><time>2026-04-04T15:17:35.999Z</time></trkpt><trkpt lat="44.59108212412415" lon="10.425205063208605"><ele>302.0</ele><time>2026-04-04T15:17:36.999Z</time></trkpt><trkpt lat="44.590981383734864" lon="10.425218792250625"><ele>305.0</ele><time>2026-04-04T15:17:37.999Z</time></trkpt><trkpt lat="44.59088683951722" lon="10.425267491675436"><ele>308.0</ele><time>2026-04-04T15:17:38.999Z</time></trkpt><trkpt lat="44.590806800408004" lon="10.42532205073905"><ele>311.0</ele><time>2026-04-04T15:17:39.999Z</time></trkpt><trkpt lat="44.59073256510705" lon="10.42537662044624"><ele>311.0</ele><time>2026-04-04T15:17:40.999Z</time></trkpt><trkpt lat="44.59065020781534" lon="10.425444955533687"><ele>311.0</ele><time>2026-04-04T15:17:41.999Z</time></trkpt><trkpt lat="44.590551409612345" lon="10.425487107296586"><ele>311.0</ele><time>2026-04-04T15:17:42.999Z</time></trkpt><trkpt lat="44.590443303036814" lon="10.425503840553406"><ele>311.0</ele><time>2026-04-04T15:17:43.999Z</time></trkpt><trkpt lat="44.59033306436835" lon="10.4255840789123"><ele>311.0</ele><time>2026-04-04T15:17:44.999Z</time></trkpt><trkpt lat="44.59018854162215" lon="10.425660236529637"><ele>315.0</ele><time>2026-04-04T15:17:45.999Z</time></trkpt><trkpt lat="44.59005042280288" lon="10.425743296361492"><ele>319.0</ele><time>2026-04-04T15:17:46.999Z</time></trkpt><trkpt lat="44.589977577589906" lon="10.42583378399747"><ele>323.0</ele><time>2026-04-04T15:17:47.999Z</time></trkpt><trkpt lat="44.58993299842204" lon="10.42591538400738"><ele>327.0</ele><time>2026-04-04T15:17:48.999Z</time></trkpt><trkpt lat="44.58989313183572" lon="10.426015700599812"><ele>331.0</ele><time>2026-04-04T15:17:49.999Z</time></trkpt><trkpt lat="44.58983532064845" lon="10.426080824671969"><ele>331.0</ele><time>2026-04-04T15:17:50.999Z</time></trkpt><trkpt lat="44.58975516530501" lon="10.426117799475556"><ele>331.0</ele><time>2026-04-04T15:17:51.999Z</time></trkpt><trkpt lat="44.589669299017544" lon="10.426142091291196"><ele>331.0</ele><time>2026-04-04T15:17:52.999Z</time></trkpt><trkpt lat="44.58959998999163" lon="10.42613519527269"><ele>331.0</ele><time>2026-04-04T15:17:53.999Z</time></trkpt><trkpt lat="44.58951851157374" lon="10.426102844738962"><ele>331.0</ele><time>2026-04-04T15:17:54.999Z</time></trkpt><trkpt lat="44.58943306374037" lon="10.426074734870996"><ele>331.0</ele><time>2026-04-04T15:17:55.999Z</time></trkpt><trkpt lat="44.58934859361784" lon="10.42610829122909"><ele>334.0</ele><time>2026-04-04T15:17:56.999Z</time></trkpt><trkpt lat="44.589253889252156" lon="10.426183130221656"><ele>337.0</ele><time>2026-04-04T15:17:57.999Z</time></trkpt><trkpt lat="44.58915334253792" lon="10.426205658633009"><ele>340.0</ele><time>2026-04-04T15:17:58.999Z</time></trkpt><trkpt lat="44.58905358811898" lon="10.426154834491037"><ele>343.0</ele><time>2026-04-04T15:17:59.999Z</time></trkpt><trkpt lat="44.58892093452926" lon="10.426072685641365"><ele>343.0</ele><time>2026-04-04T15:18:00.999Z</time></trkpt><trkpt lat="44.58877019374474" lon="10.426012112472751"><ele>343.0</ele><time>2026-04-04T15:18:01.999Z</time></trkpt><trkpt lat="44.58866173992466" lon="10.42602049761202"><ele>343.0</ele><time>2026-04-04T15:18:02.999Z</time></trkpt><trkpt lat="44.588558928438715" lon="10.426019946162004"><ele>343.0</ele><time>2026-04-04T15:18:03.999Z</time></trkpt><trkpt lat="44.588464841754" lon="10.425980552039261"><ele>345.0</ele><time>2026-04-04T15:18:04.999Z</time></trkpt><trkpt lat="44.5883597110061" lon="10.425931356729116"><ele>347.0</ele><time>2026-04-04T15:18:05.999Z</time></trkpt><trkpt lat="44.58824737375205" lon="10.425871911962401"><ele>349.0</ele><time>2026-04-04T15:18:06.999Z</time></trkpt><trkpt lat="44.588127940847876" lon="10.425820231676692"><ele>351.0</ele><time>2026-04-04T15:18:07.999Z</time></trkpt><trkpt lat="44.58798830251471" lon="10.425796020543213"><ele>351.0</ele><time>2026-04-04T15:18:08.999Z</time></trkpt><trkpt lat="44.587848723092584" lon="10.425785711102316"><ele>351.0</ele><time>2026-04-04T15:18:09.999Z</time></trkpt><trkpt lat="44.58773532844275" lon="10.425782778142091"><ele>351.0</ele><time>2026-04-04T15:18:10.999Z</time></trkpt><trkpt lat="44.5876345656993" lon="10.425799888200965"><ele>351.0</ele><time>2026-04-04T15:18:11.999Z</time></trkpt><trkpt lat="44.58754804424406" lon="10.425802169391543"><ele>351.0</ele><time>2026-04-04T15:18:12.999Z</time></trkpt><trkpt lat="44.58745036989201" lon="10.425768151320286"><ele>354.0</ele><time>2026-04-04T15:18:13.999Z</time></trkpt><trkpt lat="44.58733995057566" lon="10.425713204488652"><ele>357.0</ele><time>2026-04-04T15:18:14.999Z</time></trkpt><trkpt lat="44.58721194758119" lon="10.42567309637545"><ele>360.0</ele><time>2026-04-04T15:18:15.999Z</time></trkpt><trkpt lat="44.58710350311281" lon="10.4256842753864"><ele>363.0</ele><time>2026-04-04T15:18:16.999Z</time></trkpt><trkpt lat="44.58700291098556" lon="10.425706680749611"><ele>366.0</ele><time>2026-04-04T15:18:17.999Z</time></trkpt><trkpt lat="44.58689983404822" lon="10.42575094670433"><ele>369.0</ele><time>2026-04-04T15:18:18.999Z</time></trkpt><trkpt lat="44.5867970190844" lon="10.425804791002856"><ele>372.0</ele><time>2026-04-04T15:18:19.999Z</time></trkpt><trkpt lat="44.58670840532806" lon="10.425878352816463"><ele>375.0</ele><time>2026-04-04T15:18:20.999Z</time></trkpt><trkpt lat="44.58662222236193" lon="10.42595428550168"><ele>378.0</ele><time>2026-04-04T15:18:22Z</time></trkpt><trkpt lat="44.5865412654337" lon="10.426024177951598"><ele>378.0</ele><time>2026-04-04T15:18:23Z</time></trkpt><trkpt lat="44.58645743234427" lon="10.426090567712581"><ele>378.0</ele><time>2026-04-04T15:18:24Z</time></trkpt><trkpt lat="44.586366877111324" lon="10.426176006739059"><ele>378.0</ele><time>2026-04-04T15:18:25Z</time></trkpt><trkpt lat="44.58628441725173" lon="10.426265874187218"><ele>378.0</ele><time>2026-04-04T15:18:26Z</time></trkpt><trkpt lat="44.586211841424955" lon="10.426320510162414"><ele>378.0</ele><time>2026-04-04T15:18:27Z</time></trkpt><trkpt lat="44.58608562382694" lon="10.426334595322603"><ele>379.0</ele><time>2026-04-04T15:18:29Z</time></trkpt><trkpt lat="44.585998107469486" lon="10.42632026095504"><ele>380.0</ele><time>2026-04-04T15:18:30Z</time></trkpt><trkpt lat="44.5858963800366" lon="10.426324648917433"><ele>381.0</ele><time>2026-04-04T15:18:31Z</time></trkpt><trkpt lat="44.585783542896316" lon="10.426333313993842"><ele>382.0</ele><time>2026-04-04T15:18:32Z</time></trkpt><trkpt lat="44.585667754108655" lon="10.426343821011043"><ele>383.0</ele><time>2026-04-04T15:18:33Z</time></trkpt><trkpt lat="44.585574840938136" lon="10.426330508613352"><ele>384.5</ele><time>2026-04-04T15:18:34Z</time></trkpt><trkpt lat="44.58549229217348" lon="10.426305067904726"><ele>386.0</ele><time>2026-04-04T15:18:35Z</time></trkpt><trkpt lat="44.58538178438116" lon="10.426294035971242"><ele>387.5</ele><time>2026-04-04T15:18:36Z</time></trkpt><trkpt lat="44.58530231781258" lon="10.426282866563781"><ele>389.0</ele><time>2026-04-04T15:18:37Z</time></trkpt><trkpt lat="44.58523167000496" lon="10.426265168223964"><ele>390.49999999999994</ele><time>2026-04-04T15:18:38Z</time></trkpt><trkpt lat="44.585159628177166" lon="10.42622730582994"><ele>392.0</ele><time>2026-04-04T15:18:39Z</time></trkpt><trkpt lat="44.5850867663014" lon="10.426185145757074"><ele>391.99999999999994</ele><time>2026-04-04T15:18:40Z</time></trkpt><trkpt lat="44.584994458764406" lon="10.42613681529501"><ele>392.0</ele><time>2026-04-04T15:18:41Z</time></trkpt><trkpt lat="44.58490875215981" lon="10.426137359151042"><ele>392.0</ele><time>2026-04-04T15:18:42Z</time></trkpt><trkpt lat="44.5848393792382" lon="10.426164412157789"><ele>392.0</ele><time>2026-04-04T15:18:43Z</time></trkpt><trkpt lat="44.58477534294399" lon="10.426235540170685"><ele>391.99999999999994</ele><time>2026-04-04T15:18:45Z</time></trkpt><trkpt lat="44.58472177616254" lon="10.426303054524402"><ele>392.0</ele><time>2026-04-04T15:18:47Z</time></trkpt><trkpt lat="44.5846643725914" lon="10.426401632747375"><ele>392.0</ele><time>2026-04-04T15:18:49Z</time></trkpt><trkpt lat="44.58460237547056" lon="10.426493622841125"><ele>392.0</ele><time>2026-04-04T15:18:52Z</time></trkpt><trkpt lat="44.58450372751078" lon="10.426587511781516"><ele>392.0</ele><time>2026-04-04T15:18:54Z</time></trkpt><trkpt lat="44.58440877593085" lon="10.426737196241696"><ele>392.0</ele><time>2026-04-04T15:21:12.999Z</time></trkpt><trkpt lat="44.584300403233726" lon="10.426829892336405"><ele>393.42857142857144</ele><time>2026-04-04T15:21:14.999Z</time></trkpt><trkpt lat="44.58423459283597" lon="10.426908684721186"><ele>394.8571428571429</ele><time>2026-04-04T15:21:15.999Z</time></trkpt><trkpt lat="44.58417829978759" lon="10.426983871111041"><ele>396.2857142857143</ele><time>2026-04-04T15:21:16.999Z</time></trkpt><trkpt lat="44.58412359979954" lon="10.427048817060651"><ele>397.7142857142857</ele><time>2026-04-04T15:21:17.999Z</time></trkpt><trkpt lat="44.5840554331932" lon="10.427088213710324"><ele>399.14285714285717</ele><time>2026-04-04T15:21:18.999Z</time></trkpt><trkpt lat="44.58399656122996" lon="10.427138007137627"><ele>400.57142857142856</ele><time>2026-04-04T15:21:19.999Z</time></trkpt><trkpt lat="44.5839395221845" lon="10.427184901312758"><ele>402.0</ele><time>2026-04-04T15:21:20.999Z</time></trkpt><trkpt lat="44.583837534220514" lon="10.427249724063469"><ele>402.0</ele><time>2026-04-04T15:21:22.999Z</time></trkpt><trkpt lat="44.58371123407647" lon="10.427283029560575"><ele>402.0</ele><time>2026-04-04T15:21:24.999Z</time></trkpt><trkpt lat="44.58364830103902" lon="10.427325230318853"><ele>402.0</ele><time>2026-04-04T15:21:25.999Z</time></trkpt><trkpt lat="44.58356425513507" lon="10.427327304894556"><ele>402.0</ele><time>2026-04-04T15:21:28.999Z</time></trkpt><trkpt lat="44.583504572862964" lon="10.427283821186062"><ele>402.0</ele><time>2026-04-04T15:21:30.999Z</time></trkpt><trkpt lat="44.58345341856036" lon="10.427231922358445"><ele>402.0</ele><time>2026-04-04T15:21:31.999Z</time></trkpt><trkpt lat="44.583402360254574" lon="10.427175854343634"><ele>405.3333333333333</ele><time>2026-04-04T15:21:32.999Z</time></trkpt><trkpt lat="44.58331182508776" lon="10.427053917443699"><ele>408.66666666666663</ele><time>2026-04-04T15:21:34.999Z</time></trkpt><trkpt lat="44.583262414445244" lon="10.426981651697051"><ele>412.0</ele><time>2026-04-04T15:21:35.999Z</time></trkpt><trkpt lat="44.58321553999373" lon="10.426908682165479"><ele>415.3333333333333</ele><time>2026-04-04T15:21:36.999Z</time></trkpt><trkpt lat="44.58316163675542" lon="10.426820410772907"><ele>418.66666666666663</ele><time>2026-04-04T15:21:37.999Z</time></trkpt><trkpt lat="44.583093108988265" lon="10.42673254237763"><ele>422.0</ele><time>2026-04-04T15:21:38.999Z</time></trkpt><trkpt lat="44.58301845534971" lon="10.426686078001023"><ele>422.0</ele><time>2026-04-04T15:21:39.999Z</time></trkpt><trkpt lat="44.58294469716487" lon="10.426664749119785"><ele>422.0</ele><time>2026-04-04T15:21:40.999Z</time></trkpt><trkpt lat="44.582856849028715" lon="10.42664027863258"><ele>422.0</ele><time>2026-04-04T15:21:41.999Z</time></trkpt><trkpt lat="44.5827569707976" lon="10.426618175613868"><ele>422.0</ele><time>2026-04-04T15:21:42.999Z</time></trkpt><trkpt lat="44.58264244951891" lon="10.426598674172071"><ele>422.0</ele><time>2026-04-04T15:21:43.999Z</time></trkpt><trkpt lat="44.58253386658036" lon="10.426586461054852"><ele>424.40000000000003</ele><time>2026-04-04T15:21:44.999Z</time></trkpt><trkpt lat="44.582424127892416" lon="10.426555157664707"><ele>426.8</ele><time>2026-04-04T15:21:45.999Z</time></trkpt><trkpt lat="44.582318275081626" lon="10.42650030453484"><ele>429.2</ele><time>2026-04-04T15:21:46.999Z</time></trkpt><trkpt lat="44.58221045529047" lon="10.426483276120928"><ele>431.6</ele><time>2026-04-04T15:21:47.999Z</time></trkpt><trkpt lat="44.58210406659865" lon="10.426470591232269"><ele>434.0</ele><time>2026-04-04T15:21:48.999Z</time></trkpt><trkpt lat="44.58200355057141" lon="10.42645920895701"><ele>434.49999999999994</ele><time>2026-04-04T15:21:49.999Z</time></trkpt><trkpt lat="44.58191619851103" lon="10.426450446550916"><ele>435.0</ele><time>2026-04-04T15:21:50.999Z</time></trkpt><trkpt lat="44.581830792288244" lon="10.426436687809415"><ele>435.5</ele><time>2026-04-04T15:21:51.999Z</time></trkpt><trkpt lat="44.58175801372304" lon="10.426410299152169"><ele>436.0</ele><time>2026-04-04T15:21:52.999Z</time></trkpt><trkpt lat="44.581691275745385" lon="10.426362622605184"><ele>436.49999999999994</ele><time>2026-04-04T15:21:53.999Z</time></trkpt><trkpt lat="44.58160850907869" lon="10.426280716466332"><ele>437.0</ele><time>2026-04-04T15:21:55.999Z</time></trkpt><trkpt lat="44.581546206751966" lon="10.426220280733194"><ele>436.99999999999994</ele><time>2026-04-04T15:21:58.999Z</time></trkpt><trkpt lat="44.581464091445774" lon="10.42626737323716"><ele>437.0</ele><time>2026-04-04T15:21:59.999Z</time></trkpt><trkpt lat="44.581396236802036" lon="10.426313236552343"><ele>437.0</ele><time>2026-04-04T15:22:00.999Z</time></trkpt><trkpt lat="44.58132852468343" lon="10.426362293928227"><ele>437.0</ele><time>2026-04-04T15:22:01.999Z</time></trkpt><trkpt lat="44.58126097174225" lon="10.426418283817528"><ele>436.99999999999994</ele><time>2026-04-04T15:22:02.999Z</time></trkpt><trkpt lat="44.58119441145395" lon="10.426477517920368"><ele>437.0</ele><time>2026-04-04T15:22:03.999Z</time></trkpt><trkpt lat="44.58112857647543" lon="10.426538339002647"><ele>436.66666666666663</ele><time>2026-04-04T15:22:04.999Z</time></trkpt><trkpt lat="44.58106128211386" lon="10.426600508311688"><ele>436.3333333333333</ele><time>2026-04-04T15:22:05.999Z</time></trkpt><trkpt lat="44.5809951087319" lon="10.426660153087823"><ele>436.0</ele><time>2026-04-04T15:22:06.999Z</time></trkpt><trkpt lat="44.580933599944366" lon="10.426715507419747"><ele>435.66666666666663</ele><time>2026-04-04T15:22:07.999Z</time></trkpt><trkpt lat="44.58087811078184" lon="10.426765113669946"><ele>435.3333333333333</ele><time>2026-04-04T15:22:08.999Z</time></trkpt><trkpt lat="44.580787740786484" lon="10.426863771508536"><ele>435.0</ele><time>2026-04-04T15:22:10.999Z</time></trkpt><trkpt lat="44.58070737246204" lon="10.42692735831608"><ele>435.0</ele><time>2026-04-04T15:22:12.999Z</time></trkpt><trkpt lat="44.58064404162625" lon="10.42695975153998"><ele>435.0</ele><time>2026-04-04T15:22:15.999Z</time></trkpt><trkpt lat="44.58054491364168" lon="10.427046667538336"><ele>435.0</ele><time>2026-04-04T15:22:45Z</time></trkpt><trkpt lat="44.58049073108382" lon="10.42712471309768"><ele>435.0</ele><time>2026-04-04T15:22:46Z</time></trkpt><trkpt lat="44.5804480133123" lon="10.427231659249449"><ele>435.0</ele><time>2026-04-04T15:22:47Z</time></trkpt><trkpt lat="44.58039371207353" lon="10.427336671171071"><ele>435.0</ele><time>2026-04-04T15:22:48Z</time></trkpt><trkpt lat="44.58035244256199" lon="10.427459820591405"><ele>433.0</ele><time>2026-04-04T15:22:49Z</time></trkpt><trkpt lat="44.58031293346433" lon="10.427581723014084"><ele>431.0</ele><time>2026-04-04T15:22:50Z</time></trkpt><trkpt lat="44.58027913655566" lon="10.427688955750465"><ele>429.0</ele><time>2026-04-04T15:22:51Z</time></trkpt><trkpt lat="44.58025007731232" lon="10.42778115679383"><ele>427.0</ele><time>2026-04-04T15:22:52Z</time></trkpt><trkpt lat="44.580205095903736" lon="10.42791365923026"><ele>425.0</ele><time>2026-04-04T15:22:54Z</time></trkpt><trkpt lat="44.58014563660625" lon="10.428051532605616"><ele>425.0</ele><time>2026-04-04T15:22:56Z</time></trkpt><trkpt lat="44.58010853634222" lon="10.428163757610214"><ele>425.0</ele><time>2026-04-04T15:22:58Z</time></trkpt><trkpt lat="44.580064272568116" lon="10.428297651382163"><ele>425.0</ele><time>2026-04-04T15:23:00Z</time></trkpt><trkpt lat="44.58002831797429" lon="10.428406410721257"><ele>425.0</ele><time>2026-04-04T15:23:01Z</time></trkpt><trkpt lat="44.57999866371194" lon="10.428496112089245"><ele>425.0</ele><time>2026-04-04T15:23:02Z</time></trkpt><trkpt lat="44.579952477566685" lon="10.428635820713376"><ele>424.99999999999994</ele><time>2026-04-04T15:23:04Z</time></trkpt><trkpt lat="44.579915159707646" lon="10.428761325102826"><ele>425.0</ele><time>2026-04-04T15:23:06Z</time></trkpt><trkpt lat="44.57989006476741" lon="10.42885373417254"><ele>425.0</ele><time>2026-04-04T15:23:07Z</time></trkpt><trkpt lat="44.579864747862814" lon="10.428957160813574"><ele>425.0</ele><time>2026-04-04T15:23:08Z</time></trkpt><trkpt lat="44.579844096270406" lon="10.429060416150719"><ele>424.99999999999994</ele><time>2026-04-04T15:23:09Z</time></trkpt><trkpt lat="44.57981198707663" lon="10.429213657618003"><ele>425.0</ele><time>2026-04-04T15:23:10Z</time></trkpt><trkpt lat="44.5797045151163" lon="10.429468504814679"><ele>425.0</ele><time>2026-04-04T15:23:11Z</time></trkpt><trkpt lat="44.57964581886356" lon="10.42955995884953"><ele>425.0</ele><time>2026-04-04T15:23:12Z</time></trkpt><trkpt lat="44.579563749798886" lon="10.429678250752767"><ele>425.0</ele><time>2026-04-04T15:23:12.999Z</time></trkpt><trkpt lat="44.579488067128196" lon="10.429785288442174"><ele>425.0</ele><time>2026-04-04T15:23:13.999Z</time></trkpt><trkpt lat="44.57941269134544" lon="10.42989189191715"><ele>425.0</ele><time>2026-04-04T15:23:14.999Z</time></trkpt><trkpt lat="44.57934797333131" lon="10.429984364117702"><ele>424.49999999999994</ele><time>2026-04-04T15:23:15.999Z</time></trkpt><trkpt lat="44.57928271170362" lon="10.430078737939244"><ele>424.0</ele><time>2026-04-04T15:23:16.999Z</time></trkpt><trkpt lat="44.57919751023827" lon="10.430142202542777"><ele>423.5</ele><time>2026-04-04T15:23:17.999Z</time></trkpt><trkpt lat="44.579119250344895" lon="10.430217905736578"><ele>423.0</ele><time>2026-04-04T15:23:18.999Z</time></trkpt><trkpt lat="44.57905344651392" lon="10.430276074624452"><ele>422.49999999999994</ele><time>2026-04-04T15:23:19.999Z</time></trkpt><trkpt lat="44.57899092508322" lon="10.430329864788842"><ele>422.0</ele><time>2026-04-04T15:23:20.999Z</time></trkpt><trkpt lat="44.578391514867505" lon="10.429790102291106"><ele>419.0</ele><time>2026-04-04T15:23:21.999Z</time></trkpt><trkpt lat="44.578287367427656" lon="10.429835456797173"><ele>416.0</ele><time>2026-04-04T15:23:22.999Z</time></trkpt><trkpt lat="44.57817761908264" lon="10.42987271678973"><ele>413.0</ele><time>2026-04-04T15:23:23.999Z</time></trkpt><trkpt lat="44.578071203851025" lon="10.429915799191553"><ele>410.0</ele><time>2026-04-04T15:23:24.999Z</time></trkpt><trkpt lat="44.57796744782783" lon="10.42998013966048"><ele>407.0</ele><time>2026-04-04T15:23:25.999Z</time></trkpt><trkpt lat="44.57787109026647" lon="10.430061784822508"><ele>404.0</ele><time>2026-04-04T15:23:26.999Z</time></trkpt><trkpt lat="44.57777180880259" lon="10.430144175989305"><ele>401.0</ele><time>2026-04-04T15:23:27.999Z</time></trkpt><trkpt lat="44.57766791339139" lon="10.430210124343292"><ele>398.0</ele><time>2026-04-04T15:23:28.999Z</time></trkpt><trkpt lat="44.57756370732562" lon="10.43026012441833"><ele>395.0</ele><time>2026-04-04T15:23:29.999Z</time></trkpt><trkpt lat="44.57745361548191" lon="10.43031801459733"><ele>395.0</ele><time>2026-04-04T15:23:30.999Z</time></trkpt><trkpt lat="44.577358023088955" lon="10.430389849739331"><ele>395.0</ele><time>2026-04-04T15:23:31.999Z</time></trkpt><trkpt lat="44.57727302893992" lon="10.430477678408241"><ele>395.0</ele><time>2026-04-04T15:23:32.999Z</time></trkpt><trkpt lat="44.57720501695945" lon="10.430578553586914"><ele>395.0</ele><time>2026-04-04T15:23:33.999Z</time></trkpt><trkpt lat="44.57714768651093" lon="10.430688885432748"><ele>395.0</ele><time>2026-04-04T15:23:34.999Z</time></trkpt><trkpt lat="44.57709763618079" lon="10.430816532775324"><ele>394.2</ele><time>2026-04-04T15:23:35.999Z</time></trkpt><trkpt lat="44.57706632535798" lon="10.43096099900922"><ele>393.4</ele><time>2026-04-04T15:23:36.999Z</time></trkpt><trkpt lat="44.577027635391076" lon="10.431097884645062"><ele>392.6</ele><time>2026-04-04T15:23:37.999Z</time></trkpt><trkpt lat="44.577007261252085" lon="10.43123321150087"><ele>391.8</ele><time>2026-04-04T15:23:38.999Z</time></trkpt><trkpt lat="44.57698838429874" lon="10.431358112645542"><ele>391.0</ele><time>2026-04-04T15:23:39.999Z</time></trkpt><trkpt lat="44.57696253196115" lon="10.431472551103193"><ele>391.0</ele><time>2026-04-04T15:23:40.999Z</time></trkpt><trkpt lat="44.576938363640274" lon="10.431584807896193"><ele>391.0</ele><time>2026-04-04T15:23:41.999Z</time></trkpt><trkpt lat="44.57686862532414" lon="10.431669659533807"><ele>391.0</ele><time>2026-04-04T15:23:42.999Z</time></trkpt><trkpt lat="44.57677569207046" lon="10.431712830834067"><ele>391.0</ele><time>2026-04-04T15:23:43.999Z</time></trkpt><trkpt lat="44.57668883912199" lon="10.431711099811771"><ele>391.0</ele><time>2026-04-04T15:23:44.999Z</time></trkpt><trkpt lat="44.576590650880064" lon="10.431685534501248"><ele>391.0</ele><time>2026-04-04T15:23:45.999Z</time></trkpt><trkpt lat="44.57649122483524" lon="10.431635466679209"><ele>391.0</ele><time>2026-04-04T15:23:46.999Z</time></trkpt><trkpt lat="44.576393060794935" lon="10.431563315811765"><ele>391.0</ele><time>2026-04-04T15:23:47.999Z</time></trkpt><trkpt lat="44.57629245291934" lon="10.43153848350776"><ele>391.0</ele><time>2026-04-04T15:23:48.999Z</time></trkpt><trkpt lat="44.57619811001482" lon="10.43154422506945"><ele>391.0</ele><time>2026-04-04T15:23:49.999Z</time></trkpt><trkpt lat="44.57609269354762" lon="10.431583958925048"><ele>390.0</ele><time>2026-04-04T15:23:50.999Z</time></trkpt><trkpt lat="44.5759792185316" lon="10.431631230485875"><ele>389.0</ele><time>2026-04-04T15:23:51.999Z</time></trkpt><trkpt lat="44.575876870183215" lon="10.431678853652128"><ele>388.0</ele><time>2026-04-04T15:23:52.999Z</time></trkpt><trkpt lat="44.57578911830286" lon="10.431738888973946"><ele>387.0</ele><time>2026-04-04T15:23:53.999Z</time></trkpt><trkpt lat="44.575707258887135" lon="10.43178576229252"><ele>386.0</ele><time>2026-04-04T15:23:54.999Z</time></trkpt><trkpt lat="44.575633771794905" lon="10.431850430669398"><ele>385.99999999999994</ele><time>2026-04-04T15:23:55.999Z</time></trkpt><trkpt lat="44.575563721905525" lon="10.431915789525412"><ele>386.0</ele><time>2026-04-04T15:23:56.999Z</time></trkpt><trkpt lat="44.575515954328964" lon="10.431989386598712"><ele>386.0</ele><time>2026-04-04T15:23:57.999Z</time></trkpt><trkpt lat="44.57545068782533" lon="10.432006881396733"><ele>386.0</ele><time>2026-04-04T15:23:58.999Z</time></trkpt><trkpt lat="44.57536958465381" lon="10.431949308651"><ele>385.99999999999994</ele><time>2026-04-04T15:23:59.999Z</time></trkpt><trkpt lat="44.57528300092993" lon="10.431952901908776"><ele>386.0</ele><time>2026-04-04T15:24:00.999Z</time></trkpt><trkpt lat="44.57521167787669" lon="10.431966208528202"><ele>384.5</ele><time>2026-04-04T15:24:01.999Z</time></trkpt><trkpt lat="44.57509690539199" lon="10.431907304334159"><ele>383.0</ele><time>2026-04-04T15:24:03.999Z</time></trkpt><trkpt lat="44.57502175375165" lon="10.431839920938456"><ele>381.5</ele><time>2026-04-04T15:24:04.999Z</time></trkpt><trkpt lat="44.5749275638337" lon="10.431761600510782"><ele>380.0</ele><time>2026-04-04T15:24:05.999Z</time></trkpt><trkpt lat="44.57481826522634" lon="10.431660896738782"><ele>380.0</ele><time>2026-04-04T15:24:06.999Z</time></trkpt><trkpt lat="44.57471066503777" lon="10.431565902439218"><ele>380.0</ele><time>2026-04-04T15:24:07.999Z</time></trkpt><trkpt lat="44.574617279853385" lon="10.431483781574624"><ele>380.0</ele><time>2026-04-04T15:24:08.999Z</time></trkpt><trkpt lat="44.574532291721574" lon="10.431386112087486"><ele>380.0</ele><time>2026-04-04T15:24:09.999Z</time></trkpt><trkpt lat="44.574429946002674" lon="10.431304091404366"><ele>376.25</ele><time>2026-04-04T15:24:10.999Z</time></trkpt><trkpt lat="44.57430484372099" lon="10.431247272605473"><ele>372.5</ele><time>2026-04-04T15:24:11.999Z</time></trkpt><trkpt lat="44.57416447915232" lon="10.431212428401249"><ele>368.75</ele><time>2026-04-04T15:24:12.999Z</time></trkpt><trkpt lat="44.57403982538364" lon="10.43115824856465"><ele>365.0</ele><time>2026-04-04T15:24:13.999Z</time></trkpt><trkpt lat="44.57394876670335" lon="10.431071872421787"><ele>365.0</ele><time>2026-04-04T15:24:14.999Z</time></trkpt><trkpt lat="44.57385769030682" lon="10.430974220629741"><ele>365.0</ele><time>2026-04-04T15:24:15.999Z</time></trkpt><trkpt lat="44.57374358811511" lon="10.430873021770164"><ele>365.0</ele><time>2026-04-04T15:24:16.999Z</time></trkpt><trkpt lat="44.573648452317066" lon="10.430776133465692"><ele>365.0</ele><time>2026-04-04T15:24:17.999Z</time></trkpt><trkpt lat="44.57357935600861" lon="10.430675741461707"><ele>365.0</ele><time>2026-04-04T15:24:18.999Z</time></trkpt><trkpt lat="44.573518980326575" lon="10.43055030597498"><ele>365.0</ele><time>2026-04-04T15:24:19.999Z</time></trkpt><trkpt lat="44.5734534908084" lon="10.430421710707458"><ele>365.0</ele><time>2026-04-04T15:24:20.999Z</time></trkpt><trkpt lat="44.57339298951441" lon="10.430316672552369"><ele>365.0</ele><time>2026-04-04T15:24:21.999Z</time></trkpt><trkpt lat="44.57333528453178" lon="10.430219308832406"><ele>365.0</ele><time>2026-04-04T15:24:22.999Z</time></trkpt><trkpt lat="44.57327768741711" lon="10.430109371333254"><ele>365.0</ele><time>2026-04-04T15:24:23.999Z</time></trkpt><trkpt lat="44.57321204647539" lon="10.430010107544007"><ele>365.0</ele><time>2026-04-04T15:24:24.999Z</time></trkpt><trkpt lat="44.57316968709484" lon="10.429910327847876"><ele>365.0</ele><time>2026-04-04T15:24:25.999Z</time></trkpt><trkpt lat="44.573160654821855" lon="10.4298124562071"><ele>365.0</ele><time>2026-04-04T15:24:26.999Z</time></trkpt><trkpt lat="44.57318426609256" lon="10.42970237037216"><ele>365.0</ele><time>2026-04-04T15:24:27.999Z</time></trkpt><trkpt lat="44.57322399115606" lon="10.429578842809487"><ele>365.0</ele><time>2026-04-04T15:24:28.999Z</time></trkpt><trkpt lat="44.57326159017923" lon="10.42942998600566"><ele>362.6</ele><time>2026-04-04T15:24:29.999Z</time></trkpt><trkpt lat="44.573293073042834" lon="10.42928551378374"><ele>360.2</ele><time>2026-04-04T15:24:30.999Z</time></trkpt><trkpt lat="44.57332169989094" lon="10.42915533568668"><ele>357.79999999999995</ele><time>2026-04-04T15:24:31.999Z</time></trkpt><trkpt lat="44.573345077818665" lon="10.429016473975308"><ele>355.4</ele><time>2026-04-04T15:24:33Z</time></trkpt><trkpt lat="44.573366048492396" lon="10.428883105978123"><ele>353.0</ele><time>2026-04-04T15:24:34Z</time></trkpt><trkpt lat="44.57339755330103" lon="10.42875412593996"><ele>351.0</ele><time>2026-04-04T15:24:35Z</time></trkpt><trkpt lat="44.57343824374206" lon="10.428640217389178"><ele>349.0</ele><time>2026-04-04T15:24:36Z</time></trkpt><trkpt lat="44.57348684998207" lon="10.428531837992905"><ele>347.0</ele><time>2026-04-04T15:24:37Z</time></trkpt><trkpt lat="44.573516202814425" lon="10.42842931600526"><ele>345.0</ele><time>2026-04-04T15:24:38Z</time></trkpt><trkpt lat="44.57352024797352" lon="10.42832138855554"><ele>343.0</ele><time>2026-04-04T15:24:39Z</time></trkpt><trkpt lat="44.5735010416322" lon="10.428211444321466"><ele>341.0</ele><time>2026-04-04T15:24:40Z</time></trkpt><trkpt lat="44.57345630545095" lon="10.428107662870014"><ele>341.0</ele><time>2026-04-04T15:24:41Z</time></trkpt><trkpt lat="44.573396857275625" lon="10.428015828501524"><ele>341.0</ele><time>2026-04-04T15:24:42Z</time></trkpt><trkpt lat="44.573340921154504" lon="10.427936005340456"><ele>341.0</ele><time>2026-04-04T15:24:43Z</time></trkpt><trkpt lat="44.57329674174462" lon="10.427860078050339"><ele>341.0</ele><time>2026-04-04T15:24:44Z</time></trkpt><trkpt lat="44.57325167692992" lon="10.42777397477675"><ele>341.0</ele><time>2026-04-04T15:24:45Z</time></trkpt><trkpt lat="44.573200389457824" lon="10.427674325369148"><ele>341.0</ele><time>2026-04-04T15:24:46Z</time></trkpt><trkpt lat="44.57313811115556" lon="10.427584956837629"><ele>339.1666666666667</ele><time>2026-04-04T15:24:47Z</time></trkpt><trkpt lat="44.57307266451676" lon="10.427524330534359"><ele>337.33333333333337</ele><time>2026-04-04T15:24:48Z</time></trkpt><trkpt lat="44.573001950708246" lon="10.427514222799743"><ele>335.5</ele><time>2026-04-04T15:24:49Z</time></trkpt><trkpt lat="44.57293535456802" lon="10.427546963322838"><ele>333.6666666666667</ele><time>2026-04-04T15:24:50Z</time></trkpt><trkpt lat="44.57283483156254" lon="10.427591231075535"><ele>331.8333333333333</ele><time>2026-04-04T15:24:52Z</time></trkpt><trkpt lat="44.572768762177056" lon="10.427635962818277"><ele>330.0</ele><time>2026-04-04T15:24:53Z</time></trkpt><trkpt lat="44.57273173862606" lon="10.427712204399795"><ele>328.4</ele><time>2026-04-04T15:24:54Z</time></trkpt><trkpt lat="44.5726711018205" lon="10.427837853263389"><ele>326.8</ele><time>2026-04-04T15:24:56Z</time></trkpt><trkpt lat="44.57261190851346" lon="10.427880097227813"><ele>325.20000000000005</ele><time>2026-04-04T15:24:57Z</time></trkpt><trkpt lat="44.57254800582156" lon="10.427916942099971"><ele>323.6</ele><time>2026-04-04T15:24:58Z</time></trkpt><trkpt lat="44.57250050667487" lon="10.428066522566201"><ele>322.0</ele><time>2026-04-04T15:25:00Z</time></trkpt><trkpt lat="44.57242042985702" lon="10.42817436482984"><ele>322.0</ele><time>2026-04-04T15:25:02Z</time></trkpt><trkpt lat="44.57229826673908" lon="10.428165683513823"><ele>322.0</ele><time>2026-04-04T15:25:04Z</time></trkpt><trkpt lat="44.572232717940174" lon="10.428165048965289"><ele>322.0</ele><time>2026-04-04T15:25:05Z</time></trkpt><trkpt lat="44.57216740076281" lon="10.42820190274944"><ele>322.0</ele><time>2026-04-04T15:25:06Z</time></trkpt><trkpt lat="44.57205925630387" lon="10.428223581654038"><ele>322.0</ele><time>2026-04-04T15:25:08Z</time></trkpt><trkpt lat="44.57198433400827" lon="10.428215527840361"><ele>322.0</ele><time>2026-04-04T15:25:09Z</time></trkpt><trkpt lat="44.571871561998364" lon="10.428227337487124"><ele>317.20000000000005</ele><time>2026-04-04T15:25:11Z</time></trkpt><trkpt lat="44.57173774985956" lon="10.428210234279993"><ele>312.40000000000003</ele><time>2026-04-04T15:25:13Z</time></trkpt><trkpt lat="44.57165901796622" lon="10.428217005165283"><ele>307.6</ele><time>2026-04-04T15:25:14Z</time></trkpt><trkpt lat="44.57159558145832" lon="10.42824650824545"><ele>302.8</ele><time>2026-04-04T15:25:15Z</time></trkpt><trkpt lat="44.571550889398" lon="10.42833073619963"><ele>298.0</ele><time>2026-04-04T15:25:17Z</time></trkpt><trkpt lat="44.57151768095034" lon="10.428507747916273"><ele>298.0</ele><time>2026-04-04T15:25:19Z</time></trkpt><trkpt lat="44.57148635603441" lon="10.428619780067649"><ele>298.0</ele><time>2026-04-04T15:25:20Z</time></trkpt><trkpt lat="44.57142689770249" lon="10.42873172445219"><ele>298.0</ele><time>2026-04-04T15:25:21Z</time></trkpt><trkpt lat="44.57136137262306" lon="10.42883535202496"><ele>298.0</ele><time>2026-04-04T15:25:22Z</time></trkpt><trkpt lat="44.57128848922357" lon="10.42894564137817"><ele>298.0</ele><time>2026-04-04T15:25:24Z</time></trkpt><trkpt lat="44.5712208756128" lon="10.42908520353158"><ele>298.66666666666663</ele><time>2026-04-04T15:25:26Z</time></trkpt><trkpt lat="44.571157358338255" lon="10.429141456796133"><ele>299.3333333333333</ele><time>2026-04-04T15:25:27Z</time></trkpt><trkpt lat="44.571085418804074" lon="10.429176306614773"><ele>300.0</ele><time>2026-04-04T15:25:27.999Z</time></trkpt><trkpt lat="44.57098088516117" lon="10.42924389952045"><ele>300.6666666666667</ele><time>2026-04-04T15:25:29.999Z</time></trkpt><trkpt lat="44.57087709077465" lon="10.42930881855852"><ele>301.33333333333337</ele><time>2026-04-04T15:25:31.999Z</time></trkpt><trkpt lat="44.570821215039096" lon="10.429365038246033"><ele>302.0</ele><time>2026-04-04T15:25:32.999Z</time></trkpt><trkpt lat="44.57074743261174" lon="10.429438709333201"><ele>302.0</ele><time>2026-04-04T15:25:34.999Z</time></trkpt><trkpt lat="44.57065145196996" lon="10.429479185647073"><ele>302.0</ele><time>2026-04-04T15:25:36.999Z</time></trkpt><trkpt lat="44.570559587860856" lon="10.42951230897468"><ele>302.0</ele><time>2026-04-04T15:25:37.999Z</time></trkpt><trkpt lat="44.57046488848121" lon="10.429535699352028"><ele>302.0</ele><time>2026-04-04T15:25:38.999Z</time></trkpt><trkpt lat="44.57038011832531" lon="10.429529920500785"><ele>302.0</ele><time>2026-04-04T15:25:39.999Z</time></trkpt><trkpt lat="44.57031203996109" lon="10.429507785717544"><ele>302.0</ele><time>2026-04-04T15:25:40.999Z</time></trkpt><trkpt lat="44.570248502694035" lon="10.42951838559129"><ele>304.1666666666667</ele><time>2026-04-04T15:25:41.999Z</time></trkpt><trkpt lat="44.57016915634113" lon="10.429574749464654"><ele>306.33333333333337</ele><time>2026-04-04T15:25:42.999Z</time></trkpt><trkpt lat="44.57010048411767" lon="10.429606927735207"><ele>308.5</ele><time>2026-04-04T15:25:43.999Z</time></trkpt><trkpt lat="44.57000622634141" lon="10.42947200675973"><ele>310.6666666666667</ele><time>2026-04-04T15:25:45.999Z</time></trkpt><trkpt lat="44.56995027941098" lon="10.429400545995108"><ele>312.8333333333333</ele><time>2026-04-04T15:25:46.999Z</time></trkpt><trkpt lat="44.569892217077225" lon="10.429351294603688"><ele>315.0</ele><time>2026-04-04T15:25:47.999Z</time></trkpt><trkpt lat="44.56984185256135" lon="10.429291309033843"><ele>315.0</ele><time>2026-04-04T15:25:48.999Z</time></trkpt><trkpt lat="44.56979220845371" lon="10.429235033879271"><ele>315.0</ele><time>2026-04-04T15:25:49.999Z</time></trkpt><trkpt lat="44.56977466944406" lon="10.429083320383715"><ele>315.0</ele><time>2026-04-04T15:25:51.999Z</time></trkpt><trkpt lat="44.56982769590543" lon="10.428987496423188"><ele>315.0</ele><time>2026-04-04T15:25:52.999Z</time></trkpt><trkpt lat="44.56987973771468" lon="10.42891770901341"><ele>315.0</ele><time>2026-04-04T15:25:53.999Z</time></trkpt><trkpt lat="44.56994709692979" lon="10.428827743484957"><ele>315.0</ele><time>2026-04-04T15:25:54.999Z</time></trkpt><trkpt lat="44.57000201485155" lon="10.428744936846666"><ele>318.0</ele><time>2026-04-04T15:25:55.999Z</time></trkpt><trkpt lat="44.57004781604455" lon="10.428677710054542"><ele>321.0</ele><time>2026-04-04T15:25:56.999Z</time></trkpt><trkpt lat="44.570089528881" lon="10.42859830014759"><ele>324.0</ele><time>2026-04-04T15:25:57.999Z</time></trkpt><trkpt lat="44.57015144823381" lon="10.428429189416475"><ele>327.0</ele><time>2026-04-04T15:25:59.999Z</time></trkpt><trkpt lat="44.570153179292745" lon="10.42833506452223"><ele>330.0</ele><time>2026-04-04T15:26:00.999Z</time></trkpt><trkpt lat="44.570079960472476" lon="10.42818383457124"><ele>330.0</ele><time>2026-04-04T15:26:02.999Z</time></trkpt><trkpt lat="44.57001165188748" lon="10.428134081343813"><ele>330.0</ele><time>2026-04-04T15:26:03.999Z</time></trkpt><trkpt lat="44.56993459942842" lon="10.428078805039991"><ele>330.0</ele><time>2026-04-04T15:26:04.999Z</time></trkpt><trkpt lat="44.569935619147685" lon="10.427938861006329"><ele>330.0</ele><time>2026-04-04T15:26:06.999Z</time></trkpt><trkpt lat="44.56993260065113" lon="10.427797793446036"><ele>330.0</ele><time>2026-04-04T15:26:07.999Z</time></trkpt><trkpt lat="44.569908755878195" lon="10.427700747031917"><ele>330.0</ele><time>2026-04-04T15:26:08.999Z</time></trkpt><trkpt lat="44.56984840733659" lon="10.427657239743244"><ele>330.8</ele><time>2026-04-04T15:26:09.999Z</time></trkpt><trkpt lat="44.56977952397486" lon="10.427640681318474"><ele>331.6</ele><time>2026-04-04T15:26:10.999Z</time></trkpt><trkpt lat="44.56968875425765" lon="10.427596476573752"><ele>332.4</ele><time>2026-04-04T15:26:11.999Z</time></trkpt><trkpt lat="44.569614223275856" lon="10.427535069402913"><ele>333.2</ele><time>2026-04-04T15:26:12.999Z</time></trkpt><trkpt lat="44.56949852244472" lon="10.4275202361507"><ele>334.0</ele><time>2026-04-04T15:26:14.999Z</time></trkpt><trkpt lat="44.569418818380804" lon="10.427542623532418"><ele>338.0</ele><time>2026-04-04T15:26:15.999Z</time></trkpt><trkpt lat="44.56933375166736" lon="10.427519264933034"><ele>342.0</ele><time>2026-04-04T15:26:16.999Z</time></trkpt><trkpt lat="44.5692498824449" lon="10.427469942654074"><ele>346.0</ele><time>2026-04-04T15:26:17.999Z</time></trkpt><trkpt lat="44.5691496231022" lon="10.427551722487102"><ele>350.0</ele><time>2026-04-04T15:26:19.999Z</time></trkpt><trkpt lat="44.56908998352583" lon="10.42763227915558"><ele>354.0</ele><time>2026-04-04T15:26:20.999Z</time></trkpt><trkpt lat="44.56898998243604" lon="10.427640696761523"><ele>354.0</ele><time>2026-04-04T15:26:21.999Z</time></trkpt><trkpt lat="44.56889477527757" lon="10.427619213037813"><ele>354.0</ele><time>2026-04-04T15:26:22.999Z</time></trkpt><trkpt lat="44.56878137596434" lon="10.427583169557506"><ele>354.0</ele><time>2026-04-04T15:26:23.999Z</time></trkpt><trkpt lat="44.56866081685455" lon="10.427583498137558"><ele>354.0</ele><time>2026-04-04T15:26:24.999Z</time></trkpt><trkpt lat="44.568544618221075" lon="10.427589261139307"><ele>357.4</ele><time>2026-04-04T15:26:25.999Z</time></trkpt><trkpt lat="44.568484100080816" lon="10.427561845112868"><ele>360.79999999999995</ele><time>2026-04-04T15:26:26.999Z</time></trkpt><trkpt lat="44.56834819288475" lon="10.427582853327301"><ele>364.20000000000005</ele><time>2026-04-04T15:26:28.999Z</time></trkpt><trkpt lat="44.5682775275412" lon="10.427619456339979"><ele>367.6</ele><time>2026-04-04T15:26:29.999Z</time></trkpt><trkpt lat="44.56818161763552" lon="10.427644619597912"><ele>371.0</ele><time>2026-04-04T15:26:31.999Z</time></trkpt><trkpt lat="44.56807035361758" lon="10.427611708002075"><ele>371.0</ele><time>2026-04-04T15:26:33.999Z</time></trkpt><trkpt lat="44.56801754507999" lon="10.42755271591749"><ele>371.0</ele><time>2026-04-04T15:26:34.999Z</time></trkpt><trkpt lat="44.567952587366605" lon="10.427488891505009"><ele>371.0</ele><time>2026-04-04T15:26:35.999Z</time></trkpt><trkpt lat="44.56789019757134" lon="10.427421082261525"><ele>371.0</ele><time>2026-04-04T15:26:36.999Z</time></trkpt><trkpt lat="44.56778042757032" lon="10.427313815806462"><ele>371.0</ele><time>2026-04-04T15:26:39Z</time></trkpt><trkpt lat="44.567682934012126" lon="10.427283618732499"><ele>373.5</ele><time>2026-04-04T15:26:40Z</time></trkpt><trkpt lat="44.56760414756744" lon="10.427246727324714"><ele>376.0</ele><time>2026-04-04T15:26:41Z</time></trkpt><trkpt lat="44.56752207629209" lon="10.427187547188968"><ele>378.5</ele><time>2026-04-04T15:26:43Z</time></trkpt><trkpt lat="44.56744746529258" lon="10.427155221086155"><ele>381.0</ele><time>2026-04-04T15:26:44Z</time></trkpt><trkpt lat="44.56739405584845" lon="10.4270880653988"><ele>383.49999999999994</ele><time>2026-04-04T15:26:45Z</time></trkpt><trkpt lat="44.56735398128169" lon="10.426999729736226"><ele>386.0</ele><time>2026-04-04T15:26:46Z</time></trkpt><trkpt lat="44.56728437292727" lon="10.426933935283058"><ele>387.6</ele><time>2026-04-04T15:26:48Z</time></trkpt><trkpt lat="44.567290577725785" lon="10.426845789169095"><ele>389.20000000000005</ele><time>2026-04-04T15:26:50Z</time></trkpt><trkpt lat="44.567230291169984" lon="10.426718683391274"><ele>390.79999999999995</ele><time>2026-04-04T15:26:52Z</time></trkpt><trkpt lat="44.56718060070179" lon="10.426638895277806"><ele>392.4</ele><time>2026-04-04T15:26:53Z</time></trkpt><trkpt lat="44.56707046433497" lon="10.426489872760884"><ele>394.0</ele><time>2026-04-04T15:26:54Z</time></trkpt><trkpt lat="44.56695166456445" lon="10.426304259626757"><ele>396.0</ele><time>2026-04-04T15:26:55Z</time></trkpt><trkpt lat="44.566848080327674" lon="10.42617342973897"><ele>398.0</ele><time>2026-04-04T15:26:56Z</time></trkpt><trkpt lat="44.566755573492685" lon="10.426055898532036"><ele>400.0</ele><time>2026-04-04T15:26:57Z</time></trkpt><trkpt lat="44.56667817227302" lon="10.425987778364577"><ele>402.0</ele><time>2026-04-04T15:26:58Z</time></trkpt><trkpt lat="44.566620356297726" lon="10.425909119248795"><ele>404.0</ele><time>2026-04-04T15:26:59Z</time></trkpt><trkpt lat="44.56657890130673" lon="10.425790671805292"><ele>404.0</ele><time>2026-04-04T15:27:00Z</time></trkpt><trkpt lat="44.56656713879728" lon="10.425611350229696"><ele>404.0</ele><time>2026-04-04T15:27:01Z</time></trkpt><trkpt lat="44.56652232884725" lon="10.425513508176998"><ele>404.0</ele><time>2026-04-04T15:27:02Z</time></trkpt><trkpt lat="44.56646318268717" lon="10.425378523192714"><ele>404.0</ele><time>2026-04-04T15:27:03Z</time></trkpt><trkpt lat="44.56642634391214" lon="10.425182363211874"><ele>403.79999999999995</ele><time>2026-04-04T15:27:04Z</time></trkpt><trkpt lat="44.56640107724568" lon="10.425002599641081"><ele>403.59999999999997</ele><time>2026-04-04T15:27:05Z</time></trkpt><trkpt lat="44.566399038643766" lon="10.424885738879622"><ele>403.4</ele><time>2026-04-04T15:27:06Z</time></trkpt><trkpt lat="44.566425268431715" lon="10.424785339349315"><ele>403.2</ele><time>2026-04-04T15:27:07Z</time></trkpt><trkpt lat="44.566464342669335" lon="10.424675179088284"><ele>403.0</ele><time>2026-04-04T15:27:08Z</time></trkpt><trkpt lat="44.56651646966497" lon="10.424508070179776"><ele>403.6666666666667</ele><time>2026-04-04T15:27:09Z</time></trkpt><trkpt lat="44.56657280211608" lon="10.424293474403248"><ele>404.33333333333337</ele><time>2026-04-04T15:27:10Z</time></trkpt><trkpt lat="44.566624209891415" lon="10.424053568789146"><ele>405.0</ele><time>2026-04-04T15:27:11Z</time></trkpt><trkpt lat="44.56665744529282" lon="10.423856317939656"><ele>405.0</ele><time>2026-04-04T15:27:12Z</time></trkpt><trkpt lat="44.5667012043221" lon="10.423692356630744"><ele>405.0</ele><time>2026-04-04T15:27:13Z</time></trkpt><trkpt lat="44.56672880093038" lon="10.423580521535081"><ele>405.0</ele><time>2026-04-04T15:27:14Z</time></trkpt><trkpt lat="44.56678149305606" lon="10.423413812058454"><ele>405.0</ele><time>2026-04-04T15:27:16Z</time></trkpt><trkpt lat="44.56681006821693" lon="10.423323080844243"><ele>405.0</ele><time>2026-04-04T15:27:17Z</time></trkpt><trkpt lat="44.56685922573489" lon="10.423244728409541"><ele>405.0</ele><time>2026-04-04T15:27:18Z</time></trkpt><trkpt lat="44.56694955286941" lon="10.423195244667713"><ele>405.0</ele><time>2026-04-04T15:27:19Z</time></trkpt><trkpt lat="44.5670436289655" lon="10.423132281332698"><ele>405.0</ele><time>2026-04-04T15:27:20Z</time></trkpt><trkpt lat="44.567128056698" lon="10.42309116538761"><ele>405.0</ele><time>2026-04-04T15:27:21Z</time></trkpt><trkpt lat="44.567190903682885" lon="10.423056466320839"><ele>405.0</ele><time>2026-04-04T15:27:22Z</time></trkpt><trkpt lat="44.567263831706235" lon="10.42298448450629"><ele>405.0</ele><time>2026-04-04T15:27:24Z</time></trkpt><trkpt lat="44.56727387767894" lon="10.422780424548174"><ele>405.0</ele><time>2026-04-04T15:27:26Z</time></trkpt><trkpt lat="44.567287488307954" lon="10.422665690326344"><ele>405.0</ele><time>2026-04-04T15:27:27Z</time></trkpt><trkpt lat="44.56731586741683" lon="10.42254320598423"><ele>405.0</ele><time>2026-04-04T15:27:28Z</time></trkpt><trkpt lat="44.56734637345272" lon="10.422417142544907"><ele>405.0</ele><time>2026-04-04T15:27:29Z</time></trkpt><trkpt lat="44.567373256062915" lon="10.422327660506886"><ele>405.0</ele><time>2026-04-04T15:27:30Z</time></trkpt><trkpt lat="44.56740179413087" lon="10.42220830269246"><ele>405.0</ele><time>2026-04-04T15:27:31Z</time></trkpt><trkpt lat="44.56744410871787" lon="10.422110486625066"><ele>405.0</ele><time>2026-04-04T15:27:32Z</time></trkpt><trkpt lat="44.5674764439134" lon="10.422011520598884"><ele>405.0</ele><time>2026-04-04T15:27:32.999Z</time></trkpt><trkpt lat="44.5675134160916" lon="10.421896744570722"><ele>405.0</ele><time>2026-04-04T15:27:33.999Z</time></trkpt><trkpt lat="44.567554825193895" lon="10.421793833570147"><ele>405.0</ele><time>2026-04-04T15:27:34.999Z</time></trkpt><trkpt lat="44.567601055480324" lon="10.421698785337988"><ele>405.0</ele><time>2026-04-04T15:27:35.999Z</time></trkpt><trkpt lat="44.56763234785365" lon="10.421599685945132"><ele>405.0</ele><time>2026-04-04T15:27:36.999Z</time></trkpt><trkpt lat="44.56764949068275" lon="10.42148836704846"><ele>405.0</ele><time>2026-04-04T15:27:37.999Z</time></trkpt><trkpt lat="44.56763487542082" lon="10.421389375621196"><ele>405.0</ele><time>2026-04-04T15:27:38.999Z</time></trkpt><trkpt lat="44.56758877530333" lon="10.421311587171095"><ele>405.0</ele><time>2026-04-04T15:27:39.999Z</time></trkpt><trkpt lat="44.56751595977958" lon="10.421254032039554"><ele>405.0</ele><time>2026-04-04T15:27:40.999Z</time></trkpt><trkpt lat="44.567438782502904" lon="10.421208054193038"><ele>405.0</ele><time>2026-04-04T15:27:41.999Z</time></trkpt><trkpt lat="44.56735800494208" lon="10.421160059526688"><ele>405.0</ele><time>2026-04-04T15:27:42.999Z</time></trkpt><trkpt lat="44.567284990746685" lon="10.421093792629803"><ele>405.1666666666667</ele><time>2026-04-04T15:27:43.999Z</time></trkpt><trkpt lat="44.56721251202337" lon="10.421020169866534"><ele>405.33333333333337</ele><time>2026-04-04T15:27:44.999Z</time></trkpt><trkpt lat="44.56713284174016" lon="10.420954555271646"><ele>405.5</ele><time>2026-04-04T15:27:45.999Z</time></trkpt><trkpt lat="44.56705631007747" lon="10.420887749261281"><ele>405.6666666666667</ele><time>2026-04-04T15:27:46.999Z</time></trkpt><trkpt lat="44.56700364184277" lon="10.42080541648723"><ele>405.83333333333337</ele><time>2026-04-04T15:27:47.999Z</time></trkpt><trkpt lat="44.56696373158099" lon="10.420695318948077"><ele>406.0</ele><time>2026-04-04T15:27:48.999Z</time></trkpt><trkpt lat="44.56693516911617" lon="10.42056920965183"><ele>407.6</ele><time>2026-04-04T15:27:49.999Z</time></trkpt><trkpt lat="44.566926926636704" lon="10.420427217769305"><ele>409.20000000000005</ele><time>2026-04-04T15:27:50.999Z</time></trkpt><trkpt lat="44.566924286403776" lon="10.420283972785445"><ele>410.79999999999995</ele><time>2026-04-04T15:27:51.999Z</time></trkpt><trkpt lat="44.566930307986496" lon="10.420128524910709"><ele>412.4</ele><time>2026-04-04T15:27:52.999Z</time></trkpt><trkpt lat="44.56693758155273" lon="10.419970116939695"><ele>414.0</ele><time>2026-04-04T15:27:53.999Z</time></trkpt><trkpt lat="44.5669575963786" lon="10.419829665105906"><ele>414.0</ele><time>2026-04-04T15:27:54.999Z</time></trkpt><trkpt lat="44.566998676463676" lon="10.419713768804545"><ele>414.0</ele><time>2026-04-04T15:27:55.999Z</time></trkpt><trkpt lat="44.567046252910025" lon="10.419607153845039"><ele>414.0</ele><time>2026-04-04T15:27:56.999Z</time></trkpt><trkpt lat="44.56708173669788" lon="10.419510398466667"><ele>414.0</ele><time>2026-04-04T15:27:57.999Z</time></trkpt><trkpt lat="44.56709423933955" lon="10.419415278467397"><ele>414.0</ele><time>2026-04-04T15:27:58.999Z</time></trkpt><trkpt lat="44.567092366173526" lon="10.419323257535982"><ele>414.0</ele><time>2026-04-04T15:27:59.999Z</time></trkpt><trkpt lat="44.567068122986754" lon="10.419194796330483"><ele>414.8333333333333</ele><time>2026-04-04T15:28:01.999Z</time></trkpt><trkpt lat="44.567025194382715" lon="10.419123674990779"><ele>415.66666666666663</ele><time>2026-04-04T15:28:36.999Z</time></trkpt><trkpt lat="44.566929898062" lon="10.419142198055393"><ele>416.5</ele><time>2026-04-04T15:28:38.999Z</time></trkpt><trkpt lat="44.56686144079939" lon="10.41919498215037"><ele>417.3333333333333</ele><time>2026-04-04T15:28:39.999Z</time></trkpt><trkpt lat="44.56678786984987" lon="10.419229717727012"><ele>418.16666666666663</ele><time>2026-04-04T15:28:40.999Z</time></trkpt><trkpt lat="44.566705139778264" lon="10.419239247318696"><ele>419.0</ele><time>2026-04-04T15:28:41.999Z</time></trkpt><trkpt lat="44.56660877277133" lon="10.419234757241359"><ele>419.0</ele><time>2026-04-04T15:28:42.999Z</time></trkpt><trkpt lat="44.56650588324383" lon="10.419229069765775"><ele>419.0</ele><time>2026-04-04T15:28:43.999Z</time></trkpt><trkpt lat="44.56639722278099" lon="10.419236866786"><ele>419.0</ele><time>2026-04-04T15:28:45Z</time></trkpt><trkpt lat="44.566275533335606" lon="10.419246388269638"><ele>419.0</ele><time>2026-04-04T15:28:46Z</time></trkpt><trkpt lat="44.56613889122799" lon="10.419248308369465"><ele>419.0</ele><time>2026-04-04T15:28:47Z</time></trkpt><trkpt lat="44.56598987154164" lon="10.419253113007624"><ele>419.0</ele><time>2026-04-04T15:28:48Z</time></trkpt><trkpt lat="44.5658358194009" lon="10.419259625577343"><ele>419.0</ele><time>2026-04-04T15:28:49Z</time></trkpt><trkpt lat="44.56566607381946" lon="10.41926728179909"><ele>419.0</ele><time>2026-04-04T15:28:50Z</time></trkpt><trkpt lat="44.565492425599324" lon="10.419277002995752"><ele>419.0</ele><time>2026-04-04T15:28:51Z</time></trkpt><trkpt lat="44.565332457262386" lon="10.419283777802857"><ele>419.0</ele><time>2026-04-04T15:28:52Z</time></trkpt><trkpt lat="44.565179123050996" lon="10.41928933300607"><ele>419.0</ele><time>2026-04-04T15:28:53Z</time></trkpt><trkpt lat="44.565028357486064" lon="10.419300275007918"><ele>419.0</ele><time>2026-04-04T15:28:54Z</time></trkpt><trkpt lat="44.56488147088772" lon="10.419329142539942"><ele>419.0</ele><time>2026-04-04T15:28:55Z</time></trkpt><trkpt lat="44.56473158975017" lon="10.419378291353416"><ele>419.0</ele><time>2026-04-04T15:28:56Z</time></trkpt><trkpt lat="44.56458784326715" lon="10.419440885213398"><ele>419.0</ele><time>2026-04-04T15:28:57Z</time></trkpt><trkpt lat="44.564442471518376" lon="10.41950103301995"><ele>419.0</ele><time>2026-04-04T15:28:58Z</time></trkpt><trkpt lat="44.56429698659693" lon="10.419553512309287"><ele>419.0</ele><time>2026-04-04T15:28:59Z</time></trkpt><trkpt lat="44.56415471601296" lon="10.419596704845747"><ele>419.0</ele><time>2026-04-04T15:29:00Z</time></trkpt><trkpt lat="44.56401525365307" lon="10.419632522438528"><ele>419.0</ele><time>2026-04-04T15:29:01Z</time></trkpt><trkpt lat="44.56388223239584" lon="10.41965851583738"><ele>419.0</ele><time>2026-04-04T15:29:02Z</time></trkpt><trkpt lat="44.56375705351136" lon="10.419629151331229"><ele>420.0</ele><time>2026-04-04T15:29:03Z</time></trkpt><trkpt lat="44.56363376955425" lon="10.419582122608869"><ele>421.0</ele><time>2026-04-04T15:29:04Z</time></trkpt><trkpt lat="44.56350560443216" lon="10.419540507408481"><ele>422.0</ele><time>2026-04-04T15:29:05Z</time></trkpt><trkpt lat="44.56337891061135" lon="10.419461567433501"><ele>423.0</ele><time>2026-04-04T15:29:06Z</time></trkpt><trkpt lat="44.563247118521595" lon="10.419394679459655"><ele>423.0</ele><time>2026-04-04T15:29:07Z</time></trkpt><trkpt lat="44.56310679411415" lon="10.419334435283353"><ele>423.0</ele><time>2026-04-04T15:29:08Z</time></trkpt><trkpt lat="44.562964355511326" lon="10.419263859050815"><ele>423.0</ele><time>2026-04-04T15:29:09Z</time></trkpt><trkpt lat="44.562815763842096" lon="10.41919647748405"><ele>425.0</ele><time>2026-04-04T15:29:10Z</time></trkpt><trkpt lat="44.56265771898235" lon="10.419162467179836"><ele>427.0</ele><time>2026-04-04T15:29:11Z</time></trkpt><trkpt lat="44.56250207799855" lon="10.419148615166938"><ele>429.0</ele><time>2026-04-04T15:29:12Z</time></trkpt><trkpt lat="44.56234919996618" lon="10.419167246175704"><ele>429.0</ele><time>2026-04-04T15:29:13Z</time></trkpt><trkpt lat="44.562191071195485" lon="10.419212496475433"><ele>429.0</ele><time>2026-04-04T15:29:14Z</time></trkpt><trkpt lat="44.5620225013826" lon="10.41927312123481"><ele>429.0</ele><time>2026-04-04T15:29:15Z</time></trkpt><trkpt lat="44.56186351096495" lon="10.419333960070993"><ele>430.66666666666663</ele><time>2026-04-04T15:29:16Z</time></trkpt><trkpt lat="44.561717986741286" lon="10.41939809605968"><ele>432.3333333333333</ele><time>2026-04-04T15:29:17Z</time></trkpt><trkpt lat="44.56157779724791" lon="10.419492626752023"><ele>434.0</ele><time>2026-04-04T15:29:18Z</time></trkpt><trkpt lat="44.56143700257062" lon="10.419593824657502"><ele>435.0</ele><time>2026-04-04T15:29:19Z</time></trkpt><trkpt lat="44.56129058117128" lon="10.41969176478076"><ele>436.0</ele><time>2026-04-04T15:29:20Z</time></trkpt><trkpt lat="44.56115251513709" lon="10.419778471184983"><ele>437.0</ele><time>2026-04-04T15:29:21Z</time></trkpt><trkpt lat="44.56103142580317" lon="10.419851130193868"><ele>438.0</ele><time>2026-04-04T15:29:22Z</time></trkpt><trkpt lat="44.560922482860214" lon="10.419890921769252"><ele>438.25</ele><time>2026-04-04T15:29:23Z</time></trkpt><trkpt lat="44.560813604779995" lon="10.419897303611403"><ele>438.5</ele><time>2026-04-04T15:29:24Z</time></trkpt><trkpt lat="44.56069947901787" lon="10.419863108559397"><ele>438.75</ele><time>2026-04-04T15:29:25Z</time></trkpt><trkpt lat="44.56057650619526" lon="10.41980384401928"><ele>439.0</ele><time>2026-04-04T15:29:26Z</time></trkpt><trkpt lat="44.56046429533669" lon="10.419692052843262"><ele>440.0</ele><time>2026-04-04T15:29:27Z</time></trkpt><trkpt lat="44.5603326695101" lon="10.419607327507967"><ele>441.0</ele><time>2026-04-04T15:29:28Z</time></trkpt><trkpt lat="44.5602120566432" lon="10.419487145567413"><ele>442.0</ele><time>2026-04-04T15:29:29Z</time></trkpt><trkpt lat="44.560087173497934" lon="10.419383165008018"><ele>443.0</ele><time>2026-04-04T15:29:30Z</time></trkpt><trkpt lat="44.559966797514726" lon="10.419319910884896"><ele>443.0</ele><time>2026-04-04T15:29:31Z</time></trkpt><trkpt lat="44.55984181733299" lon="10.419299490853266"><ele>443.0</ele><time>2026-04-04T15:29:32Z</time></trkpt><trkpt lat="44.55971358417579" lon="10.419303988132924"><ele>443.0</ele><time>2026-04-04T15:29:32.999Z</time></trkpt><trkpt lat="44.55958039776844" lon="10.419330381313515"><ele>443.0</ele><time>2026-04-04T15:29:33.999Z</time></trkpt><trkpt lat="44.559440125798886" lon="10.419354854824562"><ele>443.75</ele><time>2026-04-04T15:29:34.999Z</time></trkpt><trkpt lat="44.55929271777087" lon="10.419378869645735"><ele>444.5</ele><time>2026-04-04T15:29:35.999Z</time></trkpt><trkpt lat="44.55914500900099" lon="10.419396878879763"><ele>445.25</ele><time>2026-04-04T15:29:36.999Z</time></trkpt><trkpt lat="44.558993737081195" lon="10.419414853587195"><ele>446.0</ele><time>2026-04-04T15:29:37.999Z</time></trkpt><trkpt lat="44.55883861030013" lon="10.41943636133571"><ele>447.25</ele><time>2026-04-04T15:29:38.999Z</time></trkpt><trkpt lat="44.55868708840053" lon="10.41942760606418"><ele>448.5</ele><time>2026-04-04T15:29:39.999Z</time></trkpt><trkpt lat="44.55855232994726" lon="10.419462595870948"><ele>449.75</ele><time>2026-04-04T15:29:40.999Z</time></trkpt><trkpt lat="44.55842099365679" lon="10.419466803515094"><ele>451.0</ele><time>2026-04-04T15:29:41.999Z</time></trkpt><trkpt lat="44.55830370549764" lon="10.419449698533148"><ele>451.0</ele><time>2026-04-04T15:29:42.999Z</time></trkpt><trkpt lat="44.558187634620786" lon="10.41941711853666"><ele>451.0</ele><time>2026-04-04T15:29:43.999Z</time></trkpt><trkpt lat="44.558079771933365" lon="10.419359829319067"><ele>451.0</ele><time>2026-04-04T15:29:44.999Z</time></trkpt><trkpt lat="44.55797728390133" lon="10.419288307258558"><ele>451.0</ele><time>2026-04-04T15:29:45.999Z</time></trkpt><trkpt lat="44.55787402254007" lon="10.4192123292416"><ele>450.75</ele><time>2026-04-04T15:29:46.999Z</time></trkpt><trkpt lat="44.55776153596159" lon="10.419126124942805"><ele>450.5</ele><time>2026-04-04T15:29:47.999Z</time></trkpt><trkpt lat="44.55764038269517" lon="10.419037535904385"><ele>450.25</ele><time>2026-04-04T15:29:48.999Z</time></trkpt><trkpt lat="44.55750607958324" lon="10.41894216732877"><ele>450.0</ele><time>2026-04-04T15:29:49.999Z</time></trkpt><trkpt lat="44.557364693666706" lon="10.418858579011278"><ele>451.0</ele><time>2026-04-04T15:29:50.999Z</time></trkpt><trkpt lat="44.55723510603555" lon="10.418808374100585"><ele>452.0</ele><time>2026-04-04T15:29:51.999Z</time></trkpt><trkpt lat="44.557102320823354" lon="10.418791475290181"><ele>453.0</ele><time>2026-04-04T15:29:52.999Z</time></trkpt><trkpt lat="44.55696230549582" lon="10.41878379900119"><ele>454.0</ele><time>2026-04-04T15:29:53.999Z</time></trkpt><trkpt lat="44.556815307668195" lon="10.418784274281192"><ele>454.33333333333337</ele><time>2026-04-04T15:29:54.999Z</time></trkpt><trkpt lat="44.55666577726679" lon="10.418779543721682"><ele>454.66666666666663</ele><time>2026-04-04T15:29:55.999Z</time></trkpt><trkpt lat="44.55651096297852" lon="10.418777698577392"><ele>455.0</ele><time>2026-04-04T15:29:56.999Z</time></trkpt><trkpt lat="44.55635352934249" lon="10.418792938462877"><ele>454.66666666666663</ele><time>2026-04-04T15:29:57.999Z</time></trkpt><trkpt lat="44.556193488460764" lon="10.418806617043895"><ele>454.33333333333337</ele><time>2026-04-04T15:29:58.999Z</time></trkpt><trkpt lat="44.55603084449004" lon="10.418820472744724"><ele>454.0</ele><time>2026-04-04T15:29:59.999Z</time></trkpt><trkpt lat="44.55586216752865" lon="10.418808063568349"><ele>453.6666666666667</ele><time>2026-04-04T15:30:00.999Z</time></trkpt><trkpt lat="44.55568737225183" lon="10.418819371747974"><ele>453.33333333333337</ele><time>2026-04-04T15:30:01.999Z</time></trkpt><trkpt lat="44.55550286968723" lon="10.418831404104191"><ele>453.0</ele><time>2026-04-04T15:30:02.999Z</time></trkpt><trkpt lat="44.55531701155751" lon="10.418843508492047"><ele>453.0</ele><time>2026-04-04T15:30:03.999Z</time></trkpt><trkpt lat="44.55512614202568" lon="10.418868906413628"><ele>453.0</ele><time>2026-04-04T15:30:04.999Z</time></trkpt><trkpt lat="44.554937590606" lon="10.418931712604614"><ele>453.0</ele><time>2026-04-04T15:30:05.999Z</time></trkpt><trkpt lat="44.55475544869073" lon="10.419027605120736"><ele>453.0</ele><time>2026-04-04T15:30:06.999Z</time></trkpt><trkpt lat="44.554580162854165" lon="10.419135729128044"><ele>453.0</ele><time>2026-04-04T15:30:07.999Z</time></trkpt><trkpt lat="44.55440842043237" lon="10.419241904353001"><ele>453.0</ele><time>2026-04-04T15:30:08.999Z</time></trkpt><trkpt lat="44.5542622318728" lon="10.419333646361245"><ele>454.0</ele><time>2026-04-04T15:30:09.999Z</time></trkpt><trkpt lat="44.554119388264496" lon="10.41942330896495"><ele>455.0</ele><time>2026-04-04T15:30:10.999Z</time></trkpt><trkpt lat="44.553982493031526" lon="10.419510022209803"><ele>456.0</ele><time>2026-04-04T15:30:11.999Z</time></trkpt><trkpt lat="44.55384719579879" lon="10.419595723228698"><ele>457.0</ele><time>2026-04-04T15:30:12.999Z</time></trkpt><trkpt lat="44.55371606556388" lon="10.419678784777902"><ele>458.0</ele><time>2026-04-04T15:30:13.999Z</time></trkpt><trkpt lat="44.553599644192815" lon="10.419752529312076"><ele>459.0</ele><time>2026-04-04T15:30:14.999Z</time></trkpt><trkpt lat="44.553493994702286" lon="10.41981743927262"><ele>460.0</ele><time>2026-04-04T15:30:15.999Z</time></trkpt><trkpt lat="44.55340640012161" lon="10.419869977368192"><ele>460.4</ele><time>2026-04-04T15:30:16.999Z</time></trkpt><trkpt lat="44.55334741010121" lon="10.419929420250678"><ele>460.8</ele><time>2026-04-04T15:30:17.999Z</time></trkpt><trkpt lat="44.5532752203536" lon="10.419911074508423"><ele>461.20000000000005</ele><time>2026-04-04T15:30:19.999Z</time></trkpt><trkpt lat="44.553252988318704" lon="10.419619026159639"><ele>461.6</ele><time>2026-04-04T15:30:22.999Z</time></trkpt><trkpt lat="44.55322931574227" lon="10.419494541671858"><ele>462.0</ele><time>2026-04-04T15:30:23.999Z</time></trkpt><trkpt lat="44.55319912472373" lon="10.419377440083606"><ele>462.0</ele><time>2026-04-04T15:30:24.999Z</time></trkpt><trkpt lat="44.553165735634636" lon="10.419275238404031"><ele>462.0</ele><time>2026-04-04T15:30:25.999Z</time></trkpt><trkpt lat="44.55312756118684" lon="10.419183815415888"><ele>462.0</ele><time>2026-04-04T15:30:26.999Z</time></trkpt><trkpt lat="44.553080537293404" lon="10.419105769180954"><ele>462.0</ele><time>2026-04-04T15:30:27.999Z</time></trkpt><trkpt lat="44.55302114315866" lon="10.419022892023682"><ele>462.0</ele><time>2026-04-04T15:30:28.999Z</time></trkpt><trkpt lat="44.5529493124432" lon="10.418936203233812"><ele>462.0</ele><time>2026-04-04T15:30:29.999Z</time></trkpt><trkpt lat="44.55286928742555" lon="10.418841288846743"><ele>462.40000000000003</ele><time>2026-04-04T15:30:30.999Z</time></trkpt><trkpt lat="44.55278663000845" lon="10.418733692155099"><ele>462.80000000000007</ele><time>2026-04-04T15:30:31.999Z</time></trkpt><trkpt lat="44.552700530491045" lon="10.418626763152023"><ele>463.2</ele><time>2026-04-04T15:30:32.999Z</time></trkpt><trkpt lat="44.5526170865963" lon="10.418526826915109"><ele>463.6</ele><time>2026-04-04T15:30:33.999Z</time></trkpt><trkpt lat="44.55253371428064" lon="10.418429680165264"><ele>464.0</ele><time>2026-04-04T15:30:34.999Z</time></trkpt><trkpt lat="44.5524546607211" lon="10.418337008497707"><ele>463.99999999999994</ele><time>2026-04-04T15:30:35.999Z</time></trkpt><trkpt lat="44.552383992202515" lon="10.418250084264326"><ele>464.0</ele><time>2026-04-04T15:30:36.999Z</time></trkpt><trkpt lat="44.55233327450441" lon="10.41816424962183"><ele>464.0</ele><time>2026-04-04T15:30:37.999Z</time></trkpt><trkpt lat="44.55232107626331" lon="10.418071213330581"><ele>464.0</ele><time>2026-04-04T15:30:38.999Z</time></trkpt><trkpt lat="44.552348321805084" lon="10.417985059042309"><ele>463.99999999999994</ele><time>2026-04-04T15:30:39.999Z</time></trkpt><trkpt lat="44.55240663253607" lon="10.417910124305493"><ele>464.0</ele><time>2026-04-04T15:30:40.999Z</time></trkpt><trkpt lat="44.552482417765795" lon="10.417841387027412"><ele>464.0</ele><time>2026-04-04T15:30:41.999Z</time></trkpt><trkpt lat="44.55256007714971" lon="10.41774287645187"><ele>464.0</ele><time>2026-04-04T15:30:42.999Z</time></trkpt><trkpt lat="44.5526380539243" lon="10.41761450678116"><ele>464.0</ele><time>2026-04-04T15:30:43.999Z</time></trkpt><trkpt lat="44.55271058133944" lon="10.417474784130656"><ele>464.0</ele><time>2026-04-04T15:30:44.999Z</time></trkpt><trkpt lat="44.552767446078704" lon="10.417339083795708"><ele>464.0</ele><time>2026-04-04T15:30:45.999Z</time></trkpt><trkpt lat="44.55280691722928" lon="10.417206289310219"><ele>464.0</ele><time>2026-04-04T15:30:46.999Z</time></trkpt><trkpt lat="44.552823752267216" lon="10.417056309710153"><ele>464.0</ele><time>2026-04-04T15:30:47.999Z</time></trkpt><trkpt lat="44.552839095107736" lon="10.416907936521635"><ele>464.0</ele><time>2026-04-04T15:30:48.999Z</time></trkpt><trkpt lat="44.552886742114694" lon="10.416795594680433"><ele>464.0</ele><time>2026-04-04T15:30:49.999Z</time></trkpt><trkpt lat="44.55296064967001" lon="10.416702425464544"><ele>464.0</ele><time>2026-04-04T15:30:51Z</time></trkpt><trkpt lat="44.55304270554829" lon="10.416597555934407"><ele>464.0</ele><time>2026-04-04T15:30:52Z</time></trkpt><trkpt lat="44.553120016215935" lon="10.416463439618916"><ele>464.0</ele><time>2026-04-04T15:30:53Z</time></trkpt><trkpt lat="44.553186953237216" lon="10.416335115633588"><ele>464.0</ele><time>2026-04-04T15:30:54Z</time></trkpt><trkpt lat="44.55325222315993" lon="10.416228731343926"><ele>464.0</ele><time>2026-04-04T15:30:55Z</time></trkpt><trkpt lat="44.55331536900982" lon="10.416136367095756"><ele>465.0</ele><time>2026-04-04T15:30:56Z</time></trkpt><trkpt lat="44.553370059724294" lon="10.416039346519321"><ele>466.0</ele><time>2026-04-04T15:30:57Z</time></trkpt><trkpt lat="44.55342381731205" lon="10.415917565924683"><ele>467.0</ele><time>2026-04-04T15:30:58Z</time></trkpt><trkpt lat="44.55346416433315" lon="10.415786501978424"><ele>468.0</ele><time>2026-04-04T15:30:59Z</time></trkpt><trkpt lat="44.55349293258699" lon="10.41564073145339"><ele>469.0</ele><time>2026-04-04T15:31:00Z</time></trkpt><trkpt lat="44.55351986064027" lon="10.415466367200969"><ele>469.75</ele><time>2026-04-04T15:31:01Z</time></trkpt><trkpt lat="44.55354035564915" lon="10.415268461995213"><ele>470.5</ele><time>2026-04-04T15:31:02Z</time></trkpt><trkpt lat="44.55353920056963" lon="10.41507647875342"><ele>471.25</ele><time>2026-04-04T15:31:03Z</time></trkpt><trkpt lat="44.5535283952771" lon="10.414905954356811"><ele>472.0</ele><time>2026-04-04T15:31:04Z</time></trkpt><trkpt lat="44.55353057380079" lon="10.414752323987386"><ele>473.0</ele><time>2026-04-04T15:31:05Z</time></trkpt><trkpt lat="44.553550644880666" lon="10.414608194243847"><ele>474.00000000000006</ele><time>2026-04-04T15:31:06Z</time></trkpt><trkpt lat="44.553593355092154" lon="10.414503674792472"><ele>475.00000000000006</ele><time>2026-04-04T15:31:07Z</time></trkpt><trkpt lat="44.5536466171048" lon="10.414402192548499"><ele>476.0</ele><time>2026-04-04T15:31:08Z</time></trkpt><trkpt lat="44.55370889519032" lon="10.414303263900953"><ele>477.0</ele><time>2026-04-04T15:31:09Z</time></trkpt><trkpt lat="44.553779990186925" lon="10.414226891553058"><ele>473.1666666666667</ele><time>2026-04-04T15:31:10Z</time></trkpt><trkpt lat="44.553858127359284" lon="10.41417622824812"><ele>469.33333333333337</ele><time>2026-04-04T15:31:11Z</time></trkpt><trkpt lat="44.55391955768037" lon="10.414118848267432"><ele>465.5</ele><time>2026-04-04T15:31:12Z</time></trkpt><trkpt lat="44.55396607102795" lon="10.414028832886329"><ele>461.6666666666667</ele><time>2026-04-04T15:31:13Z</time></trkpt><trkpt lat="44.55397631507823" lon="10.413918886211496"><ele>457.83333333333337</ele><time>2026-04-04T15:31:14Z</time></trkpt><trkpt lat="44.553940602519894" lon="10.413827432118314"><ele>454.0</ele><time>2026-04-04T15:31:15Z</time></trkpt><trkpt lat="44.5538574570123" lon="10.413731288091395"><ele>453.50000000000006</ele><time>2026-04-04T15:31:16Z</time></trkpt><trkpt lat="44.55381849876553" lon="10.413628791492581"><ele>453.0</ele><time>2026-04-04T15:31:17Z</time></trkpt><trkpt lat="44.55382434743066" lon="10.413492874634661"><ele>452.5</ele><time>2026-04-04T15:31:18Z</time></trkpt><trkpt lat="44.55382494190524" lon="10.413372155316077"><ele>452.0</ele><time>2026-04-04T15:31:19Z</time></trkpt><trkpt lat="44.553797678129584" lon="10.413254795407365"><ele>451.50000000000006</ele><time>2026-04-04T15:31:20Z</time></trkpt><trkpt lat="44.55374251040145" lon="10.413164710112767"><ele>451.0</ele><time>2026-04-04T15:31:21Z</time></trkpt><trkpt lat="44.553675444699756" lon="10.413088964097364"><ele>450.25</ele><time>2026-04-04T15:31:22Z</time></trkpt><trkpt lat="44.55358531918897" lon="10.412910856128082"><ele>449.5</ele><time>2026-04-04T15:31:23Z</time></trkpt><trkpt lat="44.55352658809612" lon="10.4127242482524"><ele>448.75</ele><time>2026-04-04T15:31:24Z</time></trkpt><trkpt lat="44.55347551331747" lon="10.412537345225223"><ele>448.0</ele><time>2026-04-04T15:31:25Z</time></trkpt><trkpt lat="44.55343332481815" lon="10.412367544343649"><ele>448.0</ele><time>2026-04-04T15:31:26Z</time></trkpt><trkpt lat="44.553395891727455" lon="10.412232755054193"><ele>447.99999999999994</ele><time>2026-04-04T15:31:27Z</time></trkpt><trkpt lat="44.553359203013905" lon="10.41207172502584"><ele>447.99999999999994</ele><time>2026-04-04T15:31:28Z</time></trkpt><trkpt lat="44.55334610050752" lon="10.41191602676704"><ele>448.0</ele><time>2026-04-04T15:31:29Z</time></trkpt><trkpt lat="44.553370093469475" lon="10.411768741230382"><ele>448.0</ele><time>2026-04-04T15:31:30Z</time></trkpt><trkpt lat="44.5534138219504" lon="10.411618466221409"><ele>447.5</ele><time>2026-04-04T15:31:31Z</time></trkpt><trkpt lat="44.553489108022355" lon="10.411498551355631"><ele>447.0</ele><time>2026-04-04T15:31:32Z</time></trkpt><trkpt lat="44.55358895591292" lon="10.41140224111496"><ele>446.5</ele><time>2026-04-04T15:31:33Z</time></trkpt><trkpt lat="44.55365211423682" lon="10.411332123001296"><ele>446.0</ele><time>2026-04-04T15:31:34Z</time></trkpt><trkpt lat="44.5535612121193" lon="10.411172997008485"><ele>446.0</ele><time>2026-04-04T15:31:35.999Z</time></trkpt><trkpt lat="44.55344327834144" lon="10.411114980749735"><ele>446.0</ele><time>2026-04-04T15:31:36.999Z</time></trkpt><trkpt lat="44.55331891498417" lon="10.411020211733845"><ele>446.0</ele><time>2026-04-04T15:31:37.999Z</time></trkpt><trkpt lat="44.553192869690015" lon="10.410929462635481"><ele>446.0</ele><time>2026-04-04T15:31:38.999Z</time></trkpt><trkpt lat="44.55308808395498" lon="10.410879606813127"><ele>446.0</ele><time>2026-04-04T15:31:39.999Z</time></trkpt><trkpt lat="44.55301585854311" lon="10.410828903031923"><ele>446.0</ele><time>2026-04-04T15:31:40.999Z</time></trkpt><trkpt lat="44.55295927181484" lon="10.410749037467875"><ele>446.0</ele><time>2026-04-04T15:31:42.999Z</time></trkpt><trkpt lat="44.55298522926887" lon="10.41055172921773"><ele>446.0</ele><time>2026-04-04T15:31:44.999Z</time></trkpt><trkpt lat="44.5530287829117" lon="10.410450540327766"><ele>446.0</ele><time>2026-04-04T15:31:45.999Z</time></trkpt><trkpt lat="44.55308661865884" lon="10.4102988199784"><ele>447.0</ele><time>2026-04-04T15:31:46.999Z</time></trkpt><trkpt lat="44.55314347959448" lon="10.41009049263995"><ele>448.0</ele><time>2026-04-04T15:31:47.999Z</time></trkpt><trkpt lat="44.553179851597534" lon="10.409926504503154"><ele>449.0</ele><time>2026-04-04T15:31:48.999Z</time></trkpt><trkpt lat="44.553276536682645" lon="10.40988904427275"><ele>450.0</ele><time>2026-04-04T15:31:50.999Z</time></trkpt><trkpt lat="44.553348730055376" lon="10.409823016491902"><ele>450.0</ele><time>2026-04-04T15:31:51.999Z</time></trkpt><trkpt lat="44.55340309380001" lon="10.409764876357478"><ele>450.0</ele><time>2026-04-04T15:31:52.999Z</time></trkpt><trkpt lat="44.55341202231966" lon="10.40961139565981"><ele>450.0</ele><time>2026-04-04T15:31:54.999Z</time></trkpt><trkpt lat="44.553367094393636" lon="10.409455993018534"><ele>450.0</ele><time>2026-04-04T15:31:56.999Z</time></trkpt><trkpt lat="44.55342845527511" lon="10.409314813645137"><ele>450.0</ele><time>2026-04-04T15:31:58.999Z</time></trkpt><trkpt lat="44.553437742856026" lon="10.40919123486344"><ele>452.4</ele><time>2026-04-04T15:31:59.999Z</time></trkpt><trkpt lat="44.553439679679876" lon="10.409064742069413"><ele>454.8</ele><time>2026-04-04T15:32:00.999Z</time></trkpt><trkpt lat="44.55341186994249" lon="10.408950064144276"><ele>457.20000000000005</ele><time>2026-04-04T15:32:01.999Z</time></trkpt><trkpt lat="44.55334719602458" lon="10.408840330781752"><ele>459.6</ele><time>2026-04-04T15:32:02.999Z</time></trkpt><trkpt lat="44.55321567540115" lon="10.408783856552756"><ele>462.0</ele><time>2026-04-04T15:32:04.999Z</time></trkpt><trkpt lat="44.55311163876457" lon="10.408740188315463"><ele>463.5</ele><time>2026-04-04T15:32:05.999Z</time></trkpt><trkpt lat="44.55298282966356" lon="10.40869018404204"><ele>465.0</ele><time>2026-04-04T15:32:06.999Z</time></trkpt><trkpt lat="44.5528594726957" lon="10.408629772343108"><ele>466.5</ele><time>2026-04-04T15:32:07.999Z</time></trkpt><trkpt lat="44.552757263996746" lon="10.408590531049063"><ele>468.0</ele><time>2026-04-04T15:32:08.999Z</time></trkpt><trkpt lat="44.552669445659646" lon="10.408457149131271"><ele>470.0</ele><time>2026-04-04T15:32:10.999Z</time></trkpt><trkpt lat="44.55266365628931" lon="10.408357000522138"><ele>472.0</ele><time>2026-04-04T15:32:11.999Z</time></trkpt><trkpt lat="44.55268052892889" lon="10.408228979091193"><ele>474.0</ele><time>2026-04-04T15:32:12.999Z</time></trkpt><trkpt lat="44.552691650455664" lon="10.408094056071544"><ele>476.0</ele><time>2026-04-04T15:32:13.999Z</time></trkpt><trkpt lat="44.55265705502315" lon="10.40800228790879"><ele>478.0</ele><time>2026-04-04T15:32:16.999Z</time></trkpt><trkpt lat="44.552568938035996" lon="10.407900082043119"><ele>480.0</ele><time>2026-04-04T15:32:18.999Z</time></trkpt><trkpt lat="44.55245519432368" lon="10.407892575296971"><ele>480.0</ele><time>2026-04-04T15:32:19.999Z</time></trkpt><trkpt lat="44.552328776658534" lon="10.407885111363319"><ele>480.0</ele><time>2026-04-04T15:32:20.999Z</time></trkpt><trkpt lat="44.55223579511003" lon="10.407939191602383"><ele>480.0</ele><time>2026-04-04T15:32:21.999Z</time></trkpt><trkpt lat="44.55211694098487" lon="10.407879154501318"><ele>480.0</ele><time>2026-04-04T15:32:23.999Z</time></trkpt><trkpt lat="44.55197793307234" lon="10.408012015315618"><ele>484.4</ele><time>2026-04-04T15:32:28.999Z</time></trkpt><trkpt lat="44.55191336868278" lon="10.408037094551759"><ele>488.8</ele><time>2026-04-04T15:32:30.999Z</time></trkpt><trkpt lat="44.551846289608655" lon="10.407977373545188"><ele>493.20000000000005</ele><time>2026-04-04T15:32:31.999Z</time></trkpt><trkpt lat="44.55175890761869" lon="10.40790698440934"><ele>497.6</ele><time>2026-04-04T15:32:32.999Z</time></trkpt><trkpt lat="44.55165786421157" lon="10.407849682500043"><ele>502.0</ele><time>2026-04-04T15:32:33.999Z</time></trkpt><trkpt lat="44.551563999560166" lon="10.407809420147863"><ele>502.0</ele><time>2026-04-04T15:32:34.999Z</time></trkpt><trkpt lat="44.55145614882991" lon="10.407766009011143"><ele>502.0</ele><time>2026-04-04T15:32:35.999Z</time></trkpt><trkpt lat="44.551337375762266" lon="10.407743916995319"><ele>502.0</ele><time>2026-04-04T15:32:36.999Z</time></trkpt><trkpt lat="44.55121208320411" lon="10.407712704541737"><ele>502.0</ele><time>2026-04-04T15:32:37.999Z</time></trkpt><trkpt lat="44.551086211722755" lon="10.407693487430258"><ele>506.20000000000005</ele><time>2026-04-04T15:32:38.999Z</time></trkpt><trkpt lat="44.55096229806507" lon="10.407684264375613"><ele>510.40000000000003</ele><time>2026-04-04T15:32:39.999Z</time></trkpt><trkpt lat="44.55084366552871" lon="10.407661302849291"><ele>514.5999999999999</ele><time>2026-04-04T15:32:40.999Z</time></trkpt><trkpt lat="44.55074899138105" lon="10.407638030689808"><ele>518.8</ele><time>2026-04-04T15:32:41.999Z</time></trkpt><trkpt lat="44.550655043279505" lon="10.407592581363268"><ele>523.0</ele><time>2026-04-04T15:32:42.999Z</time></trkpt><trkpt lat="44.550572257425614" lon="10.407564094166085"><ele>523.0</ele><time>2026-04-04T15:32:43.999Z</time></trkpt><trkpt lat="44.55049801587769" lon="10.4075448610782"><ele>523.0</ele><time>2026-04-04T15:32:45.999Z</time></trkpt><trkpt lat="44.550376773802185" lon="10.407515049052721"><ele>523.0</ele><time>2026-04-04T15:32:47.999Z</time></trkpt><trkpt lat="44.55031210196219" lon="10.407457585876784"><ele>523.0</ele><time>2026-04-04T15:32:48.999Z</time></trkpt><trkpt lat="44.55023858207468" lon="10.40736511606084"><ele>523.0</ele><time>2026-04-04T15:32:49.999Z</time></trkpt><trkpt lat="44.550158410350164" lon="10.407252406415946"><ele>526.8</ele><time>2026-04-04T15:32:50.999Z</time></trkpt><trkpt lat="44.55006158529739" lon="10.407138896183767"><ele>530.5999999999999</ele><time>2026-04-04T15:32:51.999Z</time></trkpt><trkpt lat="44.549967322401564" lon="10.407048652741798"><ele>534.4000000000001</ele><time>2026-04-04T15:32:52.999Z</time></trkpt><trkpt lat="44.54986714098704" lon="10.406999497406128"><ele>538.2</ele><time>2026-04-04T15:32:53.999Z</time></trkpt><trkpt lat="44.54978783884832" lon="10.406986126096717"><ele>542.0</ele><time>2026-04-04T15:32:54.999Z</time></trkpt><trkpt lat="44.54969831950642" lon="10.406974631010446"><ele>542.0</ele><time>2026-04-04T15:32:55.999Z</time></trkpt><trkpt lat="44.54960532433203" lon="10.406968905711084"><ele>542.0</ele><time>2026-04-04T15:32:57Z</time></trkpt><trkpt lat="44.549512571576564" lon="10.406955173627695"><ele>542.0</ele><time>2026-04-04T15:32:58Z</time></trkpt><trkpt lat="44.54942630917665" lon="10.406954354333083"><ele>542.0</ele><time>2026-04-04T15:32:59Z</time></trkpt><trkpt lat="44.54934668542833" lon="10.406991631191591"><ele>542.0</ele><time>2026-04-04T15:33:00Z</time></trkpt><trkpt lat="44.549272799677546" lon="10.407046274137855"><ele>542.0</ele><time>2026-04-04T15:33:01Z</time></trkpt><trkpt lat="44.54919212583791" lon="10.407090394878715"><ele>545.5</ele><time>2026-04-04T15:33:02Z</time></trkpt><trkpt lat="44.549101863511375" lon="10.407106786942757"><ele>549.0</ele><time>2026-04-04T15:33:03Z</time></trkpt><trkpt lat="44.54900622259765" lon="10.407095804286334"><ele>552.5</ele><time>2026-04-04T15:33:05Z</time></trkpt><trkpt lat="44.548945129860584" lon="10.40717362710281"><ele>556.0</ele><time>2026-04-04T15:33:07Z</time></trkpt><trkpt lat="44.548911833425024" lon="10.407255082112178"><ele>559.5</ele><time>2026-04-04T15:33:08Z</time></trkpt><trkpt lat="44.54886335095564" lon="10.407313160837292"><ele>563.0</ele><time>2026-04-04T15:33:09Z</time></trkpt><trkpt lat="44.54877803250088" lon="10.407345262009066"><ele>567.6</ele><time>2026-04-04T15:33:10Z</time></trkpt><trkpt lat="44.54867823089763" lon="10.40737791568169"><ele>572.1999999999999</ele><time>2026-04-04T15:33:11Z</time></trkpt><trkpt lat="44.54860358400914" lon="10.407406456701564"><ele>576.8</ele><time>2026-04-04T15:33:12Z</time></trkpt><trkpt lat="44.54850584449783" lon="10.407407790007687"><ele>581.4</ele><time>2026-04-04T15:33:14Z</time></trkpt><trkpt lat="44.54845346338878" lon="10.40725106865776"><ele>586.0</ele><time>2026-04-04T15:33:16Z</time></trkpt><trkpt lat="44.54841484077436" lon="10.407137294710559"><ele>586.0</ele><time>2026-04-04T15:33:17Z</time></trkpt><trkpt lat="44.54836852854835" lon="10.406980306132157"><ele>586.0</ele><time>2026-04-04T15:33:18Z</time></trkpt><trkpt lat="44.54831520835873" lon="10.406825990002643"><ele>586.0</ele><time>2026-04-04T15:33:19Z</time></trkpt><trkpt lat="44.548281062135494" lon="10.406716178720169"><ele>586.0</ele><time>2026-04-04T15:33:20Z</time></trkpt><trkpt lat="44.54824445814594" lon="10.406610956826128"><ele>586.0</ele><time>2026-04-04T15:33:21Z</time></trkpt><trkpt lat="44.54816558410421" lon="10.406550512903605"><ele>586.0</ele><time>2026-04-04T15:33:23Z</time></trkpt><trkpt lat="44.548058278648185" lon="10.40659383090107"><ele>586.0</ele><time>2026-04-04T15:33:25Z</time></trkpt><trkpt lat="44.5479815134343" lon="10.406646632589823"><ele>586.0</ele><time>2026-04-04T15:33:26Z</time></trkpt><trkpt lat="44.54790785690952" lon="10.406680040378683"><ele>586.0</ele><time>2026-04-04T15:33:27Z</time></trkpt><trkpt lat="44.54781409609311" lon="10.406702969369718"><ele>586.0</ele><time>2026-04-04T15:33:28Z</time></trkpt><trkpt lat="44.54772095013276" lon="10.406733052094385"><ele>588.1666666666667</ele><time>2026-04-04T15:33:29Z</time></trkpt><trkpt lat="44.5476380804859" lon="10.406762840997478"><ele>590.3333333333334</ele><time>2026-04-04T15:33:30Z</time></trkpt><trkpt lat="44.54756180833127" lon="10.406789215228981"><ele>592.5</ele><time>2026-04-04T15:33:31Z</time></trkpt><trkpt lat="44.54749368944886" lon="10.40680547186126"><ele>594.6666666666666</ele><time>2026-04-04T15:33:32Z</time></trkpt><trkpt lat="44.547418706203125" lon="10.406811389050924"><ele>596.8333333333333</ele><time>2026-04-04T15:33:33Z</time></trkpt><trkpt lat="44.547318176209295" lon="10.40680001411056"><ele>599.0</ele><time>2026-04-04T15:33:34.999Z</time></trkpt><trkpt lat="44.54719876304587" lon="10.406796402103215"><ele>599.0</ele><time>2026-04-04T15:33:36.999Z</time></trkpt><trkpt lat="44.54713375276893" lon="10.406764482109011"><ele>599.0</ele><time>2026-04-04T15:33:37.999Z</time></trkpt><trkpt lat="44.54706179452207" lon="10.406750276302425"><ele>599.0</ele><time>2026-04-04T15:33:38.999Z</time></trkpt><trkpt lat="44.546958937733706" lon="10.406750552133957"><ele>599.0</ele><time>2026-04-04T15:33:40.999Z</time></trkpt><trkpt lat="44.54684194667891" lon="10.406757824703833"><ele>599.0</ele><time>2026-04-04T15:33:42.999Z</time></trkpt><trkpt lat="44.54674496751028" lon="10.40674866448908"><ele>601.0</ele><time>2026-04-04T15:33:44.999Z</time></trkpt></trkseg><trkseg><trkpt lat="44.546819006292516" lon="10.406758482791863"><ele>601.0</ele><time>2026-04-04T15:49:58.999Z</time></trkpt><trkpt lat="44.54696634055215" lon="10.406756263995048"><ele>601.0</ele><time>2026-04-04T15:50:00.999Z</time></trkpt><trkpt lat="44.54705665129781" lon="10.40675646100249"><ele>601.0</ele><time>2026-04-04T15:50:01.999Z</time></trkpt><trkpt lat="44.54714241721273" lon="10.40675585871814"><ele>601.0</ele><time>2026-04-04T15:50:02.999Z</time></trkpt><trkpt lat="44.547241604871296" lon="10.406764494512958"><ele>601.0</ele><time>2026-04-04T15:50:03.999Z</time></trkpt><trkpt lat="44.54735875174322" lon="10.406803276542707"><ele>600.5</ele><time>2026-04-04T15:50:04.999Z</time></trkpt><trkpt lat="44.54748473866975" lon="10.406829240536561"><ele>600.0</ele><time>2026-04-04T15:50:05.999Z</time></trkpt><trkpt lat="44.54761368727282" lon="10.406811174968222"><ele>599.5</ele><time>2026-04-04T15:50:06.999Z</time></trkpt><trkpt lat="44.547740949602854" lon="10.406765163702298"><ele>599.0</ele><time>2026-04-04T15:50:07.999Z</time></trkpt><trkpt lat="44.54786045261111" lon="10.40671572253118"><ele>596.8333333333333</ele><time>2026-04-04T15:50:08.999Z</time></trkpt><trkpt lat="44.54795330250781" lon="10.406684673533169"><ele>594.6666666666666</ele><time>2026-04-04T15:50:09.999Z</time></trkpt><trkpt lat="44.548030954232445" lon="10.406647829523944"><ele>592.5</ele><time>2026-04-04T15:50:10.999Z</time></trkpt><trkpt lat="44.54810340828631" lon="10.406620061933946"><ele>590.3333333333334</ele><time>2026-04-04T15:50:11.999Z</time></trkpt><trkpt lat="44.54816578968621" lon="10.406593034047908"><ele>588.1666666666667</ele><time>2026-04-04T15:50:12.999Z</time></trkpt><trkpt lat="44.548277631685444" lon="10.406613614437951"><ele>586.0</ele><time>2026-04-04T15:50:14.999Z</time></trkpt><trkpt lat="44.548322239110064" lon="10.406761596877736"><ele>586.0</ele><time>2026-04-04T15:50:16.999Z</time></trkpt><trkpt lat="44.548353314319854" lon="10.406889085484584"><ele>586.0</ele><time>2026-04-04T15:50:17.999Z</time></trkpt><trkpt lat="44.54839708977553" lon="10.407060456364555"><ele>586.0</ele><time>2026-04-04T15:50:18.999Z</time></trkpt><trkpt lat="44.54846148791298" lon="10.407275708382056"><ele>586.0</ele><time>2026-04-04T15:50:19.999Z</time></trkpt><trkpt lat="44.54849689849127" lon="10.40740181362494"><ele>587.25</ele><time>2026-04-04T15:50:20.999Z</time></trkpt><trkpt lat="44.548597353097854" lon="10.407474295991559"><ele>588.5</ele><time>2026-04-04T15:50:22.999Z</time></trkpt><trkpt lat="44.548708473393134" lon="10.40740915071768"><ele>589.75</ele><time>2026-04-04T15:50:23.999Z</time></trkpt><trkpt lat="44.54885673609598" lon="10.407322498013697"><ele>591.0</ele><time>2026-04-04T15:50:24.999Z</time></trkpt><trkpt lat="44.54896641698883" lon="10.407266294544817"><ele>587.4</ele><time>2026-04-04T15:50:25.999Z</time></trkpt><trkpt lat="44.54903473775941" lon="10.40718560092819"><ele>583.8</ele><time>2026-04-04T15:50:26.999Z</time></trkpt><trkpt lat="44.549103216371506" lon="10.407087910661826"><ele>580.1999999999999</ele><time>2026-04-04T15:50:27.999Z</time></trkpt><trkpt lat="44.54919948643601" lon="10.407029064295077"><ele>576.6</ele><time>2026-04-04T15:50:28.999Z</time></trkpt><trkpt lat="44.549282809833244" lon="10.407012812079262"><ele>573.0</ele><time>2026-04-04T15:50:29.999Z</time></trkpt><trkpt lat="44.549380878931736" lon="10.406982785547154"><ele>571.0</ele><time>2026-04-04T15:50:30.999Z</time></trkpt><trkpt lat="44.54947729463161" lon="10.406926000132092"><ele>569.0</ele><time>2026-04-04T15:50:31.999Z</time></trkpt><trkpt lat="44.54957485315424" lon="10.40689852312618"><ele>567.0</ele><time>2026-04-04T15:50:32.999Z</time></trkpt><trkpt lat="44.54967216125871" lon="10.406919664425354"><ele>565.0</ele><time>2026-04-04T15:50:33.999Z</time></trkpt><trkpt lat="44.54976309127352" lon="10.406956351177188"><ele>563.0</ele><time>2026-04-04T15:50:34.999Z</time></trkpt><trkpt lat="44.54985983567645" lon="10.406970400814771"><ele>560.4</ele><time>2026-04-04T15:50:35.999Z</time></trkpt><trkpt lat="44.5499680823702" lon="10.40700724129289"><ele>557.8</ele><time>2026-04-04T15:50:36.999Z</time></trkpt><trkpt lat="44.550069016892245" lon="10.40707116665606"><ele>555.2</ele><time>2026-04-04T15:50:37.999Z</time></trkpt><trkpt lat="44.55015635101998" lon="10.407149504211421"><ele>552.6</ele><time>2026-04-04T15:50:38.999Z</time></trkpt><trkpt lat="44.55021644856758" lon="10.407234138995094"><ele>550.0</ele><time>2026-04-04T15:50:39.999Z</time></trkpt><trkpt lat="44.5502749415699" lon="10.407321352698668"><ele>550.0</ele><time>2026-04-04T15:50:40.999Z</time></trkpt><trkpt lat="44.5503348173737" lon="10.40740499484652"><ele>550.0</ele><time>2026-04-04T15:50:41.999Z</time></trkpt><trkpt lat="44.55039165487904" lon="10.407472400749361"><ele>550.0</ele><time>2026-04-04T15:50:42.999Z</time></trkpt><trkpt lat="44.55046150646111" lon="10.407543143354387"><ele>550.0</ele><time>2026-04-04T15:50:43.999Z</time></trkpt><trkpt lat="44.55054476241157" lon="10.407595962875783"><ele>550.0</ele><time>2026-04-04T15:50:44.999Z</time></trkpt><trkpt lat="44.550638638041605" lon="10.407627176619233"><ele>550.0</ele><time>2026-04-04T15:50:45.999Z</time></trkpt><trkpt lat="44.550745866458705" lon="10.407663429817447"><ele>543.25</ele><time>2026-04-04T15:50:46.999Z</time></trkpt><trkpt lat="44.55086522219283" lon="10.407686245167973"><ele>536.5</ele><time>2026-04-04T15:50:47.999Z</time></trkpt><trkpt lat="44.55098468807993" lon="10.407722741759905"><ele>529.75</ele><time>2026-04-04T15:50:48.999Z</time></trkpt><trkpt lat="44.5511051546279" lon="10.407742804998675"><ele>523.0</ele><time>2026-04-04T15:50:49.999Z</time></trkpt><trkpt lat="44.55121672470108" lon="10.407754587826147"><ele>520.3333333333334</ele><time>2026-04-04T15:50:50.999Z</time></trkpt><trkpt lat="44.55130935313864" lon="10.407768638845022"><ele>517.6666666666667</ele><time>2026-04-04T15:50:51.999Z</time></trkpt><trkpt lat="44.55139918628716" lon="10.40778678537554"><ele>515.0</ele><time>2026-04-04T15:50:52.999Z</time></trkpt><trkpt lat="44.55148878681918" lon="10.407809120898799"><ele>512.3333333333334</ele><time>2026-04-04T15:50:54Z</time></trkpt><trkpt lat="44.55156436943238" lon="10.407838613705737"><ele>509.6666666666667</ele><time>2026-04-04T15:50:55Z</time></trkpt><trkpt lat="44.55162968772743" lon="10.407878702419993"><ele>507.0</ele><time>2026-04-04T15:50:56Z</time></trkpt><trkpt lat="44.5516879060571" lon="10.407999290337102"><ele>507.0</ele><time>2026-04-04T15:50:58Z</time></trkpt><trkpt lat="44.551717832668416" lon="10.40812895580407"><ele>507.0</ele><time>2026-04-04T15:51:00Z</time></trkpt><trkpt lat="44.551744676774625" lon="10.408273550899203"><ele>507.0</ele><time>2026-04-04T15:51:02Z</time></trkpt><trkpt lat="44.551749790540526" lon="10.408377172467961"><ele>507.0</ele><time>2026-04-04T15:51:04Z</time></trkpt><trkpt lat="44.55167420583818" lon="10.408432902457225"><ele>507.0</ele><time>2026-04-04T15:51:07Z</time></trkpt><trkpt lat="44.55159566985916" lon="10.408395200074217"><ele>507.0</ele><time>2026-04-04T15:51:08Z</time></trkpt><trkpt lat="44.55149879151766" lon="10.408330045867343"><ele>507.0</ele><time>2026-04-04T15:51:09Z</time></trkpt><trkpt lat="44.55139313679057" lon="10.408259179522341"><ele>507.00000000000006</ele><time>2026-04-04T15:51:10Z</time></trkpt><trkpt lat="44.551299292507856" lon="10.408208880951921"><ele>507.00000000000006</ele><time>2026-04-04T15:51:11Z</time></trkpt><trkpt lat="44.55119812440038" lon="10.408207384446984"><ele>507.0</ele><time>2026-04-04T15:51:12Z</time></trkpt><trkpt lat="44.551114280159766" lon="10.40826957308437"><ele>507.0</ele><time>2026-04-04T15:51:13Z</time></trkpt><trkpt lat="44.55100542541403" lon="10.408257855964246"><ele>511.0</ele><time>2026-04-04T15:51:15Z</time></trkpt><trkpt lat="44.5509644782574" lon="10.408106586220166"><ele>515.0</ele><time>2026-04-04T15:51:17Z</time></trkpt><trkpt lat="44.55085563508841" lon="10.408116497065718"><ele>519.0</ele><time>2026-04-04T15:51:19Z</time></trkpt><trkpt lat="44.55077618032442" lon="10.4082190251878"><ele>523.0</ele><time>2026-04-04T15:51:20Z</time></trkpt><trkpt lat="44.550658449590344" lon="10.408314430351254"><ele>523.0</ele><time>2026-04-04T15:51:21Z</time></trkpt><trkpt lat="44.55053765090909" lon="10.408408385005032"><ele>523.0</ele><time>2026-04-04T15:51:22Z</time></trkpt><trkpt lat="44.55041982061206" lon="10.408516523526634"><ele>523.0</ele><time>2026-04-04T15:51:23Z</time></trkpt><trkpt lat="44.55033817263229" lon="10.408577885369805"><ele>523.0</ele><time>2026-04-04T15:51:24Z</time></trkpt><trkpt lat="44.550254539817864" lon="10.40863405140234"><ele>525.6</ele><time>2026-04-04T15:51:25Z</time></trkpt><trkpt lat="44.55017988220818" lon="10.408718161596324"><ele>528.1999999999999</ele><time>2026-04-04T15:51:26.001Z</time></trkpt><trkpt lat="44.55012552943517" lon="10.408787218018231"><ele>530.8</ele><time>2026-04-04T15:51:27.001Z</time></trkpt><trkpt lat="44.550051392229165" lon="10.408810707535487"><ele>533.4</ele><time>2026-04-04T15:51:28.001Z</time></trkpt><trkpt lat="44.549951194012586" lon="10.408820653002977"><ele>536.0</ele><time>2026-04-04T15:51:29.001Z</time></trkpt><trkpt lat="44.549836327902575" lon="10.408846757209158"><ele>536.0</ele><time>2026-04-04T15:51:30.001Z</time></trkpt><trkpt lat="44.54974148735826" lon="10.408916085834074"><ele>536.0</ele><time>2026-04-04T15:51:31.001Z</time></trkpt><trkpt lat="44.549689824861616" lon="10.40900461867624"><ele>536.0</ele><time>2026-04-04T15:51:32.001Z</time></trkpt><trkpt lat="44.54959315415359" lon="10.409136866445769"><ele>536.0</ele><time>2026-04-04T15:51:33.001Z</time></trkpt><trkpt lat="44.54950972542357" lon="10.409250928423145"><ele>536.0</ele><time>2026-04-04T15:51:34.001Z</time></trkpt><trkpt lat="44.54943233931614" lon="10.409346052427404"><ele>538.2</ele><time>2026-04-04T15:51:35.001Z</time></trkpt><trkpt lat="44.54935750382408" lon="10.409421348973375"><ele>540.4000000000001</ele><time>2026-04-04T15:51:36.001Z</time></trkpt><trkpt lat="44.54927516506186" lon="10.409503538347485"><ele>542.6</ele><time>2026-04-04T15:51:37.001Z</time></trkpt><trkpt lat="44.549192856023446" lon="10.409552433025352"><ele>544.8000000000001</ele><time>2026-04-04T15:51:38Z</time></trkpt><trkpt lat="44.549047100232976" lon="10.409653498663264"><ele>547.0</ele><time>2026-04-04T15:51:40Z</time></trkpt><trkpt lat="44.54893989492972" lon="10.409723111983903"><ele>547.0</ele><time>2026-04-04T15:51:41Z</time></trkpt><trkpt lat="44.54882167207908" lon="10.409788963329259"><ele>547.0</ele><time>2026-04-04T15:51:42Z</time></trkpt><trkpt lat="44.548713098083326" lon="10.40983629531622"><ele>547.0</ele><time>2026-04-04T15:51:43Z</time></trkpt><trkpt lat="44.548596632035796" lon="10.409873506903187"><ele>547.0</ele><time>2026-04-04T15:51:44Z</time></trkpt><trkpt lat="44.54850220270995" lon="10.409923086812535"><ele>551.25</ele><time>2026-04-04T15:51:45Z</time></trkpt><trkpt lat="44.54842061462356" lon="10.410028898935483"><ele>555.5</ele><time>2026-04-04T15:51:46Z</time></trkpt><trkpt lat="44.54829149622341" lon="10.410149982132578"><ele>559.75</ele><time>2026-04-04T15:51:47Z</time></trkpt><trkpt lat="44.5481597774413" lon="10.410238313645689"><ele>564.0</ele><time>2026-04-04T15:51:48Z</time></trkpt><trkpt lat="44.54805738175197" lon="10.410322012128416"><ele>564.0</ele><time>2026-04-04T15:51:49Z</time></trkpt><trkpt lat="44.54797999989043" lon="10.410423326002698"><ele>564.0</ele><time>2026-04-04T15:51:50Z</time></trkpt><trkpt lat="44.547904762966226" lon="10.410541493724635"><ele>564.0</ele><time>2026-04-04T15:51:51Z</time></trkpt><trkpt lat="44.547819162646" lon="10.410643762566224"><ele>564.0</ele><time>2026-04-04T15:51:52Z</time></trkpt><trkpt lat="44.547734252475145" lon="10.410738187177088"><ele>564.0</ele><time>2026-04-04T15:51:53Z</time></trkpt><trkpt lat="44.54764103649185" lon="10.410837123912158"><ele>565.0</ele><time>2026-04-04T15:51:54Z</time></trkpt><trkpt lat="44.54756262844505" lon="10.410911292838371"><ele>566.0</ele><time>2026-04-04T15:51:55Z</time></trkpt><trkpt lat="44.54748759812696" lon="10.410970442093758"><ele>567.0</ele><time>2026-04-04T15:51:56Z</time></trkpt><trkpt lat="44.547425069604984" lon="10.41102910680409"><ele>568.0</ele><time>2026-04-04T15:51:57Z</time></trkpt><trkpt lat="44.54736867640122" lon="10.411077976331056"><ele>569.0</ele><time>2026-04-04T15:51:58Z</time></trkpt><trkpt lat="44.54729297227539" lon="10.411093632305036"><ele>570.0</ele><time>2026-04-04T15:51:59Z</time></trkpt><trkpt lat="44.54722183585917" lon="10.41108242076718"><ele>570.0</ele><time>2026-04-04T15:52:00Z</time></trkpt><trkpt lat="44.54712797308198" lon="10.411075115713329"><ele>570.0</ele><time>2026-04-04T15:52:01Z</time></trkpt><trkpt lat="44.54702953286407" lon="10.411136140700538"><ele>570.0</ele><time>2026-04-04T15:52:02Z</time></trkpt><trkpt lat="44.546911994416874" lon="10.411257011407983"><ele>570.0</ele><time>2026-04-04T15:52:03Z</time></trkpt><trkpt lat="44.54677088991797" lon="10.411387501477552"><ele>569.75</ele><time>2026-04-04T15:52:04Z</time></trkpt><trkpt lat="44.54660082301942" lon="10.41144209626995"><ele>569.5</ele><time>2026-04-04T15:52:05Z</time></trkpt><trkpt lat="44.54648175508603" lon="10.411524322881377"><ele>569.25</ele><time>2026-04-04T15:52:06Z</time></trkpt><trkpt lat="44.546407890669784" lon="10.411567794758064"><ele>569.0</ele><time>2026-04-04T15:52:07Z</time></trkpt><trkpt lat="44.54631219757224" lon="10.411629211416477"><ele>569.0</ele><time>2026-04-04T15:52:08Z</time></trkpt><trkpt lat="44.54623687210344" lon="10.41175862171332"><ele>569.0</ele><time>2026-04-04T15:52:09Z</time></trkpt><trkpt lat="44.546155242625865" lon="10.411830376132954"><ele>569.0</ele><time>2026-04-04T15:52:10Z</time></trkpt><trkpt lat="44.54608749949711" lon="10.411870700563366"><ele>569.0</ele><time>2026-04-04T15:52:11Z</time></trkpt><trkpt lat="44.5460127248586" lon="10.411881995313019"><ele>569.0</ele><time>2026-04-04T15:52:12Z</time></trkpt><trkpt lat="44.545936705936555" lon="10.41184201491226"><ele>569.0</ele><time>2026-04-04T15:52:13Z</time></trkpt><trkpt lat="44.545842783487124" lon="10.411774414672758"><ele>570.4</ele><time>2026-04-04T15:52:14Z</time></trkpt><trkpt lat="44.54573725658222" lon="10.411731453214033"><ele>571.8</ele><time>2026-04-04T15:52:15Z</time></trkpt><trkpt lat="44.54564103755079" lon="10.411660410104949"><ele>573.2</ele><time>2026-04-04T15:52:16Z</time></trkpt><trkpt lat="44.54554095893139" lon="10.411650941338813"><ele>574.6</ele><time>2026-04-04T15:52:17Z</time></trkpt><trkpt lat="44.545420448947624" lon="10.411650652254265"><ele>576.0</ele><time>2026-04-04T15:52:18Z</time></trkpt><trkpt lat="44.54527855043439" lon="10.411630360600675"><ele>577.8</ele><time>2026-04-04T15:52:19Z</time></trkpt><trkpt lat="44.545145641791976" lon="10.411600939875871"><ele>579.6</ele><time>2026-04-04T15:52:20Z</time></trkpt><trkpt lat="44.54503144791516" lon="10.411572467730025"><ele>581.4</ele><time>2026-04-04T15:52:21Z</time></trkpt><trkpt lat="44.544942899645136" lon="10.41153800174659"><ele>583.2</ele><time>2026-04-04T15:52:22Z</time></trkpt><trkpt lat="44.54487864846573" lon="10.411508642873645"><ele>585.0</ele><time>2026-04-04T15:52:23Z</time></trkpt><trkpt lat="44.54481555521716" lon="10.411473005033374"><ele>585.0</ele><time>2026-04-04T15:52:24Z</time></trkpt><trkpt lat="44.54472631261698" lon="10.411431619353186"><ele>585.0</ele><time>2026-04-04T15:52:26Z</time></trkpt><trkpt lat="44.54465137831481" lon="10.411418564339472"><ele>585.0</ele><time>2026-04-04T15:52:29Z</time></trkpt><trkpt lat="44.54457023085318" lon="10.411402056838655"><ele>585.0</ele><time>2026-04-04T15:52:31Z</time></trkpt><trkpt lat="44.54447104053447" lon="10.411381878951325"><ele>585.0</ele><time>2026-04-04T15:52:33Z</time></trkpt><trkpt lat="44.54441193602842" lon="10.411460649430914"><ele>585.0</ele><time>2026-04-04T15:52:34Z</time></trkpt><trkpt lat="44.54433451699759" lon="10.411471580725815"><ele>584.3333333333334</ele><time>2026-04-04T15:52:36Z</time></trkpt><trkpt lat="44.544305705347" lon="10.411550215479641"><ele>583.6666666666666</ele><time>2026-04-04T15:52:38Z</time></trkpt><trkpt lat="44.54430969797378" lon="10.41172098268147"><ele>583.0</ele><time>2026-04-04T15:52:40Z</time></trkpt><trkpt lat="44.54431369902192" lon="10.41182044890009"><ele>582.3333333333333</ele><time>2026-04-04T15:52:41Z</time></trkpt><trkpt lat="44.54432121571782" lon="10.411926884340788"><ele>581.6666666666666</ele><time>2026-04-04T15:52:42Z</time></trkpt><trkpt lat="44.54432326107319" lon="10.412035731260142"><ele>581.0</ele><time>2026-04-04T15:52:43Z</time></trkpt><trkpt lat="44.54432133686531" lon="10.412131917013228"><ele>580.4</ele><time>2026-04-04T15:52:44Z</time></trkpt><trkpt lat="44.54432859945485" lon="10.412301218728361"><ele>579.8</ele><time>2026-04-04T15:52:46Z</time></trkpt><trkpt lat="44.544323676387485" lon="10.412458416831365"><ele>579.1999999999999</ele><time>2026-04-04T15:52:48Z</time></trkpt><trkpt lat="44.54433832237121" lon="10.412604576912537"><ele>578.6</ele><time>2026-04-04T15:52:50Z</time></trkpt><trkpt lat="44.54434585286298" lon="10.412701180196372"><ele>578.0</ele><time>2026-04-04T15:52:51Z</time></trkpt><trkpt lat="44.54434775095386" lon="10.412807613073058"><ele>578.0</ele><time>2026-04-04T15:52:52Z</time></trkpt><trkpt lat="44.54434503871871" lon="10.412901585619512"><ele>578.0</ele><time>2026-04-04T15:52:53Z</time></trkpt><trkpt lat="44.544340798774556" lon="10.412990864236697"><ele>578.0</ele><time>2026-04-04T15:52:54Z</time></trkpt><trkpt lat="44.544340094371094" lon="10.413079576112004"><ele>578.0</ele><time>2026-04-04T15:52:55Z</time></trkpt><trkpt lat="44.54434942712898" lon="10.413256649014743"><ele>578.0</ele><time>2026-04-04T15:52:57Z</time></trkpt><trkpt lat="44.5443511602735" lon="10.413345279799996"><ele>578.0</ele><time>2026-04-04T15:52:58Z</time></trkpt><trkpt lat="44.5443431170548" lon="10.413436598051964"><ele>578.0</ele><time>2026-04-04T15:52:59.001Z</time></trkpt><trkpt lat="44.544316926801315" lon="10.41351795712948"><ele>577.3333333333333</ele><time>2026-04-04T15:53:00.001Z</time></trkpt><trkpt lat="44.544267067872774" lon="10.413576341516631"><ele>576.6666666666666</ele><time>2026-04-04T15:53:01.001Z</time></trkpt><trkpt lat="44.54419245054117" lon="10.413560031160731"><ele>576.0</ele><time>2026-04-04T15:53:02.001Z</time></trkpt><trkpt lat="44.54412504193046" lon="10.413534518534977"><ele>575.3333333333334</ele><time>2026-04-04T15:53:03.001Z</time></trkpt><trkpt lat="44.54404644115072" lon="10.413502025928732"><ele>574.6666666666667</ele><time>2026-04-04T15:53:04.001Z</time></trkpt><trkpt lat="44.543958591392" lon="10.413463679544927"><ele>574.0</ele><time>2026-04-04T15:53:05.001Z</time></trkpt><trkpt lat="44.54386399706718" lon="10.413442690990172"><ele>574.0</ele><time>2026-04-04T15:53:06.001Z</time></trkpt><trkpt lat="44.54377598756998" lon="10.413404357696836"><ele>574.0</ele><time>2026-04-04T15:53:07.001Z</time></trkpt><trkpt lat="44.543699367590776" lon="10.413349488592212"><ele>574.0</ele><time>2026-04-04T15:53:08.001Z</time></trkpt><trkpt lat="44.54362162485234" lon="10.413307871838889"><ele>574.0</ele><time>2026-04-04T15:53:09.001Z</time></trkpt><trkpt lat="44.54355006965401" lon="10.413268352786691"><ele>574.0</ele><time>2026-04-04T15:53:10.001Z</time></trkpt><trkpt lat="44.54348558701754" lon="10.413247353316631"><ele>574.0</ele><time>2026-04-04T15:53:11.001Z</time></trkpt><trkpt lat="44.54339982021594" lon="10.413202382839355"><ele>572.2</ele><time>2026-04-04T15:53:13.001Z</time></trkpt><trkpt lat="44.54332189278515" lon="10.41337343259808"><ele>570.4</ele><time>2026-04-04T15:53:16.001Z</time></trkpt><trkpt lat="44.543288728139174" lon="10.413481458190017"><ele>568.6</ele><time>2026-04-04T15:53:17.001Z</time></trkpt><trkpt lat="44.543238153919155" lon="10.413578125133439"><ele>566.8</ele><time>2026-04-04T15:53:18.001Z</time></trkpt><trkpt lat="44.543192532939656" lon="10.41367550593043"><ele>565.0</ele><time>2026-04-04T15:53:19.001Z</time></trkpt><trkpt lat="44.54313160963513" lon="10.413766465767583"><ele>563.5</ele><time>2026-04-04T15:53:20.001Z</time></trkpt><trkpt lat="44.543051836366885" lon="10.413857898319332"><ele>562.0</ele><time>2026-04-04T15:53:21.001Z</time></trkpt><trkpt lat="44.542960685862866" lon="10.41395218858282"><ele>560.5</ele><time>2026-04-04T15:53:22.001Z</time></trkpt><trkpt lat="44.5428545398161" lon="10.41405358029253"><ele>559.0</ele><time>2026-04-04T15:53:23.001Z</time></trkpt><trkpt lat="44.54274376791595" lon="10.414157085175312"><ele>559.0</ele><time>2026-04-04T15:53:24.001Z</time></trkpt><trkpt lat="44.542639777220714" lon="10.414261296159639"><ele>559.0</ele><time>2026-04-04T15:53:25.001Z</time></trkpt><trkpt lat="44.542543563168735" lon="10.414363881977998"><ele>559.0</ele><time>2026-04-04T15:53:26.001Z</time></trkpt><trkpt lat="44.54245977917778" lon="10.414478859751451"><ele>559.0</ele><time>2026-04-04T15:53:27.001Z</time></trkpt><trkpt lat="44.542364000486145" lon="10.414549378265123"><ele>559.0</ele><time>2026-04-04T15:53:28.001Z</time></trkpt><trkpt lat="44.542279652657236" lon="10.414636243576064"><ele>559.0</ele><time>2026-04-04T15:53:29.001Z</time></trkpt><trkpt lat="44.542202845391415" lon="10.414715343291178"><ele>559.0</ele><time>2026-04-04T15:53:30.001Z</time></trkpt><trkpt lat="44.54213539560445" lon="10.414788266327832"><ele>559.0</ele><time>2026-04-04T15:53:31.001Z</time></trkpt><trkpt lat="44.542072792874535" lon="10.414862036763889"><ele>559.0</ele><time>2026-04-04T15:53:32.001Z</time></trkpt><trkpt lat="44.54201298370227" lon="10.414926675739911"><ele>559.0</ele><time>2026-04-04T15:53:33.001Z</time></trkpt><trkpt lat="44.54192252671765" lon="10.414954295190137"><ele>557.25</ele><time>2026-04-04T15:53:34.001Z</time></trkpt><trkpt lat="44.54181458847673" lon="10.414954480301853"><ele>555.5</ele><time>2026-04-04T15:53:35.001Z</time></trkpt><trkpt lat="44.54169480551315" lon="10.414942789460936"><ele>553.75</ele><time>2026-04-04T15:53:36.001Z</time></trkpt><trkpt lat="44.54157067120473" lon="10.414932550477982"><ele>552.0</ele><time>2026-04-04T15:53:37.001Z</time></trkpt><trkpt lat="44.541460319329836" lon="10.41493903476243"><ele>552.0</ele><time>2026-04-04T15:53:38.001Z</time></trkpt><trkpt lat="44.54135107202357" lon="10.414965190364873"><ele>552.0</ele><time>2026-04-04T15:53:39.001Z</time></trkpt><trkpt lat="44.54125037302724" lon="10.415013090773977"><ele>552.0</ele><time>2026-04-04T15:53:40.001Z</time></trkpt><trkpt lat="44.54114558415212" lon="10.415052897394853"><ele>552.0</ele><time>2026-04-04T15:53:41.001Z</time></trkpt><trkpt lat="44.54105311156524" lon="10.415110529461748"><ele>552.0</ele><time>2026-04-04T15:53:42.001Z</time></trkpt><trkpt lat="44.54096953253665" lon="10.415169277334686"><ele>551.8000000000001</ele><time>2026-04-04T15:53:43.001Z</time></trkpt><trkpt lat="44.540882716531335" lon="10.415238889433079"><ele>551.6</ele><time>2026-04-04T15:53:44.001Z</time></trkpt><trkpt lat="44.54079946441825" lon="10.41532732312433"><ele>551.4000000000001</ele><time>2026-04-04T15:53:45.001Z</time></trkpt><trkpt lat="44.540720613266124" lon="10.415429886581006"><ele>551.2</ele><time>2026-04-04T15:53:46.001Z</time></trkpt><trkpt lat="44.54065477783007" lon="10.415543464038308"><ele>551.0</ele><time>2026-04-04T15:53:47.001Z</time></trkpt><trkpt lat="44.54060208603549" lon="10.415644749497316"><ele>551.1666666666666</ele><time>2026-04-04T15:53:48.001Z</time></trkpt><trkpt lat="44.54055248566996" lon="10.41573607365145"><ele>551.3333333333333</ele><time>2026-04-04T15:53:49.001Z</time></trkpt><trkpt lat="44.540504281751815" lon="10.415804388359026"><ele>551.5</ele><time>2026-04-04T15:53:50.001Z</time></trkpt><trkpt lat="44.54042486632604" lon="10.415895660218231"><ele>551.6666666666666</ele><time>2026-04-04T15:53:52.001Z</time></trkpt><trkpt lat="44.54037808627897" lon="10.41595672991587"><ele>551.8333333333334</ele><time>2026-04-04T15:53:54.001Z</time></trkpt><trkpt lat="44.54025949595442" lon="10.415996497516828"><ele>552.0</ele><time>2026-04-04T15:53:57.001Z</time></trkpt><trkpt lat="44.54017218432745" lon="10.415985601613489"><ele>552.0</ele><time>2026-04-04T15:53:58.001Z</time></trkpt><trkpt lat="44.540070044348376" lon="10.415985881401335"><ele>552.0</ele><time>2026-04-04T15:53:59.001Z</time></trkpt><trkpt lat="44.53995067203645" lon="10.415995354487574"><ele>552.0</ele><time>2026-04-04T15:54:00.001Z</time></trkpt><trkpt lat="44.539811867984675" lon="10.416009246147542"><ele>552.0</ele><time>2026-04-04T15:54:01.001Z</time></trkpt><trkpt lat="44.53965510595359" lon="10.416019898668887"><ele>552.6666666666666</ele><time>2026-04-04T15:54:02.001Z</time></trkpt><trkpt lat="44.539495512479114" lon="10.416024750285619"><ele>553.3333333333333</ele><time>2026-04-04T15:54:03.001Z</time></trkpt><trkpt lat="44.53933302384836" lon="10.416028695302442"><ele>554.0</ele><time>2026-04-04T15:54:04.001Z</time></trkpt><trkpt lat="44.53917550106715" lon="10.416035542400323"><ele>554.0</ele><time>2026-04-04T15:54:05.001Z</time></trkpt><trkpt lat="44.53902841539935" lon="10.416045242977148"><ele>554.0</ele><time>2026-04-04T15:54:06.001Z</time></trkpt><trkpt lat="44.53889777520768" lon="10.416051717124004"><ele>554.0</ele><time>2026-04-04T15:54:07.001Z</time></trkpt><trkpt lat="44.53877900293065" lon="10.416048741292373"><ele>554.0</ele><time>2026-04-04T15:54:08.001Z</time></trkpt><trkpt lat="44.538664879787966" lon="10.416022998056462"><ele>555.75</ele><time>2026-04-04T15:54:09.001Z</time></trkpt><trkpt lat="44.53855042481605" lon="10.415969558674558"><ele>557.5</ele><time>2026-04-04T15:54:10.001Z</time></trkpt><trkpt lat="44.538433419143004" lon="10.415902427110336"><ele>559.25</ele><time>2026-04-04T15:54:11.001Z</time></trkpt><trkpt lat="44.53830869288691" lon="10.415833731812887"><ele>561.0</ele><time>2026-04-04T15:54:12.001Z</time></trkpt><trkpt lat="44.538177941597034" lon="10.415762155748505"><ele>561.0</ele><time>2026-04-04T15:54:13.001Z</time></trkpt><trkpt lat="44.53804763222076" lon="10.41569190526036"><ele>561.0</ele><time>2026-04-04T15:54:14.001Z</time></trkpt><trkpt lat="44.537919081421926" lon="10.415639039128845"><ele>561.0</ele><time>2026-04-04T15:54:15.001Z</time></trkpt><trkpt lat="44.53778599753953" lon="10.415603693811343"><ele>561.0</ele><time>2026-04-04T15:54:16.001Z</time></trkpt><trkpt lat="44.53764994543694" lon="10.415592381388954"><ele>562.25</ele><time>2026-04-04T15:54:17.001Z</time></trkpt><trkpt lat="44.53751143793568" lon="10.41560006761786"><ele>563.5</ele><time>2026-04-04T15:54:18.001Z</time></trkpt><trkpt lat="44.537369315503675" lon="10.415623641987583"><ele>564.75</ele><time>2026-04-04T15:54:19.001Z</time></trkpt><trkpt lat="44.537225712628974" lon="10.415662382035574"><ele>566.0</ele><time>2026-04-04T15:54:20.001Z</time></trkpt><trkpt lat="44.53707265113037" lon="10.415678720160242"><ele>566.5</ele><time>2026-04-04T15:54:21.001Z</time></trkpt><trkpt lat="44.53691701470448" lon="10.415716517573921"><ele>567.0</ele><time>2026-04-04T15:54:22.001Z</time></trkpt><trkpt lat="44.53677839121204" lon="10.415773368589544"><ele>567.5</ele><time>2026-04-04T15:54:23.001Z</time></trkpt><trkpt lat="44.536634578040974" lon="10.415809301399138"><ele>568.0</ele><time>2026-04-04T15:54:24.001Z</time></trkpt><trkpt lat="44.53648800930305" lon="10.41584349370096"><ele>568.0</ele><time>2026-04-04T15:54:25.001Z</time></trkpt><trkpt lat="44.536344858586624" lon="10.415879694088687"><ele>568.0</ele><time>2026-04-04T15:54:26.001Z</time></trkpt><trkpt lat="44.536212501633614" lon="10.415913574938921"><ele>568.0</ele><time>2026-04-04T15:54:27.001Z</time></trkpt><trkpt lat="44.53608115267872" lon="10.415916654625521"><ele>568.0</ele><time>2026-04-04T15:54:28Z</time></trkpt><trkpt lat="44.53596065258733" lon="10.41593462751572"><ele>568.5</ele><time>2026-04-04T15:54:29Z</time></trkpt><trkpt lat="44.535835722229876" lon="10.415969551518607"><ele>569.0</ele><time>2026-04-04T15:54:30Z</time></trkpt><trkpt lat="44.535703405876134" lon="10.41598418362324"><ele>569.5</ele><time>2026-04-04T15:54:31Z</time></trkpt><trkpt lat="44.535579371198416" lon="10.415979261277037"><ele>570.0</ele><time>2026-04-04T15:54:32Z</time></trkpt><trkpt lat="44.535451189973166" lon="10.415958720937539"><ele>570.5</ele><time>2026-04-04T15:54:33Z</time></trkpt><trkpt lat="44.53531953479756" lon="10.415928819186643"><ele>571.0</ele><time>2026-04-04T15:54:34Z</time></trkpt><trkpt lat="44.53518064369129" lon="10.415898759384694"><ele>571.5</ele><time>2026-04-04T15:54:35Z</time></trkpt><trkpt lat="44.53503584691925" lon="10.41586369853412"><ele>572.0</ele><time>2026-04-04T15:54:36Z</time></trkpt><trkpt lat="44.53488435969838" lon="10.415830669750228"><ele>572.0</ele><time>2026-04-04T15:54:37Z</time></trkpt><trkpt lat="44.53472954439265" lon="10.415801972204893"><ele>572.0</ele><time>2026-04-04T15:54:38Z</time></trkpt><trkpt lat="44.534585564302205" lon="10.415777129432186"><ele>572.0</ele><time>2026-04-04T15:54:39Z</time></trkpt><trkpt lat="44.534442234231" lon="10.415751409636494"><ele>572.0</ele><time>2026-04-04T15:54:40Z</time></trkpt><trkpt lat="44.5342963219403" lon="10.415700751837388"><ele>572.5</ele><time>2026-04-04T15:54:41Z</time></trkpt><trkpt lat="44.53414679742692" lon="10.415667240685208"><ele>573.0</ele><time>2026-04-04T15:54:42Z</time></trkpt><trkpt lat="44.53401004258588" lon="10.415656127927138"><ele>573.5</ele><time>2026-04-04T15:54:43Z</time></trkpt><trkpt lat="44.53387251344673" lon="10.415626633217899"><ele>574.0</ele><time>2026-04-04T15:54:44Z</time></trkpt><trkpt lat="44.53373263147884" lon="10.415591685836848"><ele>573.75</ele><time>2026-04-04T15:54:45Z</time></trkpt><trkpt lat="44.53359409902977" lon="10.415552149819947"><ele>573.5</ele><time>2026-04-04T15:54:46Z</time></trkpt><trkpt lat="44.533452051103694" lon="10.415521323884873"><ele>573.25</ele><time>2026-04-04T15:54:47Z</time></trkpt><trkpt lat="44.53330566007024" lon="10.415491912892357"><ele>573.0</ele><time>2026-04-04T15:54:48Z</time></trkpt><trkpt lat="44.533162637041194" lon="10.415461843696823"><ele>573.25</ele><time>2026-04-04T15:54:49Z</time></trkpt><trkpt lat="44.53303349627278" lon="10.415434435802737"><ele>573.5</ele><time>2026-04-04T15:54:50Z</time></trkpt><trkpt lat="44.53290088580022" lon="10.41540412293019"><ele>573.75</ele><time>2026-04-04T15:54:51Z</time></trkpt><trkpt lat="44.532766513780075" lon="10.415375917870053"><ele>574.0</ele><time>2026-04-04T15:54:52Z</time></trkpt><trkpt lat="44.53263072950929" lon="10.415368738454323"><ele>574.0</ele><time>2026-04-04T15:54:53Z</time></trkpt><trkpt lat="44.53249154340708" lon="10.415378588553121"><ele>574.0</ele><time>2026-04-04T15:54:54Z</time></trkpt><trkpt lat="44.53234812465979" lon="10.415389342667348"><ele>574.0</ele><time>2026-04-04T15:54:55Z</time></trkpt><trkpt lat="44.532199622088406" lon="10.415374170009484"><ele>574.0</ele><time>2026-04-04T15:54:56Z</time></trkpt><trkpt lat="44.532054093515306" lon="10.415399655074467"><ele>575.0</ele><time>2026-04-04T15:54:57Z</time></trkpt><trkpt lat="44.53190828523742" lon="10.415399074786487"><ele>576.0</ele><time>2026-04-04T15:54:58Z</time></trkpt><trkpt lat="44.531761935772025" lon="10.415398892094546"><ele>577.0</ele><time>2026-04-04T15:54:59Z</time></trkpt><trkpt lat="44.53161479155841" lon="10.415396730815045"><ele>578.0</ele><time>2026-04-04T15:55:00Z</time></trkpt><trkpt lat="44.53146481142853" lon="10.415396239154905"><ele>578.0</ele><time>2026-04-04T15:55:01Z</time></trkpt><trkpt lat="44.531328445734694" lon="10.415392373767437"><ele>578.0</ele><time>2026-04-04T15:55:02Z</time></trkpt><trkpt lat="44.53119202925875" lon="10.415379314809504"><ele>578.0</ele><time>2026-04-04T15:55:03Z</time></trkpt><trkpt lat="44.53105469094081" lon="10.415359800374887"><ele>578.0</ele><time>2026-04-04T15:55:04.001Z</time></trkpt><trkpt lat="44.530918599167" lon="10.415330415316964"><ele>579.5</ele><time>2026-04-04T15:55:05.001Z</time></trkpt><trkpt lat="44.530795733506245" lon="10.415299695322096"><ele>581.0</ele><time>2026-04-04T15:55:06.001Z</time></trkpt><trkpt lat="44.530680618816135" lon="10.415276163733216"><ele>582.5</ele><time>2026-04-04T15:55:07.001Z</time></trkpt><trkpt lat="44.530569573200566" lon="10.415256821759677"><ele>584.0</ele><time>2026-04-04T15:55:08.001Z</time></trkpt><trkpt lat="44.530469011526705" lon="10.415236354593793"><ele>584.8333333333333</ele><time>2026-04-04T15:55:09.001Z</time></trkpt><trkpt lat="44.530373214030654" lon="10.41521514554738"><ele>585.6666666666666</ele><time>2026-04-04T15:55:10.001Z</time></trkpt><trkpt lat="44.53028435822388" lon="10.415198050901568"><ele>586.5</ele><time>2026-04-04T15:55:11.001Z</time></trkpt><trkpt lat="44.530201593072135" lon="10.41518926238276"><ele>587.3333333333334</ele><time>2026-04-04T15:55:12.001Z</time></trkpt><trkpt lat="44.53012688701912" lon="10.415185285791319"><ele>588.1666666666667</ele><time>2026-04-04T15:55:13.001Z</time></trkpt><trkpt lat="44.53005549806272" lon="10.415157037175574"><ele>589.0</ele><time>2026-04-04T15:55:14.001Z</time></trkpt><trkpt lat="44.52997218342554" lon="10.415155989227461"><ele>589.0</ele><time>2026-04-04T15:55:15.001Z</time></trkpt><trkpt lat="44.52989946479689" lon="10.415168701282424"><ele>589.0</ele><time>2026-04-04T15:55:16.001Z</time></trkpt><trkpt lat="44.52983636623959" lon="10.415198361255833"><ele>589.0</ele><time>2026-04-04T15:55:17.001Z</time></trkpt><trkpt lat="44.52975441105636" lon="10.415251293934807"><ele>589.0</ele><time>2026-04-04T15:55:19.001Z</time></trkpt><trkpt lat="44.52966064290069" lon="10.415088322765726"><ele>589.0</ele><time>2026-04-04T15:55:21.001Z</time></trkpt><trkpt lat="44.52961211327909" lon="10.41498401373236"><ele>589.0</ele><time>2026-04-04T15:55:22.001Z</time></trkpt><trkpt lat="44.52957405395919" lon="10.414897610560837"><ele>589.0</ele><time>2026-04-04T15:55:23.001Z</time></trkpt><trkpt lat="44.52953993302911" lon="10.414791616541432"><ele>589.0</ele><time>2026-04-04T15:55:24.001Z</time></trkpt><trkpt lat="44.52944124781273" lon="10.414622565147674"><ele>589.0</ele><time>2026-04-04T15:55:25.001Z</time></trkpt><trkpt lat="44.529342207327" lon="10.414544635243367"><ele>589.0</ele><time>2026-04-04T15:55:26.001Z</time></trkpt><trkpt lat="44.529246194134195" lon="10.414481648441987"><ele>589.75</ele><time>2026-04-04T15:55:27.001Z</time></trkpt><trkpt lat="44.52916215204919" lon="10.414415080322362"><ele>590.5</ele><time>2026-04-04T15:55:28.001Z</time></trkpt><trkpt lat="44.52906896435746" lon="10.414334384033175"><ele>591.25</ele><time>2026-04-04T15:55:29.001Z</time></trkpt><trkpt lat="44.52896917433618" lon="10.414244263753966"><ele>592.0</ele><time>2026-04-04T15:55:30.001Z</time></trkpt><trkpt lat="44.528846823574355" lon="10.414127833189783"><ele>592.0</ele><time>2026-04-04T15:55:31.001Z</time></trkpt><trkpt lat="44.52873696460684" lon="10.414006987953808"><ele>592.0</ele><time>2026-04-04T15:55:32.001Z</time></trkpt><trkpt lat="44.52863424793849" lon="10.413894933268008"><ele>592.0</ele><time>2026-04-04T15:55:33.001Z</time></trkpt><trkpt lat="44.528562347806876" lon="10.413812912573421"><ele>592.0</ele><time>2026-04-04T15:55:34.001Z</time></trkpt><trkpt lat="44.52848680958246" lon="10.41372652384195"><ele>592.5</ele><time>2026-04-04T15:55:35.001Z</time></trkpt><trkpt lat="44.52840204033789" lon="10.413625702923921"><ele>593.0</ele><time>2026-04-04T15:55:36.001Z</time></trkpt><trkpt lat="44.528308120080425" lon="10.41351070549319"><ele>593.5</ele><time>2026-04-04T15:55:37.001Z</time></trkpt><trkpt lat="44.52821033301908" lon="10.413393190519283"><ele>594.0</ele><time>2026-04-04T15:55:38.001Z</time></trkpt><trkpt lat="44.52811064309924" lon="10.413285340470816"><ele>594.0</ele><time>2026-04-04T15:55:39.001Z</time></trkpt><trkpt lat="44.528029258427736" lon="10.413198869102176"><ele>594.0</ele><time>2026-04-04T15:55:40.001Z</time></trkpt><trkpt lat="44.52795813647703" lon="10.413116181464757"><ele>594.0</ele><time>2026-04-04T15:55:41.001Z</time></trkpt><trkpt lat="44.52788083581897" lon="10.413070213953791"><ele>594.0</ele><time>2026-04-04T15:55:42.001Z</time></trkpt><trkpt lat="44.527382412869215" lon="10.41363349845229"><ele>597.2</ele><time>2026-04-04T15:55:43.001Z</time></trkpt><trkpt lat="44.52727243560057" lon="10.413610883747129"><ele>600.4</ele><time>2026-04-04T15:55:44.001Z</time></trkpt><trkpt lat="44.52719091645337" lon="10.413589357646238"><ele>603.6</ele><time>2026-04-04T15:55:45.001Z</time></trkpt><trkpt lat="44.52710965011689" lon="10.413513635824499"><ele>606.8</ele><time>2026-04-04T15:55:46.001Z</time></trkpt><trkpt lat="44.52701508351743" lon="10.413409169609016"><ele>610.0</ele><time>2026-04-04T15:55:47.001Z</time></trkpt><trkpt lat="44.526919892667934" lon="10.413307744603664"><ele>612.4</ele><time>2026-04-04T15:55:48.001Z</time></trkpt><trkpt lat="44.5268321659158" lon="10.413248659704628"><ele>614.8</ele><time>2026-04-04T15:55:49.001Z</time></trkpt><trkpt lat="44.526748885684846" lon="10.413259293573587"><ele>617.2</ele><time>2026-04-04T15:55:50.001Z</time></trkpt><trkpt lat="44.52666464222163" lon="10.413284707552876"><ele>619.6</ele><time>2026-04-04T15:55:51.001Z</time></trkpt><trkpt lat="44.52658634046532" lon="10.413304303041363"><ele>622.0</ele><time>2026-04-04T15:55:52.001Z</time></trkpt><trkpt lat="44.52646220007734" lon="10.413242191190932"><ele>622.0</ele><time>2026-04-04T15:55:54.001Z</time></trkpt><trkpt lat="44.52637840157837" lon="10.413170161873436"><ele>622.0</ele><time>2026-04-04T15:55:55.001Z</time></trkpt><trkpt lat="44.52630181056686" lon="10.41310613926182"><ele>622.0</ele><time>2026-04-04T15:55:56.001Z</time></trkpt><trkpt lat="44.526195104834066" lon="10.413079238772776"><ele>622.0</ele><time>2026-04-04T15:55:57.001Z</time></trkpt><trkpt lat="44.52606821831572" lon="10.413034646729233"><ele>622.0</ele><time>2026-04-04T15:55:58.001Z</time></trkpt><trkpt lat="44.52597474011356" lon="10.41298531512774"><ele>624.6666666666667</ele><time>2026-04-04T15:55:59.001Z</time></trkpt><trkpt lat="44.52589728412619" lon="10.412960928987559"><ele>627.3333333333334</ele><time>2026-04-04T15:56:00.001Z</time></trkpt><trkpt lat="44.525784468575125" lon="10.412977198056822"><ele>630.0</ele><time>2026-04-04T15:56:02.001Z</time></trkpt><trkpt lat="44.52570433001033" lon="10.412968140091248"><ele>632.6666666666666</ele><time>2026-04-04T15:56:03.001Z</time></trkpt><trkpt lat="44.52562087355781" lon="10.412955299652964"><ele>635.3333333333333</ele><time>2026-04-04T15:56:04.001Z</time></trkpt><trkpt lat="44.525560800074544" lon="10.412919329477164"><ele>638.0</ele><time>2026-04-04T15:56:05.001Z</time></trkpt><trkpt lat="44.52550717308204" lon="10.41286476679466"><ele>638.0</ele><time>2026-04-04T15:56:06.001Z</time></trkpt><trkpt lat="44.525428211100504" lon="10.412820229643854"><ele>638.0</ele><time>2026-04-04T15:56:07.001Z</time></trkpt><trkpt lat="44.525336049466766" lon="10.412799439038709"><ele>638.0</ele><time>2026-04-04T15:56:08.001Z</time></trkpt><trkpt lat="44.52526106521737" lon="10.412787841074383"><ele>638.0</ele><time>2026-04-04T15:56:09.001Z</time></trkpt><trkpt lat="44.525145666949754" lon="10.412779661874383"><ele>638.0</ele><time>2026-04-04T15:56:11.001Z</time></trkpt><trkpt lat="44.524957691848506" lon="10.412787720629785"><ele>638.75</ele><time>2026-04-04T15:56:13.001Z</time></trkpt><trkpt lat="44.52484060971101" lon="10.412772088178803"><ele>639.5</ele><time>2026-04-04T15:56:14.001Z</time></trkpt><trkpt lat="44.52470324753179" lon="10.412761806135375"><ele>640.25</ele><time>2026-04-04T15:56:15.001Z</time></trkpt><trkpt lat="44.524574124710185" lon="10.412781691984792"><ele>641.0</ele><time>2026-04-04T15:56:16.001Z</time></trkpt><trkpt lat="44.52446315975851" lon="10.412786321054504"><ele>641.0</ele><time>2026-04-04T15:56:17.001Z</time></trkpt><trkpt lat="44.524381048306225" lon="10.412763189840545"><ele>641.0</ele><time>2026-04-04T15:56:18.001Z</time></trkpt><trkpt lat="44.52430118734725" lon="10.41273865124345"><ele>641.0</ele><time>2026-04-04T15:56:19.001Z</time></trkpt><trkpt lat="44.52421940932887" lon="10.412702829303859"><ele>641.0</ele><time>2026-04-04T15:56:20.001Z</time></trkpt><trkpt lat="44.52414010183548" lon="10.412639316383988"><ele>641.0</ele><time>2026-04-04T15:56:21.001Z</time></trkpt><trkpt lat="44.52406114322086" lon="10.412567983583072"><ele>641.0</ele><time>2026-04-04T15:56:22.001Z</time></trkpt><trkpt lat="44.52399394875655" lon="10.412512513113223"><ele>641.0</ele><time>2026-04-04T15:56:23.001Z</time></trkpt><trkpt lat="44.52387652271906" lon="10.412491091230521"><ele>641.0</ele><time>2026-04-04T15:56:25.001Z</time></trkpt><trkpt lat="44.52381083846661" lon="10.412553663811398"><ele>641.0</ele><time>2026-04-04T15:56:26.001Z</time></trkpt><trkpt lat="44.52374094849483" lon="10.412591157711688"><ele>641.0</ele><time>2026-04-04T15:56:27Z</time></trkpt><trkpt lat="44.523619826485366" lon="10.412607771101817"><ele>641.0</ele><time>2026-04-04T15:56:29Z</time></trkpt><trkpt lat="44.52353277625676" lon="10.412627677073427"><ele>640.5</ele><time>2026-04-04T15:56:31Z</time></trkpt><trkpt lat="44.523469515593966" lon="10.412705250840114"><ele>640.0</ele><time>2026-04-04T15:56:33Z</time></trkpt><trkpt lat="44.52339330165886" lon="10.412815437888511"><ele>639.5</ele><time>2026-04-04T15:56:36Z</time></trkpt><trkpt lat="44.52334564301601" lon="10.412890493770528"><ele>639.0</ele><time>2026-04-04T15:56:37Z</time></trkpt><trkpt lat="44.52329724415296" lon="10.412969184011617"><ele>638.5</ele><time>2026-04-04T15:56:38Z</time></trkpt><trkpt lat="44.52322595587466" lon="10.413052267351757"><ele>638.0</ele><time>2026-04-04T15:56:39Z</time></trkpt><trkpt lat="44.52315400319502" lon="10.413159427151738"><ele>638.0</ele><time>2026-04-04T15:56:41Z</time></trkpt><trkpt lat="44.523103493918256" lon="10.413259542046"><ele>638.0</ele><time>2026-04-04T15:56:42Z</time></trkpt><trkpt lat="44.52305136959155" lon="10.413328727929285"><ele>638.0</ele><time>2026-04-04T15:56:43Z</time></trkpt><trkpt lat="44.52298913463999" lon="10.413366289618512"><ele>638.0</ele><time>2026-04-04T15:56:44Z</time></trkpt><trkpt lat="44.522927918957684" lon="10.413419501321085"><ele>638.0</ele><time>2026-04-04T15:56:45Z</time></trkpt><trkpt lat="44.52287540680919" lon="10.413537139039343"><ele>638.0</ele><time>2026-04-04T15:56:46Z</time></trkpt><trkpt lat="44.5228157312975" lon="10.413652094172562"><ele>640.1666666666666</ele><time>2026-04-04T15:56:47Z</time></trkpt><trkpt lat="44.52276306783024" lon="10.413723829276757"><ele>642.3333333333333</ele><time>2026-04-04T15:56:48Z</time></trkpt><trkpt lat="44.5226876806039" lon="10.413726406837611"><ele>644.5</ele><time>2026-04-04T15:56:50Z</time></trkpt><trkpt lat="44.52263272239857" lon="10.413680792606499"><ele>646.6666666666666</ele><time>2026-04-04T15:56:51Z</time></trkpt><trkpt lat="44.52257175771751" lon="10.413654100525914"><ele>648.8333333333334</ele><time>2026-04-04T15:56:52Z</time></trkpt><trkpt lat="44.5225021716308" lon="10.413591717135956"><ele>651.0</ele><time>2026-04-04T15:56:54Z</time></trkpt><trkpt lat="44.522413357975836" lon="10.413562849517495"><ele>651.0</ele><time>2026-04-04T15:56:57Z</time></trkpt><trkpt lat="44.522367499375555" lon="10.413480673750048"><ele>651.0</ele><time>2026-04-04T15:56:58Z</time></trkpt><trkpt lat="44.52231114910086" lon="10.413337442323254"><ele>651.0</ele><time>2026-04-04T15:57:00Z</time></trkpt><trkpt lat="44.5222908935886" lon="10.413214680901397"><ele>651.0</ele><time>2026-04-04T15:57:01Z</time></trkpt><trkpt lat="44.52228243417557" lon="10.41308815572194"><ele>651.0</ele><time>2026-04-04T15:57:02Z</time></trkpt><trkpt lat="44.5222838780839" lon="10.412925753654681"><ele>652.4</ele><time>2026-04-04T15:57:03Z</time></trkpt><trkpt lat="44.522306987065605" lon="10.412776315167319"><ele>653.8</ele><time>2026-04-04T15:57:04Z</time></trkpt><trkpt lat="44.52231594365141" lon="10.412669414919067"><ele>655.1999999999999</ele><time>2026-04-04T15:57:05Z</time></trkpt><trkpt lat="44.52233688472356" lon="10.412555272880752"><ele>656.5999999999999</ele><time>2026-04-04T15:57:06Z</time></trkpt><trkpt lat="44.522360845040716" lon="10.412430821120553"><ele>658.0</ele><time>2026-04-04T15:57:07Z</time></trkpt><trkpt lat="44.522390915746406" lon="10.412310018225034"><ele>658.0</ele><time>2026-04-04T15:57:08Z</time></trkpt><trkpt lat="44.522424823760524" lon="10.412190900848032"><ele>658.0</ele><time>2026-04-04T15:57:09Z</time></trkpt><trkpt lat="44.522457119695275" lon="10.41208908885255"><ele>658.0</ele><time>2026-04-04T15:57:10.001Z</time></trkpt><trkpt lat="44.522484674907986" lon="10.41197203893293"><ele>658.0</ele><time>2026-04-04T15:57:11.001Z</time></trkpt><trkpt lat="44.52250735570184" lon="10.411850121442653"><ele>658.0</ele><time>2026-04-04T15:57:12.001Z</time></trkpt><trkpt lat="44.5225311684505" lon="10.411730774394304"><ele>658.0</ele><time>2026-04-04T15:57:13.001Z</time></trkpt><trkpt lat="44.522564902986865" lon="10.411610915453185"><ele>659.4</ele><time>2026-04-04T15:57:14.001Z</time></trkpt><trkpt lat="44.522603808667014" lon="10.411523411735773"><ele>660.8</ele><time>2026-04-04T15:57:15.001Z</time></trkpt><trkpt lat="44.52265578726364" lon="10.411374785287501"><ele>662.2</ele><time>2026-04-04T15:57:17.001Z</time></trkpt><trkpt lat="44.522715515772546" lon="10.41126150398931"><ele>663.6</ele><time>2026-04-04T15:57:19.001Z</time></trkpt><trkpt lat="44.522691955018736" lon="10.411087852487583"><ele>665.0</ele><time>2026-04-04T15:57:21.001Z</time></trkpt><trkpt lat="44.522663209912125" lon="10.410984228922342"><ele>665.6666666666666</ele><time>2026-04-04T15:57:22.001Z</time></trkpt><trkpt lat="44.522627711194886" lon="10.410869533440739"><ele>666.3333333333333</ele><time>2026-04-04T15:57:23.001Z</time></trkpt><trkpt lat="44.522600219759944" lon="10.410743013344518"><ele>667.0</ele><time>2026-04-04T15:57:24.001Z</time></trkpt><trkpt lat="44.52256892460078" lon="10.410664576579485"><ele>667.6666666666666</ele><time>2026-04-04T15:57:25.001Z</time></trkpt><trkpt lat="44.52255930145547" lon="10.410525061623131"><ele>668.3333333333334</ele><time>2026-04-04T15:57:27.001Z</time></trkpt><trkpt lat="44.522513564438796" lon="10.410455098418463"><ele>669.0</ele><time>2026-04-04T15:57:29.001Z</time></trkpt><trkpt lat="44.52247541636276" lon="10.410377656670686"><ele>671.25</ele><time>2026-04-04T15:57:31.001Z</time></trkpt><trkpt lat="44.52247961975694" lon="10.41026259781313"><ele>673.5</ele><time>2026-04-04T15:57:33.001Z</time></trkpt><trkpt lat="44.52249161544324" lon="10.41012042350218"><ele>675.75</ele><time>2026-04-04T15:57:35.001Z</time></trkpt><trkpt lat="44.522455093358175" lon="10.40998094133674"><ele>678.0</ele><time>2026-04-04T15:57:37.001Z</time></trkpt><trkpt lat="44.52236915839668" lon="10.409671092350868"><ele>678.0</ele><time>2026-04-04T15:57:38.001Z</time></trkpt><trkpt lat="44.522348434208844" lon="10.409577553846113"><ele>678.0</ele><time>2026-04-04T15:57:39.001Z</time></trkpt><trkpt lat="44.522420500144584" lon="10.409545430998321"><ele>678.0</ele><time>2026-04-04T15:57:41.001Z</time></trkpt><trkpt lat="44.52247895106397" lon="10.409620966278336"><ele>678.0</ele><time>2026-04-04T15:57:42.001Z</time></trkpt><trkpt lat="44.52251202558554" lon="10.40981160931252"><ele>678.0</ele><time>2026-04-04T15:57:43.001Z</time></trkpt><trkpt lat="44.52255309950293" lon="10.409931588094995"><ele>678.0</ele><time>2026-04-04T15:57:44.001Z</time></trkpt><trkpt lat="44.52259226280989" lon="10.410040187629535"><ele>678.0</ele><time>2026-04-04T15:57:45.001Z</time></trkpt><trkpt lat="44.522662953153144" lon="10.40998061805731"><ele>678.0</ele><time>2026-04-04T15:57:47.001Z</time></trkpt><trkpt lat="44.522659042980806" lon="10.409883605685202"><ele>678.0</ele><time>2026-04-04T15:57:48.001Z</time></trkpt><trkpt lat="44.522580736592495" lon="10.409812238410533"><ele>678.0</ele><time>2026-04-04T15:57:49.001Z</time></trkpt><trkpt lat="44.52252197977541" lon="10.40970592054937"><ele>678.0</ele><time>2026-04-04T15:57:50.001Z</time></trkpt><trkpt lat="44.52241303543456" lon="10.409539706090946"><ele>680.0</ele><time>2026-04-04T15:57:51.001Z</time></trkpt><trkpt lat="44.522318243622514" lon="10.409388362926881"><ele>682.0</ele><time>2026-04-04T15:57:52.001Z</time></trkpt><trkpt lat="44.52226000047888" lon="10.409272816727295"><ele>684.0</ele><time>2026-04-04T15:57:53.001Z</time></trkpt><trkpt lat="44.52228892262267" lon="10.409185637773724"><ele>686.0</ele><time>2026-04-04T15:57:55.001Z</time></trkpt><trkpt lat="44.52236380649645" lon="10.40909332207982"><ele>688.0</ele><time>2026-04-04T15:57:57.001Z</time></trkpt><trkpt lat="44.522440263162856" lon="10.409015481243031"><ele>688.0</ele><time>2026-04-04T15:57:58.001Z</time></trkpt><trkpt lat="44.5225017987532" lon="10.408941931863314"><ele>688.0</ele><time>2026-04-04T15:57:59.001Z</time></trkpt><trkpt lat="44.52256477104362" lon="10.4088379455387"><ele>688.0</ele><time>2026-04-04T15:58:00.001Z</time></trkpt><trkpt lat="44.52260757142084" lon="10.408771004578346"><ele>688.0</ele><time>2026-04-04T15:58:01.001Z</time></trkpt><trkpt lat="44.52268535238835" lon="10.408709831118136"><ele>688.0</ele><time>2026-04-04T15:58:03.001Z</time></trkpt><trkpt lat="44.52270385507537" lon="10.408614744463312"><ele>688.0</ele><time>2026-04-04T15:58:06.001Z</time></trkpt><trkpt lat="44.52262960620522" lon="10.408607923689557"><ele>688.0</ele><time>2026-04-04T15:58:09.001Z</time></trkpt><trkpt lat="44.52258705434648" lon="10.408735102859765"><ele>688.0</ele><time>2026-04-04T15:58:11.001Z</time></trkpt><trkpt lat="44.52256030949436" lon="10.408822784100474"><ele>688.0</ele><time>2026-04-04T15:58:13.001Z</time></trkpt><trkpt lat="44.52251176138769" lon="10.408907449227963"><ele>688.0</ele><time>2026-04-04T15:58:15Z</time></trkpt><trkpt lat="44.52247030644292" lon="10.408992424376947"><ele>688.0</ele><time>2026-04-04T15:58:17Z</time></trkpt><trkpt lat="44.52240395119082" lon="10.409070188243115"><ele>688.0</ele><time>2026-04-04T15:58:22Z</time></trkpt><trkpt lat="44.52233459025708" lon="10.409058642420895"><ele>688.0</ele><time>2026-04-04T15:58:25Z</time></trkpt><trkpt lat="44.522267282560335" lon="10.409074292887754"><ele>688.0</ele><time>2026-04-04T15:58:28Z</time></trkpt><trkpt lat="44.52219607863749" lon="10.4090262389811"><ele>688.0</ele><time>2026-04-04T15:58:30Z</time></trkpt><trkpt lat="44.52214334463035" lon="10.408972388060526"><ele>688.0</ele><time>2026-04-04T15:58:31Z</time></trkpt><trkpt lat="44.522073060821036" lon="10.408923796601847"><ele>688.0</ele><time>2026-04-04T15:58:32Z</time></trkpt><trkpt lat="44.5219709347873" lon="10.40892356585904"><ele>688.0</ele><time>2026-04-04T15:58:34Z</time></trkpt><trkpt lat="44.521907084818515" lon="10.408980223303935"><ele>688.0</ele><time>2026-04-04T15:58:35Z</time></trkpt><trkpt lat="44.52184260872837" lon="10.409037950123974"><ele>688.0</ele><time>2026-04-04T15:58:36Z</time></trkpt><trkpt lat="44.52171528727039" lon="10.40908531830817"><ele>688.0</ele><time>2026-04-04T15:58:38Z</time></trkpt><trkpt lat="44.52162965517574" lon="10.409122352174748"><ele>688.0</ele><time>2026-04-04T15:58:39Z</time></trkpt><trkpt lat="44.52155307734774" lon="10.40915187297781"><ele>688.0</ele><time>2026-04-04T15:58:40Z</time></trkpt><trkpt lat="44.52144420294252" lon="10.409194840913464"><ele>688.0</ele><time>2026-04-04T15:58:42Z</time></trkpt><trkpt lat="44.52138254902549" lon="10.409232036035416"><ele>688.0</ele><time>2026-04-04T15:58:43Z</time></trkpt><trkpt lat="44.5213129095806" lon="10.409264311232008"><ele>688.0</ele><time>2026-04-04T15:58:44Z</time></trkpt><trkpt lat="44.521246277056605" lon="10.409280666351341"><ele>688.0</ele><time>2026-04-04T15:58:45Z</time></trkpt><trkpt lat="44.52114253268445" lon="10.409298315754532"><ele>688.0</ele><time>2026-04-04T15:58:47Z</time></trkpt><trkpt lat="44.52102020166232" lon="10.409343102448181"><ele>688.0</ele><time>2026-04-04T15:58:49Z</time></trkpt><trkpt lat="44.5209597919905" lon="10.409385643135089"><ele>686.5999999999999</ele><time>2026-04-04T15:58:50Z</time></trkpt><trkpt lat="44.52084770701512" lon="10.409467485589005"><ele>685.1999999999999</ele><time>2026-04-04T15:58:52Z</time></trkpt><trkpt lat="44.520734324060314" lon="10.409500337725529"><ele>683.8</ele><time>2026-04-04T15:58:54Z</time></trkpt><trkpt lat="44.5206355128145" lon="10.4095586346949"><ele>682.4</ele><time>2026-04-04T15:58:56Z</time></trkpt><trkpt lat="44.52056410982095" lon="10.409641830216168"><ele>681.0</ele><time>2026-04-04T15:58:58Z</time></trkpt><trkpt lat="44.5205432264809" lon="10.409763736098533"><ele>680.1999999999999</ele><time>2026-04-04T15:59:00Z</time></trkpt><trkpt lat="44.52051455489691" lon="10.409887410002291"><ele>679.4</ele><time>2026-04-04T15:59:02Z</time></trkpt><trkpt lat="44.520463663662774" lon="10.410007061511777"><ele>678.6</ele><time>2026-04-04T15:59:04Z</time></trkpt><trkpt lat="44.52039533535309" lon="10.410108820178872"><ele>677.8</ele><time>2026-04-04T15:59:06Z</time></trkpt><trkpt lat="44.52033074787624" lon="10.410199160163494"><ele>677.0</ele><time>2026-04-04T15:59:08Z</time></trkpt><trkpt lat="44.52025688990018" lon="10.41023042321578"><ele>674.6</ele><time>2026-04-04T15:59:11Z</time></trkpt><trkpt lat="44.52021253376031" lon="10.410110869244525"><ele>672.2</ele><time>2026-04-04T15:59:13Z</time></trkpt><trkpt lat="44.52020208554726" lon="10.41000352833432"><ele>669.8</ele><time>2026-04-04T15:59:14Z</time></trkpt><trkpt lat="44.52018567216815" lon="10.40988024290946"><ele>667.4</ele><time>2026-04-04T15:59:15Z</time></trkpt><trkpt lat="44.520146539788435" lon="10.409760238278492"><ele>665.0</ele><time>2026-04-04T15:59:16.001Z</time></trkpt><trkpt lat="44.520083896562824" lon="10.409660701534381"><ele>665.3333333333333</ele><time>2026-04-04T15:59:17.001Z</time></trkpt><trkpt lat="44.52000498878278" lon="10.409578864375737"><ele>665.6666666666666</ele><time>2026-04-04T15:59:18.001Z</time></trkpt><trkpt lat="44.51993092493524" lon="10.409515555284806"><ele>666.0</ele><time>2026-04-04T15:59:19.001Z</time></trkpt><trkpt lat="44.51988376643419" lon="10.409452486245884"><ele>666.3333333333334</ele><time>2026-04-04T15:59:20.001Z</time></trkpt><trkpt lat="44.519765162392154" lon="10.409424386169619"><ele>666.6666666666667</ele><time>2026-04-04T15:59:22.001Z</time></trkpt><trkpt lat="44.51969383591215" lon="10.409467349207759"><ele>667.0</ele><time>2026-04-04T15:59:23.001Z</time></trkpt><trkpt lat="44.519628285317125" lon="10.409506568460817"><ele>664.1666666666667</ele><time>2026-04-04T15:59:24.001Z</time></trkpt><trkpt lat="44.51954678613056" lon="10.409475707878821"><ele>661.3333333333334</ele><time>2026-04-04T15:59:26.001Z</time></trkpt><trkpt lat="44.51949955898518" lon="10.409323157235669"><ele>658.5</ele><time>2026-04-04T15:59:28.001Z</time></trkpt><trkpt lat="44.519473316073594" lon="10.40922334151338"><ele>655.6666666666666</ele><time>2026-04-04T15:59:29.001Z</time></trkpt><trkpt lat="44.51943880155836" lon="10.409142608004206"><ele>652.8333333333333</ele><time>2026-04-04T15:59:31.001Z</time></trkpt><trkpt lat="44.51935284429613" lon="10.409142987221534"><ele>650.0</ele><time>2026-04-04T15:59:34.001Z</time></trkpt><trkpt lat="44.519301438961186" lon="10.40904282499973"><ele>650.0</ele><time>2026-04-04T15:59:36.001Z</time></trkpt><trkpt lat="44.51926279482291" lon="10.408895354811971"><ele>650.0</ele><time>2026-04-04T15:59:38.001Z</time></trkpt><trkpt lat="44.51922062239856" lon="10.408639079857016"><ele>650.0</ele><time>2026-04-04T15:59:40.001Z</time></trkpt><trkpt lat="44.51918936747715" lon="10.40854414694279"><ele>650.0</ele><time>2026-04-04T15:59:41.001Z</time></trkpt><trkpt lat="44.519160630243135" lon="10.408429899082996"><ele>650.3333333333333</ele><time>2026-04-04T15:59:42.001Z</time></trkpt><trkpt lat="44.51912590344751" lon="10.408315107104347"><ele>650.6666666666666</ele><time>2026-04-04T15:59:43.001Z</time></trkpt><trkpt lat="44.51909373462378" lon="10.408213903257431"><ele>651.0</ele><time>2026-04-04T15:59:44.001Z</time></trkpt><trkpt lat="44.51906605673694" lon="10.408115724419977"><ele>651.3333333333334</ele><time>2026-04-04T15:59:45.001Z</time></trkpt><trkpt lat="44.51904689020729" lon="10.408030367344958"><ele>651.6666666666667</ele><time>2026-04-04T15:59:46.001Z</time></trkpt><trkpt lat="44.51902690076454" lon="10.407898309014028"><ele>652.0</ele><time>2026-04-04T15:59:48.001Z</time></trkpt><trkpt lat="44.51904653768793" lon="10.40780098604583"><ele>652.5</ele><time>2026-04-04T15:59:50.001Z</time></trkpt><trkpt lat="44.51909508388503" lon="10.407732934707479"><ele>653.0</ele><time>2026-04-04T15:59:52.001Z</time></trkpt><trkpt lat="44.51916407019387" lon="10.407752034235195"><ele>653.5</ele><time>2026-04-04T15:59:53.001Z</time></trkpt><trkpt lat="44.51925573951831" lon="10.40779113611518"><ele>654.0</ele><time>2026-04-04T15:59:54.001Z</time></trkpt><trkpt lat="44.51932257621981" lon="10.407774984489267"><ele>654.5</ele><time>2026-04-04T15:59:55.001Z</time></trkpt><trkpt lat="44.519406481922374" lon="10.40778042579441"><ele>655.0</ele><time>2026-04-04T15:59:57.001Z</time></trkpt><trkpt lat="44.51942094244065" lon="10.407869746005401"><ele>655.0</ele><time>2026-04-04T16:00:00Z</time></trkpt><trkpt lat="44.519448698075706" lon="10.407778830571166"><ele>655.0</ele><time>2026-04-04T16:04:37Z</time></trkpt><trkpt lat="44.519384491921734" lon="10.40772560190631"><ele>655.0</ele><time>2026-04-04T16:04:39Z</time></trkpt><trkpt lat="44.519277305313246" lon="10.407794568566448"><ele>655.0</ele><time>2026-04-04T16:04:41.001Z</time></trkpt><trkpt lat="44.519183003336224" lon="10.407862766434222"><ele>655.0</ele><time>2026-04-04T16:04:43.001Z</time></trkpt><trkpt lat="44.519067857237815" lon="10.407936117006088"><ele>654.25</ele><time>2026-04-04T16:04:45.001Z</time></trkpt><trkpt lat="44.519012444650656" lon="10.408021540028205"><ele>653.5</ele><time>2026-04-04T16:04:47.001Z</time></trkpt><trkpt lat="44.51904716916562" lon="10.408180679317038"><ele>652.75</ele><time>2026-04-04T16:04:49.001Z</time></trkpt><trkpt lat="44.519097932093736" lon="10.408347870116533"><ele>652.0</ele><time>2026-04-04T16:04:50.001Z</time></trkpt><trkpt lat="44.5191539411619" lon="10.408534766849678"><ele>652.0</ele><time>2026-04-04T16:04:51.001Z</time></trkpt><trkpt lat="44.51919453634207" lon="10.408658659217528"><ele>652.0</ele><time>2026-04-04T16:04:52.001Z</time></trkpt><trkpt lat="44.519240993578975" lon="10.408798850637888"><ele>652.0</ele><time>2026-04-04T16:04:53.001Z</time></trkpt><trkpt lat="44.51928660316151" lon="10.408948369683158"><ele>652.0</ele><time>2026-04-04T16:04:54.001Z</time></trkpt><trkpt lat="44.519319403752824" lon="10.409087944089489"><ele>652.0</ele><time>2026-04-04T16:04:55.001Z</time></trkpt><trkpt lat="44.519345520456" lon="10.409187349640808"><ele>651.6666666666667</ele><time>2026-04-04T16:04:56.001Z</time></trkpt><trkpt lat="44.51936144473953" lon="10.409277034619025"><ele>651.3333333333334</ele><time>2026-04-04T16:04:58.001Z</time></trkpt><trkpt lat="44.51942861295417" lon="10.409326490632068"><ele>651.0</ele><time>2026-04-04T16:05:00.001Z</time></trkpt><trkpt lat="44.51948823893779" lon="10.409253203379842"><ele>650.6666666666666</ele><time>2026-04-04T16:05:02.001Z</time></trkpt><trkpt lat="44.51954305661421" lon="10.409415386015272"><ele>650.3333333333333</ele><time>2026-04-04T16:05:05.001Z</time></trkpt><trkpt lat="44.51957164992874" lon="10.409507147378193"><ele>650.0</ele><time>2026-04-04T16:05:06.001Z</time></trkpt><trkpt lat="44.5196312409561" lon="10.409540738658873"><ele>653.4</ele><time>2026-04-04T16:05:07.001Z</time></trkpt><trkpt lat="44.51969777081611" lon="10.409507317367545"><ele>656.8</ele><time>2026-04-04T16:05:08.001Z</time></trkpt><trkpt lat="44.51980548607753" lon="10.409434900013805"><ele>660.2</ele><time>2026-04-04T16:05:09.001Z</time></trkpt><trkpt lat="44.519891382735054" lon="10.409424617551338"><ele>663.6</ele><time>2026-04-04T16:05:10.001Z</time></trkpt><trkpt lat="44.51996204625893" lon="10.40948348591793"><ele>667.0</ele><time>2026-04-04T16:05:11.001Z</time></trkpt><trkpt lat="44.520039511888044" lon="10.409604117771032"><ele>666.6</ele><time>2026-04-04T16:05:12.001Z</time></trkpt><trkpt lat="44.520109671598846" lon="10.409733958773414"><ele>666.2</ele><time>2026-04-04T16:05:13.001Z</time></trkpt><trkpt lat="44.52017991437242" lon="10.409839384314342"><ele>665.8</ele><time>2026-04-04T16:05:14.001Z</time></trkpt><trkpt lat="44.520212836720994" lon="10.409940343068572"><ele>665.4</ele><time>2026-04-04T16:05:15.001Z</time></trkpt><trkpt lat="44.52022701070495" lon="10.410068818645955"><ele>665.0</ele><time>2026-04-04T16:05:16.001Z</time></trkpt><trkpt lat="44.52024315841839" lon="10.410175692907178"><ele>665.0</ele><time>2026-04-04T16:05:17.001Z</time></trkpt><trkpt lat="44.52026660554805" lon="10.410260260206133"><ele>665.0</ele><time>2026-04-04T16:05:18Z</time></trkpt><trkpt lat="44.52035191380419" lon="10.410237013389171"><ele>665.0</ele><time>2026-04-04T16:05:21Z</time></trkpt><trkpt lat="44.520377354007636" lon="10.410156076963473"><ele>665.0</ele><time>2026-04-04T16:05:22Z</time></trkpt><trkpt lat="44.520405582544925" lon="10.410061346855757"><ele>665.0</ele><time>2026-04-04T16:05:23Z</time></trkpt><trkpt lat="44.5204537594144" lon="10.409989339094741"><ele>665.0</ele><time>2026-04-04T16:05:24Z</time></trkpt><trkpt lat="44.52050498105988" lon="10.409923422794275"><ele>665.0</ele><time>2026-04-04T16:05:25Z</time></trkpt><trkpt lat="44.520518500071425" lon="10.409817854471276"><ele>667.4</ele><time>2026-04-04T16:05:27Z</time></trkpt><trkpt lat="44.52054795728716" lon="10.409668580710429"><ele>669.8</ele><time>2026-04-04T16:05:29Z</time></trkpt><trkpt lat="44.52057414941671" lon="10.409586164501238"><ele>672.2</ele><time>2026-04-04T16:05:30Z</time></trkpt><trkpt lat="44.52064976728546" lon="10.409502131382089"><ele>674.6</ele><time>2026-04-04T16:05:32Z</time></trkpt><trkpt lat="44.520757661747446" lon="10.409480912093017"><ele>677.0</ele><time>2026-04-04T16:05:34Z</time></trkpt><trkpt lat="44.52084714571648" lon="10.409433857717735"><ele>677.8</ele><time>2026-04-04T16:05:36Z</time></trkpt><trkpt lat="44.52096930458719" lon="10.409379044881172"><ele>678.6</ele><time>2026-04-04T16:05:38Z</time></trkpt><trkpt lat="44.52102543001519" lon="10.409337058923448"><ele>679.4</ele><time>2026-04-04T16:05:39Z</time></trkpt><trkpt lat="44.52112547160593" lon="10.409290473265102"><ele>680.1999999999999</ele><time>2026-04-04T16:05:41Z</time></trkpt><trkpt lat="44.52121867066543" lon="10.409252834660077"><ele>681.0</ele><time>2026-04-04T16:05:42Z</time></trkpt><trkpt lat="44.52128530557835" lon="10.409240339100945"><ele>682.1666666666666</ele><time>2026-04-04T16:05:43Z</time></trkpt><trkpt lat="44.52135230691368" lon="10.40922069986566"><ele>683.3333333333334</ele><time>2026-04-04T16:05:44Z</time></trkpt><trkpt lat="44.52142172384982" lon="10.409192383594663"><ele>684.5</ele><time>2026-04-04T16:05:45Z</time></trkpt><trkpt lat="44.52149706208019" lon="10.409154260688908"><ele>685.6666666666667</ele><time>2026-04-04T16:05:46Z</time></trkpt><trkpt lat="44.521571225657745" lon="10.409111547668912"><ele>686.8333333333334</ele><time>2026-04-04T16:05:47Z</time></trkpt><trkpt lat="44.521645181271005" lon="10.409073276938969"><ele>688.0</ele><time>2026-04-04T16:05:48Z</time></trkpt><trkpt lat="44.52172309011468" lon="10.40903960748364"><ele>688.0</ele><time>2026-04-04T16:05:49Z</time></trkpt><trkpt lat="44.521802214410016" lon="10.409003250621154"><ele>688.0</ele><time>2026-04-04T16:05:50Z</time></trkpt><trkpt lat="44.52187465919834" lon="10.40896617504419"><ele>688.0</ele><time>2026-04-04T16:05:51Z</time></trkpt><trkpt lat="44.521944168395095" lon="10.408928380532737"><ele>688.0</ele><time>2026-04-04T16:05:52Z</time></trkpt><trkpt lat="44.5220053090629" lon="10.408871609208045"><ele>688.0</ele><time>2026-04-04T16:05:53Z</time></trkpt><trkpt lat="44.522105247449986" lon="10.408880691976975"><ele>688.0</ele><time>2026-04-04T16:05:55Z</time></trkpt><trkpt lat="44.522215053890065" lon="10.408904246335123"><ele>688.0</ele><time>2026-04-04T16:05:57Z</time></trkpt><trkpt lat="44.52228139128668" lon="10.408864658672147"><ele>688.0</ele><time>2026-04-04T16:05:59Z</time></trkpt><trkpt lat="44.522339028210354" lon="10.40898360102601"><ele>688.0</ele><time>2026-04-04T16:06:54.001Z</time></trkpt><trkpt lat="44.52238716160136" lon="10.40906006674309"><ele>688.0</ele><time>2026-04-04T16:06:57.001Z</time></trkpt><trkpt lat="44.52246143628258" lon="10.409072317445629"><ele>688.0</ele><time>2026-04-04T16:06:59.001Z</time></trkpt><trkpt lat="44.52245420708801" lon="10.409171426532671"><ele>688.0</ele><time>2026-04-04T16:07:01.001Z</time></trkpt><trkpt lat="44.52248649588547" lon="10.409290916840872"><ele>688.0</ele><time>2026-04-04T16:07:03.001Z</time></trkpt><trkpt lat="44.52252999215428" lon="10.409369258779536"><ele>688.0</ele><time>2026-04-04T16:07:04.001Z</time></trkpt><trkpt lat="44.522577764349094" lon="10.409529804503965"><ele>688.0</ele><time>2026-04-04T16:07:06.001Z</time></trkpt><trkpt lat="44.52261216639826" lon="10.40960619044623"><ele>688.0</ele><time>2026-04-04T16:07:07.001Z</time></trkpt><trkpt lat="44.52264671891114" lon="10.409686762352097"><ele>688.0</ele><time>2026-04-04T16:07:08.001Z</time></trkpt><trkpt lat="44.52269093695432" lon="10.409781187181883"><ele>688.0</ele><time>2026-04-04T16:07:09.001Z</time></trkpt><trkpt lat="44.52272013070611" lon="10.409877838781451"><ele>687.1666666666667</ele><time>2026-04-04T16:07:10.001Z</time></trkpt><trkpt lat="44.522745951904774" lon="10.40997458855021"><ele>686.3333333333334</ele><time>2026-04-04T16:07:11.001Z</time></trkpt><trkpt lat="44.52277937870998" lon="10.410074343214484"><ele>685.5</ele><time>2026-04-04T16:07:12.001Z</time></trkpt><trkpt lat="44.52282254329976" lon="10.410203159224768"><ele>684.6666666666666</ele><time>2026-04-04T16:07:14.001Z</time></trkpt><trkpt lat="44.5228753554617" lon="10.410319263650313"><ele>683.8333333333333</ele><time>2026-04-04T16:07:16.001Z</time></trkpt><trkpt lat="44.52286306604541" lon="10.4104170744148"><ele>683.0</ele><time>2026-04-04T16:07:18.001Z</time></trkpt><trkpt lat="44.52292981997222" lon="10.410474681226486"><ele>683.0</ele><time>2026-04-04T16:07:22.001Z</time></trkpt><trkpt lat="44.52300188442463" lon="10.410420853496815"><ele>683.0</ele><time>2026-04-04T16:07:25.001Z</time></trkpt><trkpt lat="44.52309255520865" lon="10.410442750503252"><ele>683.0</ele><time>2026-04-04T16:07:28Z</time></trkpt><trkpt lat="44.52315906200706" lon="10.41043604522876"><ele>683.0</ele><time>2026-04-04T16:07:30Z</time></trkpt><trkpt lat="44.52323853688056" lon="10.410420085756"><ele>683.0</ele><time>2026-04-04T16:07:33Z</time></trkpt><trkpt lat="44.523401239509745" lon="10.410353586562833"><ele>683.0</ele><time>2026-04-04T16:07:35Z</time></trkpt><trkpt lat="44.523502680575696" lon="10.410345314578475"><ele>683.0</ele><time>2026-04-04T16:07:37Z</time></trkpt><trkpt lat="44.52357085234352" lon="10.41034892122263"><ele>683.0</ele><time>2026-04-04T16:07:39Z</time></trkpt><trkpt lat="44.523638845422425" lon="10.4103459658235"><ele>683.0</ele><time>2026-04-04T16:07:41Z</time></trkpt><trkpt lat="44.5235450481023" lon="10.410396184203956"><ele>683.0</ele><time>2026-04-04T16:08:14Z</time></trkpt><trkpt lat="44.52343821003492" lon="10.410385983810515"><ele>683.0</ele><time>2026-04-04T16:08:16Z</time></trkpt><trkpt lat="44.52331575540738" lon="10.410443860818578"><ele>683.0</ele><time>2026-04-04T16:08:18Z</time></trkpt><trkpt lat="44.523205744616455" lon="10.41046501129016"><ele>683.0</ele><time>2026-04-04T16:08:20Z</time></trkpt><trkpt lat="44.52309809335392" lon="10.410461118251009"><ele>683.0</ele><time>2026-04-04T16:08:22Z</time></trkpt><trkpt lat="44.52301643826946" lon="10.410472421847615"><ele>683.0</ele><time>2026-04-04T16:08:24Z</time></trkpt><trkpt lat="44.52295898251426" lon="10.410514651583457"><ele>683.0</ele><time>2026-04-04T16:08:26Z</time></trkpt><trkpt lat="44.52285478309852" lon="10.410501168869649"><ele>680.2</ele><time>2026-04-04T16:08:28Z</time></trkpt><trkpt lat="44.522783260482896" lon="10.410503022639823"><ele>677.4</ele><time>2026-04-04T16:08:29Z</time></trkpt><trkpt lat="44.522674025956185" lon="10.41052294642944"><ele>674.6</ele><time>2026-04-04T16:08:31Z</time></trkpt><trkpt lat="44.5226074753281" lon="10.41062535079838"><ele>671.8000000000001</ele><time>2026-04-04T16:08:33Z</time></trkpt><trkpt lat="44.52261502976358" lon="10.410719006476274"><ele>669.0</ele><time>2026-04-04T16:08:35Z</time></trkpt><trkpt lat="44.52263949138192" lon="10.41086053084095"><ele>669.0</ele><time>2026-04-04T16:08:37Z</time></trkpt><trkpt lat="44.522680611131236" lon="10.410975604584339"><ele>669.0</ele><time>2026-04-04T16:08:38Z</time></trkpt><trkpt lat="44.52271031353472" lon="10.411095343768592"><ele>669.0</ele><time>2026-04-04T16:08:39Z</time></trkpt><trkpt lat="44.52272962402727" lon="10.411190034138881"><ele>669.0</ele><time>2026-04-04T16:08:40Z</time></trkpt><trkpt lat="44.52274095114486" lon="10.411279429423619"><ele>669.0</ele><time>2026-04-04T16:08:41Z</time></trkpt><trkpt lat="44.52268137862701" lon="10.41143833798265"><ele>669.0</ele><time>2026-04-04T16:08:43Z</time></trkpt><trkpt lat="44.52263964381477" lon="10.411512787430746"><ele>668.3333333333334</ele><time>2026-04-04T16:08:44Z</time></trkpt><trkpt lat="44.52261082069435" lon="10.411614683670338"><ele>667.6666666666666</ele><time>2026-04-04T16:08:45Z</time></trkpt><trkpt lat="44.5225792588657" lon="10.411712487193055"><ele>667.0</ele><time>2026-04-04T16:08:46Z</time></trkpt><trkpt lat="44.522545216749855" lon="10.41181867040504"><ele>666.3333333333333</ele><time>2026-04-04T16:08:47Z</time></trkpt><trkpt lat="44.522522917651784" lon="10.41193274234741"><ele>665.6666666666666</ele><time>2026-04-04T16:08:48Z</time></trkpt><trkpt lat="44.52251618626426" lon="10.41204125155986"><ele>665.0</ele><time>2026-04-04T16:08:49Z</time></trkpt><trkpt lat="44.52249973435922" lon="10.412152827072052"><ele>663.6</ele><time>2026-04-04T16:08:50Z</time></trkpt><trkpt lat="44.52248245275476" lon="10.412251814526579"><ele>662.2</ele><time>2026-04-04T16:08:51Z</time></trkpt><trkpt lat="44.52245131894368" lon="10.412339677439938"><ele>660.8</ele><time>2026-04-04T16:08:52.001Z</time></trkpt><trkpt lat="44.52241345792948" lon="10.412499966064189"><ele>659.4</ele><time>2026-04-04T16:08:54.001Z</time></trkpt><trkpt lat="44.522396824772855" lon="10.412659417627044"><ele>658.0</ele><time>2026-04-04T16:08:56.001Z</time></trkpt><trkpt lat="44.52236663380172" lon="10.412856736715321"><ele>656.8333333333334</ele><time>2026-04-04T16:08:58.001Z</time></trkpt><trkpt lat="44.52232068143946" lon="10.413021519970906"><ele>655.6666666666667</ele><time>2026-04-04T16:09:00.001Z</time></trkpt><trkpt lat="44.52231105439111" lon="10.413112816336263"><ele>654.5</ele><time>2026-04-04T16:09:01.001Z</time></trkpt><trkpt lat="44.52231775890807" lon="10.413208769920525"><ele>653.3333333333334</ele><time>2026-04-04T16:09:02.001Z</time></trkpt><trkpt lat="44.52233796179074" lon="10.413295307865821"><ele>652.1666666666666</ele><time>2026-04-04T16:09:03.001Z</time></trkpt><trkpt lat="44.52237222542162" lon="10.413371606812397"><ele>651.0</ele><time>2026-04-04T16:09:04.001Z</time></trkpt><trkpt lat="44.52241709913424" lon="10.413435976890574"><ele>651.0</ele><time>2026-04-04T16:09:05.001Z</time></trkpt><trkpt lat="44.522473892473144" lon="10.413487612188463"><ele>651.0</ele><time>2026-04-04T16:09:06.001Z</time></trkpt><trkpt lat="44.52254092254738" lon="10.413592737317163"><ele>651.0</ele><time>2026-04-04T16:09:08.001Z</time></trkpt><trkpt lat="44.52259363939064" lon="10.413685259625973"><ele>651.0</ele><time>2026-04-04T16:09:10.001Z</time></trkpt><trkpt lat="44.522702977106015" lon="10.413679193133804"><ele>651.0</ele><time>2026-04-04T16:09:12.001Z</time></trkpt><trkpt lat="44.52278700698921" lon="10.413672801894656"><ele>651.0</ele><time>2026-04-04T16:09:14.001Z</time></trkpt><trkpt lat="44.52285351675508" lon="10.413529494696904"><ele>648.4</ele><time>2026-04-04T16:09:16.001Z</time></trkpt><trkpt lat="44.52289762200336" lon="10.413462007468627"><ele>645.8</ele><time>2026-04-04T16:09:17.001Z</time></trkpt><trkpt lat="44.522979045643815" lon="10.413349345417306"><ele>643.1999999999999</ele><time>2026-04-04T16:09:19.001Z</time></trkpt><trkpt lat="44.523072467137304" lon="10.413273455521365"><ele>640.5999999999999</ele><time>2026-04-04T16:09:21.001Z</time></trkpt><trkpt lat="44.523142129451536" lon="10.413155078353245"><ele>638.0</ele><time>2026-04-04T16:09:23.001Z</time></trkpt><trkpt lat="44.52318210556175" lon="10.41308525200371"><ele>638.0</ele><time>2026-04-04T16:09:24.001Z</time></trkpt><trkpt lat="44.523255150086406" lon="10.41299293764374"><ele>638.0</ele><time>2026-04-04T16:09:26Z</time></trkpt><trkpt lat="44.52331631429713" lon="10.412917041460567"><ele>638.0</ele><time>2026-04-04T16:09:28Z</time></trkpt><trkpt lat="44.52338635732481" lon="10.412862798689503"><ele>638.0</ele><time>2026-04-04T16:09:30Z</time></trkpt><trkpt lat="44.523436531194776" lon="10.412754174138426"><ele>638.0</ele><time>2026-04-04T16:09:33Z</time></trkpt><trkpt lat="44.52353344725707" lon="10.412693931001455"><ele>638.4285714285714</ele><time>2026-04-04T16:09:36Z</time></trkpt><trkpt lat="44.523601227939366" lon="10.412680873796065"><ele>638.8571428571428</ele><time>2026-04-04T16:09:37Z</time></trkpt><trkpt lat="44.52367915623989" lon="10.41266856710798"><ele>639.2857142857142</ele><time>2026-04-04T16:09:39Z</time></trkpt><trkpt lat="44.52374544573401" lon="10.4126513422663"><ele>639.7142857142858</ele><time>2026-04-04T16:09:40Z</time></trkpt><trkpt lat="44.523813084812716" lon="10.412622007140364"><ele>640.1428571428571</ele><time>2026-04-04T16:09:41Z</time></trkpt><trkpt lat="44.52387128620178" lon="10.412581942980966"><ele>640.5714285714286</ele><time>2026-04-04T16:09:42Z</time></trkpt><trkpt lat="44.52396157827076" lon="10.412565254130667"><ele>641.0</ele><time>2026-04-04T16:09:44Z</time></trkpt><trkpt lat="44.52401808811034" lon="10.412610759902476"><ele>641.0</ele><time>2026-04-04T16:09:45Z</time></trkpt><trkpt lat="44.52413336363988" lon="10.41268849865829"><ele>641.0</ele><time>2026-04-04T16:09:47Z</time></trkpt><trkpt lat="44.52420744637657" lon="10.412718229552041"><ele>641.0</ele><time>2026-04-04T16:09:48Z</time></trkpt><trkpt lat="44.52429082750365" lon="10.412751894108442"><ele>641.0</ele><time>2026-04-04T16:09:49Z</time></trkpt><trkpt lat="44.52436617123666" lon="10.412767861607252"><ele>641.0</ele><time>2026-04-04T16:09:50Z</time></trkpt><trkpt lat="44.52444180138459" lon="10.412764236435537"><ele>641.0</ele><time>2026-04-04T16:09:51Z</time></trkpt><trkpt lat="44.524514859170495" lon="10.412755301181306"><ele>641.4</ele><time>2026-04-04T16:09:52Z</time></trkpt><trkpt lat="44.524591274773826" lon="10.412780523745067"><ele>641.8</ele><time>2026-04-04T16:09:53Z</time></trkpt><trkpt lat="44.52468482095241" lon="10.41278371168402"><ele>642.1999999999999</ele><time>2026-04-04T16:09:54Z</time></trkpt><trkpt lat="44.52481098195188" lon="10.412753134846056"><ele>642.5999999999999</ele><time>2026-04-04T16:09:55Z</time></trkpt><trkpt lat="44.52491291040515" lon="10.41275480122119"><ele>643.0</ele><time>2026-04-04T16:09:56Z</time></trkpt><trkpt lat="44.52498662750255" lon="10.412760653201236"><ele>643.0</ele><time>2026-04-04T16:09:57Z</time></trkpt><trkpt lat="44.525101588452955" lon="10.412794888402292"><ele>643.0</ele><time>2026-04-04T16:09:59Z</time></trkpt><trkpt lat="44.52518744074443" lon="10.412800935759552"><ele>643.0</ele><time>2026-04-04T16:10:00Z</time></trkpt><trkpt lat="44.525262836316784" lon="10.412797461890184"><ele>643.0</ele><time>2026-04-04T16:10:01Z</time></trkpt><trkpt lat="44.525332020695174" lon="10.412802907973099"><ele>643.0</ele><time>2026-04-04T16:10:02Z</time></trkpt><trkpt lat="44.52543895680506" lon="10.412837997191803"><ele>642.1666666666667</ele><time>2026-04-04T16:10:03Z</time></trkpt><trkpt lat="44.525512672082115" lon="10.412879373251387"><ele>641.3333333333334</ele><time>2026-04-04T16:10:04Z</time></trkpt><trkpt lat="44.525595664029886" lon="10.412917880411687"><ele>640.5</ele><time>2026-04-04T16:10:05Z</time></trkpt><trkpt lat="44.52568813279994" lon="10.412953853699287"><ele>639.6666666666666</ele><time>2026-04-04T16:10:06Z</time></trkpt><trkpt lat="44.52577744676843" lon="10.412970436974124"><ele>638.8333333333333</ele><time>2026-04-04T16:10:07Z</time></trkpt><trkpt lat="44.52586332731868" lon="10.41298576408517"><ele>638.0</ele><time>2026-04-04T16:10:08Z</time></trkpt><trkpt lat="44.52596245688273" lon="10.41300624538772"><ele>635.4</ele><time>2026-04-04T16:10:10Z</time></trkpt><trkpt lat="44.52604476053625" lon="10.413024325055908"><ele>632.8</ele><time>2026-04-04T16:10:11Z</time></trkpt><trkpt lat="44.526139602972215" lon="10.413055238522267"><ele>630.2</ele><time>2026-04-04T16:10:12Z</time></trkpt><trkpt lat="44.52622636253517" lon="10.413109631668256"><ele>627.6</ele><time>2026-04-04T16:10:13Z</time></trkpt><trkpt lat="44.52631450314702" lon="10.413150232081259"><ele>625.0</ele><time>2026-04-04T16:10:14Z</time></trkpt><trkpt lat="44.52639794720775" lon="10.413188741744113"><ele>624.5</ele><time>2026-04-04T16:10:15Z</time></trkpt><trkpt lat="44.5264736302468" lon="10.413237264958523"><ele>624.0</ele><time>2026-04-04T16:10:16Z</time></trkpt><trkpt lat="44.52654633017074" lon="10.413288208897466"><ele>623.5</ele><time>2026-04-04T16:10:17Z</time></trkpt><trkpt lat="44.52661694624545" lon="10.413319398322683"><ele>623.0</ele><time>2026-04-04T16:10:18Z</time></trkpt><trkpt lat="44.52668867723686" lon="10.413332970382784"><ele>622.5</ele><time>2026-04-04T16:10:19Z</time></trkpt><trkpt lat="44.526777788847795" lon="10.413334589707183"><ele>622.0</ele><time>2026-04-04T16:10:20Z</time></trkpt><trkpt lat="44.52687245448763" lon="10.413338256574699"><ele>622.0</ele><time>2026-04-04T16:10:21Z</time></trkpt><trkpt lat="44.52696171072313" lon="10.413361735232614"><ele>622.0</ele><time>2026-04-04T16:10:22Z</time></trkpt><trkpt lat="44.527025149807706" lon="10.413412007930578"><ele>622.0</ele><time>2026-04-04T16:10:23Z</time></trkpt><trkpt lat="44.52710703512047" lon="10.413472771306555"><ele>622.0</ele><time>2026-04-04T16:10:24Z</time></trkpt><trkpt lat="44.52720591301892" lon="10.413541051530201"><ele>622.0</ele><time>2026-04-04T16:10:25Z</time></trkpt><trkpt lat="44.52729646174878" lon="10.41360155656281"><ele>619.6</ele><time>2026-04-04T16:10:26Z</time></trkpt><trkpt lat="44.52738208546122" lon="10.413645116502536"><ele>617.2</ele><time>2026-04-04T16:10:27Z</time></trkpt><trkpt lat="44.527484842780616" lon="10.41366938043266"><ele>614.8</ele><time>2026-04-04T16:10:28Z</time></trkpt><trkpt lat="44.52760103370584" lon="10.413710824584163"><ele>612.4</ele><time>2026-04-04T16:10:29Z</time></trkpt><trkpt lat="44.527700526809674" lon="10.413757254919705"><ele>610.0</ele><time>2026-04-04T16:10:30Z</time></trkpt><trkpt lat="44.52778729960281" lon="10.413817657923746"><ele>611.0</ele><time>2026-04-04T16:10:31Z</time></trkpt><trkpt lat="44.52786688254253" lon="10.413877452153091"><ele>612.0</ele><time>2026-04-04T16:10:32Z</time></trkpt><trkpt lat="44.527934885151986" lon="10.413953741916"><ele>613.0</ele><time>2026-04-04T16:10:33Z</time></trkpt><trkpt lat="44.528005891640746" lon="10.414049788731697"><ele>614.0</ele><time>2026-04-04T16:10:34Z</time></trkpt><trkpt lat="44.52809682346278" lon="10.414135295432153"><ele>615.0</ele><time>2026-04-04T16:10:35Z</time></trkpt><trkpt lat="44.52817668152872" lon="10.414208381527466"><ele>612.6</ele><time>2026-04-04T16:10:36Z</time></trkpt><trkpt lat="44.52824987865038" lon="10.414282363276078"><ele>610.2</ele><time>2026-04-04T16:10:37Z</time></trkpt><trkpt lat="44.5283258141692" lon="10.4143702207878"><ele>607.8</ele><time>2026-04-04T16:10:38Z</time></trkpt><trkpt lat="44.52841380567476" lon="10.414454358387117"><ele>605.4</ele><time>2026-04-04T16:10:39Z</time></trkpt><trkpt lat="44.52851886833942" lon="10.414498094692021"><ele>603.0</ele><time>2026-04-04T16:10:40Z</time></trkpt><trkpt lat="44.52861965595722" lon="10.414535016711012"><ele>603.0</ele><time>2026-04-04T16:10:41Z</time></trkpt><trkpt lat="44.52871412066516" lon="10.41457701050551"><ele>603.0</ele><time>2026-04-04T16:10:42Z</time></trkpt><trkpt lat="44.52880469609734" lon="10.414624232430036"><ele>603.0</ele><time>2026-04-04T16:10:43Z</time></trkpt><trkpt lat="44.52889496958221" lon="10.414668387198125"><ele>603.0</ele><time>2026-04-04T16:10:44Z</time></trkpt><trkpt lat="44.528980984407404" lon="10.41471307919787"><ele>603.0</ele><time>2026-04-04T16:10:45Z</time></trkpt><trkpt lat="44.52905668351918" lon="10.414763257817388"><ele>601.8333333333334</ele><time>2026-04-04T16:10:46Z</time></trkpt><trkpt lat="44.52913902463782" lon="10.414812297512837"><ele>600.6666666666666</ele><time>2026-04-04T16:10:47Z</time></trkpt><trkpt lat="44.52922102532692" lon="10.414859028659091"><ele>599.5</ele><time>2026-04-04T16:10:48Z</time></trkpt><trkpt lat="44.52929638769554" lon="10.41489941304538"><ele>598.3333333333333</ele><time>2026-04-04T16:10:49Z</time></trkpt><trkpt lat="44.52936904899014" lon="10.414934955652608"><ele>597.1666666666666</ele><time>2026-04-04T16:10:50Z</time></trkpt><trkpt lat="44.529441775212376" lon="10.41495950581041"><ele>596.0</ele><time>2026-04-04T16:10:51Z</time></trkpt><trkpt lat="44.529503848605316" lon="10.414982189758057"><ele>594.8333333333333</ele><time>2026-04-04T16:10:52Z</time></trkpt><trkpt lat="44.529571435643426" lon="10.415013402248785"><ele>593.6666666666666</ele><time>2026-04-04T16:10:53Z</time></trkpt><trkpt lat="44.52963389097328" lon="10.415062353046334"><ele>592.5</ele><time>2026-04-04T16:10:54Z</time></trkpt><trkpt lat="44.52968330261523" lon="10.415128742007509"><ele>591.3333333333334</ele><time>2026-04-04T16:10:55Z</time></trkpt><trkpt lat="44.52974798040391" lon="10.41524181340385"><ele>590.1666666666667</ele><time>2026-04-04T16:10:57Z</time></trkpt><trkpt lat="44.529856199821715" lon="10.415240951405218"><ele>589.0</ele><time>2026-04-04T16:11:00.001Z</time></trkpt><trkpt lat="44.52992120138511" lon="10.415211244884537"><ele>589.0</ele><time>2026-04-04T16:11:01.001Z</time></trkpt><trkpt lat="44.52999352782714" lon="10.415195984871312"><ele>589.0</ele><time>2026-04-04T16:11:02.001Z</time></trkpt><trkpt lat="44.53007114722925" lon="10.415199435075115"><ele>589.0</ele><time>2026-04-04T16:11:03.001Z</time></trkpt><trkpt lat="44.53015484361708" lon="10.415213162762454"><ele>589.0</ele><time>2026-04-04T16:11:04.001Z</time></trkpt><trkpt lat="44.53022587765442" lon="10.415232862691637"><ele>589.0</ele><time>2026-04-04T16:11:05.001Z</time></trkpt><trkpt lat="44.53034410212121" lon="10.415263459527969"><ele>589.0</ele><time>2026-04-04T16:11:07.001Z</time></trkpt><trkpt lat="44.53046964184539" lon="10.415306758819405"><ele>588.0</ele><time>2026-04-04T16:11:09.001Z</time></trkpt><trkpt lat="44.53055349064443" lon="10.415318743834858"><ele>587.0</ele><time>2026-04-04T16:11:10.001Z</time></trkpt><trkpt lat="44.530655860956735" lon="10.4153176727094"><ele>586.0</ele><time>2026-04-04T16:11:11.001Z</time></trkpt><trkpt lat="44.53077264610418" lon="10.415328272738641"><ele>585.0</ele><time>2026-04-04T16:11:12.001Z</time></trkpt><trkpt lat="44.5308952804388" lon="10.415355369951673"><ele>584.0</ele><time>2026-04-04T16:11:13.001Z</time></trkpt><trkpt lat="44.531023868947194" lon="10.415378143525984"><ele>584.0</ele><time>2026-04-04T16:11:14.001Z</time></trkpt><trkpt lat="44.53114699458175" lon="10.415401490981488"><ele>584.0</ele><time>2026-04-04T16:11:15.001Z</time></trkpt><trkpt lat="44.53125994445984" lon="10.41543047586951"><ele>584.0</ele><time>2026-04-04T16:11:16.001Z</time></trkpt><trkpt lat="44.53138144586843" lon="10.415421802747145"><ele>584.0</ele><time>2026-04-04T16:11:17.001Z</time></trkpt><trkpt lat="44.531509507969325" lon="10.415430248015833"><ele>582.5</ele><time>2026-04-04T16:11:18.001Z</time></trkpt><trkpt lat="44.53162710759241" lon="10.415434166468852"><ele>581.0</ele><time>2026-04-04T16:11:19.001Z</time></trkpt><trkpt lat="44.531741353336514" lon="10.415442831581766"><ele>579.5</ele><time>2026-04-04T16:11:20.001Z</time></trkpt><trkpt lat="44.53185094488123" lon="10.415442106077812"><ele>578.0</ele><time>2026-04-04T16:11:21.001Z</time></trkpt><trkpt lat="44.53196237019328" lon="10.415438561344844"><ele>577.1999999999999</ele><time>2026-04-04T16:11:22.001Z</time></trkpt><trkpt lat="44.53206709332814" lon="10.415434183391094"><ele>576.4</ele><time>2026-04-04T16:11:23.001Z</time></trkpt><trkpt lat="44.53216878429616" lon="10.41543053202795"><ele>575.5999999999999</ele><time>2026-04-04T16:11:24.001Z</time></trkpt><trkpt lat="44.53226839574435" lon="10.415429635073465"><ele>574.8</ele><time>2026-04-04T16:11:25.001Z</time></trkpt><trkpt lat="44.53236171393457" lon="10.415423894018573"><ele>574.0</ele><time>2026-04-04T16:11:26Z</time></trkpt><trkpt lat="44.5324481596166" lon="10.415419405800673"><ele>574.0</ele><time>2026-04-04T16:11:27Z</time></trkpt><trkpt lat="44.532528104854954" lon="10.415412415696432"><ele>574.0</ele><time>2026-04-04T16:11:28Z</time></trkpt><trkpt lat="44.532608896807616" lon="10.415408411089446"><ele>574.0</ele><time>2026-04-04T16:11:29Z</time></trkpt><trkpt lat="44.53268821524441" lon="10.415416123728507"><ele>574.0</ele><time>2026-04-04T16:11:30Z</time></trkpt><trkpt lat="44.53277433274979" lon="10.41542948336513"><ele>574.0</ele><time>2026-04-04T16:11:31Z</time></trkpt><trkpt lat="44.5328581239087" lon="10.415442137855685"><ele>574.0</ele><time>2026-04-04T16:11:32Z</time></trkpt><trkpt lat="44.532944678219515" lon="10.41545868058302"><ele>573.8571428571429</ele><time>2026-04-04T16:11:33Z</time></trkpt><trkpt lat="44.53302391450127" lon="10.415477783212863"><ele>573.7142857142858</ele><time>2026-04-04T16:11:34Z</time></trkpt><trkpt lat="44.53309946941245" lon="10.415493283391768"><ele>573.5714285714286</ele><time>2026-04-04T16:11:35Z</time></trkpt><trkpt lat="44.53316751564368" lon="10.415509760923571"><ele>573.4285714285714</ele><time>2026-04-04T16:11:36Z</time></trkpt><trkpt lat="44.53323624295702" lon="10.41552631918758"><ele>573.2857142857143</ele><time>2026-04-04T16:11:37Z</time></trkpt><trkpt lat="44.53330892073768" lon="10.415541228978299"><ele>573.1428571428571</ele><time>2026-04-04T16:11:38Z</time></trkpt><trkpt lat="44.53338374908117" lon="10.415559878328468"><ele>573.0</ele><time>2026-04-04T16:11:39Z</time></trkpt><trkpt lat="44.53346895150731" lon="10.415579166422459"><ele>573.0</ele><time>2026-04-04T16:11:40Z</time></trkpt><trkpt lat="44.53355715680167" lon="10.415595367836884"><ele>573.0</ele><time>2026-04-04T16:11:41Z</time></trkpt><trkpt lat="44.533644789537206" lon="10.415618511773532"><ele>573.0</ele><time>2026-04-04T16:11:42Z</time></trkpt><trkpt lat="44.533734433269665" lon="10.415642612900962"><ele>573.0</ele><time>2026-04-04T16:11:43Z</time></trkpt><trkpt lat="44.533828634432936" lon="10.41566328929148"><ele>573.0</ele><time>2026-04-04T16:11:44Z</time></trkpt><trkpt lat="44.533924870485485" lon="10.415684125281434"><ele>573.1999999999999</ele><time>2026-04-04T16:11:45Z</time></trkpt><trkpt lat="44.534021006820936" lon="10.415705664014423"><ele>573.4</ele><time>2026-04-04T16:11:46Z</time></trkpt><trkpt lat="44.53410615718023" lon="10.415725202133496"><ele>573.5999999999999</ele><time>2026-04-04T16:11:47Z</time></trkpt><trkpt lat="44.534181213405624" lon="10.415741104020746"><ele>573.8</ele><time>2026-04-04T16:11:48Z</time></trkpt><trkpt lat="44.53428642428054" lon="10.415757278335468"><ele>574.0</ele><time>2026-04-04T16:11:50Z</time></trkpt><trkpt lat="44.53441490035323" lon="10.415785777611317"><ele>574.0</ele><time>2026-04-04T16:11:52Z</time></trkpt><trkpt lat="44.53449222619909" lon="10.415795554561491"><ele>574.0</ele><time>2026-04-04T16:11:53Z</time></trkpt><trkpt lat="44.53457886159426" lon="10.415811286757979"><ele>574.0</ele><time>2026-04-04T16:11:54Z</time></trkpt><trkpt lat="44.53467884321964" lon="10.415828637830645"><ele>574.0</ele><time>2026-04-04T16:11:55Z</time></trkpt><trkpt lat="44.53479200753264" lon="10.415843844899996"><ele>574.0</ele><time>2026-04-04T16:11:56Z</time></trkpt><trkpt lat="44.53492613264962" lon="10.415871529332344"><ele>573.5</ele><time>2026-04-04T16:11:57Z</time></trkpt><trkpt lat="44.53506319640548" lon="10.415902090024396"><ele>573.0</ele><time>2026-04-04T16:11:58Z</time></trkpt><trkpt lat="44.53521877535655" lon="10.415936103745393"><ele>572.5</ele><time>2026-04-04T16:11:59Z</time></trkpt><trkpt lat="44.53536315371654" lon="10.415969249128235"><ele>572.0</ele><time>2026-04-04T16:12:00Z</time></trkpt><trkpt lat="44.53549062456284" lon="10.415998955865728"><ele>571.5</ele><time>2026-04-04T16:12:01Z</time></trkpt><trkpt lat="44.535617817503116" lon="10.416015933179146"><ele>571.0</ele><time>2026-04-04T16:12:02Z</time></trkpt><trkpt lat="44.53575115127726" lon="10.416009751545992"><ele>570.5</ele><time>2026-04-04T16:12:03Z</time></trkpt><trkpt lat="44.53589003124506" lon="10.415993179772506"><ele>570.0</ele><time>2026-04-04T16:12:04Z</time></trkpt><trkpt lat="44.53603594921299" lon="10.415970468397466"><ele>570.0</ele><time>2026-04-04T16:12:05Z</time></trkpt><trkpt lat="44.53618544877235" lon="10.415945154543715"><ele>570.0</ele><time>2026-04-04T16:12:06Z</time></trkpt><trkpt lat="44.536335062097535" lon="10.415912284297953"><ele>570.0</ele><time>2026-04-04T16:12:07Z</time></trkpt><trkpt lat="44.53647273023465" lon="10.41588220980384"><ele>570.0</ele><time>2026-04-04T16:12:08Z</time></trkpt><trkpt lat="44.53660470502141" lon="10.4158489890029"><ele>569.5</ele><time>2026-04-04T16:12:09Z</time></trkpt><trkpt lat="44.536735320111006" lon="10.415814642008469"><ele>569.0</ele><time>2026-04-04T16:12:10Z</time></trkpt><trkpt lat="44.536856233537016" lon="10.415787989783228"><ele>568.5</ele><time>2026-04-04T16:12:11Z</time></trkpt><trkpt lat="44.5369759534861" lon="10.415753472193316"><ele>568.0</ele><time>2026-04-04T16:12:12Z</time></trkpt><trkpt lat="44.53709867012596" lon="10.415723136588834"><ele>567.6</ele><time>2026-04-04T16:12:13Z</time></trkpt><trkpt lat="44.537208797442425" lon="10.415694626784724"><ele>567.1999999999999</ele><time>2026-04-04T16:12:14Z</time></trkpt><trkpt lat="44.53731227169476" lon="10.415670561176572"><ele>566.8</ele><time>2026-04-04T16:12:15Z</time></trkpt><trkpt lat="44.53741452826986" lon="10.4156520606907"><ele>566.4</ele><time>2026-04-04T16:12:16Z</time></trkpt><trkpt lat="44.53751270947448" lon="10.415634677008997"><ele>566.0</ele><time>2026-04-04T16:12:17Z</time></trkpt><trkpt lat="44.53761857721684" lon="10.415627035982995"><ele>566.0</ele><time>2026-04-04T16:12:18Z</time></trkpt><trkpt lat="44.537736202685444" lon="10.41563353749298"><ele>566.0</ele><time>2026-04-04T16:12:19Z</time></trkpt><trkpt lat="44.537858410665535" lon="10.415657489303896"><ele>566.0</ele><time>2026-04-04T16:12:20Z</time></trkpt><trkpt lat="44.537986588170504" lon="10.41570947505133"><ele>566.0</ele><time>2026-04-04T16:12:21Z</time></trkpt><trkpt lat="44.53811378644504" lon="10.415778926618831"><ele>564.75</ele><time>2026-04-04T16:12:22Z</time></trkpt><trkpt lat="44.53823141249891" lon="10.41584022845285"><ele>563.5</ele><time>2026-04-04T16:12:23Z</time></trkpt><trkpt lat="44.53834222966203" lon="10.415900877645331"><ele>562.25</ele><time>2026-04-04T16:12:24Z</time></trkpt><trkpt lat="44.538450806965756" lon="10.41596598006393"><ele>561.0</ele><time>2026-04-04T16:12:25Z</time></trkpt><trkpt lat="44.538566581611825" lon="10.41602998087256"><ele>561.0</ele><time>2026-04-04T16:12:26Z</time></trkpt><trkpt lat="44.53868746508416" lon="10.4160758952282"><ele>561.0</ele><time>2026-04-04T16:12:27Z</time></trkpt><trkpt lat="44.538802409142626" lon="10.416098707618401"><ele>561.0</ele><time>2026-04-04T16:12:28Z</time></trkpt><trkpt lat="44.53892799580523" lon="10.416101145246474"><ele>561.0</ele><time>2026-04-04T16:12:29Z</time></trkpt><trkpt lat="44.53905510128697" lon="10.416091335107"><ele>559.25</ele><time>2026-04-04T16:12:30Z</time></trkpt><trkpt lat="44.53918446928546" lon="10.416068079485612"><ele>557.5</ele><time>2026-04-04T16:12:31Z</time></trkpt><trkpt lat="44.53930515240586" lon="10.41605125769902"><ele>555.75</ele><time>2026-04-04T16:12:32Z</time></trkpt><trkpt lat="44.53941893499059" lon="10.416041613444312"><ele>554.0</ele><time>2026-04-04T16:12:33Z</time></trkpt><trkpt lat="44.53953671418456" lon="10.416043378209533"><ele>553.5</ele><time>2026-04-04T16:12:34Z</time></trkpt><trkpt lat="44.539658705840516" lon="10.416054687166238"><ele>553.0</ele><time>2026-04-04T16:12:35Z</time></trkpt><trkpt lat="44.539785291583605" lon="10.416054164999062"><ele>552.5</ele><time>2026-04-04T16:12:36Z</time></trkpt><trkpt lat="44.539910621859065" lon="10.416046747224932"><ele>552.0</ele><time>2026-04-04T16:12:37Z</time></trkpt><trkpt lat="44.540022784009466" lon="10.416044044166597"><ele>552.0</ele><time>2026-04-04T16:12:38Z</time></trkpt><trkpt lat="44.54012052482074" lon="10.416040256177187"><ele>552.0</ele><time>2026-04-04T16:12:39Z</time></trkpt><trkpt lat="44.54020734453336" lon="10.416036876458717"><ele>552.0</ele><time>2026-04-04T16:12:40Z</time></trkpt><trkpt lat="44.54029085904372" lon="10.41603182307508"><ele>552.0</ele><time>2026-04-04T16:12:41Z</time></trkpt><trkpt lat="44.54036496704739" lon="10.416033374306084"><ele>552.0</ele><time>2026-04-04T16:12:42Z</time></trkpt><trkpt lat="44.540430241825945" lon="10.415953441899768"><ele>552.0</ele><time>2026-04-04T16:12:43Z</time></trkpt><trkpt lat="44.54049412475775" lon="10.415870547200145"><ele>551.75</ele><time>2026-04-04T16:12:44Z</time></trkpt><trkpt lat="44.54055878224066" lon="10.415763627858341"><ele>551.5</ele><time>2026-04-04T16:12:45Z</time></trkpt><trkpt lat="44.540643457156186" lon="10.41564458941469"><ele>551.25</ele><time>2026-04-04T16:12:46Z</time></trkpt><trkpt lat="44.54071315313801" lon="10.415492420831734"><ele>551.0</ele><time>2026-04-04T16:12:47Z</time></trkpt><trkpt lat="44.54081057583808" lon="10.41536686693117"><ele>551.0</ele><time>2026-04-04T16:12:48Z</time></trkpt><trkpt lat="44.540913684655216" lon="10.41525510010488"><ele>551.0</ele><time>2026-04-04T16:12:49Z</time></trkpt><trkpt lat="44.54102908257569" lon="10.41516771465277"><ele>551.0</ele><time>2026-04-04T16:12:50Z</time></trkpt><trkpt lat="44.54115235395802" lon="10.415089102676733"><ele>551.0</ele><time>2026-04-04T16:12:51Z</time></trkpt><trkpt lat="44.5412764403323" lon="10.415020578299766"><ele>551.2</ele><time>2026-04-04T16:12:52Z</time></trkpt><trkpt lat="44.541398337094336" lon="10.414970584287794"><ele>551.4000000000001</ele><time>2026-04-04T16:12:53Z</time></trkpt><trkpt lat="44.541516417446324" lon="10.414946749989452"><ele>551.6</ele><time>2026-04-04T16:12:54Z</time></trkpt><trkpt lat="44.541616914910556" lon="10.414958412001212"><ele>551.8000000000001</ele><time>2026-04-04T16:12:55Z</time></trkpt><trkpt lat="44.54171253132134" lon="10.414972846573303"><ele>552.0</ele><time>2026-04-04T16:12:56Z</time></trkpt><trkpt lat="44.5417933061105" lon="10.414982551371203"><ele>552.0</ele><time>2026-04-04T16:12:57Z</time></trkpt><trkpt lat="44.54186931511151" lon="10.414987875925673"><ele>552.0</ele><time>2026-04-04T16:12:58Z</time></trkpt><trkpt lat="44.54193646251661" lon="10.414984375487222"><ele>552.0</ele><time>2026-04-04T16:12:59Z</time></trkpt><trkpt lat="44.54199997777506" lon="10.414966732590775"><ele>552.0</ele><time>2026-04-04T16:13:00Z</time></trkpt><trkpt lat="44.54207310997273" lon="10.414979345141598"><ele>552.0</ele><time>2026-04-04T16:13:01Z</time></trkpt><trkpt lat="44.542151541807364" lon="10.414853151177574"><ele>552.0</ele><time>2026-04-04T16:13:02Z</time></trkpt><trkpt lat="44.54223678965701" lon="10.414742093813954"><ele>553.75</ele><time>2026-04-04T16:13:03Z</time></trkpt><trkpt lat="44.54233660806647" lon="10.414635963199432"><ele>555.5</ele><time>2026-04-04T16:13:04.001Z</time></trkpt><trkpt lat="44.54245171105808" lon="10.414517811074937"><ele>557.25</ele><time>2026-04-04T16:13:05.001Z</time></trkpt><trkpt lat="44.54257008317487" lon="10.41439230651081"><ele>559.0</ele><time>2026-04-04T16:13:06.001Z</time></trkpt><trkpt lat="44.542679611139995" lon="10.414283119265333"><ele>559.0</ele><time>2026-04-04T16:13:07.001Z</time></trkpt><trkpt lat="44.542782601829266" lon="10.414182090827994"><ele>559.0</ele><time>2026-04-04T16:13:08.001Z</time></trkpt><trkpt lat="44.54288948154288" lon="10.414081950135953"><ele>559.0</ele><time>2026-04-04T16:13:09.001Z</time></trkpt><trkpt lat="44.54299321922097" lon="10.413980758237003"><ele>559.0</ele><time>2026-04-04T16:13:10.001Z</time></trkpt><trkpt lat="44.54309110082198" lon="10.413875574101512"><ele>560.2</ele><time>2026-04-04T16:13:11.001Z</time></trkpt><trkpt lat="44.543175301103204" lon="10.413771651874425"><ele>561.4</ele><time>2026-04-04T16:13:12.001Z</time></trkpt><trkpt lat="44.54324072185707" lon="10.413655427546539"><ele>562.6</ele><time>2026-04-04T16:13:13.001Z</time></trkpt><trkpt lat="44.54328949243162" lon="10.413531132741229"><ele>563.8</ele><time>2026-04-04T16:13:14.001Z</time></trkpt><trkpt lat="44.543320083494265" lon="10.413417314994842"><ele>565.0</ele><time>2026-04-04T16:13:15.001Z</time></trkpt><trkpt lat="44.54334913713828" lon="10.413337583150588"><ele>565.0</ele><time>2026-04-04T16:13:16.001Z</time></trkpt><trkpt lat="44.54339628301632" lon="10.413242808933807"><ele>565.0</ele><time>2026-04-04T16:13:18.001Z</time></trkpt><trkpt lat="44.54355300154071" lon="10.413303867752827"><ele>565.0</ele><time>2026-04-04T16:13:20Z</time></trkpt><trkpt lat="44.54363332131599" lon="10.413356988776158"><ele>565.0</ele><time>2026-04-04T16:13:21Z</time></trkpt><trkpt lat="44.543733748902" lon="10.413413939540153"><ele>565.0</ele><time>2026-04-04T16:13:22Z</time></trkpt><trkpt lat="44.543832899767665" lon="10.413462386400807"><ele>566.5</ele><time>2026-04-04T16:13:23Z</time></trkpt><trkpt lat="44.54392870072378" lon="10.413497402020665"><ele>568.0</ele><time>2026-04-04T16:13:24Z</time></trkpt><trkpt lat="44.544015882940116" lon="10.413520442702133"><ele>569.5</ele><time>2026-04-04T16:13:25Z</time></trkpt><trkpt lat="44.544094467167" lon="10.413547655884422"><ele>571.0</ele><time>2026-04-04T16:13:26Z</time></trkpt><trkpt lat="44.5441618138969" lon="10.4135681435051"><ele>572.5</ele><time>2026-04-04T16:13:27Z</time></trkpt><trkpt lat="44.544225288309384" lon="10.41359954348232"><ele>574.0</ele><time>2026-04-04T16:13:28Z</time></trkpt><trkpt lat="44.54429129903213" lon="10.413577830175155"><ele>574.0</ele><time>2026-04-04T16:13:29Z</time></trkpt><trkpt lat="44.544346097864334" lon="10.413514301481694"><ele>574.0</ele><time>2026-04-04T16:13:30Z</time></trkpt><trkpt lat="44.544355900303366" lon="10.413400014273295"><ele>574.0</ele><time>2026-04-04T16:13:31Z</time></trkpt><trkpt lat="44.54435876009854" lon="10.413288839768049"><ele>574.0</ele><time>2026-04-04T16:13:32Z</time></trkpt><trkpt lat="44.54435152575091" lon="10.413176952668055"><ele>574.0</ele><time>2026-04-04T16:13:33Z</time></trkpt><trkpt lat="44.54436223929284" lon="10.413057023976583"><ele>574.0</ele><time>2026-04-04T16:13:34Z</time></trkpt><trkpt lat="44.54436694673297" lon="10.41293125850936"><ele>574.8</ele><time>2026-04-04T16:13:35Z</time></trkpt><trkpt lat="44.54436586741734" lon="10.412805042451247"><ele>575.5999999999999</ele><time>2026-04-04T16:13:36Z</time></trkpt><trkpt lat="44.54436144333001" lon="10.412673347284318"><ele>576.4</ele><time>2026-04-04T16:13:37Z</time></trkpt><trkpt lat="44.54434320040499" lon="10.412540041289203"><ele>577.1999999999999</ele><time>2026-04-04T16:13:38Z</time></trkpt><trkpt lat="44.54433886345725" lon="10.412398926908537"><ele>578.0</ele><time>2026-04-04T16:13:39Z</time></trkpt><trkpt lat="44.54433218718239" lon="10.41225384963773"><ele>578.6</ele><time>2026-04-04T16:13:40Z</time></trkpt><trkpt lat="44.54432726485547" lon="10.41210506600688"><ele>579.1999999999999</ele><time>2026-04-04T16:13:41Z</time></trkpt><trkpt lat="44.5443227824797" lon="10.411953032811601"><ele>579.8</ele><time>2026-04-04T16:13:42Z</time></trkpt><trkpt lat="44.544320279567366" lon="10.411822504571894"><ele>580.4</ele><time>2026-04-04T16:13:43Z</time></trkpt><trkpt lat="44.54431350355079" lon="10.411709674040804"><ele>581.0</ele><time>2026-04-04T16:13:44Z</time></trkpt><trkpt lat="44.544311862312554" lon="10.4116123404609"><ele>581.0</ele><time>2026-04-04T16:13:45Z</time></trkpt><trkpt lat="44.5443314285069" lon="10.4114875669553"><ele>581.0</ele><time>2026-04-04T16:13:47Z</time></trkpt><trkpt lat="44.54447836711373" lon="10.41145853038463"><ele>581.0</ele><time>2026-04-04T16:13:50Z</time></trkpt><trkpt lat="44.54455142673557" lon="10.411475316732245"><ele>581.0</ele><time>2026-04-04T16:13:51Z</time></trkpt><trkpt lat="44.544656882626704" lon="10.411472172976456"><ele>581.0</ele><time>2026-04-04T16:13:53Z</time></trkpt><trkpt lat="44.54471936879183" lon="10.411458185966794"><ele>582.0</ele><time>2026-04-04T16:14:10Z</time></trkpt><trkpt lat="44.54485157705057" lon="10.411526096130412"><ele>583.0</ele><time>2026-04-04T16:14:39Z</time></trkpt><trkpt lat="44.54494383232337" lon="10.411579212644247"><ele>584.0</ele><time>2026-04-04T16:14:40Z</time></trkpt><trkpt lat="44.54505315008295" lon="10.41161709773214"><ele>585.0</ele><time>2026-04-04T16:14:41Z</time></trkpt><trkpt lat="44.545167579956576" lon="10.411647459287886"><ele>585.0</ele><time>2026-04-04T16:14:42Z</time></trkpt><trkpt lat="44.545284542077596" lon="10.411658611997185"><ele>585.0</ele><time>2026-04-04T16:14:43Z</time></trkpt><trkpt lat="44.545392048100446" lon="10.411665578556986"><ele>585.0</ele><time>2026-04-04T16:14:44Z</time></trkpt><trkpt lat="44.545489100954946" lon="10.411669761102832"><ele>585.0</ele><time>2026-04-04T16:14:45Z</time></trkpt><trkpt lat="44.5455854094134" lon="10.4116751159848"><ele>585.0</ele><time>2026-04-04T16:14:46Z</time></trkpt><trkpt lat="44.54567759317947" lon="10.411692780545717"><ele>583.5</ele><time>2026-04-04T16:14:47Z</time></trkpt><trkpt lat="44.54576237804704" lon="10.411737017659632"><ele>582.0</ele><time>2026-04-04T16:14:48Z</time></trkpt><trkpt lat="44.54584288094552" lon="10.411795207721008"><ele>580.5</ele><time>2026-04-04T16:14:49Z</time></trkpt><trkpt lat="44.54592343788652" lon="10.411865572822151"><ele>579.0</ele><time>2026-04-04T16:14:50Z</time></trkpt><trkpt lat="44.54601107095421" lon="10.411899320104405"><ele>577.5</ele><time>2026-04-04T16:14:51Z</time></trkpt><trkpt lat="44.54608747358881" lon="10.411906700121207"><ele>576.0</ele><time>2026-04-04T16:14:52Z</time></trkpt><trkpt lat="44.54616448015949" lon="10.411881838529016"><ele>574.8333333333334</ele><time>2026-04-04T16:14:53Z</time></trkpt><trkpt lat="44.54622770120574" lon="10.41180111664127"><ele>573.6666666666666</ele><time>2026-04-04T16:14:54Z</time></trkpt><trkpt lat="44.5462841831449" lon="10.411736136695836"><ele>572.5</ele><time>2026-04-04T16:14:55Z</time></trkpt><trkpt lat="44.546345509814806" lon="10.411652789578573"><ele>571.3333333333333</ele><time>2026-04-04T16:14:56Z</time></trkpt><trkpt lat="44.54642473056076" lon="10.411602718994313"><ele>570.1666666666666</ele><time>2026-04-04T16:14:57Z</time></trkpt><trkpt lat="44.54651395710478" lon="10.411554135822902"><ele>569.0</ele><time>2026-04-04T16:14:58Z</time></trkpt><trkpt lat="44.54660135718316" lon="10.411473333247868"><ele>569.0</ele><time>2026-04-04T16:14:59Z</time></trkpt><trkpt lat="44.54669353512821" lon="10.411412421700128"><ele>569.0</ele><time>2026-04-04T16:15:00Z</time></trkpt><trkpt lat="44.546783283837954" lon="10.411343512077572"><ele>569.0</ele><time>2026-04-04T16:15:01Z</time></trkpt><trkpt lat="44.5468814405211" lon="10.411260644964916"><ele>569.0</ele><time>2026-04-04T16:15:02Z</time></trkpt><trkpt lat="44.5469816258375" lon="10.41119322651272"><ele>569.0</ele><time>2026-04-04T16:15:03Z</time></trkpt><trkpt lat="44.5470730343136" lon="10.41113364010965"><ele>569.1666666666666</ele><time>2026-04-04T16:15:04Z</time></trkpt><trkpt lat="44.54715851127372" lon="10.41108876482037"><ele>569.3333333333333</ele><time>2026-04-04T16:15:05Z</time></trkpt><trkpt lat="44.54724280622946" lon="10.411067708544673"><ele>569.5</ele><time>2026-04-04T16:15:06Z</time></trkpt><trkpt lat="44.547320488984866" lon="10.41106260514414"><ele>569.6666666666666</ele><time>2026-04-04T16:15:07Z</time></trkpt><trkpt lat="44.54739083534675" lon="10.411050370854669"><ele>569.8333333333334</ele><time>2026-04-04T16:15:08Z</time></trkpt><trkpt lat="44.54749892894048" lon="10.411047878148715"><ele>570.0</ele><time>2026-04-04T16:15:10Z</time></trkpt><trkpt lat="44.5476010395602" lon="10.411115818425797"><ele>570.0</ele><time>2026-04-04T16:15:12Z</time></trkpt><trkpt lat="44.54768568175275" lon="10.411118934609568"><ele>570.0</ele><time>2026-04-04T16:15:13Z</time></trkpt><trkpt lat="44.54776733660891" lon="10.411111456215599"><ele>570.0</ele><time>2026-04-04T16:15:14Z</time></trkpt><trkpt lat="44.54790002657291" lon="10.410460447606217"><ele>568.5</ele><time>2026-04-04T16:15:15Z</time></trkpt><trkpt lat="44.54799697867428" lon="10.410319278290375"><ele>567.0</ele><time>2026-04-04T16:15:16Z</time></trkpt><trkpt lat="44.548081612042935" lon="10.410201080529474"><ele>565.5</ele><time>2026-04-04T16:15:17Z</time></trkpt><trkpt lat="44.54815730890989" lon="10.410091644042106"><ele>564.0</ele><time>2026-04-04T16:15:18Z</time></trkpt><trkpt lat="44.54825802435445" lon="10.41000567334094"><ele>564.0</ele><time>2026-04-04T16:15:19Z</time></trkpt><trkpt lat="44.548360952878184" lon="10.409914981674401"><ele>564.0</ele><time>2026-04-04T16:15:20Z</time></trkpt><trkpt lat="44.548469071186645" lon="10.409829335322403"><ele>564.0</ele><time>2026-04-04T16:15:21Z</time></trkpt><trkpt lat="44.54857288637234" lon="10.40976372017931"><ele>564.0</ele><time>2026-04-04T16:15:22Z</time></trkpt><trkpt lat="44.5486734501642" lon="10.409712033489107"><ele>563.25</ele><time>2026-04-04T16:15:23Z</time></trkpt><trkpt lat="44.548791879942094" lon="10.409681953518652"><ele>562.5</ele><time>2026-04-04T16:15:24Z</time></trkpt><trkpt lat="44.54890622457951" lon="10.409649445060841"><ele>561.75</ele><time>2026-04-04T16:15:25Z</time></trkpt><trkpt lat="44.54900979559173" lon="10.409588262735108"><ele>561.0</ele><time>2026-04-04T16:15:26Z</time></trkpt><trkpt lat="44.549113761993056" lon="10.409521080219823"><ele>561.0</ele><time>2026-04-04T16:15:27Z</time></trkpt><trkpt lat="44.54920016365161" lon="10.409493699623088"><ele>561.0</ele><time>2026-04-04T16:15:28Z</time></trkpt><trkpt lat="44.54928715673899" lon="10.409470327215322"><ele>561.0</ele><time>2026-04-04T16:15:29Z</time></trkpt><trkpt lat="44.54935956977665" lon="10.40943764703295"><ele>561.0</ele><time>2026-04-04T16:15:30Z</time></trkpt><trkpt lat="44.54942887043087" lon="10.409375186689157"><ele>561.0</ele><time>2026-04-04T16:15:31Z</time></trkpt><trkpt lat="44.54950323648233" lon="10.40929023235529"><ele>561.0</ele><time>2026-04-04T16:15:32Z</time></trkpt><trkpt lat="44.54957009657222" lon="10.40920192686592"><ele>557.2</ele><time>2026-04-04T16:15:33Z</time></trkpt><trkpt lat="44.54962221393027" lon="10.409122750953546"><ele>553.4000000000001</ele><time>2026-04-04T16:15:34Z</time></trkpt><trkpt lat="44.54971664868504" lon="10.40903137266877"><ele>549.6</ele><time>2026-04-04T16:15:35Z</time></trkpt><trkpt lat="44.54979460659796" lon="10.408923192816737"><ele>545.8000000000001</ele><time>2026-04-04T16:15:36Z</time></trkpt><trkpt lat="44.54987278553883" lon="10.408834797123745"><ele>542.0</ele><time>2026-04-04T16:15:37Z</time></trkpt><trkpt lat="44.54997144918684" lon="10.408782413154931"><ele>542.0</ele><time>2026-04-04T16:15:38Z</time></trkpt><trkpt lat="44.550074464682375" lon="10.408763557134124"><ele>542.0</ele><time>2026-04-04T16:15:39Z</time></trkpt><trkpt lat="44.55015543381562" lon="10.408741531560699"><ele>542.0</ele><time>2026-04-04T16:15:40Z</time></trkpt><trkpt lat="44.550233631771356" lon="10.408686293480796"><ele>542.0</ele><time>2026-04-04T16:15:41Z</time></trkpt><trkpt lat="44.55030327186863" lon="10.408593203560434"><ele>542.0</ele><time>2026-04-04T16:15:42Z</time></trkpt><trkpt lat="44.55038564337" lon="10.40849868148589"><ele>537.25</ele><time>2026-04-04T16:15:43Z</time></trkpt><trkpt lat="44.550505859740696" lon="10.408398914819138"><ele>532.5</ele><time>2026-04-04T16:15:44Z</time></trkpt><trkpt lat="44.55063043999845" lon="10.408275138213616"><ele>527.75</ele><time>2026-04-04T16:15:45Z</time></trkpt><trkpt lat="44.550742964823634" lon="10.408168570572197"><ele>523.0</ele><time>2026-04-04T16:15:46Z</time></trkpt><trkpt lat="44.55083097840535" lon="10.408091814469726"><ele>523.0</ele><time>2026-04-04T16:15:47Z</time></trkpt><trkpt lat="44.550901769900086" lon="10.408016700961014"><ele>523.0</ele><time>2026-04-04T16:15:48Z</time></trkpt><trkpt lat="44.55096530186151" lon="10.408068022975517"><ele>523.0</ele><time>2026-04-04T16:15:50Z</time></trkpt><trkpt lat="44.55096739237255" lon="10.408184552718753"><ele>523.0</ele><time>2026-04-04T16:15:51Z</time></trkpt><trkpt lat="44.55098161668918" lon="10.408276655631425"><ele>523.0</ele><time>2026-04-04T16:15:52Z</time></trkpt><trkpt lat="44.551100971916675" lon="10.408270909180848"><ele>523.0</ele><time>2026-04-04T16:15:54Z</time></trkpt><trkpt lat="44.551176125662806" lon="10.408249427767467"><ele>519.8</ele><time>2026-04-04T16:15:55Z</time></trkpt><trkpt lat="44.551248242767926" lon="10.40822006732194"><ele>516.5999999999999</ele><time>2026-04-04T16:15:56Z</time></trkpt><trkpt lat="44.551342799791605" lon="10.408208333298484"><ele>513.4000000000001</ele><time>2026-04-04T16:15:57Z</time></trkpt><trkpt lat="44.5514336451384" lon="10.408239107259277"><ele>510.20000000000005</ele><time>2026-04-04T16:15:58Z</time></trkpt><trkpt lat="44.55151816871319" lon="10.408316833853856"><ele>507.0</ele><time>2026-04-04T16:15:59Z</time></trkpt><trkpt lat="44.55159311576481" lon="10.408384284077439"><ele>507.0</ele><time>2026-04-04T16:16:00Z</time></trkpt><trkpt lat="44.551656080787545" lon="10.408417664375284"><ele>507.0</ele><time>2026-04-04T16:16:01Z</time></trkpt><trkpt lat="44.55172095100359" lon="10.408406409426593"><ele>507.0</ele><time>2026-04-04T16:16:02Z</time></trkpt><trkpt lat="44.551787500262876" lon="10.408355804931077"><ele>507.0</ele><time>2026-04-04T16:16:03Z</time></trkpt><trkpt lat="44.55186058343318" lon="10.40825751461329"><ele>507.0</ele><time>2026-04-04T16:16:04Z</time></trkpt><trkpt lat="44.55191945865436" lon="10.408179608069593"><ele>507.0</ele><time>2026-04-04T16:16:05Z</time></trkpt><trkpt lat="44.55197523711139" lon="10.408111787226218"><ele>506.0</ele><time>2026-04-04T16:16:06Z</time></trkpt><trkpt lat="44.551989795937985" lon="10.407951608712782"><ele>505.00000000000006</ele><time>2026-04-04T16:16:08Z</time></trkpt><trkpt lat="44.552011507751466" lon="10.407835664260308"><ele>504.00000000000006</ele><time>2026-04-04T16:16:10Z</time></trkpt><trkpt lat="44.55210007910308" lon="10.407880123046448"><ele>503.0</ele><time>2026-04-04T16:16:12Z</time></trkpt><trkpt lat="44.55218567505571" lon="10.407904452451493"><ele>502.0</ele><time>2026-04-04T16:16:13Z</time></trkpt><trkpt lat="44.552253259705196" lon="10.407915617846557"><ele>498.33333333333337</ele><time>2026-04-04T16:16:14Z</time></trkpt><trkpt lat="44.552329947503694" lon="10.407869191556303"><ele>494.6666666666667</ele><time>2026-04-04T16:16:15Z</time></trkpt><trkpt lat="44.55242244668707" lon="10.40784816378793"><ele>491.0</ele><time>2026-04-04T16:16:16Z</time></trkpt><trkpt lat="44.552494059754" lon="10.407854451713016"><ele>487.33333333333337</ele><time>2026-04-04T16:16:17Z</time></trkpt><trkpt lat="44.552564521329465" lon="10.407882006711684"><ele>483.6666666666667</ele><time>2026-04-04T16:16:18Z</time></trkpt><trkpt lat="44.55263437244727" lon="10.407877592805214"><ele>480.0</ele><time>2026-04-04T16:16:19Z</time></trkpt><trkpt lat="44.55270899526994" lon="10.407942226249961"><ele>482.0</ele><time>2026-04-04T16:16:21Z</time></trkpt><trkpt lat="44.55267615802432" lon="10.408099469722194"><ele>484.0</ele><time>2026-04-04T16:16:23Z</time></trkpt><trkpt lat="44.55265412948741" lon="10.408182724988919"><ele>486.0</ele><time>2026-04-04T16:16:24Z</time></trkpt><trkpt lat="44.55264268995131" lon="10.40827556436432"><ele>488.0</ele><time>2026-04-04T16:16:25Z</time></trkpt><trkpt lat="44.552672989697804" lon="10.408369464474216"><ele>490.0</ele><time>2026-04-04T16:16:26Z</time></trkpt><trkpt lat="44.55275071235819" lon="10.408479547210458"><ele>492.0</ele><time>2026-04-04T16:16:28Z</time></trkpt><trkpt lat="44.55281917506682" lon="10.40852320699816"><ele>487.20000000000005</ele><time>2026-04-04T16:16:29Z</time></trkpt><trkpt lat="44.552928641745616" lon="10.408564846370872"><ele>482.40000000000003</ele><time>2026-04-04T16:16:30Z</time></trkpt><trkpt lat="44.553004155323514" lon="10.408621253152415"><ele>477.59999999999997</ele><time>2026-04-04T16:16:31Z</time></trkpt><trkpt lat="44.55308513976946" lon="10.408682937959854"><ele>472.79999999999995</ele><time>2026-04-04T16:16:32Z</time></trkpt><trkpt lat="44.553178177719545" lon="10.408713529686434"><ele>468.0</ele><time>2026-04-04T16:16:33Z</time></trkpt><trkpt lat="44.55323701636633" lon="10.40875301434251"><ele>466.79999999999995</ele><time>2026-04-04T16:16:34Z</time></trkpt><trkpt lat="44.553320283591596" lon="10.408862693367414"><ele>465.59999999999997</ele><time>2026-04-04T16:16:36Z</time></trkpt><trkpt lat="44.55335891895716" lon="10.408951312946165"><ele>464.40000000000003</ele><time>2026-04-04T16:16:37Z</time></trkpt><trkpt lat="44.55339416447574" lon="10.409073096724848"><ele>463.20000000000005</ele><time>2026-04-04T16:16:39Z</time></trkpt><trkpt lat="44.55335975249956" lon="10.409279214943995"><ele>462.0</ele><time>2026-04-04T16:16:41Z</time></trkpt><trkpt lat="44.55334420876481" lon="10.409375675197708"><ele>462.0</ele><time>2026-04-04T16:16:42Z</time></trkpt><trkpt lat="44.55335763937727" lon="10.409468564695196"><ele>462.00000000000006</ele><time>2026-04-04T16:16:43Z</time></trkpt><trkpt lat="44.55342916221374" lon="10.40954873308972"><ele>462.00000000000006</ele><time>2026-04-04T16:16:45Z</time></trkpt><trkpt lat="44.55339892009597" lon="10.409655139460096"><ele>462.0</ele><time>2026-04-04T16:16:48Z</time></trkpt><trkpt lat="44.55335917698302" lon="10.409786151459164"><ele>462.0</ele><time>2026-04-04T16:16:51Z</time></trkpt><trkpt lat="44.55308507213213" lon="10.41019467816806"><ele>460.0</ele><time>2026-04-04T16:16:54Z</time></trkpt><trkpt lat="44.5530421084978" lon="10.410304255288095"><ele>458.0</ele><time>2026-04-04T16:16:55Z</time></trkpt><trkpt lat="44.553003484038015" lon="10.410419487140228"><ele>456.0</ele><time>2026-04-04T16:16:56Z</time></trkpt><trkpt lat="44.55297002464394" lon="10.41054692295028"><ele>454.0</ele><time>2026-04-04T16:16:57Z</time></trkpt><trkpt lat="44.55294652133856" lon="10.410643718163907"><ele>452.0</ele><time>2026-04-04T16:16:58Z</time></trkpt><trkpt lat="44.5529360249043" lon="10.410743314739127"><ele>450.0</ele><time>2026-04-04T16:16:59Z</time></trkpt><trkpt lat="44.55302521610635" lon="10.41081948615266"><ele>449.0</ele><time>2026-04-04T16:17:01Z</time></trkpt><trkpt lat="44.55310896107758" lon="10.410895323467074"><ele>448.0</ele><time>2026-04-04T16:17:02Z</time></trkpt><trkpt lat="44.55322017536319" lon="10.410979076656034"><ele>447.0</ele><time>2026-04-04T16:17:03Z</time></trkpt><trkpt lat="44.55332307491043" lon="10.411045938063781"><ele>446.0</ele><time>2026-04-04T16:17:04Z</time></trkpt><trkpt lat="44.55343813524852" lon="10.411136630563263"><ele>446.0</ele><time>2026-04-04T16:17:05Z</time></trkpt><trkpt lat="44.55352989078402" lon="10.411220450008457"><ele>446.0</ele><time>2026-04-04T16:17:06Z</time></trkpt><trkpt lat="44.55360079478551" lon="10.411284783079092"><ele>446.0</ele><time>2026-04-04T16:17:07Z</time></trkpt><trkpt lat="44.553610204911806" lon="10.411407431068655"><ele>446.0</ele><time>2026-04-04T16:17:09Z</time></trkpt><trkpt lat="44.55356667760637" lon="10.411496931725651"><ele>446.0</ele><time>2026-04-04T16:17:10Z</time></trkpt><trkpt lat="44.55348852454283" lon="10.411597906140223"><ele>446.66666666666663</ele><time>2026-04-04T16:17:11Z</time></trkpt><trkpt lat="44.553412224377574" lon="10.411778364493442"><ele>447.33333333333337</ele><time>2026-04-04T16:17:12Z</time></trkpt><trkpt lat="44.55339317849292" lon="10.412004047111173"><ele>448.0</ele><time>2026-04-04T16:17:13Z</time></trkpt><trkpt lat="44.55340678554647" lon="10.412202345885138"><ele>448.0</ele><time>2026-04-04T16:17:14Z</time></trkpt><trkpt lat="44.553447734636926" lon="10.412381520817984"><ele>448.0</ele><time>2026-04-04T16:17:15Z</time></trkpt><trkpt lat="44.553515154221444" lon="10.412608810913627"><ele>448.0</ele><time>2026-04-04T16:17:16Z</time></trkpt><trkpt lat="44.55355659222701" lon="10.41278820514246"><ele>448.0</ele><time>2026-04-04T16:17:17Z</time></trkpt><trkpt lat="44.55359295615474" lon="10.412945650481577"><ele>448.59999999999997</ele><time>2026-04-04T16:17:18Z</time></trkpt><trkpt lat="44.55364763272228" lon="10.413088175708802"><ele>449.19999999999993</ele><time>2026-04-04T16:17:19Z</time></trkpt><trkpt lat="44.55371075397706" lon="10.413220499861106"><ele>449.8</ele><time>2026-04-04T16:17:20Z</time></trkpt><trkpt lat="44.553781367493684" lon="10.413324523153952"><ele>450.4</ele><time>2026-04-04T16:17:21Z</time></trkpt><trkpt lat="44.55383760526983" lon="10.413388844468235"><ele>451.0</ele><time>2026-04-04T16:17:22Z</time></trkpt><trkpt lat="44.5538801273376" lon="10.413455825204688"><ele>451.0</ele><time>2026-04-04T16:17:23Z</time></trkpt><trkpt lat="44.55385777780882" lon="10.413673436484167"><ele>451.0</ele><time>2026-04-04T16:17:25Z</time></trkpt><trkpt lat="44.55386799558067" lon="10.413778323065973"><ele>451.0</ele><time>2026-04-04T16:17:26Z</time></trkpt><trkpt lat="44.55391346782194" lon="10.413845960781881"><ele>451.0</ele><time>2026-04-04T16:17:27Z</time></trkpt><trkpt lat="44.55396965668522" lon="10.413916870473047"><ele>451.0</ele><time>2026-04-04T16:17:28Z</time></trkpt><trkpt lat="44.5539122381719" lon="10.414001084679237"><ele>451.75</ele><time>2026-04-04T16:17:30Z</time></trkpt><trkpt lat="44.5538468775613" lon="10.41406414300147"><ele>452.5</ele><time>2026-04-04T16:17:31Z</time></trkpt><trkpt lat="44.553752358637624" lon="10.414200579047055"><ele>453.25</ele><time>2026-04-04T16:17:32Z</time></trkpt><trkpt lat="44.55362715400668" lon="10.414338614417279"><ele>454.0</ele><time>2026-04-04T16:17:33Z</time></trkpt><trkpt lat="44.55358111374293" lon="10.41444772742933"><ele>457.6</ele><time>2026-04-04T16:17:34Z</time></trkpt><trkpt lat="44.553540995606035" lon="10.414578405640764"><ele>461.2</ele><time>2026-04-04T16:17:35Z</time></trkpt><trkpt lat="44.553525022533854" lon="10.414710288317558"><ele>464.80000000000007</ele><time>2026-04-04T16:17:36Z</time></trkpt><trkpt lat="44.55352709040708" lon="10.4148460925874"><ele>468.40000000000003</ele><time>2026-04-04T16:17:37Z</time></trkpt><trkpt lat="44.5535315037837" lon="10.41502239995609"><ele>472.0</ele><time>2026-04-04T16:17:38Z</time></trkpt><trkpt lat="44.553541435392624" lon="10.415201575871178"><ele>472.00000000000006</ele><time>2026-04-04T16:17:39Z</time></trkpt><trkpt lat="44.55352666126678" lon="10.415345327577286"><ele>472.0</ele><time>2026-04-04T16:17:40Z</time></trkpt><trkpt lat="44.553510129431245" lon="10.415484493063735"><ele>472.0</ele><time>2026-04-04T16:17:41Z</time></trkpt><trkpt lat="44.55349054714202" lon="10.415610436642144"><ele>472.0</ele><time>2026-04-04T16:17:42Z</time></trkpt><trkpt lat="44.55347067885772" lon="10.415714238776316"><ele>472.00000000000006</ele><time>2026-04-04T16:17:43Z</time></trkpt><trkpt lat="44.55344383779912" lon="10.415815150265509"><ele>472.0</ele><time>2026-04-04T16:17:44Z</time></trkpt><trkpt lat="44.55341184429187" lon="10.415920603421648"><ele>471.50000000000006</ele><time>2026-04-04T16:17:45Z</time></trkpt><trkpt lat="44.55336374939794" lon="10.416040309495116"><ele>471.0</ele><time>2026-04-04T16:17:46Z</time></trkpt><trkpt lat="44.55330343938278" lon="10.416144051703828"><ele>470.5</ele><time>2026-04-04T16:17:47Z</time></trkpt><trkpt lat="44.55324208481248" lon="10.416222161071902"><ele>470.0</ele><time>2026-04-04T16:17:48Z</time></trkpt><trkpt lat="44.55319536800852" lon="10.416311219492668"><ele>469.50000000000006</ele><time>2026-04-04T16:17:49Z</time></trkpt><trkpt lat="44.55314331007133" lon="10.416418008270858"><ele>469.0</ele><time>2026-04-04T16:17:50Z</time></trkpt><trkpt lat="44.553079794826544" lon="10.416496313626494"><ele>469.2857142857143</ele><time>2026-04-04T16:17:51Z</time></trkpt><trkpt lat="44.55303133647046" lon="10.416580180055606"><ele>469.57142857142856</ele><time>2026-04-04T16:17:52Z</time></trkpt><trkpt lat="44.552990043477756" lon="10.41664964311406"><ele>469.8571428571429</ele><time>2026-04-04T16:17:53Z</time></trkpt><trkpt lat="44.552948770605234" lon="10.416717969486678"><ele>470.14285714285717</ele><time>2026-04-04T16:17:54Z</time></trkpt><trkpt lat="44.55291161175232" lon="10.416795307059427"><ele>470.42857142857144</ele><time>2026-04-04T16:17:55Z</time></trkpt><trkpt lat="44.55285684935673" lon="10.416869042923187"><ele>470.7142857142858</ele><time>2026-04-04T16:17:56Z</time></trkpt><trkpt lat="44.552818561065216" lon="10.416952570015063"><ele>471.00000000000006</ele><time>2026-04-04T16:17:57Z</time></trkpt><trkpt lat="44.55279984338718" lon="10.417053853142937"><ele>469.8333333333333</ele><time>2026-04-04T16:17:58Z</time></trkpt><trkpt lat="44.55279396965605" lon="10.417162815161612"><ele>468.66666666666663</ele><time>2026-04-04T16:17:59Z</time></trkpt><trkpt lat="44.552761226392086" lon="10.417258250580486"><ele>467.5</ele><time>2026-04-04T16:18:00Z</time></trkpt><trkpt lat="44.55273175329487" lon="10.417363533090144"><ele>466.3333333333333</ele><time>2026-04-04T16:18:01Z</time></trkpt><trkpt lat="44.55269149894805" lon="10.41745084399378"><ele>465.16666666666663</ele><time>2026-04-04T16:18:02Z</time></trkpt><trkpt lat="44.552659614576285" lon="10.417544553870101"><ele>464.0</ele><time>2026-04-04T16:18:03Z</time></trkpt><trkpt lat="44.552611694450604" lon="10.417619735117395"><ele>464.00000000000006</ele><time>2026-04-04T16:18:04Z</time></trkpt><trkpt lat="44.552567402910164" lon="10.417694071544354"><ele>464.0</ele><time>2026-04-04T16:18:05Z</time></trkpt><trkpt lat="44.552515998321034" lon="10.417781420427092"><ele>464.00000000000006</ele><time>2026-04-04T16:18:06Z</time></trkpt><trkpt lat="44.55246135739214" lon="10.417862300099411"><ele>464.00000000000006</ele><time>2026-04-04T16:18:07Z</time></trkpt><trkpt lat="44.552405208106876" lon="10.417934159088075"><ele>464.0</ele><time>2026-04-04T16:18:08Z</time></trkpt><trkpt lat="44.55235287093161" lon="10.418003988255267"><ele>464.00000000000006</ele><time>2026-04-04T16:18:09Z</time></trkpt><trkpt lat="44.55232421783248" lon="10.41808294881101"><ele>464.00000000000006</ele><time>2026-04-04T16:18:10Z</time></trkpt><trkpt lat="44.55235794747304" lon="10.418237925100552"><ele>464.0</ele><time>2026-04-04T16:18:12Z</time></trkpt><trkpt lat="44.552417494230646" lon="10.418301035438612"><ele>464.0</ele><time>2026-04-04T16:18:13Z</time></trkpt><trkpt lat="44.55247479068198" lon="10.418386883682336"><ele>464.0</ele><time>2026-04-04T16:18:14Z</time></trkpt><trkpt lat="44.5525461960625" lon="10.418468611333308"><ele>464.0</ele><time>2026-04-04T16:18:15Z</time></trkpt><trkpt lat="44.5526286986108" lon="10.418563040328364"><ele>464.0</ele><time>2026-04-04T16:18:16Z</time></trkpt><trkpt lat="44.55271093221846" lon="10.418657161558913"><ele>464.0</ele><time>2026-04-04T16:18:17Z</time></trkpt><trkpt lat="44.55279123830838" lon="10.418750994919584"><ele>464.0</ele><time>2026-04-04T16:18:18Z</time></trkpt><trkpt lat="44.552874891752865" lon="10.418851892842795"><ele>464.0</ele><time>2026-04-04T16:18:19Z</time></trkpt><trkpt lat="44.552966731207505" lon="10.418945055906644"><ele>464.0</ele><time>2026-04-04T16:18:20Z</time></trkpt><trkpt lat="44.553034435838086" lon="10.419040486732621"><ele>464.0</ele><time>2026-04-04T16:18:21Z</time></trkpt><trkpt lat="44.55308949701582" lon="10.419125426274515"><ele>463.7142857142858</ele><time>2026-04-04T16:18:22Z</time></trkpt><trkpt lat="44.55313577083149" lon="10.419200950201283"><ele>463.42857142857144</ele><time>2026-04-04T16:18:23Z</time></trkpt><trkpt lat="44.553171641840265" lon="10.41927491552102"><ele>463.14285714285717</ele><time>2026-04-04T16:18:24Z</time></trkpt><trkpt lat="44.55319686915142" lon="10.419358574194773"><ele>462.8571428571429</ele><time>2026-04-04T16:18:25Z</time></trkpt><trkpt lat="44.553215912714066" lon="10.419460913538105"><ele>462.57142857142856</ele><time>2026-04-04T16:18:26Z</time></trkpt><trkpt lat="44.553228270723146" lon="10.419574176073134"><ele>462.2857142857143</ele><time>2026-04-04T16:18:27Z</time></trkpt><trkpt lat="44.55323902038426" lon="10.419670372230312"><ele>462.0</ele><time>2026-04-04T16:18:28Z</time></trkpt><trkpt lat="44.553254752460354" lon="10.419819846883131"><ele>462.6666666666667</ele><time>2026-04-04T16:18:30Z</time></trkpt><trkpt lat="44.55326448401302" lon="10.419913186415231"><ele>463.33333333333337</ele><time>2026-04-04T16:18:32Z</time></trkpt><trkpt lat="44.55342755160764" lon="10.4198987217185"><ele>464.0</ele><time>2026-04-04T16:18:36Z</time></trkpt><trkpt lat="44.553496317358096" lon="10.419850968742548"><ele>464.6666666666667</ele><time>2026-04-04T16:18:37Z</time></trkpt><trkpt lat="44.55356337167955" lon="10.419804058231522"><ele>465.33333333333337</ele><time>2026-04-04T16:18:38Z</time></trkpt><trkpt lat="44.553624579371956" lon="10.419767579517242"><ele>466.0</ele><time>2026-04-04T16:18:39Z</time></trkpt><trkpt lat="44.55368481986552" lon="10.41973969903806"><ele>464.5</ele><time>2026-04-04T16:18:40Z</time></trkpt><trkpt lat="44.55376592827734" lon="10.419692909654351"><ele>463.0</ele><time>2026-04-04T16:18:41Z</time></trkpt><trkpt lat="44.55387470217809" lon="10.419632610127545"><ele>461.5</ele><time>2026-04-04T16:18:42Z</time></trkpt><trkpt lat="44.554000892177925" lon="10.41955169342306"><ele>460.0</ele><time>2026-04-04T16:18:43Z</time></trkpt><trkpt lat="44.554144140874655" lon="10.419455794962277"><ele>458.6666666666667</ele><time>2026-04-04T16:18:44Z</time></trkpt><trkpt lat="44.55430288440296" lon="10.419359847425174"><ele>457.33333333333337</ele><time>2026-04-04T16:18:45Z</time></trkpt><trkpt lat="44.55444945751212" lon="10.419269337552635"><ele>456.0</ele><time>2026-04-04T16:18:46Z</time></trkpt><trkpt lat="44.55458345446435" lon="10.419188810261456"><ele>455.0</ele><time>2026-04-04T16:18:47Z</time></trkpt><trkpt lat="44.55472460477116" lon="10.419094612833742"><ele>454.0</ele><time>2026-04-04T16:18:48Z</time></trkpt><trkpt lat="44.55487122615215" lon="10.419010424343304"><ele>453.0</ele><time>2026-04-04T16:18:49Z</time></trkpt><trkpt lat="44.55502422869949" lon="10.418941693667671"><ele>453.0</ele><time>2026-04-04T16:18:50Z</time></trkpt><trkpt lat="44.555184187111166" lon="10.418902774596466"><ele>453.0</ele><time>2026-04-04T16:18:51Z</time></trkpt><trkpt lat="44.55536334016949" lon="10.41888227908247"><ele>453.0</ele><time>2026-04-04T16:18:52Z</time></trkpt><trkpt lat="44.55554874144327" lon="10.418876018375208"><ele>451.66666666666663</ele><time>2026-04-04T16:18:53Z</time></trkpt><trkpt lat="44.555734064136246" lon="10.418869209388287"><ele>450.3333333333333</ele><time>2026-04-04T16:18:54Z</time></trkpt><trkpt lat="44.5559213880987" lon="10.418853643052332"><ele>449.0</ele><time>2026-04-04T16:18:55Z</time></trkpt><trkpt lat="44.55610091868083" lon="10.418836695778252"><ele>448.66666666666663</ele><time>2026-04-04T16:18:56Z</time></trkpt><trkpt lat="44.556258498563636" lon="10.418827632744396"><ele>448.33333333333337</ele><time>2026-04-04T16:18:57Z</time></trkpt><trkpt lat="44.55641505766329" lon="10.418821642838717"><ele>448.0</ele><time>2026-04-04T16:18:58Z</time></trkpt><trkpt lat="44.55657533090837" lon="10.418818839666045"><ele>448.0</ele><time>2026-04-04T16:18:59Z</time></trkpt><trkpt lat="44.55674170124051" lon="10.41881722585194"><ele>448.0</ele><time>2026-04-04T16:19:00Z</time></trkpt><trkpt lat="44.5569097327343" lon="10.418820320282599"><ele>448.0</ele><time>2026-04-04T16:19:01Z</time></trkpt><trkpt lat="44.55708229533304" lon="10.41883063452615"><ele>448.5</ele><time>2026-04-04T16:19:02Z</time></trkpt><trkpt lat="44.55724815465073" lon="10.418850158959339"><ele>449.0</ele><time>2026-04-04T16:19:03Z</time></trkpt><trkpt lat="44.55738819818133" lon="10.418895767145465"><ele>449.5</ele><time>2026-04-04T16:19:04Z</time></trkpt><trkpt lat="44.55751681415388" lon="10.418963177536288"><ele>450.0</ele><time>2026-04-04T16:19:05Z</time></trkpt><trkpt lat="44.55763612328652" lon="10.419055986035513"><ele>450.0</ele><time>2026-04-04T16:19:06Z</time></trkpt><trkpt lat="44.5577508442569" lon="10.41915919404528"><ele>450.0</ele><time>2026-04-04T16:19:07Z</time></trkpt><trkpt lat="44.557863974593985" lon="10.41925124762367"><ele>450.0</ele><time>2026-04-04T16:19:08Z</time></trkpt><trkpt lat="44.55797124789034" lon="10.419326118663347"><ele>450.0</ele><time>2026-04-04T16:19:09Z</time></trkpt><trkpt lat="44.55807461811139" lon="10.419397342594044"><ele>450.25</ele><time>2026-04-04T16:19:10Z</time></trkpt><trkpt lat="44.55818093486882" lon="10.41946324691483"><ele>450.5</ele><time>2026-04-04T16:19:11Z</time></trkpt><trkpt lat="44.55830194510775" lon="10.41950552322319"><ele>450.75</ele><time>2026-04-04T16:19:12Z</time></trkpt><trkpt lat="44.55844041037941" lon="10.419522246998072"><ele>451.0</ele><time>2026-04-04T16:19:13Z</time></trkpt><trkpt lat="44.55858267658982" lon="10.419512917772437"><ele>449.33333333333337</ele><time>2026-04-04T16:19:14Z</time></trkpt><trkpt lat="44.55873025257984" lon="10.419485001536898"><ele>447.66666666666663</ele><time>2026-04-04T16:19:15Z</time></trkpt><trkpt lat="44.55888205417733" lon="10.419458753245745"><ele>446.0</ele><time>2026-04-04T16:19:16Z</time></trkpt><trkpt lat="44.55904004698076" lon="10.419445461418048"><ele>446.0</ele><time>2026-04-04T16:19:17Z</time></trkpt><trkpt lat="44.559200699515074" lon="10.419426426618443"><ele>446.0</ele><time>2026-04-04T16:19:17.999Z</time></trkpt><trkpt lat="44.55935050504366" lon="10.419407189929112"><ele>446.0</ele><time>2026-04-04T16:19:18.999Z</time></trkpt><trkpt lat="44.559494432294834" lon="10.419385495631847"><ele>445.25</ele><time>2026-04-04T16:19:19.999Z</time></trkpt><trkpt lat="44.55963928471623" lon="10.419366332345154"><ele>444.5</ele><time>2026-04-04T16:19:21Z</time></trkpt><trkpt lat="44.55977921687607" lon="10.419358802750033"><ele>443.75</ele><time>2026-04-04T16:19:22Z</time></trkpt><trkpt lat="44.55992006706892" lon="10.419376736076948"><ele>443.0</ele><time>2026-04-04T16:19:23Z</time></trkpt><trkpt lat="44.560053253637825" lon="10.419415007119289"><ele>443.0</ele><time>2026-04-04T16:19:24Z</time></trkpt><trkpt lat="44.56017361743524" lon="10.419480358655173"><ele>443.0</ele><time>2026-04-04T16:19:25Z</time></trkpt><trkpt lat="44.56028649618344" lon="10.419572190723597"><ele>443.0</ele><time>2026-04-04T16:19:26Z</time></trkpt><trkpt lat="44.56039562249241" lon="10.41968662074368"><ele>443.0</ele><time>2026-04-04T16:19:27Z</time></trkpt><trkpt lat="44.56050980891035" lon="10.419794660374741"><ele>442.0</ele><time>2026-04-04T16:19:28Z</time></trkpt><trkpt lat="44.56063360929431" lon="10.419863376887657"><ele>441.0</ele><time>2026-04-04T16:19:29Z</time></trkpt><trkpt lat="44.56073822364203" lon="10.419921836527575"><ele>440.0</ele><time>2026-04-04T16:19:30Z</time></trkpt><trkpt lat="44.5608538514008" lon="10.4199375367658"><ele>439.0</ele><time>2026-04-04T16:19:31Z</time></trkpt><trkpt lat="44.56096673811278" lon="10.419927751069324"><ele>439.0</ele><time>2026-04-04T16:19:32Z</time></trkpt><trkpt lat="44.561074861941115" lon="10.419898465855942"><ele>439.0</ele><time>2026-04-04T16:19:33Z</time></trkpt><trkpt lat="44.561176895330355" lon="10.419840573335838"><ele>439.0</ele><time>2026-04-04T16:19:34Z</time></trkpt><trkpt lat="44.56129573892104" lon="10.41975091292643"><ele>439.0</ele><time>2026-04-04T16:19:35Z</time></trkpt><trkpt lat="44.56142656654582" lon="10.419649117170298"><ele>437.75</ele><time>2026-04-04T16:19:36Z</time></trkpt><trkpt lat="44.561569526241655" lon="10.419548193307607"><ele>436.5</ele><time>2026-04-04T16:19:37Z</time></trkpt><trkpt lat="44.561706611609075" lon="10.419464990770567"><ele>435.25</ele><time>2026-04-04T16:19:38Z</time></trkpt><trkpt lat="44.561836119111504" lon="10.419391253020832"><ele>434.0</ele><time>2026-04-04T16:19:39Z</time></trkpt><trkpt lat="44.561957171190386" lon="10.419333658111864"><ele>432.75</ele><time>2026-04-04T16:19:40Z</time></trkpt><trkpt lat="44.56209734882633" lon="10.41928763081121"><ele>431.5</ele><time>2026-04-04T16:19:41Z</time></trkpt><trkpt lat="44.562241086571746" lon="10.419254561299043"><ele>430.25</ele><time>2026-04-04T16:19:42Z</time></trkpt><trkpt lat="44.56238478455587" lon="10.419231592917873"><ele>429.0</ele><time>2026-04-04T16:19:43Z</time></trkpt><trkpt lat="44.562519189053575" lon="10.419218506080407"><ele>429.0</ele><time>2026-04-04T16:19:44Z</time></trkpt><trkpt lat="44.5626600011363" lon="10.419235976575141"><ele>429.0</ele><time>2026-04-04T16:19:45Z</time></trkpt><trkpt lat="44.56280466578727" lon="10.419270084026632"><ele>429.0</ele><time>2026-04-04T16:19:46Z</time></trkpt><trkpt lat="44.562951069565315" lon="10.41931310568828"><ele>429.0</ele><time>2026-04-04T16:19:47Z</time></trkpt><trkpt lat="44.56308968847744" lon="10.419373309150084"><ele>427.0</ele><time>2026-04-04T16:19:48Z</time></trkpt><trkpt lat="44.56323505085853" lon="10.419446826765864"><ele>425.0</ele><time>2026-04-04T16:19:49Z</time></trkpt><trkpt lat="44.563378603516384" lon="10.419520345677496"><ele>423.0</ele><time>2026-04-04T16:19:50Z</time></trkpt><trkpt lat="44.563515945228446" lon="10.41959102862051"><ele>423.0</ele><time>2026-04-04T16:19:51Z</time></trkpt><trkpt lat="44.563641572940604" lon="10.419647607245787"><ele>423.0</ele><time>2026-04-04T16:19:52Z</time></trkpt><trkpt lat="44.56376330649751" lon="10.419687223599706"><ele>423.0</ele><time>2026-04-04T16:19:53Z</time></trkpt><trkpt lat="44.56389079693326" lon="10.419700153098534"><ele>423.0</ele><time>2026-04-04T16:19:54Z</time></trkpt><trkpt lat="44.564024080002014" lon="10.4196790682962"><ele>421.66666666666663</ele><time>2026-04-04T16:19:55Z</time></trkpt><trkpt lat="44.56416880203058" lon="10.419635810479246"><ele>420.3333333333333</ele><time>2026-04-04T16:19:56Z</time></trkpt><trkpt lat="44.56432193960919" lon="10.41958313756343"><ele>419.0</ele><time>2026-04-04T16:19:57Z</time></trkpt><trkpt lat="44.564484444887945" lon="10.419527621523171"><ele>419.0</ele><time>2026-04-04T16:19:58Z</time></trkpt><trkpt lat="44.56465376381123" lon="10.419466644364277"><ele>419.0</ele><time>2026-04-04T16:19:59Z</time></trkpt><trkpt lat="44.56480527713716" lon="10.41940914321307"><ele>419.0</ele><time>2026-04-04T16:20:00Z</time></trkpt><trkpt lat="44.56494704353492" lon="10.419359834076444"><ele>419.0</ele><time>2026-04-04T16:20:01Z</time></trkpt><trkpt lat="44.56509401931789" lon="10.419329313924093"><ele>419.0</ele><time>2026-04-04T16:20:02Z</time></trkpt><trkpt lat="44.56524488876091" lon="10.419318647887769"><ele>419.0</ele><time>2026-04-04T16:20:03Z</time></trkpt><trkpt lat="44.56539575177882" lon="10.419309823458828"><ele>419.0</ele><time>2026-04-04T16:20:04Z</time></trkpt><trkpt lat="44.56554752790883" lon="10.419304814948491"><ele>419.0</ele><time>2026-04-04T16:20:05Z</time></trkpt><trkpt lat="44.56569044728525" lon="10.419303588227109"><ele>419.0</ele><time>2026-04-04T16:20:06Z</time></trkpt><trkpt lat="44.565819401036364" lon="10.419302323913884"><ele>419.0</ele><time>2026-04-04T16:20:07Z</time></trkpt><trkpt lat="44.565942088757176" lon="10.419297717035622"><ele>419.0</ele><time>2026-04-04T16:20:08Z</time></trkpt><trkpt lat="44.56605593281788" lon="10.41929135534373"><ele>419.0</ele><time>2026-04-04T16:20:09Z</time></trkpt><trkpt lat="44.566166481455056" lon="10.419289134371475"><ele>419.0</ele><time>2026-04-04T16:20:10Z</time></trkpt><trkpt lat="44.56626741158032" lon="10.419287456528233"><ele>419.0</ele><time>2026-04-04T16:20:11Z</time></trkpt><trkpt lat="44.56636466604029" lon="10.419284453390624"><ele>419.0</ele><time>2026-04-04T16:20:12Z</time></trkpt><trkpt lat="44.56645548692635" lon="10.419279724423602"><ele>418.99999999999994</ele><time>2026-04-04T16:20:13Z</time></trkpt><trkpt lat="44.56654029678569" lon="10.419275186122832"><ele>419.0</ele><time>2026-04-04T16:20:14Z</time></trkpt><trkpt lat="44.56662169190865" lon="10.419271898896474"><ele>419.0</ele><time>2026-04-04T16:20:15Z</time></trkpt><trkpt lat="44.566700926462445" lon="10.419271932482856"><ele>419.0</ele><time>2026-04-04T16:20:16Z</time></trkpt><trkpt lat="44.56677821584027" lon="10.41926867626689"><ele>418.99999999999994</ele><time>2026-04-04T16:20:17Z</time></trkpt><trkpt lat="44.56685075059219" lon="10.419242135311071"><ele>419.0</ele><time>2026-04-04T16:20:18Z</time></trkpt><trkpt lat="44.56691793883551" lon="10.419208314169419"><ele>419.0</ele><time>2026-04-04T16:20:19Z</time></trkpt><trkpt lat="44.56702606634543" lon="10.419219019918334"><ele>419.0</ele><time>2026-04-04T16:20:21Z</time></trkpt><trkpt lat="44.56707862529568" lon="10.41938427110827"><ele>419.0</ele><time>2026-04-04T16:20:23Z</time></trkpt><trkpt lat="44.56706378301709" lon="10.419500308090983"><ele>419.0</ele><time>2026-04-04T16:20:24Z</time></trkpt><trkpt lat="44.567027003556284" lon="10.419622348704662"><ele>419.0</ele><time>2026-04-04T16:20:25Z</time></trkpt><trkpt lat="44.56697446104112" lon="10.419758622179426"><ele>418.0</ele><time>2026-04-04T16:20:26Z</time></trkpt><trkpt lat="44.56693691069702" lon="10.419882610371062"><ele>417.0</ele><time>2026-04-04T16:20:27Z</time></trkpt><trkpt lat="44.56692356917384" lon="10.420012796952594"><ele>416.0</ele><time>2026-04-04T16:20:28Z</time></trkpt><trkpt lat="44.56692029264591" lon="10.420165876203429"><ele>415.0</ele><time>2026-04-04T16:20:29Z</time></trkpt><trkpt lat="44.56692368483236" lon="10.42032938125796"><ele>414.0</ele><time>2026-04-04T16:20:30Z</time></trkpt><trkpt lat="44.5669262299414" lon="10.420494983858339"><ele>413.4</ele><time>2026-04-04T16:20:31Z</time></trkpt><trkpt lat="44.56694335405358" lon="10.420643554845151"><ele>412.79999999999995</ele><time>2026-04-04T16:20:32Z</time></trkpt><trkpt lat="44.566984174220664" lon="10.420775515991277"><ele>412.20000000000005</ele><time>2026-04-04T16:20:33Z</time></trkpt><trkpt lat="44.56704312714019" lon="10.42088495964802"><ele>411.6</ele><time>2026-04-04T16:20:34Z</time></trkpt><trkpt lat="44.567123954906" lon="10.420972726819"><ele>411.0</ele><time>2026-04-04T16:20:35Z</time></trkpt><trkpt lat="44.56722768631809" lon="10.42104934632407"><ele>410.0</ele><time>2026-04-04T16:20:36Z</time></trkpt><trkpt lat="44.56732731244373" lon="10.421125709770935"><ele>409.0</ele><time>2026-04-04T16:20:37Z</time></trkpt><trkpt lat="44.56741846379787" lon="10.421204683594492"><ele>408.0</ele><time>2026-04-04T16:20:38Z</time></trkpt><trkpt lat="44.567505043946475" lon="10.42128033342572"><ele>407.0</ele><time>2026-04-04T16:20:39Z</time></trkpt><trkpt lat="44.56758002845865" lon="10.421354485065581"><ele>406.0</ele><time>2026-04-04T16:20:40Z</time></trkpt><trkpt lat="44.56762489029964" lon="10.421433533289642"><ele>405.8</ele><time>2026-04-04T16:20:41Z</time></trkpt><trkpt lat="44.56762616635761" lon="10.42160088967283"><ele>405.6</ele><time>2026-04-04T16:20:43Z</time></trkpt><trkpt lat="44.567586551107446" lon="10.42170115094758"><ele>405.4</ele><time>2026-04-04T16:20:44Z</time></trkpt><trkpt lat="44.56753755476283" lon="10.421805315753552"><ele>405.2</ele><time>2026-04-04T16:20:45Z</time></trkpt><trkpt lat="44.567491619936945" lon="10.421928967188395"><ele>405.0</ele><time>2026-04-04T16:20:46Z</time></trkpt><trkpt lat="44.56743984673659" lon="10.422061589530102"><ele>404.4</ele><time>2026-04-04T16:20:47Z</time></trkpt><trkpt lat="44.567392787150595" lon="10.422175451390839"><ele>403.8</ele><time>2026-04-04T16:20:48Z</time></trkpt><trkpt lat="44.567350415958934" lon="10.422297556820812"><ele>403.20000000000005</ele><time>2026-04-04T16:20:49Z</time></trkpt><trkpt lat="44.56732662218308" lon="10.42241452175217"><ele>402.6</ele><time>2026-04-04T16:20:50Z</time></trkpt><trkpt lat="44.5673081704727" lon="10.422530721098836"><ele>402.0</ele><time>2026-04-04T16:20:51Z</time></trkpt><trkpt lat="44.567285839386955" lon="10.422656558557271"><ele>402.0</ele><time>2026-04-04T16:20:52Z</time></trkpt><trkpt lat="44.5672702255463" lon="10.422781599869207"><ele>402.0</ele><time>2026-04-04T16:20:53Z</time></trkpt><trkpt lat="44.567258911243094" lon="10.422902757345886"><ele>402.0</ele><time>2026-04-04T16:20:54Z</time></trkpt><trkpt lat="44.56723941199464" lon="10.423002633269013"><ele>402.0</ele><time>2026-04-04T16:20:55Z</time></trkpt><trkpt lat="44.567207103773946" lon="10.423080074685828"><ele>402.0</ele><time>2026-04-04T16:20:56Z</time></trkpt><trkpt lat="44.56719029535756" lon="10.423180311405648"><ele>402.0</ele><time>2026-04-04T16:20:58Z</time></trkpt><trkpt lat="44.56685964475342" lon="10.423299521918544"><ele>402.6</ele><time>2026-04-04T16:21:00Z</time></trkpt><trkpt lat="44.56677498673951" lon="10.423386874080695"><ele>403.20000000000005</ele><time>2026-04-04T16:21:01Z</time></trkpt><trkpt lat="44.56672432287253" lon="10.42347935668305"><ele>403.8</ele><time>2026-04-04T16:21:02Z</time></trkpt><trkpt lat="44.5667042272301" lon="10.423593301345399"><ele>404.4</ele><time>2026-04-04T16:21:03Z</time></trkpt><trkpt lat="44.56667623154699" lon="10.423718883230285"><ele>405.0</ele><time>2026-04-04T16:21:04Z</time></trkpt><trkpt lat="44.56663193049679" lon="10.423862612198297"><ele>405.0</ele><time>2026-04-04T16:21:05Z</time></trkpt><trkpt lat="44.56659756751839" lon="10.424033896975622"><ele>405.0</ele><time>2026-04-04T16:21:06Z</time></trkpt><trkpt lat="44.56657847112965" lon="10.424210740023657"><ele>405.0</ele><time>2026-04-04T16:21:07Z</time></trkpt><trkpt lat="44.56654873206993" lon="10.424378530613614"><ele>405.0</ele><time>2026-04-04T16:21:08Z</time></trkpt><trkpt lat="44.56650501202703" lon="10.424559618863325"><ele>404.5</ele><time>2026-04-04T16:21:09Z</time></trkpt><trkpt lat="44.566470747287674" lon="10.424716521389477"><ele>404.0</ele><time>2026-04-04T16:21:10Z</time></trkpt><trkpt lat="44.56642994305158" lon="10.424835350100304"><ele>403.5</ele><time>2026-04-04T16:21:11Z</time></trkpt><trkpt lat="44.56640754417275" lon="10.42493521632059"><ele>403.0</ele><time>2026-04-04T16:21:12Z</time></trkpt><trkpt lat="44.566441345509766" lon="10.425167607399247"><ele>403.0</ele><time>2026-04-04T16:21:13.999Z</time></trkpt><trkpt lat="44.56648657219883" lon="10.425390129265436"><ele>403.0</ele><time>2026-04-04T16:21:14.999Z</time></trkpt><trkpt lat="44.566526407840165" lon="10.42554002204069"><ele>403.0</ele><time>2026-04-04T16:21:15.999Z</time></trkpt><trkpt lat="44.56658323942692" lon="10.425620649655892"><ele>403.0</ele><time>2026-04-04T16:21:16.999Z</time></trkpt><trkpt lat="44.5666176333478" lon="10.425709401014748"><ele>403.0</ele><time>2026-04-04T16:21:17.999Z</time></trkpt><trkpt lat="44.56664866783795" lon="10.425831444221311"><ele>403.25</ele><time>2026-04-04T16:21:18.999Z</time></trkpt><trkpt lat="44.56670339170031" lon="10.425919882538768"><ele>403.5</ele><time>2026-04-04T16:21:19.999Z</time></trkpt><trkpt lat="44.56676130106333" lon="10.426096150143877"><ele>403.75</ele><time>2026-04-04T16:21:20.999Z</time></trkpt><trkpt lat="44.566866820180515" lon="10.4261711821806"><ele>404.0</ele><time>2026-04-04T16:21:21.999Z</time></trkpt><trkpt lat="44.56695733833865" lon="10.426272314233863"><ele>401.5</ele><time>2026-04-04T16:21:22.999Z</time></trkpt><trkpt lat="44.56703822052612" lon="10.426418282426617"><ele>399.0</ele><time>2026-04-04T16:21:23.999Z</time></trkpt><trkpt lat="44.56713257313524" lon="10.42654905630371"><ele>396.5</ele><time>2026-04-04T16:21:24.999Z</time></trkpt><trkpt lat="44.567221198345365" lon="10.426678324976102"><ele>394.0</ele><time>2026-04-04T16:21:25.999Z</time></trkpt><trkpt lat="44.56728019812654" lon="10.426789142797347"><ele>394.0</ele><time>2026-04-04T16:21:27Z</time></trkpt><trkpt lat="44.567315344060866" lon="10.426873703222602"><ele>394.0</ele><time>2026-04-04T16:21:28Z</time></trkpt><trkpt lat="44.56731766639951" lon="10.427019390272099"><ele>394.0</ele><time>2026-04-04T16:21:30Z</time></trkpt><trkpt lat="44.56744458253046" lon="10.42713901847728"><ele>394.0</ele><time>2026-04-04T16:21:32Z</time></trkpt><trkpt lat="44.56750281630878" lon="10.427225632712256"><ele>394.0</ele><time>2026-04-04T16:21:33Z</time></trkpt><trkpt lat="44.56759131737183" lon="10.427270611678274"><ele>392.6666666666667</ele><time>2026-04-04T16:21:34Z</time></trkpt><trkpt lat="44.567675113335156" lon="10.427295627370343"><ele>391.33333333333337</ele><time>2026-04-04T16:21:35Z</time></trkpt><trkpt lat="44.56773873407648" lon="10.427332104419257"><ele>390.0</ele><time>2026-04-04T16:21:36Z</time></trkpt><trkpt lat="44.56782693652986" lon="10.427402961957343"><ele>388.66666666666663</ele><time>2026-04-04T16:21:37Z</time></trkpt><trkpt lat="44.56791220821378" lon="10.427453814137598"><ele>387.3333333333333</ele><time>2026-04-04T16:21:38Z</time></trkpt><trkpt lat="44.56798596853069" lon="10.427514245833933"><ele>386.0</ele><time>2026-04-04T16:21:39Z</time></trkpt><trkpt lat="44.56805092559269" lon="10.427585091864858"><ele>383.49999999999994</ele><time>2026-04-04T16:21:40Z</time></trkpt><trkpt lat="44.568112513507415" lon="10.427645928675693"><ele>381.0</ele><time>2026-04-04T16:21:41Z</time></trkpt><trkpt lat="44.56817047203062" lon="10.427682253034297"><ele>378.5</ele><time>2026-04-04T16:21:42Z</time></trkpt><trkpt lat="44.56829787135089" lon="10.427657617803634"><ele>376.0</ele><time>2026-04-04T16:21:44Z</time></trkpt><trkpt lat="44.56838323382886" lon="10.427617134678776"><ele>373.5</ele><time>2026-04-04T16:21:45Z</time></trkpt><trkpt lat="44.56845274719966" lon="10.427590796370039"><ele>371.0</ele><time>2026-04-04T16:21:46Z</time></trkpt><trkpt lat="44.56857931307943" lon="10.427563757999623"><ele>371.0</ele><time>2026-04-04T16:21:48Z</time></trkpt><trkpt lat="44.568654629845966" lon="10.42760426787988"><ele>371.0</ele><time>2026-04-04T16:21:49Z</time></trkpt><trkpt lat="44.56874694555185" lon="10.427636884892465"><ele>371.0</ele><time>2026-04-04T16:21:50Z</time></trkpt><trkpt lat="44.56886131491789" lon="10.427612524049305"><ele>371.0</ele><time>2026-04-04T16:21:51Z</time></trkpt><trkpt lat="44.56895833013215" lon="10.427609103480542"><ele>371.0</ele><time>2026-04-04T16:21:52Z</time></trkpt><trkpt lat="44.56904958989585" lon="10.427627524502531"><ele>368.1666666666667</ele><time>2026-04-04T16:21:53Z</time></trkpt><trkpt lat="44.569123403237704" lon="10.427603657197707"><ele>365.33333333333337</ele><time>2026-04-04T16:21:54Z</time></trkpt><trkpt lat="44.56918068368557" lon="10.427555845512279"><ele>362.5</ele><time>2026-04-04T16:21:55Z</time></trkpt><trkpt lat="44.5692839833614" lon="10.427486218445706"><ele>359.6666666666667</ele><time>2026-04-04T16:21:57Z</time></trkpt><trkpt lat="44.56935556186648" lon="10.427493787900344"><ele>356.8333333333333</ele><time>2026-04-04T16:21:58Z</time></trkpt><trkpt lat="44.56943541636536" lon="10.427523920283127"><ele>354.0</ele><time>2026-04-04T16:21:59Z</time></trkpt><trkpt lat="44.56950702253403" lon="10.427542474943767"><ele>350.6666666666667</ele><time>2026-04-04T16:22:00Z</time></trkpt><trkpt lat="44.56958581212219" lon="10.427553373620198"><ele>347.3333333333333</ele><time>2026-04-04T16:22:01Z</time></trkpt><trkpt lat="44.56965214747546" lon="10.427561836102747"><ele>344.0</ele><time>2026-04-04T16:22:02Z</time></trkpt><trkpt lat="44.56976048163131" lon="10.427662004160789"><ele>340.66666666666663</ele><time>2026-04-04T16:22:04Z</time></trkpt><trkpt lat="44.56982673122132" lon="10.427718436652063"><ele>337.3333333333333</ele><time>2026-04-04T16:22:05Z</time></trkpt><trkpt lat="44.56989501808921" lon="10.427756953467494"><ele>334.0</ele><time>2026-04-04T16:22:06Z</time></trkpt><trkpt lat="44.56995296939076" lon="10.427810396179142"><ele>334.0</ele><time>2026-04-04T16:22:07Z</time></trkpt><trkpt lat="44.569967858800545" lon="10.42790569164149"><ele>334.0</ele><time>2026-04-04T16:22:08Z</time></trkpt><trkpt lat="44.56995161696367" lon="10.428007217510471"><ele>334.0</ele><time>2026-04-04T16:22:09Z</time></trkpt><trkpt lat="44.57001564950101" lon="10.428148537482704"><ele>334.0</ele><time>2026-04-04T16:22:11Z</time></trkpt><trkpt lat="44.57009252670333" lon="10.428197056369148"><ele>334.0</ele><time>2026-04-04T16:22:12Z</time></trkpt><trkpt lat="44.57014252427932" lon="10.428262492437327"><ele>334.0</ele><time>2026-04-04T16:22:13Z</time></trkpt><trkpt lat="44.57015870627633" lon="10.42835961847863"><ele>333.3333333333333</ele><time>2026-04-04T16:22:14Z</time></trkpt><trkpt lat="44.57014132501755" lon="10.428462865865333"><ele>332.66666666666663</ele><time>2026-04-04T16:22:15Z</time></trkpt><trkpt lat="44.570100242464235" lon="10.428557330853168"><ele>332.0</ele><time>2026-04-04T16:22:16Z</time></trkpt><trkpt lat="44.57004463507073" lon="10.428646939331095"><ele>331.3333333333333</ele><time>2026-04-04T16:22:17Z</time></trkpt><trkpt lat="44.56999218413749" lon="10.42872843674141"><ele>330.6666666666667</ele><time>2026-04-04T16:22:18Z</time></trkpt><trkpt lat="44.569936800961266" lon="10.428805518669899"><ele>330.0</ele><time>2026-04-04T16:22:19Z</time></trkpt><trkpt lat="44.56988758929042" lon="10.428889565128427"><ele>327.5</ele><time>2026-04-04T16:22:20Z</time></trkpt><trkpt lat="44.569835344920335" lon="10.42897776363339"><ele>325.0</ele><time>2026-04-04T16:22:21Z</time></trkpt><trkpt lat="44.56978477177841" lon="10.429047585479342"><ele>322.5</ele><time>2026-04-04T16:22:22Z</time></trkpt><trkpt lat="44.56976010540095" lon="10.42913421178445"><ele>320.0</ele><time>2026-04-04T16:22:23Z</time></trkpt><trkpt lat="44.569834898690075" lon="10.429309329913789"><ele>317.5</ele><time>2026-04-04T16:22:25Z</time></trkpt><trkpt lat="44.56990261637744" lon="10.429380171618952"><ele>315.0</ele><time>2026-04-04T16:22:26Z</time></trkpt><trkpt lat="44.56996222659685" lon="10.429461922076364"><ele>315.0</ele><time>2026-04-04T16:22:27Z</time></trkpt><trkpt lat="44.57001587905278" lon="10.429526700243093"><ele>315.0</ele><time>2026-04-04T16:22:28Z</time></trkpt><trkpt lat="44.5700747624731" lon="10.42957461802663"><ele>315.0</ele><time>2026-04-04T16:22:29Z</time></trkpt><trkpt lat="44.57013833770334" lon="10.42960882796766"><ele>315.0</ele><time>2026-04-04T16:22:30Z</time></trkpt><trkpt lat="44.57024028990852" lon="10.429548604569943"><ele>315.0</ele><time>2026-04-04T16:22:32Z</time></trkpt><trkpt lat="44.57030742565896" lon="10.429503679318374"><ele>315.0</ele><time>2026-04-04T16:22:33Z</time></trkpt><trkpt lat="44.57042099340467" lon="10.429504345854719"><ele>312.4</ele><time>2026-04-04T16:22:35Z</time></trkpt><trkpt lat="44.57054872922875" lon="10.429516204835757"><ele>309.8</ele><time>2026-04-04T16:22:37Z</time></trkpt><trkpt lat="44.5706198610414" lon="10.429489977974585"><ele>307.2</ele><time>2026-04-04T16:22:38Z</time></trkpt><trkpt lat="44.57074043434928" lon="10.429455293177613"><ele>304.6</ele><time>2026-04-04T16:22:40Z</time></trkpt><trkpt lat="44.5708018042169" lon="10.42941497036812"><ele>302.0</ele><time>2026-04-04T16:22:41Z</time></trkpt><trkpt lat="44.57089280643235" lon="10.429331136477689"><ele>302.0</ele><time>2026-04-04T16:22:43Z</time></trkpt><trkpt lat="44.57098234585798" lon="10.429249469485216"><ele>302.0</ele><time>2026-04-04T16:22:45Z</time></trkpt><trkpt lat="44.57108068745461" lon="10.429210572769946"><ele>302.0</ele><time>2026-04-04T16:22:47Z</time></trkpt><trkpt lat="44.57117993804504" lon="10.429113265453637"><ele>302.0</ele><time>2026-04-04T16:22:49Z</time></trkpt><trkpt lat="44.5712316788456" lon="10.429057156794398"><ele>302.0</ele><time>2026-04-04T16:22:50Z</time></trkpt><trkpt lat="44.57130226621278" lon="10.428931780088254"><ele>301.2</ele><time>2026-04-04T16:22:52Z</time></trkpt><trkpt lat="44.57134780398979" lon="10.428829847242836"><ele>300.4</ele><time>2026-04-04T16:22:54Z</time></trkpt><trkpt lat="44.5714165090443" lon="10.428732440667174"><ele>299.6</ele><time>2026-04-04T16:22:56Z</time></trkpt><trkpt lat="44.571476007915685" lon="10.428610423585097"><ele>298.8</ele><time>2026-04-04T16:22:57.999Z</time></trkpt><trkpt lat="44.57153706844216" lon="10.428448742218473"><ele>298.0</ele><time>2026-04-04T16:22:59.999Z</time></trkpt><trkpt lat="44.57155630415196" lon="10.428338107070692"><ele>298.0</ele><time>2026-04-04T16:23:00.999Z</time></trkpt><trkpt lat="44.57163326241304" lon="10.428240137157626"><ele>298.0</ele><time>2026-04-04T16:23:02.999Z</time></trkpt><trkpt lat="44.571764359159076" lon="10.428183627839374"><ele>298.0</ele><time>2026-04-04T16:23:04.999Z</time></trkpt><trkpt lat="44.5718357617338" lon="10.428179836056287"><ele>298.0</ele><time>2026-04-04T16:23:05.999Z</time></trkpt><trkpt lat="44.57190318363559" lon="10.428174664336153"><ele>298.0</ele><time>2026-04-04T16:23:06.999Z</time></trkpt><trkpt lat="44.57197012625554" lon="10.428174075364224"><ele>298.0</ele><time>2026-04-04T16:23:07.999Z</time></trkpt><trkpt lat="44.57209523500499" lon="10.428191053846655"><ele>300.0</ele><time>2026-04-04T16:23:09.999Z</time></trkpt><trkpt lat="44.57218964342969" lon="10.428178511409214"><ele>302.0</ele><time>2026-04-04T16:23:11.999Z</time></trkpt><trkpt lat="44.57225425195642" lon="10.428154688411928"><ele>304.0</ele><time>2026-04-04T16:23:12.999Z</time></trkpt><trkpt lat="44.57232134436849" lon="10.428131857184802"><ele>306.0</ele><time>2026-04-04T16:23:13.999Z</time></trkpt><trkpt lat="44.57238479778636" lon="10.428126075565535"><ele>308.0</ele><time>2026-04-04T16:23:14.999Z</time></trkpt><trkpt lat="44.572445118121955" lon="10.428100670210629"><ele>310.0</ele><time>2026-04-04T16:23:15.999Z</time></trkpt><trkpt lat="44.57251466805062" lon="10.427944192018819"><ele>310.0</ele><time>2026-04-04T16:23:17.999Z</time></trkpt><trkpt lat="44.572552775939876" lon="10.427861550275766"><ele>310.0</ele><time>2026-04-04T16:23:18.999Z</time></trkpt><trkpt lat="44.5726607646665" lon="10.427768400745897"><ele>310.0</ele><time>2026-04-04T16:23:20.999Z</time></trkpt><trkpt lat="44.572734702426914" lon="10.427682552761294"><ele>310.0</ele><time>2026-04-04T16:23:21.999Z</time></trkpt><trkpt lat="44.572778020520225" lon="10.427587912934017"><ele>310.0</ele><time>2026-04-04T16:23:22.999Z</time></trkpt><trkpt lat="44.572865876775225" lon="10.427560311645534"><ele>313.3333333333333</ele><time>2026-04-04T16:23:24.999Z</time></trkpt><trkpt lat="44.57293947685668" lon="10.427564931290627"><ele>316.66666666666663</ele><time>2026-04-04T16:23:25.999Z</time></trkpt><trkpt lat="44.573039515667816" lon="10.427569859106471"><ele>320.0</ele><time>2026-04-04T16:23:26.999Z</time></trkpt><trkpt lat="44.57313114239291" lon="10.427559443435545"><ele>323.3333333333333</ele><time>2026-04-04T16:23:27.999Z</time></trkpt><trkpt lat="44.57319136361771" lon="10.427609490230184"><ele>326.6666666666667</ele><time>2026-04-04T16:23:28.999Z</time></trkpt><trkpt lat="44.57321299488756" lon="10.427715298612457"><ele>330.0</ele><time>2026-04-04T16:23:29.999Z</time></trkpt><trkpt lat="44.57325622839589" lon="10.4278060219719"><ele>330.0</ele><time>2026-04-04T16:23:30.999Z</time></trkpt><trkpt lat="44.57332817439116" lon="10.42793516456533"><ele>330.0</ele><time>2026-04-04T16:23:31.999Z</time></trkpt><trkpt lat="44.57339413666705" lon="10.428064855824868"><ele>330.0</ele><time>2026-04-04T16:23:33Z</time></trkpt><trkpt lat="44.57347465693421" lon="10.428206911546269"><ele>330.0</ele><time>2026-04-04T16:23:34Z</time></trkpt><trkpt lat="44.57352047247754" lon="10.428322984044957"><ele>332.2</ele><time>2026-04-04T16:23:35Z</time></trkpt><trkpt lat="44.57351100057284" lon="10.428427752731087"><ele>334.4</ele><time>2026-04-04T16:23:36Z</time></trkpt><trkpt lat="44.57348984508809" lon="10.428526971955797"><ele>336.6</ele><time>2026-04-04T16:23:37Z</time></trkpt><trkpt lat="44.57346102947501" lon="10.428621028551024"><ele>338.8</ele><time>2026-04-04T16:23:38Z</time></trkpt><trkpt lat="44.573411136621075" lon="10.428751136868069"><ele>341.0</ele><time>2026-04-04T16:23:39Z</time></trkpt><trkpt lat="44.57335277960127" lon="10.428909675467665"><ele>343.4</ele><time>2026-04-04T16:23:40Z</time></trkpt><trkpt lat="44.573311749337485" lon="10.429071327819296"><ele>345.8</ele><time>2026-04-04T16:23:41Z</time></trkpt><trkpt lat="44.57329019924391" lon="10.42923474182404"><ele>348.2</ele><time>2026-04-04T16:23:42Z</time></trkpt><trkpt lat="44.57326679294496" lon="10.429370978431248"><ele>350.59999999999997</ele><time>2026-04-04T16:23:43Z</time></trkpt><trkpt lat="44.57323460677153" lon="10.429475808958244"><ele>353.0</ele><time>2026-04-04T16:23:44Z</time></trkpt><trkpt lat="44.57321135594905" lon="10.429564512763982"><ele>355.4</ele><time>2026-04-04T16:23:45Z</time></trkpt><trkpt lat="44.57317166954774" lon="10.429748454865729"><ele>357.79999999999995</ele><time>2026-04-04T16:23:47Z</time></trkpt><trkpt lat="44.57317049223085" lon="10.429845747730996"><ele>360.2</ele><time>2026-04-04T16:23:48Z</time></trkpt><trkpt lat="44.57319635407891" lon="10.430002427972056"><ele>362.6</ele><time>2026-04-04T16:23:50Z</time></trkpt><trkpt lat="44.573225055531196" lon="10.430090486072306"><ele>365.0</ele><time>2026-04-04T16:23:51Z</time></trkpt><trkpt lat="44.573280375029015" lon="10.430184695322756"><ele>365.0</ele><time>2026-04-04T16:23:52Z</time></trkpt><trkpt lat="44.57334554669404" lon="10.430266260306059"><ele>365.0</ele><time>2026-04-04T16:23:53Z</time></trkpt><trkpt lat="44.57341100681469" lon="10.430356541998895"><ele>365.0</ele><time>2026-04-04T16:23:54Z</time></trkpt><trkpt lat="44.573462560988276" lon="10.430454738739025"><ele>365.0</ele><time>2026-04-04T16:23:55Z</time></trkpt><trkpt lat="44.57353374378464" lon="10.430567485627355"><ele>365.0</ele><time>2026-04-04T16:23:56Z</time></trkpt><trkpt lat="44.57360730092222" lon="10.430683471893559"><ele>365.0</ele><time>2026-04-04T16:23:57Z</time></trkpt><trkpt lat="44.57366973181073" lon="10.430776949849843"><ele>365.0</ele><time>2026-04-04T16:23:58Z</time></trkpt><trkpt lat="44.573737204097995" lon="10.430857675617332"><ele>365.0</ele><time>2026-04-04T16:23:59Z</time></trkpt><trkpt lat="44.57383995593433" lon="10.430943046749096"><ele>365.0</ele><time>2026-04-04T16:24:00Z</time></trkpt><trkpt lat="44.57394925418619" lon="10.431033961887461"><ele>365.0</ele><time>2026-04-04T16:24:01Z</time></trkpt><trkpt lat="44.574050250789746" lon="10.431113061424194"><ele>365.0</ele><time>2026-04-04T16:24:02Z</time></trkpt><trkpt lat="44.57413202957733" lon="10.431188968005829"><ele>365.0</ele><time>2026-04-04T16:24:03Z</time></trkpt><trkpt lat="44.57422196862844" lon="10.431238943099844"><ele>365.0</ele><time>2026-04-04T16:24:04Z</time></trkpt><trkpt lat="44.57432643356273" lon="10.431269283036091"><ele>365.0</ele><time>2026-04-04T16:24:05Z</time></trkpt><trkpt lat="44.57444250580147" lon="10.431304410867874"><ele>365.0</ele><time>2026-04-04T16:24:06Z</time></trkpt><trkpt lat="44.57455795767797" lon="10.431382304326288"><ele>368.75</ele><time>2026-04-04T16:24:07Z</time></trkpt><trkpt lat="44.57467187937041" lon="10.431497335333013"><ele>372.5</ele><time>2026-04-04T16:24:08Z</time></trkpt><trkpt lat="44.574774030997865" lon="10.431611592778324"><ele>376.25</ele><time>2026-04-04T16:24:09Z</time></trkpt><trkpt lat="44.57484998668188" lon="10.431699548328977"><ele>380.0</ele><time>2026-04-04T16:24:10Z</time></trkpt><trkpt lat="44.57492137198709" lon="10.431781069051029"><ele>380.0</ele><time>2026-04-04T16:24:11Z</time></trkpt><trkpt lat="44.57499010556316" lon="10.431850435235736"><ele>380.0</ele><time>2026-04-04T16:24:12Z</time></trkpt><trkpt lat="44.57508779679105" lon="10.431950939250067"><ele>380.0</ele><time>2026-04-04T16:24:14Z</time></trkpt><trkpt lat="44.57519337323342" lon="10.432004675931712"><ele>380.0</ele><time>2026-04-04T16:24:16Z</time></trkpt><trkpt lat="44.575261336847184" lon="10.432013230159223"><ele>380.0</ele><time>2026-04-04T16:24:17Z</time></trkpt><trkpt lat="44.57534827619103" lon="10.43199438886192"><ele>381.2</ele><time>2026-04-04T16:24:18Z</time></trkpt><trkpt lat="44.57542632837237" lon="10.431988527792369"><ele>382.4</ele><time>2026-04-04T16:24:19Z</time></trkpt><trkpt lat="44.57551308322844" lon="10.431986535111289"><ele>383.6</ele><time>2026-04-04T16:24:21Z</time></trkpt><trkpt lat="44.57561730509228" lon="10.431902054351614"><ele>384.8</ele><time>2026-04-04T16:24:23Z</time></trkpt><trkpt lat="44.57570082406766" lon="10.43183291540892"><ele>386.0</ele><time>2026-04-04T16:24:24Z</time></trkpt><trkpt lat="44.575793089685654" lon="10.4317540240039"><ele>386.0</ele><time>2026-04-04T16:24:25Z</time></trkpt><trkpt lat="44.57590158562032" lon="10.431679762672113"><ele>386.0</ele><time>2026-04-04T16:24:26Z</time></trkpt><trkpt lat="44.57602465052241" lon="10.431627250398664"><ele>386.0</ele><time>2026-04-04T16:24:27Z</time></trkpt><trkpt lat="44.576152953594395" lon="10.431590268354789"><ele>386.0</ele><time>2026-04-04T16:24:28Z</time></trkpt><trkpt lat="44.576266117220825" lon="10.431569935927618"><ele>387.0</ele><time>2026-04-04T16:24:29Z</time></trkpt><trkpt lat="44.57636474288501" lon="10.431581476405208"><ele>388.0</ele><time>2026-04-04T16:24:30Z</time></trkpt><trkpt lat="44.57644419982441" lon="10.431659605627322"><ele>389.0</ele><time>2026-04-04T16:24:31Z</time></trkpt><trkpt lat="44.5765447531171" lon="10.431696024188824"><ele>390.0</ele><time>2026-04-04T16:24:32Z</time></trkpt><trkpt lat="44.576646403236616" lon="10.431754379541635"><ele>391.0</ele><time>2026-04-04T16:24:33Z</time></trkpt><trkpt lat="44.57675600390011" lon="10.431755573145256"><ele>391.0</ele><time>2026-04-04T16:24:34Z</time></trkpt><trkpt lat="44.57685850788016" lon="10.431713100244098"><ele>391.0</ele><time>2026-04-04T16:24:35Z</time></trkpt><trkpt lat="44.57693361005262" lon="10.43162703118034"><ele>391.0</ele><time>2026-04-04T16:24:36Z</time></trkpt><trkpt lat="44.57698693374145" lon="10.431518133239765"><ele>391.0</ele><time>2026-04-04T16:24:37Z</time></trkpt><trkpt lat="44.5770079435173" lon="10.4313867056168"><ele>391.0</ele><time>2026-04-04T16:24:38Z</time></trkpt><trkpt lat="44.57702895561628" lon="10.431242672754797"><ele>393.75</ele><time>2026-04-04T16:24:39Z</time></trkpt><trkpt lat="44.57705343005127" lon="10.431074015869035"><ele>396.5</ele><time>2026-04-04T16:24:40Z</time></trkpt><trkpt lat="44.5771052439902" lon="10.43089562250383"><ele>399.25</ele><time>2026-04-04T16:24:41Z</time></trkpt><trkpt lat="44.577141202419945" lon="10.43073299008106"><ele>402.0</ele><time>2026-04-04T16:24:42Z</time></trkpt><trkpt lat="44.57720434505706" lon="10.430605711405617"><ele>402.0</ele><time>2026-04-04T16:24:43Z</time></trkpt><trkpt lat="44.57727230094511" lon="10.43049932893949"><ele>402.0</ele><time>2026-04-04T16:24:44Z</time></trkpt><trkpt lat="44.57735869263163" lon="10.430414632964403"><ele>402.0</ele><time>2026-04-04T16:24:45Z</time></trkpt><trkpt lat="44.57746101298585" lon="10.43033699123708"><ele>402.0</ele><time>2026-04-04T16:24:46Z</time></trkpt><trkpt lat="44.57758227326761" lon="10.430260413577614"><ele>403.66666666666663</ele><time>2026-04-04T16:24:47Z</time></trkpt><trkpt lat="44.577719388676975" lon="10.430188598053505"><ele>405.3333333333333</ele><time>2026-04-04T16:24:48Z</time></trkpt><trkpt lat="44.57786217988441" lon="10.430100683824282"><ele>407.0</ele><time>2026-04-04T16:24:49Z</time></trkpt><trkpt lat="44.57801334307001" lon="10.429981891699791"><ele>407.0</ele><time>2026-04-04T16:24:50Z</time></trkpt><trkpt lat="44.57817306149331" lon="10.429879967685249"><ele>407.0</ele><time>2026-04-04T16:24:51Z</time></trkpt><trkpt lat="44.57833686793638" lon="10.429818132342131"><ele>407.0</ele><time>2026-04-04T16:24:52Z</time></trkpt><trkpt lat="44.578499771840136" lon="10.429761030707112"><ele>407.0</ele><time>2026-04-04T16:24:53Z</time></trkpt><trkpt lat="44.57864526786856" lon="10.429694734418627"><ele>407.0</ele><time>2026-04-04T16:24:54Z</time></trkpt><trkpt lat="44.57876122402468" lon="10.42964008599332"><ele>407.0</ele><time>2026-04-04T16:24:55Z</time></trkpt><trkpt lat="44.578875827964815" lon="10.429586399063702"><ele>407.0</ele><time>2026-04-04T16:24:56Z</time></trkpt><trkpt lat="44.57899752853448" lon="10.42950886958137"><ele>409.0</ele><time>2026-04-04T16:24:57Z</time></trkpt><trkpt lat="44.57911724743496" lon="10.429401234225331"><ele>411.0</ele><time>2026-04-04T16:24:58Z</time></trkpt><trkpt lat="44.579243737798066" lon="10.429284618224093"><ele>413.0</ele><time>2026-04-04T16:24:59Z</time></trkpt><trkpt lat="44.57936118288929" lon="10.429191275467446"><ele>415.0</ele><time>2026-04-04T16:25:00Z</time></trkpt><trkpt lat="44.57946937190841" lon="10.429103852868652"><ele>417.0</ele><time>2026-04-04T16:25:01Z</time></trkpt><trkpt lat="44.579558982330084" lon="10.429010042740666"><ele>419.0</ele><time>2026-04-04T16:25:02Z</time></trkpt><trkpt lat="44.57961263144144" lon="10.428899927259886"><ele>421.0</ele><time>2026-04-04T16:25:03Z</time></trkpt><trkpt lat="44.57963979563084" lon="10.428771040363872"><ele>423.0</ele><time>2026-04-04T16:25:04Z</time></trkpt><trkpt lat="44.57966527373481" lon="10.428633981821822"><ele>425.0</ele><time>2026-04-04T16:25:05Z</time></trkpt><trkpt lat="44.57970442657028" lon="10.428535736129616"><ele>424.99999999999994</ele><time>2026-04-04T16:25:06Z</time></trkpt><trkpt lat="44.579760123090864" lon="10.428459285699056"><ele>425.0</ele><time>2026-04-04T16:25:07Z</time></trkpt><trkpt lat="44.57983254509847" lon="10.428379332179132"><ele>425.0</ele><time>2026-04-04T16:25:08Z</time></trkpt><trkpt lat="44.579915773682885" lon="10.428280832892753"><ele>425.0</ele><time>2026-04-04T16:25:09Z</time></trkpt><trkpt lat="44.57995089813579" lon="10.428181383784178"><ele>424.99999999999994</ele><time>2026-04-04T16:25:10Z</time></trkpt><trkpt lat="44.57998200626368" lon="10.428063048605756"><ele>425.0</ele><time>2026-04-04T16:25:11Z</time></trkpt><trkpt lat="44.58004336795333" lon="10.42799688439285"><ele>424.99999999999994</ele><time>2026-04-04T16:25:12Z</time></trkpt><trkpt lat="44.58014180060689" lon="10.427951589731025"><ele>425.0</ele><time>2026-04-04T16:25:13Z</time></trkpt><trkpt lat="44.58021566458867" lon="10.427917802784364"><ele>425.0</ele><time>2026-04-04T16:25:14Z</time></trkpt><trkpt lat="44.580244561649366" lon="10.427834467934167"><ele>425.0</ele><time>2026-04-04T16:25:16Z</time></trkpt><trkpt lat="44.580290268391096" lon="10.427769088948635"><ele>424.99999999999994</ele><time>2026-04-04T16:25:18Z</time></trkpt><trkpt lat="44.58034418006167" lon="10.427625831285402"><ele>425.0</ele><time>2026-04-04T16:25:20Z</time></trkpt><trkpt lat="44.580386615765676" lon="10.42751713863447"><ele>425.49999999999994</ele><time>2026-04-04T16:25:21Z</time></trkpt><trkpt lat="44.58042212835519" lon="10.427387711532832"><ele>426.0</ele><time>2026-04-04T16:25:22Z</time></trkpt><trkpt lat="44.58046285202249" lon="10.427264240487037"><ele>426.5</ele><time>2026-04-04T16:25:23Z</time></trkpt><trkpt lat="44.58050035760817" lon="10.427170471624272"><ele>427.0</ele><time>2026-04-04T16:25:23.999Z</time></trkpt><trkpt lat="44.58054171759577" lon="10.427100934982848"><ele>427.49999999999994</ele><time>2026-04-04T16:25:24.999Z</time></trkpt><trkpt lat="44.58058889601777" lon="10.426971158277215"><ele>428.0</ele><time>2026-04-04T16:25:26.999Z</time></trkpt><trkpt lat="44.58071986092158" lon="10.426969746152741"><ele>429.4</ele><time>2026-04-04T16:25:27.999Z</time></trkpt><trkpt lat="44.58079799561801" lon="10.426899572125182"><ele>430.79999999999995</ele><time>2026-04-04T16:25:28.999Z</time></trkpt><trkpt lat="44.58086948321735" lon="10.426828981753147"><ele>432.2</ele><time>2026-04-04T16:25:29.999Z</time></trkpt><trkpt lat="44.580927930212724" lon="10.426776607714183"><ele>433.6</ele><time>2026-04-04T16:25:30.999Z</time></trkpt><trkpt lat="44.58102134921372" lon="10.426679127994266"><ele>435.0</ele><time>2026-04-04T16:25:32.999Z</time></trkpt><trkpt lat="44.58109604715394" lon="10.426624214245646"><ele>435.0</ele><time>2026-04-04T16:25:34.999Z</time></trkpt><trkpt lat="44.58115458888864" lon="10.426570130992078"><ele>435.0</ele><time>2026-04-04T16:26:01Z</time></trkpt><trkpt lat="44.5812121911576" lon="10.42651316099473"><ele>435.0</ele><time>2026-04-04T16:26:03Z</time></trkpt><trkpt lat="44.5812983814144" lon="10.426444939665718"><ele>435.0</ele><time>2026-04-04T16:26:04Z</time></trkpt><trkpt lat="44.58136722352726" lon="10.426389541869844"><ele>435.0</ele><time>2026-04-04T16:26:05Z</time></trkpt><trkpt lat="44.581436182570556" lon="10.426340772535962"><ele>435.0</ele><time>2026-04-04T16:26:06Z</time></trkpt><trkpt lat="44.58150265405363" lon="10.426285596766872"><ele>435.3333333333333</ele><time>2026-04-04T16:26:07Z</time></trkpt><trkpt lat="44.58158490568993" lon="10.426256885672673"><ele>435.66666666666663</ele><time>2026-04-04T16:26:09Z</time></trkpt><trkpt lat="44.581652863937315" lon="10.426380428685931"><ele>436.0</ele><time>2026-04-04T16:26:11Z</time></trkpt><trkpt lat="44.58171625595911" lon="10.426433136574731"><ele>436.3333333333333</ele><time>2026-04-04T16:26:12Z</time></trkpt><trkpt lat="44.58178471111342" lon="10.426477909318331"><ele>436.66666666666663</ele><time>2026-04-04T16:26:13Z</time></trkpt><trkpt lat="44.58186617925843" lon="10.426503333179838"><ele>437.0</ele><time>2026-04-04T16:26:14Z</time></trkpt><trkpt lat="44.58194145447656" lon="10.4265324573165"><ele>436.99999999999994</ele><time>2026-04-04T16:26:15Z</time></trkpt><trkpt lat="44.58201356694803" lon="10.426520905443642"><ele>437.0</ele><time>2026-04-04T16:26:16Z</time></trkpt><trkpt lat="44.582094168088176" lon="10.426517540324005"><ele>437.0</ele><time>2026-04-04T16:26:17Z</time></trkpt><trkpt lat="44.582180506187974" lon="10.42652606208586"><ele>437.0</ele><time>2026-04-04T16:26:18Z</time></trkpt><trkpt lat="44.582272829611526" lon="10.426538649740406"><ele>436.99999999999994</ele><time>2026-04-04T16:26:19Z</time></trkpt><trkpt lat="44.582362921700884" lon="10.42655995320374"><ele>437.0</ele><time>2026-04-04T16:26:20Z</time></trkpt><trkpt lat="44.582446349263414" lon="10.42658292798007"><ele>436.49999999999994</ele><time>2026-04-04T16:26:21Z</time></trkpt><trkpt lat="44.58252817179072" lon="10.426610049276823"><ele>436.0</ele><time>2026-04-04T16:26:22Z</time></trkpt><trkpt lat="44.58261964545748" lon="10.426638716449366"><ele>435.5</ele><time>2026-04-04T16:26:23Z</time></trkpt><trkpt lat="44.582703162386174" lon="10.42666152696543"><ele>435.0</ele><time>2026-04-04T16:26:24Z</time></trkpt><trkpt lat="44.58279069152055" lon="10.426680645233521"><ele>434.49999999999994</ele><time>2026-04-04T16:26:25Z</time></trkpt><trkpt lat="44.582865523309" lon="10.426697687108271"><ele>434.0</ele><time>2026-04-04T16:26:26Z</time></trkpt><trkpt lat="44.58294445048544" lon="10.426716398362364"><ele>431.99999999999994</ele><time>2026-04-04T16:26:27Z</time></trkpt><trkpt lat="44.58301936144397" lon="10.4267350627104"><ele>430.0</ele><time>2026-04-04T16:26:28Z</time></trkpt><trkpt lat="44.5830884177324" lon="10.426774058103295"><ele>428.0</ele><time>2026-04-04T16:26:29Z</time></trkpt><trkpt lat="44.58315548045214" lon="10.426831064380336"><ele>426.0</ele><time>2026-04-04T16:26:30Z</time></trkpt><trkpt lat="44.58318403382697" lon="10.426928802923547"><ele>423.99999999999994</ele><time>2026-04-04T16:26:31Z</time></trkpt><trkpt lat="44.583239548091136" lon="10.427015598914618"><ele>422.0</ele><time>2026-04-04T16:26:32Z</time></trkpt><trkpt lat="44.58329472877823" lon="10.427096303688993"><ele>421.0</ele><time>2026-04-04T16:26:33Z</time></trkpt><trkpt lat="44.58334689945519" lon="10.427165106109221"><ele>420.0</ele><time>2026-04-04T16:26:34Z</time></trkpt><trkpt lat="44.58339470554324" lon="10.42722550322563"><ele>419.0</ele><time>2026-04-04T16:26:35Z</time></trkpt><trkpt lat="44.58349977827923" lon="10.427323251582052"><ele>418.0</ele><time>2026-04-04T16:26:37Z</time></trkpt><trkpt lat="44.58358846138556" lon="10.42741098115431"><ele>417.0</ele><time>2026-04-04T16:26:39Z</time></trkpt><trkpt lat="44.58366874390376" lon="10.42739718393058"><ele>415.0</ele><time>2026-04-04T16:26:41Z</time></trkpt><trkpt lat="44.58376911183735" lon="10.427330795415173"><ele>413.0</ele><time>2026-04-04T16:26:43Z</time></trkpt><trkpt lat="44.58384735960442" lon="10.427294249501967"><ele>411.0</ele><time>2026-04-04T16:26:44Z</time></trkpt><trkpt lat="44.583921160829604" lon="10.42726636957321"><ele>409.0</ele><time>2026-04-04T16:26:45Z</time></trkpt><trkpt lat="44.583989094450956" lon="10.427237403786792"><ele>407.0</ele><time>2026-04-04T16:26:46Z</time></trkpt><trkpt lat="44.584056958304885" lon="10.42718209891713"><ele>405.0</ele><time>2026-04-04T16:26:47Z</time></trkpt><trkpt lat="44.58411380679167" lon="10.427097759190694"><ele>405.0</ele><time>2026-04-04T16:26:48Z</time></trkpt><trkpt lat="44.584176214529094" lon="10.427006576722954"><ele>405.0</ele><time>2026-04-04T16:26:49Z</time></trkpt><trkpt lat="44.584245901813496" lon="10.42692077940007"><ele>405.0</ele><time>2026-04-04T16:26:50Z</time></trkpt><trkpt lat="44.58431800444652" lon="10.42683995895566"><ele>405.0</ele><time>2026-04-04T16:26:51Z</time></trkpt><trkpt lat="44.58439142008668" lon="10.42676600585405"><ele>405.0</ele><time>2026-04-04T16:26:52Z</time></trkpt><trkpt lat="44.58446285616267" lon="10.426692552338302"><ele>403.5</ele><time>2026-04-04T16:26:53Z</time></trkpt><trkpt lat="44.58453260876013" lon="10.426617970316856"><ele>402.0</ele><time>2026-04-04T16:26:54Z</time></trkpt><trkpt lat="44.584597396644035" lon="10.42654240551274"><ele>400.5</ele><time>2026-04-04T16:26:55Z</time></trkpt><trkpt lat="44.58466406911173" lon="10.426459293728632"><ele>399.0</ele><time>2026-04-04T16:26:56Z</time></trkpt><trkpt lat="44.58473022273339" lon="10.426364574248359"><ele>397.5</ele><time>2026-04-04T16:26:57Z</time></trkpt><trkpt lat="44.58476391852091" lon="10.426257246370193"><ele>396.0</ele><time>2026-04-04T16:26:58Z</time></trkpt><trkpt lat="44.58482144109996" lon="10.4261824663198"><ele>396.0</ele><time>2026-04-04T16:26:59Z</time></trkpt><trkpt lat="44.58487808842004" lon="10.426128356264757"><ele>396.0</ele><time>2026-04-04T16:27:00Z</time></trkpt><trkpt lat="44.584953415028366" lon="10.426133889383062"><ele>396.0</ele><time>2026-04-04T16:27:01Z</time></trkpt><trkpt lat="44.58505034743976" lon="10.426158194873302"><ele>396.0</ele><time>2026-04-04T16:27:02Z</time></trkpt><trkpt lat="44.58513623533926" lon="10.426217983454865"><ele>396.0</ele><time>2026-04-04T16:27:03Z</time></trkpt><trkpt lat="44.585225150081165" lon="10.426257301602913"><ele>396.0</ele><time>2026-04-04T16:27:04Z</time></trkpt><trkpt lat="44.5853021138406" lon="10.426294820144717"><ele>395.20000000000005</ele><time>2026-04-04T16:27:05Z</time></trkpt><trkpt lat="44.58540500643347" lon="10.426299056424956"><ele>394.40000000000003</ele><time>2026-04-04T16:27:06Z</time></trkpt><trkpt lat="44.58552786576032" lon="10.426299974542632"><ele>393.6</ele><time>2026-04-04T16:27:07Z</time></trkpt><trkpt lat="44.585627732868026" lon="10.426318103949637"><ele>392.8</ele><time>2026-04-04T16:27:08Z</time></trkpt><trkpt lat="44.58573053421452" lon="10.426331844741824"><ele>392.0</ele><time>2026-04-04T16:27:09Z</time></trkpt><trkpt lat="44.585831195485255" lon="10.426344128889328"><ele>390.49999999999994</ele><time>2026-04-04T16:27:10Z</time></trkpt><trkpt lat="44.5859332515853" lon="10.426345514075262"><ele>389.0</ele><time>2026-04-04T16:27:11Z</time></trkpt><trkpt lat="44.58602660853917" lon="10.426332107377085"><ele>387.5</ele><time>2026-04-04T16:27:12Z</time></trkpt><trkpt lat="44.58611104613479" lon="10.426328810263815"><ele>386.0</ele><time>2026-04-04T16:27:13Z</time></trkpt><trkpt lat="44.586191230473624" lon="10.42632150689122"><ele>384.5</ele><time>2026-04-04T16:27:14Z</time></trkpt><trkpt lat="44.58626626456828" lon="10.42629065224354"><ele>383.0</ele><time>2026-04-04T16:27:15Z</time></trkpt><trkpt lat="44.586342664317634" lon="10.426232030573086"><ele>382.0</ele><time>2026-04-04T16:27:16Z</time></trkpt><trkpt lat="44.58642583406351" lon="10.426142298710918"><ele>381.0</ele><time>2026-04-04T16:27:17Z</time></trkpt><trkpt lat="44.58652122149254" lon="10.426041146400804"><ele>380.0</ele><time>2026-04-04T16:27:18Z</time></trkpt><trkpt lat="44.58660411940935" lon="10.425967250429606"><ele>379.0</ele><time>2026-04-04T16:27:19Z</time></trkpt><trkpt lat="44.58668039560982" lon="10.42591924215055"><ele>378.0</ele><time>2026-04-04T16:27:20Z</time></trkpt><trkpt lat="44.58676309163491" lon="10.425864835208401"><ele>378.0</ele><time>2026-04-04T16:27:21Z</time></trkpt><trkpt lat="44.58683912341682" lon="10.425805068401333"><ele>378.0</ele><time>2026-04-04T16:27:21.999Z</time></trkpt><trkpt lat="44.58692138596398" lon="10.425753426882071"><ele>378.0</ele><time>2026-04-04T16:27:22.999Z</time></trkpt><trkpt lat="44.58701281223102" lon="10.425720292152219"><ele>378.0</ele><time>2026-04-04T16:27:23.999Z</time></trkpt><trkpt lat="44.58710644825685" lon="10.42571202354662"><ele>378.0</ele><time>2026-04-04T16:27:24.999Z</time></trkpt><trkpt lat="44.587205584311704" lon="10.425708090313819"><ele>375.0</ele><time>2026-04-04T16:27:25.999Z</time></trkpt><trkpt lat="44.587301814759385" lon="10.425715828552699"><ele>372.0</ele><time>2026-04-04T16:27:26.999Z</time></trkpt><trkpt lat="44.587403837439304" lon="10.42573758105544"><ele>369.0</ele><time>2026-04-04T16:27:27.999Z</time></trkpt><trkpt lat="44.587505260546315" lon="10.42577351300647"><ele>366.0</ele><time>2026-04-04T16:27:28.999Z</time></trkpt><trkpt lat="44.58760164862977" lon="10.425808677108913"><ele>363.0</ele><time>2026-04-04T16:27:29.999Z</time></trkpt><trkpt lat="44.5876985035358" lon="10.425816188458796"><ele>363.0</ele><time>2026-04-04T16:27:30.999Z</time></trkpt><trkpt lat="44.58780100889002" lon="10.425802407251199"><ele>363.0</ele><time>2026-04-04T16:27:31.999Z</time></trkpt><trkpt lat="44.58791101985052" lon="10.425794536197863"><ele>363.0</ele><time>2026-04-04T16:27:32.999Z</time></trkpt><trkpt lat="44.58801833541744" lon="10.425827715943544"><ele>363.0</ele><time>2026-04-04T16:27:33.999Z</time></trkpt><trkpt lat="44.58812447089518" lon="10.425856115372726"><ele>363.0</ele><time>2026-04-04T16:27:34.999Z</time></trkpt><trkpt lat="44.5882193878641" lon="10.425871709635604"><ele>360.59999999999997</ele><time>2026-04-04T16:27:35.999Z</time></trkpt><trkpt lat="44.58832251293355" lon="10.42590023994854"><ele>358.2</ele><time>2026-04-04T16:27:36.999Z</time></trkpt><trkpt lat="44.588414112643775" lon="10.42595471625398"><ele>355.8</ele><time>2026-04-04T16:27:37.999Z</time></trkpt><trkpt lat="44.588501741270164" lon="10.426013052629399"><ele>353.4</ele><time>2026-04-04T16:27:38.999Z</time></trkpt><trkpt lat="44.588601404420785" lon="10.426038601671111"><ele>351.0</ele><time>2026-04-04T16:27:39.999Z</time></trkpt><trkpt lat="44.588710135437445" lon="10.42605516915991"><ele>349.4</ele><time>2026-04-04T16:27:40.999Z</time></trkpt><trkpt lat="44.58881470452718" lon="10.426060843824969"><ele>347.8</ele><time>2026-04-04T16:27:41.999Z</time></trkpt><trkpt lat="44.58891469370672" lon="10.426075957649983"><ele>346.2</ele><time>2026-04-04T16:27:42.999Z</time></trkpt><trkpt lat="44.589018518943035" lon="10.426110068887292"><ele>344.59999999999997</ele><time>2026-04-04T16:27:43.999Z</time></trkpt><trkpt lat="44.589117046404596" lon="10.426168703857005"><ele>343.0</ele><time>2026-04-04T16:27:45Z</time></trkpt><trkpt lat="44.58921050867093" lon="10.426207595572683"><ele>343.0</ele><time>2026-04-04T16:27:46Z</time></trkpt><trkpt lat="44.58929781363347" lon="10.42619029932812"><ele>343.0</ele><time>2026-04-04T16:27:47Z</time></trkpt><trkpt lat="44.58938130821336" lon="10.426138395734483"><ele>343.0</ele><time>2026-04-04T16:27:48Z</time></trkpt><trkpt lat="44.58945903052911" lon="10.426083078182717"><ele>343.0</ele><time>2026-04-04T16:27:49Z</time></trkpt><trkpt lat="44.589540658031645" lon="10.426113954372912"><ele>343.0</ele><time>2026-04-04T16:27:50Z</time></trkpt><trkpt lat="44.589624282059276" lon="10.426115493309036"><ele>343.0</ele><time>2026-04-04T16:27:51Z</time></trkpt><trkpt lat="44.58970307729531" lon="10.426137515112787"><ele>341.0</ele><time>2026-04-04T16:27:52Z</time></trkpt><trkpt lat="44.58977888264447" lon="10.426098670313632"><ele>339.0</ele><time>2026-04-04T16:27:53Z</time></trkpt><trkpt lat="44.589854033995515" lon="10.426031286444868"><ele>337.0</ele><time>2026-04-04T16:27:54Z</time></trkpt><trkpt lat="44.589927050947" lon="10.425968939116126"><ele>335.0</ele><time>2026-04-04T16:27:55Z</time></trkpt><trkpt lat="44.589978506666014" lon="10.425894988355275"><ele>333.0</ele><time>2026-04-04T16:27:56Z</time></trkpt><trkpt lat="44.59001947368046" lon="10.42580124783383"><ele>331.0</ele><time>2026-04-04T16:27:57Z</time></trkpt><trkpt lat="44.59009372011177" lon="10.425746398214509"><ele>331.0</ele><time>2026-04-04T16:27:58Z</time></trkpt><trkpt lat="44.5901867246792" lon="10.425705597218531"><ele>331.0</ele><time>2026-04-04T16:27:59Z</time></trkpt><trkpt lat="44.59028080553077" lon="10.425645530583623"><ele>331.0</ele><time>2026-04-04T16:28:00Z</time></trkpt><trkpt lat="44.59036973907036" lon="10.42556570835903"><ele>331.0</ele><time>2026-04-04T16:28:01Z</time></trkpt><trkpt lat="44.59047261527787" lon="10.425540119316342"><ele>331.0</ele><time>2026-04-04T16:28:02Z</time></trkpt><trkpt lat="44.590576799943015" lon="10.425515558287564"><ele>327.66666666666663</ele><time>2026-04-04T16:28:03Z</time></trkpt><trkpt lat="44.59066040309985" lon="10.425472702194112"><ele>324.3333333333333</ele><time>2026-04-04T16:28:04Z</time></trkpt><trkpt lat="44.59074315519802" lon="10.425420717454648"><ele>321.0</ele><time>2026-04-04T16:28:05Z</time></trkpt><trkpt lat="44.59082761524958" lon="10.425377549555465"><ele>317.6666666666667</ele><time>2026-04-04T16:28:06Z</time></trkpt><trkpt lat="44.5909068096282" lon="10.425329979604639"><ele>314.33333333333337</ele><time>2026-04-04T16:28:07Z</time></trkpt><trkpt lat="44.590992939611574" lon="10.425297505487322"><ele>311.0</ele><time>2026-04-04T16:28:08Z</time></trkpt><trkpt lat="44.59107663460534" lon="10.42523820027593"><ele>311.0</ele><time>2026-04-04T16:28:09Z</time></trkpt><trkpt lat="44.59116106653555" lon="10.425198581942634"><ele>311.0</ele><time>2026-04-04T16:28:10Z</time></trkpt><trkpt lat="44.59124921090301" lon="10.425172746394592"><ele>311.0</ele><time>2026-04-04T16:28:11Z</time></trkpt><trkpt lat="44.59135147811311" lon="10.425156802295392"><ele>311.0</ele><time>2026-04-04T16:28:12Z</time></trkpt><trkpt lat="44.59145136756971" lon="10.425172233201577"><ele>311.0</ele><time>2026-04-04T16:28:13Z</time></trkpt><trkpt lat="44.59154851277081" lon="10.425161837129073"><ele>308.0</ele><time>2026-04-04T16:28:14Z</time></trkpt><trkpt lat="44.59164154487841" lon="10.42510887546202"><ele>305.0</ele><time>2026-04-04T16:28:15Z</time></trkpt><trkpt lat="44.59174356484652" lon="10.42510620666971"><ele>302.0</ele><time>2026-04-04T16:28:16Z</time></trkpt><trkpt lat="44.5918383311779" lon="10.425078625681964"><ele>299.0</ele><time>2026-04-04T16:28:17Z</time></trkpt><trkpt lat="44.59193388732935" lon="10.425073102072005"><ele>296.0</ele><time>2026-04-04T16:28:18Z</time></trkpt><trkpt lat="44.59202614962921" lon="10.425025326678371"><ele>293.6</ele><time>2026-04-04T16:28:19Z</time></trkpt><trkpt lat="44.59212015917066" lon="10.425013837832472"><ele>291.20000000000005</ele><time>2026-04-04T16:28:20Z</time></trkpt><trkpt lat="44.592212113837014" lon="10.424980241331658"><ele>288.79999999999995</ele><time>2026-04-04T16:28:21Z</time></trkpt><trkpt lat="44.59230930614862" lon="10.424985461349834"><ele>286.4</ele><time>2026-04-04T16:28:22Z</time></trkpt><trkpt lat="44.59239967507592" lon="10.424991286358358"><ele>284.0</ele><time>2026-04-04T16:28:23Z</time></trkpt><trkpt lat="44.592479737691555" lon="10.424986855942805"><ele>284.0</ele><time>2026-04-04T16:28:24Z</time></trkpt><trkpt lat="44.59255276083355" lon="10.42494706026551"><ele>284.0</ele><time>2026-04-04T16:28:25Z</time></trkpt><trkpt lat="44.592632255943265" lon="10.424912172239036"><ele>284.0</ele><time>2026-04-04T16:28:26Z</time></trkpt><trkpt lat="44.59271728429969" lon="10.424841024838393"><ele>284.0</ele><time>2026-04-04T16:28:27Z</time></trkpt><trkpt lat="44.59277843938884" lon="10.424767065356228"><ele>284.0</ele><time>2026-04-04T16:28:28Z</time></trkpt><trkpt lat="44.59283704554997" lon="10.424692200293581"><ele>284.0</ele><time>2026-04-04T16:28:29Z</time></trkpt><trkpt lat="44.59290186236429" lon="10.424634174729642"><ele>280.59999999999997</ele><time>2026-04-04T16:28:30Z</time></trkpt><trkpt lat="44.59295420902737" lon="10.424575783313802"><ele>277.2</ele><time>2026-04-04T16:28:31Z</time></trkpt><trkpt lat="44.59301925655041" lon="10.424535179546499"><ele>273.79999999999995</ele><time>2026-04-04T16:28:32Z</time></trkpt><trkpt lat="44.59315746220378" lon="10.424488544989606"><ele>270.4</ele><time>2026-04-04T16:28:34Z</time></trkpt><trkpt lat="44.59325798002069" lon="10.424477849768355"><ele>267.0</ele><time>2026-04-04T16:28:35Z</time></trkpt><trkpt lat="44.593348190699736" lon="10.42445532699664"><ele>267.0</ele><time>2026-04-04T16:28:36Z</time></trkpt><trkpt lat="44.59344871653461" lon="10.424405611920434"><ele>267.0</ele><time>2026-04-04T16:28:37Z</time></trkpt><trkpt lat="44.59353316979957" lon="10.42433780614102"><ele>267.0</ele><time>2026-04-04T16:28:38Z</time></trkpt><trkpt lat="44.59360423616083" lon="10.424264862560104"><ele>267.0</ele><time>2026-04-04T16:28:39Z</time></trkpt><trkpt lat="44.593665517085924" lon="10.424174353739444"><ele>267.0</ele><time>2026-04-04T16:28:40Z</time></trkpt><trkpt lat="44.59372943941495" lon="10.424138575028298"><ele>265.6666666666667</ele><time>2026-04-04T16:28:41Z</time></trkpt><trkpt lat="44.59378911386181" lon="10.424085246428854"><ele>264.3333333333333</ele><time>2026-04-04T16:28:42Z</time></trkpt><trkpt lat="44.593848484428456" lon="10.42403218935661"><ele>263.0</ele><time>2026-04-04T16:28:43Z</time></trkpt><trkpt lat="44.59395340224312" lon="10.423927224850859"><ele>261.66666666666663</ele><time>2026-04-04T16:28:45Z</time></trkpt><trkpt lat="44.594024137870896" lon="10.423866665072616"><ele>260.3333333333333</ele><time>2026-04-04T16:28:46Z</time></trkpt><trkpt lat="44.594087133866154" lon="10.42381636493346"><ele>259.0</ele><time>2026-04-04T16:28:47Z</time></trkpt><trkpt lat="44.59416410736629" lon="10.423754465234069"><ele>256.8333333333333</ele><time>2026-04-04T16:28:48Z</time></trkpt><trkpt lat="44.59425539428686" lon="10.423698439060232"><ele>254.66666666666666</ele><time>2026-04-04T16:28:49Z</time></trkpt><trkpt lat="44.59434628113236" lon="10.423669114364106"><ele>252.5</ele><time>2026-04-04T16:28:50Z</time></trkpt><trkpt lat="44.59442137259403" lon="10.423628302881259"><ele>250.33333333333331</ele><time>2026-04-04T16:28:51Z</time></trkpt><trkpt lat="44.59448829400338" lon="10.423568829608246"><ele>248.16666666666666</ele><time>2026-04-04T16:28:52Z</time></trkpt><trkpt lat="44.594557489630546" lon="10.423519716800094"><ele>246.0</ele><time>2026-04-04T16:28:53Z</time></trkpt><trkpt lat="44.59462985341184" lon="10.423497784890712"><ele>243.5</ele><time>2026-04-04T16:28:54Z</time></trkpt><trkpt lat="44.59469903065479" lon="10.423451504664259"><ele>241.0</ele><time>2026-04-04T16:28:55Z</time></trkpt><trkpt lat="44.59476821505647" lon="10.423405219770297"><ele>238.5</ele><time>2026-04-04T16:28:56Z</time></trkpt><trkpt lat="44.59482843543405" lon="10.4233638212775"><ele>236.0</ele><time>2026-04-04T16:28:57Z</time></trkpt><trkpt lat="44.594888812757766" lon="10.423335549554574"><ele>233.5</ele><time>2026-04-04T16:28:58Z</time></trkpt><trkpt lat="44.594983282374294" lon="10.42324081832618"><ele>231.0</ele><time>2026-04-04T16:29:00Z</time></trkpt><trkpt lat="44.595044489342285" lon="10.42317713322571"><ele>231.0</ele><time>2026-04-04T16:29:01Z</time></trkpt><trkpt lat="44.59509685306515" lon="10.423103403660235"><ele>231.0</ele><time>2026-04-04T16:29:02Z</time></trkpt><trkpt lat="44.595145227068684" lon="10.423020125120079"><ele>231.0</ele><time>2026-04-04T16:29:03Z</time></trkpt><trkpt lat="44.595169527353896" lon="10.422919343352222"><ele>231.0</ele><time>2026-04-04T16:29:04Z</time></trkpt><trkpt lat="44.59518825831225" lon="10.42277383532905"><ele>231.0</ele><time>2026-04-04T16:29:06Z</time></trkpt><trkpt lat="44.59521617762674" lon="10.422630593907241"><ele>231.0</ele><time>2026-04-04T16:29:08Z</time></trkpt><trkpt lat="44.595300268369" lon="10.422601633792262"><ele>229.60000000000002</ele><time>2026-04-04T16:29:10Z</time></trkpt><trkpt lat="44.59537138268032" lon="10.422547701831911"><ele>228.20000000000002</ele><time>2026-04-04T16:29:12Z</time></trkpt><trkpt lat="44.595364267726616" lon="10.42241573151083"><ele>226.79999999999998</ele><time>2026-04-04T16:29:14Z</time></trkpt><trkpt lat="44.59530843509681" lon="10.422371379265014"><ele>225.39999999999998</ele><time>2026-04-04T16:29:16Z</time></trkpt><trkpt lat="44.595490316215844" lon="10.422261320724502"><ele>224.0</ele><time>2026-04-04T16:29:21Z</time></trkpt><trkpt lat="44.59557569174436" lon="10.422224834062028"><ele>223.00000000000003</ele><time>2026-04-04T16:29:22Z</time></trkpt><trkpt lat="44.59566413679011" lon="10.422186058017628"><ele>222.0</ele><time>2026-04-04T16:29:23Z</time></trkpt><trkpt lat="44.595730130701234" lon="10.422153527555231"><ele>221.0</ele><time>2026-04-04T16:29:24Z</time></trkpt><trkpt lat="44.595800055663" lon="10.422118023471073"><ele>220.0</ele><time>2026-04-04T16:29:25Z</time></trkpt><trkpt lat="44.595906307976975" lon="10.422062483562677"><ele>219.00000000000003</ele><time>2026-04-04T16:29:27Z</time></trkpt><trkpt lat="44.595972058740394" lon="10.42202811447171"><ele>218.0</ele><time>2026-04-04T16:29:29.999Z</time></trkpt><trkpt lat="44.596012119407035" lon="10.421878212947178"><ele>218.0</ele><time>2026-04-04T16:29:31.999Z</time></trkpt><trkpt lat="44.596055636419635" lon="10.421719381470345"><ele>218.0</ele><time>2026-04-04T16:29:33.999Z</time></trkpt><trkpt lat="44.59608765197687" lon="10.421641065723666"><ele>218.0</ele><time>2026-04-04T16:29:34.999Z</time></trkpt><trkpt lat="44.596174152874205" lon="10.42148056241408"><ele>218.0</ele><time>2026-04-04T16:29:36.999Z</time></trkpt><trkpt lat="44.59625637960744" lon="10.4213795785654"><ele>218.0</ele><time>2026-04-04T16:29:37.999Z</time></trkpt><trkpt lat="44.59634862008001" lon="10.421325000526485"><ele>216.5</ele><time>2026-04-04T16:29:38.999Z</time></trkpt><trkpt lat="44.59646567645022" lon="10.421289277625885"><ele>215.0</ele><time>2026-04-04T16:29:39.999Z</time></trkpt><trkpt lat="44.59660416275215" lon="10.421252858226577"><ele>213.5</ele><time>2026-04-04T16:29:40.999Z</time></trkpt><trkpt lat="44.59673976712325" lon="10.421220810949993"><ele>212.0</ele><time>2026-04-04T16:29:41.999Z</time></trkpt><trkpt lat="44.59684115188355" lon="10.421187329007237"><ele>212.0</ele><time>2026-04-04T16:29:42.999Z</time></trkpt><trkpt lat="44.596942558057954" lon="10.421142222465301"><ele>212.0</ele><time>2026-04-04T16:29:43.999Z</time></trkpt><trkpt lat="44.59704020512271" lon="10.421067344173682"><ele>212.0</ele><time>2026-04-04T16:29:44.999Z</time></trkpt><trkpt lat="44.597133641120365" lon="10.42098381814018"><ele>212.0</ele><time>2026-04-04T16:29:45.999Z</time></trkpt><trkpt lat="44.597222981871276" lon="10.420931954689864"><ele>212.0</ele><time>2026-04-04T16:29:46.999Z</time></trkpt><trkpt lat="44.59728603975534" lon="10.420840194920917"><ele>211.5</ele><time>2026-04-04T16:29:47.999Z</time></trkpt><trkpt lat="44.59735689283333" lon="10.420781112352492"><ele>211.0</ele><time>2026-04-04T16:29:48.999Z</time></trkpt><trkpt lat="44.597425106457884" lon="10.420672774411015"><ele>210.5</ele><time>2026-04-04T16:29:49.999Z</time></trkpt><trkpt lat="44.59750198457836" lon="10.420529108845528"><ele>210.0</ele><time>2026-04-04T16:29:51Z</time></trkpt><trkpt lat="44.59758086860712" lon="10.420357534482289"><ele>209.75</ele><time>2026-04-04T16:29:52Z</time></trkpt><trkpt lat="44.597654425043274" lon="10.420175299399121"><ele>209.5</ele><time>2026-04-04T16:29:53Z</time></trkpt><trkpt lat="44.59770085492981" lon="10.419999387595567"><ele>209.25</ele><time>2026-04-04T16:29:54Z</time></trkpt><trkpt lat="44.59771298169232" lon="10.419813819552704"><ele>209.0</ele><time>2026-04-04T16:29:55Z</time></trkpt><trkpt lat="44.5977393576349" lon="10.419619184544173"><ele>209.0</ele><time>2026-04-04T16:29:56Z</time></trkpt><trkpt lat="44.59776687896661" lon="10.419413322710836"><ele>209.0</ele><time>2026-04-04T16:29:57Z</time></trkpt><trkpt lat="44.59779521846649" lon="10.419217577142435"><ele>209.0</ele><time>2026-04-04T16:29:58Z</time></trkpt><trkpt lat="44.59782013253701" lon="10.419050478228069"><ele>209.0</ele><time>2026-04-04T16:29:59Z</time></trkpt><trkpt lat="44.59783040316708" lon="10.41888288382824"><ele>208.2</ele><time>2026-04-04T16:30:00Z</time></trkpt><trkpt lat="44.59785529165081" lon="10.418728323509718"><ele>207.39999999999998</ele><time>2026-04-04T16:30:01Z</time></trkpt><trkpt lat="44.59788521605955" lon="10.418594041433597"><ele>206.6</ele><time>2026-04-04T16:30:02Z</time></trkpt><trkpt lat="44.59790663044822" lon="10.41846780101418"><ele>205.8</ele><time>2026-04-04T16:30:03Z</time></trkpt><trkpt lat="44.59793598660144" lon="10.418335624328257"><ele>205.0</ele><time>2026-04-04T16:30:04Z</time></trkpt><trkpt lat="44.59795487023158" lon="10.41821926396747"><ele>205.0</ele><time>2026-04-04T16:30:05Z</time></trkpt><trkpt lat="44.59800312874169" lon="10.41812826241943"><ele>205.0</ele><time>2026-04-04T16:30:06Z</time></trkpt><trkpt lat="44.598074925326465" lon="10.418054977341006"><ele>205.0</ele><time>2026-04-04T16:30:07Z</time></trkpt><trkpt lat="44.59817342457565" lon="10.417990455625178"><ele>205.0</ele><time>2026-04-04T16:30:08Z</time></trkpt><trkpt lat="44.59826391333772" lon="10.417897535200344"><ele>205.0</ele><time>2026-04-04T16:30:09Z</time></trkpt><trkpt lat="44.59835485815468" lon="10.41779999742116"><ele>204.6</ele><time>2026-04-04T16:30:10Z</time></trkpt><trkpt lat="44.59845393433857" lon="10.41773391193103"><ele>204.2</ele><time>2026-04-04T16:30:11Z</time></trkpt><trkpt lat="44.59855588833453" lon="10.417701006214775"><ele>203.8</ele><time>2026-04-04T16:30:12Z</time></trkpt><trkpt lat="44.598655966174356" lon="10.417687662145456"><ele>203.4</ele><time>2026-04-04T16:30:13Z</time></trkpt><trkpt lat="44.59874588472668" lon="10.417689923552823"><ele>203.0</ele><time>2026-04-04T16:30:14Z</time></trkpt><trkpt lat="44.59882831162525" lon="10.417688180894967"><ele>202.60000000000002</ele><time>2026-04-04T16:30:15Z</time></trkpt><trkpt lat="44.59890561904367" lon="10.417688441705293"><ele>202.20000000000002</ele><time>2026-04-04T16:30:16Z</time></trkpt><trkpt lat="44.59898415179078" lon="10.417706288320973"><ele>201.8</ele><time>2026-04-04T16:30:17Z</time></trkpt><trkpt lat="44.59905573820608" lon="10.41769096424753"><ele>201.4</ele><time>2026-04-04T16:30:18Z</time></trkpt><trkpt lat="44.59917210783903" lon="10.417590898467221"><ele>201.0</ele><time>2026-04-04T16:30:20Z</time></trkpt><trkpt lat="44.59923692904121" lon="10.4174932642255"><ele>201.0</ele><time>2026-04-04T16:30:21Z</time></trkpt><trkpt lat="44.599304884991774" lon="10.417382596391427"><ele>201.0</ele><time>2026-04-04T16:30:22Z</time></trkpt><trkpt lat="44.599365875854275" lon="10.417261930803544"><ele>201.0</ele><time>2026-04-04T16:30:23Z</time></trkpt><trkpt lat="44.59941737791855" lon="10.417131418045267"><ele>201.0</ele><time>2026-04-04T16:30:24Z</time></trkpt><trkpt lat="44.5994608186643" lon="10.416968056747546"><ele>201.0</ele><time>2026-04-04T16:30:25Z</time></trkpt><trkpt lat="44.59950104018073" lon="10.416816875291778"><ele>200.8</ele><time>2026-04-04T16:30:26Z</time></trkpt><trkpt lat="44.59954297922129" lon="10.416687409656923"><ele>200.60000000000002</ele><time>2026-04-04T16:30:27Z</time></trkpt><trkpt lat="44.59958968620008" lon="10.416558243142958"><ele>200.4</ele><time>2026-04-04T16:30:28Z</time></trkpt><trkpt lat="44.59965126218441" lon="10.416414090217916"><ele>200.2</ele><time>2026-04-04T16:30:29Z</time></trkpt><trkpt lat="44.59971497599022" lon="10.416265232902322"><ele>200.0</ele><time>2026-04-04T16:30:30Z</time></trkpt><trkpt lat="44.599783148174154" lon="10.416109305038873"><ele>199.5</ele><time>2026-04-04T16:30:31Z</time></trkpt><trkpt lat="44.59985421061056" lon="10.415952127414236"><ele>199.0</ele><time>2026-04-04T16:30:32Z</time></trkpt><trkpt lat="44.599916716930494" lon="10.415806087706752"><ele>198.5</ele><time>2026-04-04T16:30:33Z</time></trkpt><trkpt lat="44.59996795514649" lon="10.415672670169894"><ele>198.0</ele><time>2026-04-04T16:30:34Z</time></trkpt><trkpt lat="44.6000125539391" lon="10.415546932783892"><ele>198.4</ele><time>2026-04-04T16:30:35Z</time></trkpt><trkpt lat="44.60005253439722" lon="10.415431783198423"><ele>198.8</ele><time>2026-04-04T16:30:36Z</time></trkpt><trkpt lat="44.60009338130745" lon="10.415316730287843"><ele>199.2</ele><time>2026-04-04T16:30:37Z</time></trkpt><trkpt lat="44.60013287054002" lon="10.415207713274944"><ele>199.6</ele><time>2026-04-04T16:30:38Z</time></trkpt><trkpt lat="44.60016810848744" lon="10.415082426039135"><ele>200.0</ele><time>2026-04-04T16:30:39Z</time></trkpt><trkpt lat="44.600262855801816" lon="10.414983466287806"><ele>200.0</ele><time>2026-04-04T16:30:40Z</time></trkpt><trkpt lat="44.60034672799406" lon="10.414874489269408"><ele>200.0</ele><time>2026-04-04T16:30:41Z</time></trkpt><trkpt lat="44.60042688969482" lon="10.414766584970597"><ele>200.0</ele><time>2026-04-04T16:30:42Z</time></trkpt><trkpt lat="44.60049409335754" lon="10.41466611560826"><ele>200.0</ele><time>2026-04-04T16:30:43Z</time></trkpt><trkpt lat="44.60055431772478" lon="10.414568115633873"><ele>200.0</ele><time>2026-04-04T16:30:44Z</time></trkpt><trkpt lat="44.600603643213816" lon="10.41447053013988"><ele>199.83333333333334</ele><time>2026-04-04T16:30:45Z</time></trkpt><trkpt lat="44.60063362088388" lon="10.414369845995294"><ele>199.66666666666669</ele><time>2026-04-04T16:30:46Z</time></trkpt><trkpt lat="44.60063353876602" lon="10.414269658749967"><ele>199.5</ele><time>2026-04-04T16:30:47Z</time></trkpt><trkpt lat="44.60061492368049" lon="10.414172326021022"><ele>199.33333333333331</ele><time>2026-04-04T16:30:48Z</time></trkpt><trkpt lat="44.600589141625484" lon="10.41407565778041"><ele>199.16666666666666</ele><time>2026-04-04T16:30:49Z</time></trkpt><trkpt lat="44.60050571269909" lon="10.41402573957527"><ele>199.0</ele><time>2026-04-04T16:30:50Z</time></trkpt><trkpt lat="44.60042281410913" lon="10.413970440216492"><ele>199.2</ele><time>2026-04-04T16:30:51Z</time></trkpt><trkpt lat="44.60032327993716" lon="10.4139267297196"><ele>199.39999999999998</ele><time>2026-04-04T16:30:52Z</time></trkpt><trkpt lat="44.60022234157167" lon="10.413849755410068"><ele>199.6</ele><time>2026-04-04T16:30:53Z</time></trkpt><trkpt lat="44.60011623668925" lon="10.413793089607395"><ele>199.8</ele><time>2026-04-04T16:30:54Z</time></trkpt><trkpt lat="44.600032619410506" lon="10.41374843346205"><ele>200.0</ele><time>2026-04-04T16:30:55Z</time></trkpt><trkpt lat="44.59996203573174" lon="10.413710737959502"><ele>200.0</ele><time>2026-04-04T16:30:56Z</time></trkpt><trkpt lat="44.59986655790094" lon="10.413650946015649"><ele>200.0</ele><time>2026-04-04T16:30:58Z</time></trkpt><trkpt lat="44.599868730068586" lon="10.413476225122023"><ele>200.0</ele><time>2026-04-04T16:31:01Z</time></trkpt><trkpt lat="44.59990045147994" lon="10.41336112220155"><ele>200.0</ele><time>2026-04-04T16:31:02Z</time></trkpt><trkpt lat="44.59993825606464" lon="10.413239310263553"><ele>200.0</ele><time>2026-04-04T16:31:03Z</time></trkpt><trkpt lat="44.59996887810963" lon="10.41311032070582"><ele>200.33333333333334</ele><time>2026-04-04T16:31:04Z</time></trkpt><trkpt lat="44.60000178795073" lon="10.412980160179838"><ele>200.66666666666669</ele><time>2026-04-04T16:31:05Z</time></trkpt><trkpt lat="44.60003652347666" lon="10.412866282643478"><ele>201.0</ele><time>2026-04-04T16:31:06Z</time></trkpt><trkpt lat="44.60007305586289" lon="10.412773274595853"><ele>201.33333333333331</ele><time>2026-04-04T16:31:07Z</time></trkpt><trkpt lat="44.60010821698384" lon="10.412684973521591"><ele>201.66666666666666</ele><time>2026-04-04T16:31:08Z</time></trkpt><trkpt lat="44.60015294239355" lon="10.412555680119283"><ele>202.0</ele><time>2026-04-04T16:31:10Z</time></trkpt><trkpt lat="44.600217662654686" lon="10.412418381445693"><ele>201.2</ele><time>2026-04-04T16:31:40.999Z</time></trkpt><trkpt lat="44.60034064285563" lon="10.41236804794473"><ele>200.39999999999998</ele><time>2026-04-04T16:31:42.999Z</time></trkpt><trkpt lat="44.60041123434341" lon="10.412383487463336"><ele>199.60000000000002</ele><time>2026-04-04T16:31:43.999Z</time></trkpt><trkpt lat="44.60049274490661" lon="10.412456220522678"><ele>198.8</ele><time>2026-04-04T16:31:44.999Z</time></trkpt><trkpt lat="44.60057185777913" lon="10.41252344220397"><ele>198.0</ele><time>2026-04-04T16:31:45.999Z</time></trkpt><trkpt lat="44.60064078857154" lon="10.412585363147995"><ele>198.0</ele><time>2026-04-04T16:31:46.999Z</time></trkpt><trkpt lat="44.600700618046915" lon="10.41263638329005"><ele>198.0</ele><time>2026-04-04T16:31:47.999Z</time></trkpt><trkpt lat="44.60075996787142" lon="10.412681853316634"><ele>198.0</ele><time>2026-04-04T16:31:48.999Z</time></trkpt><trkpt lat="44.60083197337064" lon="10.412797367911855"><ele>198.0</ele><time>2026-04-04T16:31:50.999Z</time></trkpt><trkpt lat="44.60083929134804" lon="10.412987874650174"><ele>198.0</ele><time>2026-04-04T16:31:53.999Z</time></trkpt><trkpt lat="44.60089862189696" lon="10.413104701247429"><ele>198.0</ele><time>2026-04-04T16:31:55.999Z</time></trkpt><trkpt lat="44.60097010593484" lon="10.413174732516408"><ele>198.0</ele><time>2026-04-04T16:31:57Z</time></trkpt><trkpt lat="44.60105075950808" lon="10.413227207709443"><ele>198.0</ele><time>2026-04-04T16:31:58Z</time></trkpt><trkpt lat="44.60112765704758" lon="10.413273535732552"><ele>198.0</ele><time>2026-04-04T16:31:59Z</time></trkpt><trkpt lat="44.601191480121415" lon="10.413314725621555"><ele>198.0</ele><time>2026-04-04T16:32:00Z</time></trkpt><trkpt lat="44.601283970061175" lon="10.413375720220778"><ele>198.0</ele><time>2026-04-04T16:32:02Z</time></trkpt><trkpt lat="44.60135075246612" lon="10.413419761336405"><ele>198.5</ele><time>2026-04-04T16:32:04Z</time></trkpt><trkpt lat="44.60133427480719" lon="10.41354212178189"><ele>199.0</ele><time>2026-04-04T16:32:07Z</time></trkpt><trkpt lat="44.60128475183274" lon="10.413621308682687"><ele>199.5</ele><time>2026-04-04T16:32:08Z</time></trkpt><trkpt lat="44.60131785468039" lon="10.413749442994304"><ele>200.0</ele><time>2026-04-04T16:32:10Z</time></trkpt><trkpt lat="44.60138425614916" lon="10.41380663360829"><ele>200.5</ele><time>2026-04-04T16:32:11Z</time></trkpt><trkpt lat="44.601445883171635" lon="10.413884892901324"><ele>201.0</ele><time>2026-04-04T16:32:12Z</time></trkpt><trkpt lat="44.60152948489488" lon="10.413974012450204"><ele>201.75</ele><time>2026-04-04T16:32:13Z</time></trkpt><trkpt lat="44.60161936485238" lon="10.414071933361837"><ele>202.5</ele><time>2026-04-04T16:32:14Z</time></trkpt><trkpt lat="44.60172145589676" lon="10.41417900630807"><ele>203.25</ele><time>2026-04-04T16:32:15Z</time></trkpt><trkpt lat="44.60182350687487" lon="10.414284977771423"><ele>204.0</ele><time>2026-04-04T16:32:16Z</time></trkpt><trkpt lat="44.601907401948125" lon="10.414379821509394"><ele>204.0</ele><time>2026-04-04T16:32:17Z</time></trkpt><trkpt lat="44.60199393743854" lon="10.414472084926539"><ele>204.0</ele><time>2026-04-04T16:32:18Z</time></trkpt><trkpt lat="44.602084416327656" lon="10.41455391582229"><ele>204.0</ele><time>2026-04-04T16:32:19Z</time></trkpt><trkpt lat="44.60218778184514" lon="10.414624084149493"><ele>204.0</ele><time>2026-04-04T16:32:20Z</time></trkpt><trkpt lat="44.60229933548282" lon="10.414691609881597"><ele>204.5</ele><time>2026-04-04T16:32:21Z</time></trkpt><trkpt lat="44.60241119458694" lon="10.414758434972265"><ele>205.0</ele><time>2026-04-04T16:32:22Z</time></trkpt><trkpt lat="44.602528488825236" lon="10.414826260309809"><ele>205.5</ele><time>2026-04-04T16:32:23Z</time></trkpt><trkpt lat="44.60264708808781" lon="10.414892718405042"><ele>206.0</ele><time>2026-04-04T16:32:24Z</time></trkpt><trkpt lat="44.6027687992918" lon="10.414964892110625"><ele>205.5</ele><time>2026-04-04T16:32:25Z</time></trkpt><trkpt lat="44.602888707859336" lon="10.415086898042356"><ele>205.0</ele><time>2026-04-04T16:32:26Z</time></trkpt><trkpt lat="44.60300326722081" lon="10.415209200177175"><ele>204.5</ele><time>2026-04-04T16:32:27Z</time></trkpt><trkpt lat="44.60311957958684" lon="10.415316741889264"><ele>204.0</ele><time>2026-04-04T16:32:28Z</time></trkpt><trkpt lat="44.60322772405188" lon="10.415418673055454"><ele>204.5</ele><time>2026-04-04T16:32:29Z</time></trkpt><trkpt lat="44.603331091642566" lon="10.415516955353112"><ele>205.0</ele><time>2026-04-04T16:32:30Z</time></trkpt><trkpt lat="44.60343986395146" lon="10.415603010574069"><ele>205.5</ele><time>2026-04-04T16:32:31Z</time></trkpt><trkpt lat="44.60354471346407" lon="10.41567592963829"><ele>206.0</ele><time>2026-04-04T16:32:32Z</time></trkpt><trkpt lat="44.603641673154186" lon="10.415741412503522"><ele>205.4</ele><time>2026-04-04T16:32:33Z</time></trkpt><trkpt lat="44.60373090314484" lon="10.415809748775715"><ele>204.8</ele><time>2026-04-04T16:32:34Z</time></trkpt><trkpt lat="44.60382283239972" lon="10.415887338901653"><ele>204.20000000000002</ele><time>2026-04-04T16:32:35Z</time></trkpt><trkpt lat="44.60391249042377" lon="10.415971329995466"><ele>203.60000000000002</ele><time>2026-04-04T16:32:36Z</time></trkpt><trkpt lat="44.60400360742928" lon="10.41607617248238"><ele>203.0</ele><time>2026-04-04T16:32:37Z</time></trkpt><trkpt lat="44.604093613984034" lon="10.41619418599404"><ele>203.0</ele><time>2026-04-04T16:32:38Z</time></trkpt><trkpt lat="44.60418846076806" lon="10.416309412153609"><ele>203.0</ele><time>2026-04-04T16:32:39Z</time></trkpt><trkpt lat="44.60428404489277" lon="10.41642015766361"><ele>203.0</ele><time>2026-04-04T16:32:40Z</time></trkpt><trkpt lat="44.60436540615203" lon="10.416518214452434"><ele>203.0</ele><time>2026-04-04T16:32:41Z</time></trkpt><trkpt lat="44.604460445125326" lon="10.416623763433137"><ele>202.8</ele><time>2026-04-04T16:32:42Z</time></trkpt><trkpt lat="44.60455675070345" lon="10.416721838596501"><ele>202.60000000000002</ele><time>2026-04-04T16:32:43Z</time></trkpt><trkpt lat="44.604647403048396" lon="10.416813884715447"><ele>202.39999999999998</ele><time>2026-04-04T16:32:44Z</time></trkpt><trkpt lat="44.604742471271074" lon="10.41689013743147"><ele>202.2</ele><time>2026-04-04T16:32:45Z</time></trkpt><trkpt lat="44.604826041922415" lon="10.416965281403069"><ele>202.0</ele><time>2026-04-04T16:32:46Z</time></trkpt><trkpt lat="44.60491965060311" lon="10.417019725804774"><ele>202.0</ele><time>2026-04-04T16:32:47Z</time></trkpt><trkpt lat="44.60502185087864" lon="10.417053434222218"><ele>202.0</ele><time>2026-04-04T16:32:48Z</time></trkpt><trkpt lat="44.60512411342943" lon="10.417061602036206"><ele>202.0</ele><time>2026-04-04T16:32:49Z</time></trkpt><trkpt lat="44.60522508273784" lon="10.417030997703135"><ele>202.0</ele><time>2026-04-04T16:32:50Z</time></trkpt><trkpt lat="44.605332643899146" lon="10.416983947275426"><ele>202.0</ele><time>2026-04-04T16:32:51Z</time></trkpt><trkpt lat="44.60543146676692" lon="10.416901913666052"><ele>201.0</ele><time>2026-04-04T16:32:52Z</time></trkpt><trkpt lat="44.60551576828173" lon="10.416791361669901"><ele>200.0</ele><time>2026-04-04T16:32:53Z</time></trkpt><trkpt lat="44.60558053857833" lon="10.416678541313516"><ele>199.0</ele><time>2026-04-04T16:32:54Z</time></trkpt><trkpt lat="44.605630335690186" lon="10.416560390075102"><ele>198.0</ele><time>2026-04-04T16:32:55Z</time></trkpt><trkpt lat="44.605678705942736" lon="10.41644587734297"><ele>197.0</ele><time>2026-04-04T16:32:56Z</time></trkpt><trkpt lat="44.60571926527152" lon="10.416331873959654"><ele>197.2</ele><time>2026-04-04T16:32:57Z</time></trkpt><trkpt lat="44.60576513948661" lon="10.41621039972746"><ele>197.39999999999998</ele><time>2026-04-04T16:32:58Z</time></trkpt><trkpt lat="44.60581750135902" lon="10.416076837039498"><ele>197.60000000000002</ele><time>2026-04-04T16:32:59Z</time></trkpt><trkpt lat="44.605868819253686" lon="10.415957139816523"><ele>197.8</ele><time>2026-04-04T16:33:00Z</time></trkpt><trkpt lat="44.605917142198315" lon="10.415848433453961"><ele>198.0</ele><time>2026-04-04T16:33:01Z</time></trkpt><trkpt lat="44.60596253063818" lon="10.415741575971659"><ele>198.0</ele><time>2026-04-04T16:33:02Z</time></trkpt><trkpt lat="44.60600604753589" lon="10.415627049508448"><ele>198.0</ele><time>2026-04-04T16:33:03Z</time></trkpt><trkpt lat="44.606048416759116" lon="10.415513488262762"><ele>198.0</ele><time>2026-04-04T16:33:04Z</time></trkpt><trkpt lat="44.60608520438241" lon="10.415407369268893"><ele>198.0</ele><time>2026-04-04T16:33:05Z</time></trkpt><trkpt lat="44.6061223388976" lon="10.41530859370885"><ele>198.0</ele><time>2026-04-04T16:33:06Z</time></trkpt><trkpt lat="44.60615637969287" lon="10.415218871657107"><ele>198.0</ele><time>2026-04-04T16:33:07Z</time></trkpt><trkpt lat="44.6061888482587" lon="10.415137490835177"><ele>197.4</ele><time>2026-04-04T16:33:08Z</time></trkpt><trkpt lat="44.606248243048384" lon="10.414993387894866"><ele>196.8</ele><time>2026-04-04T16:33:10Z</time></trkpt><trkpt lat="44.606289315721476" lon="10.414869570954327"><ele>196.2</ele><time>2026-04-04T16:33:12Z</time></trkpt><trkpt lat="44.606309603863934" lon="10.414785131469054"><ele>195.6</ele><time>2026-04-04T16:33:19Z</time></trkpt><trkpt lat="44.60635929103823" lon="10.414711172710014"><ele>195.0</ele><time>2026-04-04T16:35:40.999Z</time></trkpt><trkpt lat="44.6064154414576" lon="10.414587444831598"><ele>195.0</ele><time>2026-04-04T16:35:42.999Z</time></trkpt><trkpt lat="44.60644024984993" lon="10.41450532997087"><ele>195.0</ele><time>2026-04-04T16:35:43.999Z</time></trkpt><trkpt lat="44.60647509297113" lon="10.414413735915447"><ele>195.0</ele><time>2026-04-04T16:35:44.999Z</time></trkpt><trkpt lat="44.606511392269574" lon="10.4143072692457"><ele>195.0</ele><time>2026-04-04T16:35:45.999Z</time></trkpt><trkpt lat="44.6065453504865" lon="10.414187812077301"><ele>195.0</ele><time>2026-04-04T16:35:46.999Z</time></trkpt><trkpt lat="44.60657163342878" lon="10.414077710761408"><ele>195.0</ele><time>2026-04-04T16:35:47.999Z</time></trkpt><trkpt lat="44.60659315170061" lon="10.413974322624533"><ele>195.0</ele><time>2026-04-04T16:35:48.999Z</time></trkpt><trkpt lat="44.60661061923706" lon="10.41387740371706"><ele>195.0</ele><time>2026-04-04T16:35:49.999Z</time></trkpt><trkpt lat="44.606629207508256" lon="10.413788646286237"><ele>195.0</ele><time>2026-04-04T16:35:50.999Z</time></trkpt><trkpt lat="44.60666742286825" lon="10.413655394271336"><ele>195.0</ele><time>2026-04-04T16:35:52.999Z</time></trkpt><trkpt lat="44.60677161865218" lon="10.413527225146858"><ele>195.0</ele><time>2026-04-04T16:35:54.999Z</time></trkpt><trkpt lat="44.606868815281146" lon="10.413557048082623"><ele>195.0</ele><time>2026-04-04T16:35:55.999Z</time></trkpt><trkpt lat="44.60696595525357" lon="10.413572637916952"><ele>195.0</ele><time>2026-04-04T16:35:56.999Z</time></trkpt><trkpt lat="44.60707057217208" lon="10.41360350302005"><ele>195.0</ele><time>2026-04-04T16:35:57.999Z</time></trkpt><trkpt lat="44.607190860681015" lon="10.413642691329628"><ele>195.0</ele><time>2026-04-04T16:35:58.999Z</time></trkpt><trkpt lat="44.60732016542871" lon="10.413683515096627"><ele>195.0</ele><time>2026-04-04T16:35:59.999Z</time></trkpt><trkpt lat="44.60745831798295" lon="10.413720970540082"><ele>195.0</ele><time>2026-04-04T16:36:00.999Z</time></trkpt><trkpt lat="44.607598804448415" lon="10.413767873022111"><ele>195.0</ele><time>2026-04-04T16:36:01.999Z</time></trkpt><trkpt lat="44.6077648589834" lon="10.413827245814769"><ele>193.66666666666666</ele><time>2026-04-04T16:36:02.999Z</time></trkpt><trkpt lat="44.607926813596436" lon="10.413885819812334"><ele>192.33333333333331</ele><time>2026-04-04T16:36:03.999Z</time></trkpt><trkpt lat="44.60809303525014" lon="10.41394803847959"><ele>191.0</ele><time>2026-04-04T16:36:04.999Z</time></trkpt><trkpt lat="44.60826845580494" lon="10.41401072813883"><ele>191.0</ele><time>2026-04-04T16:36:05.999Z</time></trkpt><trkpt lat="44.608450026327056" lon="10.414082233542556"><ele>191.0</ele><time>2026-04-04T16:36:06.999Z</time></trkpt><trkpt lat="44.608633676238675" lon="10.414155729132066"><ele>191.0</ele><time>2026-04-04T16:36:07.999Z</time></trkpt><trkpt lat="44.60880559081103" lon="10.414220230315944"><ele>189.66666666666666</ele><time>2026-04-04T16:36:09Z</time></trkpt><trkpt lat="44.60897429701077" lon="10.414285944919264"><ele>188.33333333333334</ele><time>2026-04-04T16:36:10Z</time></trkpt><trkpt lat="44.60914388306203" lon="10.414354854251675"><ele>187.0</ele><time>2026-04-04T16:36:11Z</time></trkpt><trkpt lat="44.60931455982847" lon="10.4144210265078"><ele>187.0</ele><time>2026-04-04T16:36:12Z</time></trkpt><trkpt lat="44.6094702491866" lon="10.414474834504176"><ele>187.0</ele><time>2026-04-04T16:36:13Z</time></trkpt><trkpt lat="44.609629756208655" lon="10.414511750726094"><ele>187.0</ele><time>2026-04-04T16:36:14Z</time></trkpt><trkpt lat="44.60978353403618" lon="10.41452495024805"><ele>187.33333333333334</ele><time>2026-04-04T16:36:15Z</time></trkpt><trkpt lat="44.60993857559357" lon="10.414505840142287"><ele>187.66666666666666</ele><time>2026-04-04T16:36:16Z</time></trkpt><trkpt lat="44.610099212300675" lon="10.414470498881135"><ele>188.0</ele><time>2026-04-04T16:36:17Z</time></trkpt><trkpt lat="44.61026271706257" lon="10.41443642027077"><ele>189.0</ele><time>2026-04-04T16:36:18Z</time></trkpt><trkpt lat="44.61042195128456" lon="10.414410354712597"><ele>190.0</ele><time>2026-04-04T16:36:19Z</time></trkpt><trkpt lat="44.610583588750345" lon="10.414388523921202"><ele>191.0</ele><time>2026-04-04T16:36:20Z</time></trkpt><trkpt lat="44.61074903737051" lon="10.41437373177648"><ele>191.0</ele><time>2026-04-04T16:36:21Z</time></trkpt><trkpt lat="44.61091765123721" lon="10.414363142732427"><ele>191.0</ele><time>2026-04-04T16:36:22Z</time></trkpt><trkpt lat="44.61108738819194" lon="10.414362186503586"><ele>191.0</ele><time>2026-04-04T16:36:23Z</time></trkpt><trkpt lat="44.6112559760479" lon="10.414369579669101"><ele>191.0</ele><time>2026-04-04T16:36:24Z</time></trkpt><trkpt lat="44.61141249512308" lon="10.41438704397746"><ele>191.0</ele><time>2026-04-04T16:36:25Z</time></trkpt><trkpt lat="44.61157007296541" lon="10.414418921540051"><ele>191.0</ele><time>2026-04-04T16:36:26Z</time></trkpt><trkpt lat="44.611728236115624" lon="10.414458685624343"><ele>191.0</ele><time>2026-04-04T16:36:27Z</time></trkpt><trkpt lat="44.611889902226665" lon="10.414505391378743"><ele>191.0</ele><time>2026-04-04T16:36:28Z</time></trkpt><trkpt lat="44.61206019653449" lon="10.41455376092153"><ele>191.0</ele><time>2026-04-04T16:36:29Z</time></trkpt><trkpt lat="44.612233248154666" lon="10.414606978509955"><ele>190.66666666666666</ele><time>2026-04-04T16:36:30Z</time></trkpt><trkpt lat="44.6123950430164" lon="10.414654362651774"><ele>190.33333333333334</ele><time>2026-04-04T16:36:31Z</time></trkpt><trkpt lat="44.61255049836756" lon="10.414702376097013"><ele>190.0</ele><time>2026-04-04T16:36:32Z</time></trkpt><trkpt lat="44.612709943062754" lon="10.414750152047231"><ele>189.66666666666669</ele><time>2026-04-04T16:36:33Z</time></trkpt><trkpt lat="44.61287148749575" lon="10.414798887672934"><ele>189.33333333333334</ele><time>2026-04-04T16:36:34Z</time></trkpt><trkpt lat="44.61303358814725" lon="10.41484522305271"><ele>189.0</ele><time>2026-04-04T16:36:35Z</time></trkpt><trkpt lat="44.61319801151608" lon="10.414894212848099"><ele>189.0</ele><time>2026-04-04T16:36:36Z</time></trkpt><trkpt lat="44.61335920595151" lon="10.414942258671509"><ele>189.0</ele><time>2026-04-04T16:36:37Z</time></trkpt><trkpt lat="44.613502475554334" lon="10.414983785489975"><ele>189.0</ele><time>2026-04-04T16:36:38Z</time></trkpt><trkpt lat="44.613644628626325" lon="10.415024571930724"><ele>188.75</ele><time>2026-04-04T16:36:39Z</time></trkpt><trkpt lat="44.613783252764264" lon="10.415064310437472"><ele>188.5</ele><time>2026-04-04T16:36:40Z</time></trkpt><trkpt lat="44.61391049644105" lon="10.41510080593774"><ele>188.25</ele><time>2026-04-04T16:36:41Z</time></trkpt><trkpt lat="44.61402744368541" lon="10.415137171742346"><ele>188.0</ele><time>2026-04-04T16:36:42Z</time></trkpt><trkpt lat="44.61414023082854" lon="10.415169136491745"><ele>188.0</ele><time>2026-04-04T16:36:43Z</time></trkpt><trkpt lat="44.61424568450487" lon="10.415195711127952"><ele>188.0</ele><time>2026-04-04T16:36:44Z</time></trkpt><trkpt lat="44.61434444123516" lon="10.41521871268279"><ele>188.0</ele><time>2026-04-04T16:36:45Z</time></trkpt><trkpt lat="44.614438247398716" lon="10.415231839120475"><ele>188.0</ele><time>2026-04-04T16:36:46Z</time></trkpt><trkpt lat="44.61451514196664" lon="10.415224869740838"><ele>188.0</ele><time>2026-04-04T16:36:47Z</time></trkpt><trkpt lat="44.61458039638822" lon="10.415204096588631"><ele>188.0</ele><time>2026-04-04T16:36:48Z</time></trkpt><trkpt lat="44.614643652383315" lon="10.41518245394292"><ele>187.83333333333331</ele><time>2026-04-04T16:36:49Z</time></trkpt><trkpt lat="44.61472279451643" lon="10.415170033015244"><ele>187.66666666666666</ele><time>2026-04-04T16:36:50Z</time></trkpt><trkpt lat="44.6148024828407" lon="10.41514422601806"><ele>187.5</ele><time>2026-04-04T16:36:51Z</time></trkpt><trkpt lat="44.61486281030431" lon="10.415084303907141"><ele>187.33333333333334</ele><time>2026-04-04T16:36:52Z</time></trkpt><trkpt lat="44.614917197902294" lon="10.41498577399642"><ele>187.16666666666669</ele><time>2026-04-04T16:36:53Z</time></trkpt><trkpt lat="44.61497105831861" lon="10.414852142765803"><ele>187.0</ele><time>2026-04-04T16:36:54Z</time></trkpt><trkpt lat="44.61505160446273" lon="10.414710630535668"><ele>186.33333333333334</ele><time>2026-04-04T16:36:55Z</time></trkpt><trkpt lat="44.61514844185603" lon="10.414569407345931"><ele>185.66666666666666</ele><time>2026-04-04T16:36:56Z</time></trkpt><trkpt lat="44.61524394970069" lon="10.414405715025751"><ele>185.0</ele><time>2026-04-04T16:36:57Z</time></trkpt><trkpt lat="44.615326995639634" lon="10.414207653724084"><ele>184.33333333333331</ele><time>2026-04-04T16:36:58Z</time></trkpt><trkpt lat="44.615395797714804" lon="10.413991551219505"><ele>183.66666666666666</ele><time>2026-04-04T16:36:59Z</time></trkpt><trkpt lat="44.61545986105764" lon="10.413751545486127"><ele>183.0</ele><time>2026-04-04T16:37:00Z</time></trkpt><trkpt lat="44.615526217012444" lon="10.413508711747227"><ele>181.0</ele><time>2026-04-04T16:37:01Z</time></trkpt><trkpt lat="44.61559316965046" lon="10.413265375036632"><ele>179.0</ele><time>2026-04-04T16:37:02Z</time></trkpt><trkpt lat="44.61565722558677" lon="10.4130436458723"><ele>177.0</ele><time>2026-04-04T16:37:03Z</time></trkpt><trkpt lat="44.61572041777594" lon="10.412825246088351"><ele>175.0</ele><time>2026-04-04T16:37:04Z</time></trkpt><trkpt lat="44.61578269615282" lon="10.412603882805286"><ele>173.0</ele><time>2026-04-04T16:37:05Z</time></trkpt><trkpt lat="44.615845302544294" lon="10.4123803363057"><ele>171.0</ele><time>2026-04-04T16:37:06Z</time></trkpt><trkpt lat="44.615906829186045" lon="10.412168472742843"><ele>170.25</ele><time>2026-04-04T16:37:07Z</time></trkpt><trkpt lat="44.61596862517695" lon="10.411970230765592"><ele>169.5</ele><time>2026-04-04T16:37:08Z</time></trkpt><trkpt lat="44.616037915275804" lon="10.411788421524255"><ele>168.75</ele><time>2026-04-04T16:37:09Z</time></trkpt><trkpt lat="44.61612245018598" lon="10.411631550701294"><ele>168.0</ele><time>2026-04-04T16:37:10Z</time></trkpt><trkpt lat="44.61622480351205" lon="10.411479256774376"><ele>168.0</ele><time>2026-04-04T16:37:11Z</time></trkpt><trkpt lat="44.61633587136782" lon="10.411355523842754"><ele>168.0</ele><time>2026-04-04T16:37:12Z</time></trkpt><trkpt lat="44.61645671553914" lon="10.411242285449804"><ele>168.0</ele><time>2026-04-04T16:37:13Z</time></trkpt><trkpt lat="44.616589595147666" lon="10.41114934418951"><ele>168.0</ele><time>2026-04-04T16:37:14Z</time></trkpt><trkpt lat="44.61673091813232" lon="10.411083324974415"><ele>167.66666666666666</ele><time>2026-04-04T16:37:15Z</time></trkpt><trkpt lat="44.61687750233449" lon="10.41103628381517"><ele>167.33333333333331</ele><time>2026-04-04T16:37:16Z</time></trkpt><trkpt lat="44.617028349055204" lon="10.411014651635504"><ele>167.0</ele><time>2026-04-04T16:37:17Z</time></trkpt><trkpt lat="44.61718191901736" lon="10.41101665876978"><ele>166.66666666666666</ele><time>2026-04-04T16:37:18Z</time></trkpt><trkpt lat="44.617334883568205" lon="10.411051802592466"><ele>166.33333333333334</ele><time>2026-04-04T16:37:19Z</time></trkpt><trkpt lat="44.61748622263676" lon="10.411116812299916"><ele>166.0</ele><time>2026-04-04T16:37:20Z</time></trkpt><trkpt lat="44.61763724417855" lon="10.411198008027684"><ele>166.0</ele><time>2026-04-04T16:37:21Z</time></trkpt><trkpt lat="44.61778976015631" lon="10.411283423894085"><ele>166.0</ele><time>2026-04-04T16:37:22Z</time></trkpt><trkpt lat="44.61794699442237" lon="10.411373324400474"><ele>166.0</ele><time>2026-04-04T16:37:23Z</time></trkpt><trkpt lat="44.61810825277768" lon="10.411466545934468"><ele>166.0</ele><time>2026-04-04T16:37:24Z</time></trkpt><trkpt lat="44.61827142393801" lon="10.41156518121009"><ele>166.0</ele><time>2026-04-04T16:37:25Z</time></trkpt><trkpt lat="44.61843958806472" lon="10.411660038710187"><ele>166.0</ele><time>2026-04-04T16:37:26Z</time></trkpt><trkpt lat="44.618609475865135" lon="10.411755430672612"><ele>166.66666666666669</ele><time>2026-04-04T16:37:27Z</time></trkpt><trkpt lat="44.61877794220024" lon="10.411854035527314"><ele>167.33333333333334</ele><time>2026-04-04T16:37:27.999Z</time></trkpt><trkpt lat="44.618948468840955" lon="10.411955080685285"><ele>168.0</ele><time>2026-04-04T16:37:28.999Z</time></trkpt><trkpt lat="44.61911275560487" lon="10.41205277986887"><ele>168.0</ele><time>2026-04-04T16:37:29.999Z</time></trkpt><trkpt lat="44.61926886403282" lon="10.41214295920996"><ele>168.0</ele><time>2026-04-04T16:37:30.999Z</time></trkpt><trkpt lat="44.619426694474974" lon="10.41223333679508"><ele>168.0</ele><time>2026-04-04T16:37:31.999Z</time></trkpt><trkpt lat="44.619586901244396" lon="10.412324341375799"><ele>171.33333333333334</ele><time>2026-04-04T16:37:32.999Z</time></trkpt><trkpt lat="44.61974677002131" lon="10.412416793514925"><ele>174.66666666666669</ele><time>2026-04-04T16:37:33.999Z</time></trkpt><trkpt lat="44.61990475646799" lon="10.412511412107252"><ele>178.0</ele><time>2026-04-04T16:37:34.999Z</time></trkpt><trkpt lat="44.62005947326487" lon="10.412608723692234"><ele>178.0</ele><time>2026-04-04T16:37:35.999Z</time></trkpt><trkpt lat="44.620215021650594" lon="10.412708470227324"><ele>178.0</ele><time>2026-04-04T16:37:36.999Z</time></trkpt><trkpt lat="44.620366455976075" lon="10.412809385377763"><ele>178.0</ele><time>2026-04-04T16:37:37.999Z</time></trkpt><trkpt lat="44.62051814529532" lon="10.412918478023522"><ele>178.33333333333334</ele><time>2026-04-04T16:37:38.999Z</time></trkpt><trkpt lat="44.62067524508159" lon="10.413037394746231"><ele>178.66666666666666</ele><time>2026-04-04T16:37:39.999Z</time></trkpt><trkpt lat="44.62083981959831" lon="10.413170920475233"><ele>179.0</ele><time>2026-04-04T16:37:40.999Z</time></trkpt><trkpt lat="44.62100008818143" lon="10.413310018799056"><ele>179.0</ele><time>2026-04-04T16:37:41.999Z</time></trkpt><trkpt lat="44.62113972027097" lon="10.413439363087775"><ele>179.0</ele><time>2026-04-04T16:37:42.999Z</time></trkpt><trkpt lat="44.6212719016454" lon="10.413572591720861"><ele>179.0</ele><time>2026-04-04T16:37:43.999Z</time></trkpt><trkpt lat="44.621404489914674" lon="10.413714123293316"><ele>178.0</ele><time>2026-04-04T16:37:44.999Z</time></trkpt><trkpt lat="44.621534418693365" lon="10.41386220270508"><ele>177.0</ele><time>2026-04-04T16:37:45.999Z</time></trkpt><trkpt lat="44.62166177947241" lon="10.414016879288841"><ele>176.0</ele><time>2026-04-04T16:37:46.999Z</time></trkpt><trkpt lat="44.62178665527142" lon="10.414177057122913"><ele>176.0</ele><time>2026-04-04T16:37:47.999Z</time></trkpt><trkpt lat="44.621910162750986" lon="10.414342564159162"><ele>176.0</ele><time>2026-04-04T16:37:48.999Z</time></trkpt><trkpt lat="44.62203439499158" lon="10.414517102231212"><ele>176.0</ele><time>2026-04-04T16:37:49.999Z</time></trkpt><trkpt lat="44.622150847583534" lon="10.414696966388156"><ele>172.33333333333331</ele><time>2026-04-04T16:37:50.999Z</time></trkpt><trkpt lat="44.622252639103614" lon="10.414870645408326"><ele>168.66666666666666</ele><time>2026-04-04T16:37:51.999Z</time></trkpt><trkpt lat="44.6223513999736" lon="10.415042115823756"><ele>165.0</ele><time>2026-04-04T16:37:52.999Z</time></trkpt><trkpt lat="44.62244817589705" lon="10.415216178853345"><ele>165.0</ele><time>2026-04-04T16:37:53.999Z</time></trkpt><trkpt lat="44.622544271355785" lon="10.415385163954836"><ele>165.0</ele><time>2026-04-04T16:37:54.999Z</time></trkpt><trkpt lat="44.62263708677161" lon="10.415560438132838"><ele>165.0</ele><time>2026-04-04T16:37:55.999Z</time></trkpt><trkpt lat="44.62273447829144" lon="10.415733281390137"><ele>163.66666666666666</ele><time>2026-04-04T16:37:56.999Z</time></trkpt><trkpt lat="44.62282716889616" lon="10.415906166514183"><ele>162.33333333333331</ele><time>2026-04-04T16:37:57.999Z</time></trkpt><trkpt lat="44.622923027831135" lon="10.416085361228392"><ele>161.0</ele><time>2026-04-04T16:37:58.999Z</time></trkpt><trkpt lat="44.62301132626192" lon="10.416267217414479"><ele>161.66666666666666</ele><time>2026-04-04T16:37:59.999Z</time></trkpt><trkpt lat="44.62310981707964" lon="10.416450460083185"><ele>162.33333333333334</ele><time>2026-04-04T16:38:00.999Z</time></trkpt><trkpt lat="44.623203453578405" lon="10.416625104842792"><ele>163.0</ele><time>2026-04-04T16:38:01.999Z</time></trkpt><trkpt lat="44.62329379705811" lon="10.416797915414907"><ele>163.0</ele><time>2026-04-04T16:38:02.999Z</time></trkpt><trkpt lat="44.62338549719214" lon="10.416968261271421"><ele>163.0</ele><time>2026-04-04T16:38:03.999Z</time></trkpt><trkpt lat="44.62348103807386" lon="10.417133629701937"><ele>163.0</ele><time>2026-04-04T16:38:04.999Z</time></trkpt><trkpt lat="44.62357118612463" lon="10.417299951185518"><ele>161.25</ele><time>2026-04-04T16:38:05.999Z</time></trkpt><trkpt lat="44.623657083253676" lon="10.417464720171647"><ele>159.5</ele><time>2026-04-04T16:38:06.999Z</time></trkpt><trkpt lat="44.62374531656997" lon="10.41762881125557"><ele>157.75</ele><time>2026-04-04T16:38:07.999Z</time></trkpt><trkpt lat="44.62383145485143" lon="10.417780783263943"><ele>156.0</ele><time>2026-04-04T16:38:08.999Z</time></trkpt><trkpt lat="44.62391636159222" lon="10.417916663765759"><ele>156.6</ele><time>2026-04-04T16:38:09.999Z</time></trkpt><trkpt lat="44.623997753118225" lon="10.418040673623553"><ele>157.2</ele><time>2026-04-04T16:38:10.999Z</time></trkpt><trkpt lat="44.62408017590068" lon="10.418149540767416"><ele>157.8</ele><time>2026-04-04T16:38:11.999Z</time></trkpt><trkpt lat="44.62415656697142" lon="10.418251395153517"><ele>158.4</ele><time>2026-04-04T16:38:12.999Z</time></trkpt><trkpt lat="44.62422603889058" lon="10.41834857436052"><ele>159.0</ele><time>2026-04-04T16:38:13.999Z</time></trkpt><trkpt lat="44.62428736884057" lon="10.418444186468252"><ele>159.0</ele><time>2026-04-04T16:38:15Z</time></trkpt><trkpt lat="44.6243387543767" lon="10.418547894253225"><ele>159.0</ele><time>2026-04-04T16:38:16Z</time></trkpt><trkpt lat="44.62438198823512" lon="10.41866963694608"><ele>159.0</ele><time>2026-04-04T16:38:17Z</time></trkpt><trkpt lat="44.624429667443145" lon="10.418780560187741"><ele>159.0</ele><time>2026-04-04T16:38:18Z</time></trkpt><trkpt lat="44.62450219121271" lon="10.418871561869004"><ele>159.0</ele><time>2026-04-04T16:38:19Z</time></trkpt><trkpt lat="44.62459202192747" lon="10.418948591174273"><ele>158.25</ele><time>2026-04-04T16:38:20Z</time></trkpt><trkpt lat="44.62469093017991" lon="10.419031425128251"><ele>157.5</ele><time>2026-04-04T16:38:21Z</time></trkpt><trkpt lat="44.62478890765081" lon="10.419139448907654"><ele>156.75</ele><time>2026-04-04T16:38:22Z</time></trkpt><trkpt lat="44.62488062167112" lon="10.419275301617501"><ele>156.0</ele><time>2026-04-04T16:38:23Z</time></trkpt><trkpt lat="44.62498269579049" lon="10.419410572906997"><ele>156.0</ele><time>2026-04-04T16:38:24Z</time></trkpt><trkpt lat="44.62508863672165" lon="10.419562513107476"><ele>156.0</ele><time>2026-04-04T16:38:25Z</time></trkpt><trkpt lat="44.62520495179552" lon="10.419700145300805"><ele>156.0</ele><time>2026-04-04T16:38:26Z</time></trkpt><trkpt lat="44.62533300356772" lon="10.41981555314701"><ele>157.0</ele><time>2026-04-04T16:38:27Z</time></trkpt><trkpt lat="44.62546662117404" lon="10.419905434236105"><ele>158.0</ele><time>2026-04-04T16:38:28Z</time></trkpt><trkpt lat="44.62560825837534" lon="10.419981790043048"><ele>159.0</ele><time>2026-04-04T16:38:29Z</time></trkpt><trkpt lat="44.62575955479053" lon="10.420042881004791"><ele>159.0</ele><time>2026-04-04T16:38:30Z</time></trkpt><trkpt lat="44.62592191115439" lon="10.42010352727961"><ele>159.0</ele><time>2026-04-04T16:38:31Z</time></trkpt><trkpt lat="44.626088741501846" lon="10.42017605346491"><ele>159.0</ele><time>2026-04-04T16:38:32Z</time></trkpt><trkpt lat="44.62626102534421" lon="10.420256072810442"><ele>159.33333333333334</ele><time>2026-04-04T16:38:33Z</time></trkpt><trkpt lat="44.62642016489137" lon="10.420330876332988"><ele>159.66666666666669</ele><time>2026-04-04T16:38:34Z</time></trkpt><trkpt lat="44.62656173766861" lon="10.420397061369219"><ele>160.0</ele><time>2026-04-04T16:38:35Z</time></trkpt><trkpt lat="44.626690195992296" lon="10.420454639069693"><ele>159.5</ele><time>2026-04-04T16:38:36Z</time></trkpt><trkpt lat="44.62681172693322" lon="10.420508198150864"><ele>159.0</ele><time>2026-04-04T16:38:37Z</time></trkpt><trkpt lat="44.626925566357635" lon="10.420558630830843"><ele>158.5</ele><time>2026-04-04T16:38:38Z</time></trkpt><trkpt lat="44.62703663325311" lon="10.420594378289643"><ele>158.0</ele><time>2026-04-04T16:38:39Z</time></trkpt><trkpt lat="44.62713727595262" lon="10.420619708278297"><ele>158.0</ele><time>2026-04-04T16:38:40Z</time></trkpt><trkpt lat="44.627233655824355" lon="10.420642830351687"><ele>158.0</ele><time>2026-04-04T16:38:41Z</time></trkpt><trkpt lat="44.627318101800476" lon="10.420675671657587"><ele>158.0</ele><time>2026-04-04T16:38:42Z</time></trkpt><trkpt lat="44.62738188728198" lon="10.420691943958543"><ele>158.0</ele><time>2026-04-04T16:38:43Z</time></trkpt><trkpt lat="44.62748313859599" lon="10.420761389697935"><ele>158.0</ele><time>2026-04-04T16:38:45Z</time></trkpt><trkpt lat="44.62756728367916" lon="10.420854699198472"><ele>158.0</ele><time>2026-04-04T16:38:47Z</time></trkpt><trkpt lat="44.6276758987371" lon="10.420896699427807"><ele>158.0</ele><time>2026-04-04T16:38:49Z</time></trkpt><trkpt lat="44.627788887021715" lon="10.420862423109648"><ele>158.0</ele><time>2026-04-04T16:38:51Z</time></trkpt><trkpt lat="44.62786238145175" lon="10.420737577691607"><ele>158.0</ele><time>2026-04-04T16:38:53Z</time></trkpt><trkpt lat="44.62787412187175" lon="10.420649442587715"><ele>158.0</ele><time>2026-04-04T16:38:54Z</time></trkpt><trkpt lat="44.62786663339485" lon="10.420555805293404"><ele>157.20000000000002</ele><time>2026-04-04T16:38:55Z</time></trkpt><trkpt lat="44.62782258096169" lon="10.420432220537863"><ele>156.4</ele><time>2026-04-04T16:38:57Z</time></trkpt><trkpt lat="44.627911850799826" lon="10.420337566461281"><ele>155.60000000000002</ele><time>2026-04-04T16:38:58Z</time></trkpt><trkpt lat="44.627987734070985" lon="10.42023622045216"><ele>154.8</ele><time>2026-04-04T16:39:00Z</time></trkpt><trkpt lat="44.62803528236335" lon="10.420172879962516"><ele>154.0</ele><time>2026-04-04T16:39:02Z</time></trkpt><trkpt lat="44.62816230413267" lon="10.420314378932765"><ele>154.0</ele><time>2026-04-04T16:39:03Z</time></trkpt><trkpt lat="44.628255411337705" lon="10.420417581108014"><ele>154.0</ele><time>2026-04-04T16:39:04Z</time></trkpt><trkpt lat="44.62836681209226" lon="10.420533413736713"><ele>154.0</ele><time>2026-04-04T16:39:05Z</time></trkpt><trkpt lat="44.62850573169086" lon="10.420625844455307"><ele>154.0</ele><time>2026-04-04T16:39:06Z</time></trkpt><trkpt lat="44.62867907894825" lon="10.420693743901342"><ele>153.25</ele><time>2026-04-04T16:39:07Z</time></trkpt><trkpt lat="44.628829258370104" lon="10.420750167809857"><ele>152.5</ele><time>2026-04-04T16:39:08Z</time></trkpt><trkpt lat="44.62895463703549" lon="10.420796960230616"><ele>151.75</ele><time>2026-04-04T16:39:09Z</time></trkpt><trkpt lat="44.629076785354904" lon="10.42084323782598"><ele>151.0</ele><time>2026-04-04T16:39:10Z</time></trkpt><trkpt lat="44.629163021820304" lon="10.42108413687105"><ele>151.0</ele><time>2026-04-04T16:39:11Z</time></trkpt><trkpt lat="44.62926693036045" lon="10.421110085556968"><ele>151.0</ele><time>2026-04-04T16:39:12Z</time></trkpt><trkpt lat="44.629382633050845" lon="10.42113827586972"><ele>151.0</ele><time>2026-04-04T16:39:13Z</time></trkpt><trkpt lat="44.629502200809846" lon="10.421165405604725"><ele>151.0</ele><time>2026-04-04T16:39:14Z</time></trkpt><trkpt lat="44.629634289407434" lon="10.421193454209739"><ele>150.66666666666669</ele><time>2026-04-04T16:39:15Z</time></trkpt><trkpt lat="44.62979529721861" lon="10.42122511420354"><ele>150.33333333333334</ele><time>2026-04-04T16:39:16Z</time></trkpt><trkpt lat="44.629973872359955" lon="10.421256903847025"><ele>150.0</ele><time>2026-04-04T16:39:17Z</time></trkpt><trkpt lat="44.6301809327634" lon="10.421285947886458"><ele>149.66666666666666</ele><time>2026-04-04T16:39:18Z</time></trkpt><trkpt lat="44.63035845582009" lon="10.421302594811216"><ele>149.33333333333331</ele><time>2026-04-04T16:39:19Z</time></trkpt><trkpt lat="44.630524594786955" lon="10.421316595287612"><ele>149.0</ele><time>2026-04-04T16:39:20Z</time></trkpt><trkpt lat="44.63070303721461" lon="10.421329987798186"><ele>151.0</ele><time>2026-04-04T16:39:21Z</time></trkpt><trkpt lat="44.630873968249475" lon="10.421341521472609"><ele>153.0</ele><time>2026-04-04T16:39:22Z</time></trkpt><trkpt lat="44.63103061537742" lon="10.421350105963542"><ele>155.0</ele><time>2026-04-04T16:39:23Z</time></trkpt><trkpt lat="44.63117985516805" lon="10.421356785204342"><ele>155.0</ele><time>2026-04-04T16:39:24Z</time></trkpt><trkpt lat="44.631357283483865" lon="10.421364726014389"><ele>155.0</ele><time>2026-04-04T16:39:25Z</time></trkpt><trkpt lat="44.63153842401312" lon="10.421372832974527"><ele>155.0</ele><time>2026-04-04T16:39:26Z</time></trkpt><trkpt lat="44.63169694734412" lon="10.421379927696368"><ele>155.0</ele><time>2026-04-04T16:39:27Z</time></trkpt><trkpt lat="44.63183912930143" lon="10.421386636938385"><ele>155.0</ele><time>2026-04-04T16:39:28Z</time></trkpt><trkpt lat="44.63197421422134" lon="10.421393085533163"><ele>155.0</ele><time>2026-04-04T16:39:29Z</time></trkpt><trkpt lat="44.632107682697374" lon="10.421399456963245"><ele>155.0</ele><time>2026-04-04T16:39:30Z</time></trkpt><trkpt lat="44.63224861116546" lon="10.421406184513211"><ele>153.75</ele><time>2026-04-04T16:39:31Z</time></trkpt><trkpt lat="44.63239627759855" lon="10.421413233714773"><ele>152.5</ele><time>2026-04-04T16:39:32Z</time></trkpt><trkpt lat="44.632540628284225" lon="10.42142012463032"><ele>151.25</ele><time>2026-04-04T16:39:33Z</time></trkpt><trkpt lat="44.63266900166476" lon="10.421426397149025"><ele>150.0</ele><time>2026-04-04T16:39:34Z</time></trkpt><trkpt lat="44.632787264289334" lon="10.421432895539688"><ele>149.5</ele><time>2026-04-04T16:39:34.999Z</time></trkpt><trkpt lat="44.632907807629174" lon="10.421439519249288"><ele>149.0</ele><time>2026-04-04T16:39:35.999Z</time></trkpt><trkpt lat="44.63303104496585" lon="10.421445595696959"><ele>148.5</ele><time>2026-04-04T16:39:36.999Z</time></trkpt><trkpt lat="44.63315869512899" lon="10.421451613251072"><ele>148.0</ele><time>2026-04-04T16:39:37.999Z</time></trkpt><trkpt lat="44.63329008766072" lon="10.421457260903058"><ele>148.0</ele><time>2026-04-04T16:39:38.999Z</time></trkpt><trkpt lat="44.63342647932931" lon="10.421463063974157"><ele>148.0</ele><time>2026-04-04T16:39:39.999Z</time></trkpt><trkpt lat="44.633581851651584" lon="10.421470276855446"><ele>148.0</ele><time>2026-04-04T16:39:40.999Z</time></trkpt><trkpt lat="44.63377152870465" lon="10.421480098765038"><ele>148.0</ele><time>2026-04-04T16:39:41.999Z</time></trkpt><trkpt lat="44.63395951402861" lon="10.421489637873021"><ele>148.0</ele><time>2026-04-04T16:39:42.999Z</time></trkpt><trkpt lat="44.634101229401" lon="10.421495977125312"><ele>148.0</ele><time>2026-04-04T16:39:43.999Z</time></trkpt><trkpt lat="44.634256214956075" lon="10.421502909959626"><ele>148.0</ele><time>2026-04-04T16:39:44.999Z</time></trkpt><trkpt lat="44.63439595229493" lon="10.421509160714827"><ele>148.0</ele><time>2026-04-04T16:39:45.999Z</time></trkpt><trkpt lat="44.6345236415313" lon="10.421515018913274"><ele>148.0</ele><time>2026-04-04T16:39:46.999Z</time></trkpt><trkpt lat="44.63465893410864" lon="10.42152131404078"><ele>148.0</ele><time>2026-04-04T16:39:47.999Z</time></trkpt><trkpt lat="44.63478085650729" lon="10.421526985335497"><ele>147.75</ele><time>2026-04-04T16:39:48.999Z</time></trkpt><trkpt lat="44.63489470778656" lon="10.421532281192096"><ele>147.5</ele><time>2026-04-04T16:39:49.999Z</time></trkpt><trkpt lat="44.63503538948752" lon="10.421538825048085"><ele>147.25</ele><time>2026-04-04T16:39:50.999Z</time></trkpt><trkpt lat="44.635179321359416" lon="10.421545314357102"><ele>147.0</ele><time>2026-04-04T16:39:51.999Z</time></trkpt><trkpt lat="44.63531923789827" lon="10.421552231015497"><ele>147.0</ele><time>2026-04-04T16:39:52.999Z</time></trkpt><trkpt lat="44.63544563505717" lon="10.421559135790954"><ele>147.0</ele><time>2026-04-04T16:39:53.999Z</time></trkpt><trkpt lat="44.63555248495954" lon="10.421567629925775"><ele>147.0</ele><time>2026-04-04T16:39:54.999Z</time></trkpt><trkpt lat="44.635647662658485" lon="10.421577967854518"><ele>147.0</ele><time>2026-04-04T16:39:55.999Z</time></trkpt><trkpt lat="44.635735332988766" lon="10.421592057003616"><ele>147.0</ele><time>2026-04-04T16:39:56.999Z</time></trkpt><trkpt lat="44.635806254577545" lon="10.42160542899354"><ele>147.25</ele><time>2026-04-04T16:39:57.999Z</time></trkpt><trkpt lat="44.635893062867595" lon="10.421311260965545"><ele>147.5</ele><time>2026-04-04T16:40:00.999Z</time></trkpt><trkpt lat="44.635873682399264" lon="10.421226448346296"><ele>147.75</ele><time>2026-04-04T16:40:01.999Z</time></trkpt><trkpt lat="44.63583980816466" lon="10.421110931920444"><ele>148.0</ele><time>2026-04-04T16:40:02.999Z</time></trkpt><trkpt lat="44.63583593112401" lon="10.420955545608583"><ele>148.0</ele><time>2026-04-04T16:40:03.999Z</time></trkpt><trkpt lat="44.63583909250352" lon="10.420761147105422"><ele>148.0</ele><time>2026-04-04T16:40:04.999Z</time></trkpt><trkpt lat="44.63582115367479" lon="10.420555988094483"><ele>148.0</ele><time>2026-04-04T16:40:05.999Z</time></trkpt><trkpt lat="44.635810549148474" lon="10.420384653756324"><ele>148.0</ele><time>2026-04-04T16:40:06.999Z</time></trkpt><trkpt lat="44.635824182513716" lon="10.420258202765412"><ele>147.66666666666669</ele><time>2026-04-04T16:40:07.999Z</time></trkpt><trkpt lat="44.635844353481474" lon="10.420127254353213"><ele>147.33333333333334</ele><time>2026-04-04T16:40:08.999Z</time></trkpt><trkpt lat="44.63585672497199" lon="10.41999422664239"><ele>147.0</ele><time>2026-04-04T16:40:09.999Z</time></trkpt><trkpt lat="44.63583628950534" lon="10.419868675830013"><ele>146.66666666666666</ele><time>2026-04-04T16:40:10.999Z</time></trkpt><trkpt lat="44.63579450700206" lon="10.419767836128301"><ele>146.33333333333331</ele><time>2026-04-04T16:40:11.999Z</time></trkpt><trkpt lat="44.635765224757144" lon="10.41968444918083"><ele>146.0</ele><time>2026-04-04T16:40:12.999Z</time></trkpt><trkpt lat="44.63576201261959" lon="10.419588276021758"><ele>146.0</ele><time>2026-04-04T16:40:13.999Z</time></trkpt><trkpt lat="44.635858333657985" lon="10.419492288016105"><ele>146.0</ele><time>2026-04-04T16:40:15.999Z</time></trkpt><trkpt lat="44.63592850338255" lon="10.419482201760463"><ele>146.0</ele><time>2026-04-04T16:40:16.999Z</time></trkpt><trkpt lat="44.636025482486794" lon="10.419513338947882"><ele>146.0</ele><time>2026-04-04T16:40:17.999Z</time></trkpt><trkpt lat="44.63615694029837" lon="10.419582032791757"><ele>146.0</ele><time>2026-04-04T16:40:18.999Z</time></trkpt><trkpt lat="44.63632486583664" lon="10.419659916354291"><ele>146.0</ele><time>2026-04-04T16:40:19.999Z</time></trkpt><trkpt lat="44.63646215319831" lon="10.419724783032288"><ele>146.0</ele><time>2026-04-04T16:40:21Z</time></trkpt><trkpt lat="44.63655650922694" lon="10.419761106363937"><ele>146.0</ele><time>2026-04-04T16:40:22Z</time></trkpt><trkpt lat="44.63663658274898" lon="10.419761895522628"><ele>146.0</ele><time>2026-04-04T16:40:23Z</time></trkpt><trkpt lat="44.636689176111624" lon="10.41971064051222"><ele>146.0</ele><time>2026-04-04T16:40:24Z</time></trkpt><trkpt lat="44.6367224731092" lon="10.419557728438757"><ele>146.2</ele><time>2026-04-04T16:40:26Z</time></trkpt><trkpt lat="44.636700994292354" lon="10.419423758266701"><ele>146.39999999999998</ele><time>2026-04-04T16:40:27Z</time></trkpt><trkpt lat="44.63669047339113" lon="10.419248271887955"><ele>146.6</ele><time>2026-04-04T16:40:28Z</time></trkpt><trkpt lat="44.6366897069401" lon="10.419095292866976"><ele>146.79999999999998</ele><time>2026-04-04T16:40:29Z</time></trkpt><trkpt lat="44.63668411730728" lon="10.418975148226474"><ele>147.0</ele><time>2026-04-04T16:40:30Z</time></trkpt><trkpt lat="44.6366842667755" lon="10.418862786530589"><ele>146.66666666666666</ele><time>2026-04-04T16:40:31Z</time></trkpt><trkpt lat="44.63669836030476" lon="10.418764299506984"><ele>146.33333333333334</ele><time>2026-04-04T16:40:32Z</time></trkpt><trkpt lat="44.636764149953265" lon="10.418676790855804"><ele>146.0</ele><time>2026-04-04T16:40:34Z</time></trkpt><trkpt lat="44.63683037147634" lon="10.418679355842828"><ele>145.66666666666669</ele><time>2026-04-04T16:40:35Z</time></trkpt><trkpt lat="44.636918443677736" lon="10.418689284645838"><ele>145.33333333333334</ele><time>2026-04-04T16:40:36Z</time></trkpt><trkpt lat="44.63700559003501" lon="10.418689425923414"><ele>145.0</ele><time>2026-04-04T16:40:37Z</time></trkpt><trkpt lat="44.63708712385781" lon="10.418712625444995"><ele>145.0</ele><time>2026-04-04T16:40:38Z</time></trkpt><trkpt lat="44.637153689516495" lon="10.418735288058588"><ele>145.0</ele><time>2026-04-04T16:40:39Z</time></trkpt><trkpt lat="44.63723304404964" lon="10.418746608139987"><ele>145.0</ele><time>2026-04-04T16:40:40Z</time></trkpt><trkpt lat="44.63731888170653" lon="10.418753751782623"><ele>145.0</ele><time>2026-04-04T16:40:41Z</time></trkpt><trkpt lat="44.63740413811778" lon="10.41875018768068"><ele>145.0</ele><time>2026-04-04T16:40:42Z</time></trkpt><trkpt lat="44.63747477986198" lon="10.418736301712826"><ele>145.0</ele><time>2026-04-04T16:40:43Z</time></trkpt><trkpt lat="44.63757221371023" lon="10.418732471062393"><ele>145.0</ele><time>2026-04-04T16:40:45Z</time></trkpt><trkpt lat="44.6376801558566" lon="10.418808812212111"><ele>145.0</ele><time>2026-04-04T16:40:47Z</time></trkpt><trkpt lat="44.63775835742712" lon="10.41890258753042"><ele>145.0</ele><time>2026-04-04T16:40:48Z</time></trkpt><trkpt lat="44.63785664442856" lon="10.418972849635336"><ele>145.0</ele><time>2026-04-04T16:40:49Z</time></trkpt><trkpt lat="44.6379686164756" lon="10.419038700687889"><ele>144.6</ele><time>2026-04-04T16:40:50Z</time></trkpt><trkpt lat="44.638070295897904" lon="10.41910090190587"><ele>144.2</ele><time>2026-04-04T16:40:51Z</time></trkpt><trkpt lat="44.63814326046906" lon="10.419166404231015"><ele>143.8</ele><time>2026-04-04T16:40:52Z</time></trkpt><trkpt lat="44.63820817815463" lon="10.419232116014728"><ele>143.4</ele><time>2026-04-04T16:40:53Z</time></trkpt><trkpt lat="44.638278705958996" lon="10.419295430887058"><ele>143.0</ele><time>2026-04-04T16:40:54Z</time></trkpt><trkpt lat="44.63836048901551" lon="10.419349994493505"><ele>143.0</ele><time>2026-04-04T16:40:55Z</time></trkpt><trkpt lat="44.638456690974" lon="10.419387973719527"><ele>143.0</ele><time>2026-04-04T16:40:56Z</time></trkpt><trkpt lat="44.638547646987156" lon="10.419415392897585"><ele>143.0</ele><time>2026-04-04T16:40:57Z</time></trkpt><trkpt lat="44.63862668687206" lon="10.419431833700205"><ele>143.0</ele><time>2026-04-04T16:40:58Z</time></trkpt><trkpt lat="44.63870235410821" lon="10.419451353716672"><ele>143.0</ele><time>2026-04-04T16:40:59Z</time></trkpt><trkpt lat="44.638786469075946" lon="10.419500000913953"><ele>143.0</ele><time>2026-04-04T16:41:00Z</time></trkpt><trkpt lat="44.63886191078628" lon="10.4195562254359"><ele>143.0</ele><time>2026-04-04T16:41:01Z</time></trkpt><trkpt lat="44.638924726576434" lon="10.419599544022727"><ele>143.0</ele><time>2026-04-04T16:41:02Z</time></trkpt><trkpt lat="44.63899063623162" lon="10.419609510111906"><ele>143.0</ele><time>2026-04-04T16:41:03Z</time></trkpt><trkpt lat="44.639063783432" lon="10.41958379418585"><ele>143.0</ele><time>2026-04-04T16:41:04Z</time></trkpt><trkpt lat="44.639164287586844" lon="10.419518011295336"><ele>143.0</ele><time>2026-04-04T16:41:05Z</time></trkpt><trkpt lat="44.639270065565064" lon="10.419466564722699"><ele>143.0</ele><time>2026-04-04T16:41:06Z</time></trkpt><trkpt lat="44.63937388161934" lon="10.41947966459937"><ele>142.33333333333331</ele><time>2026-04-04T16:41:07Z</time></trkpt><trkpt lat="44.63950323081289" lon="10.419527928079368"><ele>141.66666666666666</ele><time>2026-04-04T16:41:08Z</time></trkpt><trkpt lat="44.639685430532644" lon="10.419599951426951"><ele>141.0</ele><time>2026-04-04T16:41:09Z</time></trkpt><trkpt lat="44.639864165295336" lon="10.419643616343139"><ele>141.0</ele><time>2026-04-04T16:41:10Z</time></trkpt><trkpt lat="44.63999201352656" lon="10.41964831860334"><ele>141.0</ele><time>2026-04-04T16:41:11Z</time></trkpt><trkpt lat="44.64010788283001" lon="10.419638790670621"><ele>141.0</ele><time>2026-04-04T16:41:12Z</time></trkpt><trkpt lat="44.64022919777667" lon="10.419592375072725"><ele>141.0</ele><time>2026-04-04T16:41:13Z</time></trkpt><trkpt lat="44.64034706662413" lon="10.419518858387564"><ele>140.5</ele><time>2026-04-04T16:41:14Z</time></trkpt><trkpt lat="44.64046375945688" lon="10.419430468184794"><ele>140.0</ele><time>2026-04-04T16:41:15Z</time></trkpt><trkpt lat="44.640585353741685" lon="10.419353934065299"><ele>139.5</ele><time>2026-04-04T16:41:16Z</time></trkpt><trkpt lat="44.6407014997325" lon="10.41930278422388"><ele>139.0</ele><time>2026-04-04T16:41:17Z</time></trkpt><trkpt lat="44.64082847701837" lon="10.419288358916921"><ele>139.0</ele><time>2026-04-04T16:41:18Z</time></trkpt><trkpt lat="44.64095961747537" lon="10.419287624882168"><ele>139.0</ele><time>2026-04-04T16:41:19Z</time></trkpt><trkpt lat="44.64109666366417" lon="10.41929180110393"><ele>139.0</ele><time>2026-04-04T16:41:20Z</time></trkpt><trkpt lat="44.641238525983184" lon="10.419300221882372"><ele>139.0</ele><time>2026-04-04T16:41:21Z</time></trkpt><trkpt lat="44.641386578540384" lon="10.419305717062798"><ele>138.75</ele><time>2026-04-04T16:41:22Z</time></trkpt><trkpt lat="44.64153892610192" lon="10.419305109848116"><ele>138.5</ele><time>2026-04-04T16:41:23Z</time></trkpt><trkpt lat="44.64168375455652" lon="10.419301773765394"><ele>138.25</ele><time>2026-04-04T16:41:24Z</time></trkpt><trkpt lat="44.64181681608075" lon="10.419290168299273"><ele>138.0</ele><time>2026-04-04T16:41:25Z</time></trkpt><trkpt lat="44.641937386830406" lon="10.41927080120863"><ele>137.4</ele><time>2026-04-04T16:41:26Z</time></trkpt><trkpt lat="44.64204545022116" lon="10.419264875053818"><ele>136.8</ele><time>2026-04-04T16:41:27Z</time></trkpt><trkpt lat="44.642144170581346" lon="10.419296499815474"><ele>136.2</ele><time>2026-04-04T16:41:28Z</time></trkpt><trkpt lat="44.642235018820514" lon="10.41935465430328"><ele>135.6</ele><time>2026-04-04T16:41:29Z</time></trkpt><trkpt lat="44.642325733237556" lon="10.41944782028447"><ele>135.0</ele><time>2026-04-04T16:41:30Z</time></trkpt><trkpt lat="44.642411750119265" lon="10.41955583341396"><ele>135.25</ele><time>2026-04-04T16:41:31Z</time></trkpt><trkpt lat="44.64250204177175" lon="10.419660368539803"><ele>135.5</ele><time>2026-04-04T16:41:32Z</time></trkpt><trkpt lat="44.64260590586985" lon="10.419740531674503"><ele>135.75</ele><time>2026-04-04T16:41:33Z</time></trkpt><trkpt lat="44.642720939495824" lon="10.41980302272733"><ele>136.0</ele><time>2026-04-04T16:41:34Z</time></trkpt><trkpt lat="44.64285019666163" lon="10.419855176267776"><ele>136.0</ele><time>2026-04-04T16:41:35Z</time></trkpt><trkpt lat="44.642982371255066" lon="10.41990568494844"><ele>136.0</ele><time>2026-04-04T16:41:35.999Z</time></trkpt><trkpt lat="44.64311738937118" lon="10.419942199701726"><ele>136.0</ele><time>2026-04-04T16:41:36.999Z</time></trkpt><trkpt lat="44.643249931580044" lon="10.419963872448372"><ele>136.0</ele><time>2026-04-04T16:41:37.999Z</time></trkpt><trkpt lat="44.64338376577557" lon="10.419982968609808"><ele>136.0</ele><time>2026-04-04T16:41:38.999Z</time></trkpt><trkpt lat="44.643523479732934" lon="10.420006056223786"><ele>136.0</ele><time>2026-04-04T16:41:39.999Z</time></trkpt><trkpt lat="44.64366572174848" lon="10.420026974144953"><ele>136.0</ele><time>2026-04-04T16:41:40.999Z</time></trkpt><trkpt lat="44.64380422106891" lon="10.420048565652221"><ele>136.0</ele><time>2026-04-04T16:41:41.999Z</time></trkpt><trkpt lat="44.643935348921005" lon="10.420061447877064"><ele>136.0</ele><time>2026-04-04T16:41:42.999Z</time></trkpt><trkpt lat="44.64407583576985" lon="10.4200558826962"><ele>136.0</ele><time>2026-04-04T16:41:43.999Z</time></trkpt><trkpt lat="44.644223503017706" lon="10.420046594418256"><ele>136.0</ele><time>2026-04-04T16:41:44.999Z</time></trkpt><trkpt lat="44.644355490240095" lon="10.420043288368019"><ele>136.0</ele><time>2026-04-04T16:41:45.999Z</time></trkpt><trkpt lat="44.64448635917503" lon="10.420037895707233"><ele>136.0</ele><time>2026-04-04T16:41:46.999Z</time></trkpt><trkpt lat="44.64462927536226" lon="10.420041120168294"><ele>136.0</ele><time>2026-04-04T16:41:47.999Z</time></trkpt><trkpt lat="44.6447740768296" lon="10.420036905147464"><ele>136.0</ele><time>2026-04-04T16:41:48.999Z</time></trkpt><trkpt lat="44.64491696053356" lon="10.420012775725262"><ele>136.0</ele><time>2026-04-04T16:41:49.999Z</time></trkpt><trkpt lat="44.645061685154026" lon="10.419969344000394"><ele>136.0</ele><time>2026-04-04T16:41:50.999Z</time></trkpt><trkpt lat="44.64521291611639" lon="10.41992984092269"><ele>136.0</ele><time>2026-04-04T16:41:51.999Z</time></trkpt><trkpt lat="44.64535998691562" lon="10.419900947521267"><ele>136.0</ele><time>2026-04-04T16:41:52.999Z</time></trkpt><trkpt lat="44.64549146919569" lon="10.419896437050424"><ele>136.0</ele><time>2026-04-04T16:41:53.999Z</time></trkpt><trkpt lat="44.64562062643191" lon="10.419901700066056"><ele>136.0</ele><time>2026-04-04T16:41:54.999Z</time></trkpt><trkpt lat="44.645772923708826" lon="10.419900336831878"><ele>136.0</ele><time>2026-04-04T16:41:55.999Z</time></trkpt><trkpt lat="44.64591510691172" lon="10.419884327434673"><ele>136.0</ele><time>2026-04-04T16:41:56.999Z</time></trkpt><trkpt lat="44.64605914078115" lon="10.41985545125659"><ele>136.0</ele><time>2026-04-04T16:41:57.999Z</time></trkpt><trkpt lat="44.6461968494365" lon="10.419814175382585"><ele>135.75</ele><time>2026-04-04T16:41:58.999Z</time></trkpt><trkpt lat="44.646333822543454" lon="10.419757942326626"><ele>135.5</ele><time>2026-04-04T16:41:59.999Z</time></trkpt><trkpt lat="44.64647065171648" lon="10.419701929696322"><ele>135.25</ele><time>2026-04-04T16:42:00.999Z</time></trkpt><trkpt lat="44.64659858713809" lon="10.41964284428297"><ele>135.0</ele><time>2026-04-04T16:42:01.999Z</time></trkpt><trkpt lat="44.64672874276556" lon="10.419563692839057"><ele>134.75</ele><time>2026-04-04T16:42:02.999Z</time></trkpt><trkpt lat="44.6468610187462" lon="10.419496531573827"><ele>134.5</ele><time>2026-04-04T16:42:03.999Z</time></trkpt><trkpt lat="44.64699304333833" lon="10.4194363620695"><ele>134.25</ele><time>2026-04-04T16:42:04.999Z</time></trkpt><trkpt lat="44.647124164471656" lon="10.41937892000762"><ele>134.0</ele><time>2026-04-04T16:42:05.999Z</time></trkpt><trkpt lat="44.64725527167053" lon="10.419337494526138"><ele>134.0</ele><time>2026-04-04T16:42:06.999Z</time></trkpt><trkpt lat="44.64739254948607" lon="10.419311225630455"><ele>134.0</ele><time>2026-04-04T16:42:07.999Z</time></trkpt><trkpt lat="44.64753630265715" lon="10.419297766412368"><ele>134.0</ele><time>2026-04-04T16:42:08.999Z</time></trkpt><trkpt lat="44.64767790476267" lon="10.419280303488502"><ele>134.0</ele><time>2026-04-04T16:42:09.999Z</time></trkpt><trkpt lat="44.64782356695076" lon="10.419265511419376"><ele>134.0</ele><time>2026-04-04T16:42:10.999Z</time></trkpt><trkpt lat="44.64796318804648" lon="10.419243252743122"><ele>134.0</ele><time>2026-04-04T16:42:11.999Z</time></trkpt><trkpt lat="44.64809533143828" lon="10.419227350803999"><ele>134.0</ele><time>2026-04-04T16:42:12.999Z</time></trkpt><trkpt lat="44.648222514989065" lon="10.419204814317403"><ele>134.0</ele><time>2026-04-04T16:42:13.999Z</time></trkpt><trkpt lat="44.648353209943124" lon="10.419175990942659"><ele>134.0</ele><time>2026-04-04T16:42:14.999Z</time></trkpt><trkpt lat="44.648481076536974" lon="10.419148539499709"><ele>134.0</ele><time>2026-04-04T16:42:15.999Z</time></trkpt><trkpt lat="44.64860932654148" lon="10.41913526992894"><ele>134.0</ele><time>2026-04-04T16:42:16.999Z</time></trkpt><trkpt lat="44.64874356310905" lon="10.41913169259408"><ele>134.0</ele><time>2026-04-04T16:42:17.999Z</time></trkpt><trkpt lat="44.64887766434877" lon="10.419128722999258"><ele>133.6</ele><time>2026-04-04T16:42:18.999Z</time></trkpt><trkpt lat="44.64899734090861" lon="10.419123364244303"><ele>133.2</ele><time>2026-04-04T16:42:19.999Z</time></trkpt><trkpt lat="44.6491159289707" lon="10.419108986486666"><ele>132.79999999999998</ele><time>2026-04-04T16:42:20.999Z</time></trkpt><trkpt lat="44.649215406537444" lon="10.419092627626572"><ele>132.4</ele><time>2026-04-04T16:42:21.999Z</time></trkpt><trkpt lat="44.64931556205229" lon="10.419090420937788"><ele>132.0</ele><time>2026-04-04T16:42:22.999Z</time></trkpt><trkpt lat="44.64939060794682" lon="10.419092681761034"><ele>132.0</ele><time>2026-04-04T16:42:23.999Z</time></trkpt><trkpt lat="44.64948158752426" lon="10.419135988707149"><ele>132.0</ele><time>2026-04-04T16:42:25.999Z</time></trkpt><trkpt lat="44.64945852948434" lon="10.419231712505853"><ele>132.0</ele><time>2026-04-04T16:42:29Z</time></trkpt><trkpt lat="44.64938104624349" lon="10.419377688415672"><ele>132.0</ele><time>2026-04-04T16:42:31Z</time></trkpt><trkpt lat="44.64934111300657" lon="10.419479370144746"><ele>132.0</ele><time>2026-04-04T16:42:32Z</time></trkpt><trkpt lat="44.64929242533798" lon="10.419584041699602"><ele>132.2</ele><time>2026-04-04T16:42:33Z</time></trkpt><trkpt lat="44.64925059876517" lon="10.419709654600364"><ele>132.39999999999998</ele><time>2026-04-04T16:42:34Z</time></trkpt><trkpt lat="44.64922952576534" lon="10.419841820810767"><ele>132.60000000000002</ele><time>2026-04-04T16:42:35Z</time></trkpt><trkpt lat="44.64922405831161" lon="10.419987789347408"><ele>132.8</ele><time>2026-04-04T16:42:36Z</time></trkpt><trkpt lat="44.64921697388776" lon="10.420150350908303"><ele>133.0</ele><time>2026-04-04T16:42:37Z</time></trkpt><trkpt lat="44.64919241856895" lon="10.420307892483399"><ele>133.0</ele><time>2026-04-04T16:42:38Z</time></trkpt><trkpt lat="44.649142314215" lon="10.42045389568501"><ele>133.0</ele><time>2026-04-04T16:42:39Z</time></trkpt><trkpt lat="44.649079695938326" lon="10.420594676313664"><ele>133.0</ele><time>2026-04-04T16:42:40Z</time></trkpt><trkpt lat="44.64902318387626" lon="10.420726559131557"><ele>133.0</ele><time>2026-04-04T16:42:41Z</time></trkpt><trkpt lat="44.64897477704173" lon="10.420898633556224"><ele>133.33333333333334</ele><time>2026-04-04T16:42:42Z</time></trkpt><trkpt lat="44.6489298125647" lon="10.4211654147975"><ele>133.66666666666666</ele><time>2026-04-04T16:42:43Z</time></trkpt><trkpt lat="44.64886384390673" lon="10.421442668054144"><ele>134.0</ele><time>2026-04-04T16:42:44Z</time></trkpt><trkpt lat="44.64879786150464" lon="10.421660544879108"><ele>134.0</ele><time>2026-04-04T16:42:45Z</time></trkpt><trkpt lat="44.648743936698416" lon="10.421834389327085"><ele>134.0</ele><time>2026-04-04T16:42:46Z</time></trkpt><trkpt lat="44.648694199453004" lon="10.422002892091415"><ele>134.0</ele><time>2026-04-04T16:42:47Z</time></trkpt><trkpt lat="44.648640350955674" lon="10.422171921974185"><ele>134.0</ele><time>2026-04-04T16:42:48Z</time></trkpt><trkpt lat="44.64858968813661" lon="10.422330515840331"><ele>134.25</ele><time>2026-04-04T16:42:49Z</time></trkpt><trkpt lat="44.64854652923178" lon="10.422479308426787"><ele>134.5</ele><time>2026-04-04T16:42:50Z</time></trkpt><trkpt lat="44.64850775258931" lon="10.422634111858114"><ele>134.75</ele><time>2026-04-04T16:42:51Z</time></trkpt><trkpt lat="44.64846624059817" lon="10.422792370769946"><ele>135.0</ele><time>2026-04-04T16:42:52Z</time></trkpt><trkpt lat="44.64842448109123" lon="10.422956169423362"><ele>135.0</ele><time>2026-04-04T16:42:53Z</time></trkpt><trkpt lat="44.648386334501346" lon="10.42311806880123"><ele>135.0</ele><time>2026-04-04T16:42:54Z</time></trkpt><trkpt lat="44.64835147799208" lon="10.423264664797605"><ele>135.0</ele><time>2026-04-04T16:42:55Z</time></trkpt><trkpt lat="44.64832041525486" lon="10.423408729318504"><ele>135.0</ele><time>2026-04-04T16:42:56Z</time></trkpt><trkpt lat="44.64827639563512" lon="10.423563282658638"><ele>135.0</ele><time>2026-04-04T16:42:57Z</time></trkpt><trkpt lat="44.648240022473416" lon="10.423702936942744"><ele>135.0</ele><time>2026-04-04T16:42:58Z</time></trkpt><trkpt lat="44.64821007480669" lon="10.423828958540902"><ele>135.0</ele><time>2026-04-04T16:42:59Z</time></trkpt><trkpt lat="44.64818620513634" lon="10.42394594064222"><ele>135.0</ele><time>2026-04-04T16:43:00Z</time></trkpt><trkpt lat="44.648157676715776" lon="10.424054325427164"><ele>135.0</ele><time>2026-04-04T16:43:01Z</time></trkpt><trkpt lat="44.64813033490297" lon="10.42416096213035"><ele>135.6</ele><time>2026-04-04T16:43:02Z</time></trkpt><trkpt lat="44.648100679805815" lon="10.424254969282732"><ele>136.2</ele><time>2026-04-04T16:43:03Z</time></trkpt><trkpt lat="44.64804859125766" lon="10.424411758175209"><ele>136.8</ele><time>2026-04-04T16:43:05Z</time></trkpt><trkpt lat="44.64801852375535" lon="10.424531573365012"><ele>137.4</ele><time>2026-04-04T16:43:07Z</time></trkpt><trkpt lat="44.64796667930704" lon="10.424601915888244"><ele>138.0</ele><time>2026-04-04T16:43:09Z</time></trkpt><trkpt lat="44.647776040763" lon="10.424532335450529"><ele>138.33333333333334</ele><time>2026-04-04T16:43:12Z</time></trkpt><trkpt lat="44.64767073048454" lon="10.424500541730472"><ele>138.66666666666666</ele><time>2026-04-04T16:43:13Z</time></trkpt><trkpt lat="44.64757326037479" lon="10.424466137292782"><ele>139.0</ele><time>2026-04-04T16:43:14Z</time></trkpt><trkpt lat="44.647500525677046" lon="10.42443569995625"><ele>139.33333333333331</ele><time>2026-04-04T16:43:15Z</time></trkpt><trkpt lat="44.647420508931326" lon="10.424411745782137"><ele>139.66666666666666</ele><time>2026-04-04T16:43:17Z</time></trkpt><trkpt lat="44.64735587108189" lon="10.424441241715627"><ele>140.0</ele><time>2026-04-04T16:43:22Z</time></trkpt><trkpt lat="44.647378097710245" lon="10.424563400063091"><ele>140.0</ele><time>2026-04-04T16:43:46.999Z</time></trkpt><trkpt lat="44.6475121191601" lon="10.424625941920636"><ele>140.0</ele><time>2026-04-04T16:43:48.999Z</time></trkpt><trkpt lat="44.64760138205488" lon="10.42464249399321"><ele>140.0</ele><time>2026-04-04T16:43:49.999Z</time></trkpt><trkpt lat="44.64766440479671" lon="10.424663270217195"><ele>140.0</ele><time>2026-04-04T16:43:50.999Z</time></trkpt><trkpt lat="44.64776776512182" lon="10.424706599909221"><ele>140.0</ele><time>2026-04-04T16:43:52.999Z</time></trkpt><trkpt lat="44.64777129688518" lon="10.42489321702914"><ele>140.4</ele><time>2026-04-04T16:43:55.999Z</time></trkpt><trkpt lat="44.64774223851114" lon="10.425006463870346"><ele>140.8</ele><time>2026-04-04T16:43:56.999Z</time></trkpt><trkpt lat="44.64771022249168" lon="10.425127638323135"><ele>141.2</ele><time>2026-04-04T16:43:57.999Z</time></trkpt><trkpt lat="44.647682810524586" lon="10.425278618432577"><ele>141.6</ele><time>2026-04-04T16:43:58.999Z</time></trkpt><trkpt lat="44.647664713678786" lon="10.425442995604735"><ele>142.0</ele><time>2026-04-04T16:43:59.999Z</time></trkpt><trkpt lat="44.6476431421039" lon="10.425632848525394"><ele>142.0</ele><time>2026-04-04T16:44:00.999Z</time></trkpt><trkpt lat="44.647616318054496" lon="10.425842539115765"><ele>142.0</ele><time>2026-04-04T16:44:01.999Z</time></trkpt><trkpt lat="44.64758586892756" lon="10.426058961739248"><ele>142.0</ele><time>2026-04-04T16:44:02.999Z</time></trkpt><trkpt lat="44.647551973047854" lon="10.426279614869207"><ele>142.0</ele><time>2026-04-04T16:44:03.999Z</time></trkpt><trkpt lat="44.647517341578045" lon="10.426509577142479"><ele>142.0</ele><time>2026-04-04T16:44:04.999Z</time></trkpt><trkpt lat="44.64748501354217" lon="10.42675395452676"><ele>142.0</ele><time>2026-04-04T16:44:05.999Z</time></trkpt><trkpt lat="44.647453750302724" lon="10.42699800225488"><ele>142.66666666666669</ele><time>2026-04-04T16:44:06.999Z</time></trkpt><trkpt lat="44.64742869936504" lon="10.427221025871999"><ele>143.33333333333334</ele><time>2026-04-04T16:44:07.999Z</time></trkpt><trkpt lat="44.64740686614376" lon="10.42743782827295"><ele>144.0</ele><time>2026-04-04T16:44:08.999Z</time></trkpt><trkpt lat="44.647389830094994" lon="10.42766097541862"><ele>144.0</ele><time>2026-04-04T16:44:09.999Z</time></trkpt><trkpt lat="44.64737513648274" lon="10.42787847680679"><ele>144.0</ele><time>2026-04-04T16:44:10.999Z</time></trkpt><trkpt lat="44.64736361771475" lon="10.428079552911573"><ele>144.0</ele><time>2026-04-04T16:44:11.999Z</time></trkpt><trkpt lat="44.6473358650107" lon="10.428259859629927"><ele>144.0</ele><time>2026-04-04T16:44:12.999Z</time></trkpt><trkpt lat="44.64732729592889" lon="10.428430429546623"><ele>143.75</ele><time>2026-04-04T16:44:13.999Z</time></trkpt><trkpt lat="44.64733345069689" lon="10.428594951333604"><ele>143.5</ele><time>2026-04-04T16:44:14.999Z</time></trkpt><trkpt lat="44.647328171564574" lon="10.428755873270147"><ele>143.25</ele><time>2026-04-04T16:44:15.999Z</time></trkpt><trkpt lat="44.64732113032684" lon="10.428920789308986"><ele>143.0</ele><time>2026-04-04T16:44:16.999Z</time></trkpt><trkpt lat="44.64731429976305" lon="10.429086746314052"><ele>143.0</ele><time>2026-04-04T16:44:17.999Z</time></trkpt><trkpt lat="44.64730893206382" lon="10.429252630262736"><ele>143.0</ele><time>2026-04-04T16:44:18.999Z</time></trkpt><trkpt lat="44.64730588554357" lon="10.429407345531784"><ele>143.0</ele><time>2026-04-04T16:44:19.999Z</time></trkpt><trkpt lat="44.64730210042863" lon="10.429550387953602"><ele>143.0</ele><time>2026-04-04T16:44:20.999Z</time></trkpt><trkpt lat="44.64729836267994" lon="10.429694750122817"><ele>143.0</ele><time>2026-04-04T16:44:21.999Z</time></trkpt><trkpt lat="44.64729242248708" lon="10.429854883371764"><ele>143.0</ele><time>2026-04-04T16:44:22.999Z</time></trkpt><trkpt lat="44.647282985597606" lon="10.43002237249803"><ele>143.0</ele><time>2026-04-04T16:44:23.999Z</time></trkpt><trkpt lat="44.64727410066027" lon="10.430201086983567"><ele>143.0</ele><time>2026-04-04T16:44:24.999Z</time></trkpt><trkpt lat="44.647260390899795" lon="10.43037940656171"><ele>143.0</ele><time>2026-04-04T16:44:25.999Z</time></trkpt><trkpt lat="44.64724450092614" lon="10.430564424073417"><ele>142.75</ele><time>2026-04-04T16:44:26.999Z</time></trkpt><trkpt lat="44.6472266652866" lon="10.430753575250057"><ele>142.5</ele><time>2026-04-04T16:44:27.999Z</time></trkpt><trkpt lat="44.64721112316691" lon="10.430931182726372"><ele>142.25</ele><time>2026-04-04T16:44:28.999Z</time></trkpt><trkpt lat="44.64719736357758" lon="10.43109415815478"><ele>142.0</ele><time>2026-04-04T16:44:29.999Z</time></trkpt><trkpt lat="44.6471838551326" lon="10.43124435542283"><ele>141.79999999999998</ele><time>2026-04-04T16:44:30.999Z</time></trkpt><trkpt lat="44.64716949944665" lon="10.43138677490721"><ele>141.6</ele><time>2026-04-04T16:44:31.999Z</time></trkpt><trkpt lat="44.647154640001" lon="10.43152243365138"><ele>141.39999999999998</ele><time>2026-04-04T16:44:33Z</time></trkpt><trkpt lat="44.64713865403213" lon="10.431668839548148"><ele>141.2</ele><time>2026-04-04T16:44:34Z</time></trkpt><trkpt lat="44.64711725314631" lon="10.431823475344283"><ele>141.0</ele><time>2026-04-04T16:44:35Z</time></trkpt><trkpt lat="44.64708988584049" lon="10.431992861042595"><ele>141.25</ele><time>2026-04-04T16:44:36Z</time></trkpt><trkpt lat="44.64705815117475" lon="10.432169413360334"><ele>141.5</ele><time>2026-04-04T16:44:37Z</time></trkpt><trkpt lat="44.64702359411392" lon="10.432357080618685"><ele>141.75</ele><time>2026-04-04T16:44:38Z</time></trkpt><trkpt lat="44.64698699944232" lon="10.432550162675076"><ele>142.0</ele><time>2026-04-04T16:44:39Z</time></trkpt><trkpt lat="44.646950603452126" lon="10.432743635949306"><ele>142.0</ele><time>2026-04-04T16:44:40Z</time></trkpt><trkpt lat="44.64691658634149" lon="10.432918261236471"><ele>142.0</ele><time>2026-04-04T16:44:41Z</time></trkpt><trkpt lat="44.64687902485051" lon="10.433102703416909"><ele>142.0</ele><time>2026-04-04T16:44:42Z</time></trkpt><trkpt lat="44.646839667692134" lon="10.433297663311041"><ele>142.0</ele><time>2026-04-04T16:44:43Z</time></trkpt><trkpt lat="44.646801129141714" lon="10.433506817095402"><ele>142.0</ele><time>2026-04-04T16:44:44Z</time></trkpt><trkpt lat="44.646763314073226" lon="10.433726611245072"><ele>142.0</ele><time>2026-04-04T16:44:45Z</time></trkpt><trkpt lat="44.64672229240963" lon="10.43395299933802"><ele>142.0</ele><time>2026-04-04T16:44:46Z</time></trkpt><trkpt lat="44.646685211035575" lon="10.434152337251454"><ele>142.0</ele><time>2026-04-04T16:44:47Z</time></trkpt><trkpt lat="44.646653298657114" lon="10.434334635087016"><ele>142.0</ele><time>2026-04-04T16:44:48Z</time></trkpt><trkpt lat="44.64661781913904" lon="10.434524627018805"><ele>142.0</ele><time>2026-04-04T16:44:49Z</time></trkpt><trkpt lat="44.646575474372206" lon="10.434718336443733"><ele>142.0</ele><time>2026-04-04T16:44:50Z</time></trkpt><trkpt lat="44.646524869337924" lon="10.434909364627138"><ele>142.0</ele><time>2026-04-04T16:44:51Z</time></trkpt><trkpt lat="44.64647274694721" lon="10.435102559225518"><ele>142.0</ele><time>2026-04-04T16:44:52Z</time></trkpt><trkpt lat="44.64641846701325" lon="10.43529576869272"><ele>142.0</ele><time>2026-04-04T16:44:53Z</time></trkpt><trkpt lat="44.64636546447057" lon="10.435489540788225"><ele>142.0</ele><time>2026-04-04T16:44:54Z</time></trkpt><trkpt lat="44.64631648441738" lon="10.435686148908832"><ele>142.0</ele><time>2026-04-04T16:44:55Z</time></trkpt><trkpt lat="44.646269984428116" lon="10.435886659856028"><ele>142.0</ele><time>2026-04-04T16:44:56Z</time></trkpt><trkpt lat="44.64623039653127" lon="10.436073980564238"><ele>142.0</ele><time>2026-04-04T16:44:57Z</time></trkpt><trkpt lat="44.646199335271255" lon="10.436250429957505"><ele>142.0</ele><time>2026-04-04T16:44:58Z</time></trkpt><trkpt lat="44.64617324415202" lon="10.436423758327583"><ele>142.0</ele><time>2026-04-04T16:44:59Z</time></trkpt><trkpt lat="44.6461609942986" lon="10.436597591794705"><ele>142.0</ele><time>2026-04-04T16:45:00Z</time></trkpt><trkpt lat="44.64615290864495" lon="10.436778748545718"><ele>142.0</ele><time>2026-04-04T16:45:01Z</time></trkpt><trkpt lat="44.646151887366706" lon="10.436963559645443"><ele>142.0</ele><time>2026-04-04T16:45:02Z</time></trkpt><trkpt lat="44.646158742565554" lon="10.437153256495703"><ele>142.25</ele><time>2026-04-04T16:45:03Z</time></trkpt><trkpt lat="44.646176905590316" lon="10.437345512562676"><ele>142.5</ele><time>2026-04-04T16:45:04Z</time></trkpt><trkpt lat="44.64620595614914" lon="10.437540228475694"><ele>142.75</ele><time>2026-04-04T16:45:05Z</time></trkpt><trkpt lat="44.64623950459614" lon="10.437728901253356"><ele>143.0</ele><time>2026-04-04T16:45:06Z</time></trkpt><trkpt lat="44.64626964710813" lon="10.437900225275166"><ele>142.75</ele><time>2026-04-04T16:45:07Z</time></trkpt><trkpt lat="44.64628660284138" lon="10.438061249463493"><ele>142.5</ele><time>2026-04-04T16:45:08Z</time></trkpt><trkpt lat="44.64629535881377" lon="10.438223830422423"><ele>142.25</ele><time>2026-04-04T16:45:09Z</time></trkpt><trkpt lat="44.646304052839874" lon="10.438399174015132"><ele>142.0</ele><time>2026-04-04T16:45:10Z</time></trkpt><trkpt lat="44.6463115948125" lon="10.438585652335407"><ele>142.0</ele><time>2026-04-04T16:45:11Z</time></trkpt><trkpt lat="44.64631905723846" lon="10.43877422357954"><ele>142.0</ele><time>2026-04-04T16:45:12Z</time></trkpt><trkpt lat="44.64632928568845" lon="10.43896729565696"><ele>142.0</ele><time>2026-04-04T16:45:13Z</time></trkpt><trkpt lat="44.64634063870565" lon="10.43916332693632"><ele>142.0</ele><time>2026-04-04T16:45:14Z</time></trkpt><trkpt lat="44.64634849897958" lon="10.439362333165418"><ele>141.5</ele><time>2026-04-04T16:45:15Z</time></trkpt><trkpt lat="44.64635176469813" lon="10.439565521626566"><ele>141.0</ele><time>2026-04-04T16:45:16Z</time></trkpt><trkpt lat="44.64634751170867" lon="10.4397666893948"><ele>140.5</ele><time>2026-04-04T16:45:17Z</time></trkpt><trkpt lat="44.64633967083504" lon="10.43997296988366"><ele>140.0</ele><time>2026-04-04T16:45:18Z</time></trkpt><trkpt lat="44.646323708229" lon="10.440194858238636"><ele>140.0</ele><time>2026-04-04T16:45:19Z</time></trkpt><trkpt lat="44.64629812581706" lon="10.44042524852312"><ele>140.0</ele><time>2026-04-04T16:45:20Z</time></trkpt><trkpt lat="44.6462626365142" lon="10.440649380191942"><ele>140.0</ele><time>2026-04-04T16:45:21Z</time></trkpt><trkpt lat="44.646227596870446" lon="10.44084220888306"><ele>140.25</ele><time>2026-04-04T16:45:22Z</time></trkpt><trkpt lat="44.646193120598994" lon="10.44101461101041"><ele>140.5</ele><time>2026-04-04T16:45:23Z</time></trkpt><trkpt lat="44.64616654695352" lon="10.441182584766917"><ele>140.75</ele><time>2026-04-04T16:45:24Z</time></trkpt><trkpt lat="44.64614291724266" lon="10.441358337584541"><ele>141.0</ele><time>2026-04-04T16:45:25Z</time></trkpt><trkpt lat="44.6461159176135" lon="10.441542579957996"><ele>141.25</ele><time>2026-04-04T16:45:26Z</time></trkpt><trkpt lat="44.646082793723906" lon="10.441735696410184"><ele>141.5</ele><time>2026-04-04T16:45:27Z</time></trkpt><trkpt lat="44.64603814813049" lon="10.44192918184451"><ele>141.75</ele><time>2026-04-04T16:45:28Z</time></trkpt><trkpt lat="44.6459725618105" lon="10.442077707192126"><ele>142.0</ele><time>2026-04-04T16:45:29Z</time></trkpt><trkpt lat="44.64591356891974" lon="10.442267522788713"><ele>142.0</ele><time>2026-04-04T16:45:30Z</time></trkpt><trkpt lat="44.64583787982387" lon="10.44243055048466"><ele>142.0</ele><time>2026-04-04T16:45:31Z</time></trkpt><trkpt lat="44.645768499836485" lon="10.442603015682096"><ele>142.0</ele><time>2026-04-04T16:45:32Z</time></trkpt><trkpt lat="44.64571243893703" lon="10.44278690325799"><ele>142.0</ele><time>2026-04-04T16:45:33Z</time></trkpt><trkpt lat="44.645665350637024" lon="10.442975650009112"><ele>142.0</ele><time>2026-04-04T16:45:33.999Z</time></trkpt><trkpt lat="44.64562208249965" lon="10.443171372267663"><ele>142.0</ele><time>2026-04-04T16:45:34.999Z</time></trkpt><trkpt lat="44.64557804007034" lon="10.443371458325187"><ele>142.0</ele><time>2026-04-04T16:45:35.999Z</time></trkpt><trkpt lat="44.64553286906623" lon="10.443571004392194"><ele>142.0</ele><time>2026-04-04T16:45:36.999Z</time></trkpt><trkpt lat="44.64548730194916" lon="10.443773429853245"><ele>141.66666666666669</ele><time>2026-04-04T16:45:37.999Z</time></trkpt><trkpt lat="44.64544390344083" lon="10.443979027648117"><ele>141.33333333333334</ele><time>2026-04-04T16:45:38.999Z</time></trkpt><trkpt lat="44.6453988374041" lon="10.44418630810029"><ele>141.0</ele><time>2026-04-04T16:45:39.999Z</time></trkpt><trkpt lat="44.64535045616746" lon="10.444391809150778"><ele>141.0</ele><time>2026-04-04T16:45:40.999Z</time></trkpt><trkpt lat="44.645304530716984" lon="10.44458641707072"><ele>141.0</ele><time>2026-04-04T16:45:41.999Z</time></trkpt><trkpt lat="44.64525904411081" lon="10.44477364825939"><ele>141.0</ele><time>2026-04-04T16:45:42.999Z</time></trkpt><trkpt lat="44.64521667160186" lon="10.444966195996363"><ele>141.0</ele><time>2026-04-04T16:45:43.999Z</time></trkpt><trkpt lat="44.64517199129487" lon="10.445161253030951"><ele>141.25</ele><time>2026-04-04T16:45:44.999Z</time></trkpt><trkpt lat="44.64512939319602" lon="10.445345064513685"><ele>141.5</ele><time>2026-04-04T16:45:45.999Z</time></trkpt><trkpt lat="44.64508678662006" lon="10.445526584208544"><ele>141.75</ele><time>2026-04-04T16:45:46.999Z</time></trkpt><trkpt lat="44.645046040327756" lon="10.445708335855938"><ele>142.0</ele><time>2026-04-04T16:45:47.999Z</time></trkpt><trkpt lat="44.64501253629996" lon="10.445874050856423"><ele>142.25</ele><time>2026-04-04T16:45:48.999Z</time></trkpt><trkpt lat="44.64498843533168" lon="10.44603241973625"><ele>142.5</ele><time>2026-04-04T16:45:49.999Z</time></trkpt><trkpt lat="44.64496973390621" lon="10.446202172520218"><ele>142.75</ele><time>2026-04-04T16:45:50.999Z</time></trkpt><trkpt lat="44.644952668762194" lon="10.446370912360551"><ele>143.0</ele><time>2026-04-04T16:45:51.999Z</time></trkpt><trkpt lat="44.644936298359475" lon="10.446527531640095"><ele>143.0</ele><time>2026-04-04T16:45:52.999Z</time></trkpt><trkpt lat="44.64492186685193" lon="10.44667252327397"><ele>143.0</ele><time>2026-04-04T16:45:53.999Z</time></trkpt><trkpt lat="44.6448919048095" lon="10.446817779446366"><ele>143.0</ele><time>2026-04-04T16:45:54.999Z</time></trkpt><trkpt lat="44.64487391183107" lon="10.446968991828696"><ele>143.0</ele><time>2026-04-04T16:45:55.999Z</time></trkpt><trkpt lat="44.64485136647534" lon="10.44712224228395"><ele>143.0</ele><time>2026-04-04T16:45:56.999Z</time></trkpt><trkpt lat="44.64482544548028" lon="10.447271874058092"><ele>142.75</ele><time>2026-04-04T16:45:57.999Z</time></trkpt><trkpt lat="44.64479243937256" lon="10.447417759461382"><ele>142.5</ele><time>2026-04-04T16:45:58.999Z</time></trkpt><trkpt lat="44.64475226330371" lon="10.447567504627104"><ele>142.25</ele><time>2026-04-04T16:45:59.999Z</time></trkpt><trkpt lat="44.644717766717356" lon="10.447730488671256"><ele>142.0</ele><time>2026-04-04T16:46:00.999Z</time></trkpt><trkpt lat="44.644644373332255" lon="10.447871510442274"><ele>142.0</ele><time>2026-04-04T16:46:01.999Z</time></trkpt><trkpt lat="44.64457970326849" lon="10.44801909043362"><ele>142.0</ele><time>2026-04-04T16:46:02.999Z</time></trkpt><trkpt lat="44.64451153500576" lon="10.448153224739047"><ele>142.0</ele><time>2026-04-04T16:46:03.999Z</time></trkpt><trkpt lat="44.644459186794194" lon="10.448280820019578"><ele>142.0</ele><time>2026-04-04T16:46:04.999Z</time></trkpt><trkpt lat="44.64437900362894" lon="10.448359715889111"><ele>142.0</ele><time>2026-04-04T16:46:05.999Z</time></trkpt><trkpt lat="44.64430881688818" lon="10.448447326553444"><ele>142.33333333333334</ele><time>2026-04-04T16:46:06.999Z</time></trkpt><trkpt lat="44.64422659161831" lon="10.448530012651775"><ele>142.66666666666669</ele><time>2026-04-04T16:46:07.999Z</time></trkpt><trkpt lat="44.6441384244972" lon="10.448589389428141"><ele>143.0</ele><time>2026-04-04T16:46:08.999Z</time></trkpt><trkpt lat="44.64405776081726" lon="10.448629750589282"><ele>143.33333333333334</ele><time>2026-04-04T16:46:09.999Z</time></trkpt><trkpt lat="44.64398840266904" lon="10.448678056437226"><ele>143.66666666666666</ele><time>2026-04-04T16:46:10.999Z</time></trkpt><trkpt lat="44.64392118799185" lon="10.44869990725447"><ele>144.0</ele><time>2026-04-04T16:46:11.999Z</time></trkpt><trkpt lat="44.64385900888788" lon="10.448718276494308"><ele>144.0</ele><time>2026-04-04T16:46:12.999Z</time></trkpt><trkpt lat="44.643750214529184" lon="10.44875012999626"><ele>144.0</ele><time>2026-04-04T16:46:14.999Z</time></trkpt><trkpt lat="44.64364957963977" lon="10.44880581360947"><ele>144.0</ele><time>2026-04-04T16:46:16.999Z</time></trkpt><trkpt lat="44.643577950433745" lon="10.448859850032001"><ele>144.0</ele><time>2026-04-04T16:46:18.999Z</time></trkpt><trkpt lat="44.64368018700845" lon="10.449095692118812"><ele>143.5</ele><time>2026-04-04T16:46:20.999Z</time></trkpt><trkpt lat="44.643746910523824" lon="10.449190373293412"><ele>143.0</ele><time>2026-04-04T16:46:21.999Z</time></trkpt><trkpt lat="44.64382166086934" lon="10.449305696144934"><ele>142.5</ele><time>2026-04-04T16:46:22.999Z</time></trkpt><trkpt lat="44.643905382882174" lon="10.449438341363393"><ele>142.0</ele><time>2026-04-04T16:46:23.999Z</time></trkpt><trkpt lat="44.643999534960486" lon="10.449589679889613"><ele>142.66666666666669</ele><time>2026-04-04T16:46:24.999Z</time></trkpt><trkpt lat="44.64410053048723" lon="10.449746078443297"><ele>143.33333333333334</ele><time>2026-04-04T16:46:25.999Z</time></trkpt><trkpt lat="44.64421947138879" lon="10.449923455667786"><ele>144.0</ele><time>2026-04-04T16:46:26.999Z</time></trkpt><trkpt lat="44.64433587403885" lon="10.450099270773668"><ele>144.0</ele><time>2026-04-04T16:46:27.999Z</time></trkpt><trkpt lat="44.64445950508246" lon="10.45026074084709"><ele>144.0</ele><time>2026-04-04T16:46:28.999Z</time></trkpt><trkpt lat="44.64458887676515" lon="10.45044946324289"><ele>144.0</ele><time>2026-04-04T16:46:29.999Z</time></trkpt><trkpt lat="44.644716442666066" lon="10.450657240630823"><ele>142.33333333333334</ele><time>2026-04-04T16:46:30.999Z</time></trkpt><trkpt lat="44.64483343696516" lon="10.450821553525856"><ele>140.66666666666669</ele><time>2026-04-04T16:46:31.999Z</time></trkpt><trkpt lat="44.64495584632405" lon="10.45097552023"><ele>139.0</ele><time>2026-04-04T16:46:32.999Z</time></trkpt><trkpt lat="44.64507836947639" lon="10.451113005430386"><ele>139.0</ele><time>2026-04-04T16:46:33.999Z</time></trkpt><trkpt lat="44.645195038783484" lon="10.451249390302063"><ele>139.0</ele><time>2026-04-04T16:46:34.999Z</time></trkpt><trkpt lat="44.645315457861805" lon="10.45138232189286"><ele>139.0</ele><time>2026-04-04T16:46:35.999Z</time></trkpt><trkpt lat="44.6454461745985" lon="10.451503196346668"><ele>138.33333333333334</ele><time>2026-04-04T16:46:36.999Z</time></trkpt><trkpt lat="44.64557924956698" lon="10.451634087249417"><ele>137.66666666666666</ele><time>2026-04-04T16:46:37.999Z</time></trkpt><trkpt lat="44.64571455357982" lon="10.451779349260285"><ele>137.0</ele><time>2026-04-04T16:46:39Z</time></trkpt><trkpt lat="44.64584706546202" lon="10.451923405106148"><ele>137.0</ele><time>2026-04-04T16:46:40Z</time></trkpt><trkpt lat="44.64596633830021" lon="10.452048924703153"><ele>137.0</ele><time>2026-04-04T16:46:41Z</time></trkpt><trkpt lat="44.64607319360364" lon="10.452170739264854"><ele>137.0</ele><time>2026-04-04T16:46:42Z</time></trkpt><trkpt lat="44.646192351255216" lon="10.45229107416717"><ele>137.0</ele><time>2026-04-04T16:46:43Z</time></trkpt><trkpt lat="44.64631282913966" lon="10.452413232577452"><ele>137.0</ele><time>2026-04-04T16:46:44Z</time></trkpt><trkpt lat="44.6464325008713" lon="10.452533655995882"><ele>137.0</ele><time>2026-04-04T16:46:45Z</time></trkpt><trkpt lat="44.64655529020521" lon="10.452662566569652"><ele>137.0</ele><time>2026-04-04T16:46:46Z</time></trkpt><trkpt lat="44.646676604719765" lon="10.452804560810643"><ele>137.33333333333331</ele><time>2026-04-04T16:46:47Z</time></trkpt><trkpt lat="44.646795650257175" lon="10.4529595620634"><ele>137.66666666666666</ele><time>2026-04-04T16:46:48Z</time></trkpt><trkpt lat="44.6469200188537" lon="10.453129876682722"><ele>138.0</ele><time>2026-04-04T16:46:49Z</time></trkpt><trkpt lat="44.64704496764762" lon="10.453305456833546"><ele>136.66666666666666</ele><time>2026-04-04T16:46:50Z</time></trkpt><trkpt lat="44.64716313881921" lon="10.453478434807021"><ele>135.33333333333331</ele><time>2026-04-04T16:46:51Z</time></trkpt><trkpt lat="44.64726870329312" lon="10.453619437035005"><ele>134.0</ele><time>2026-04-04T16:46:52Z</time></trkpt><trkpt lat="44.64737366447407" lon="10.453758677688043"><ele>134.33333333333331</ele><time>2026-04-04T16:46:53Z</time></trkpt><trkpt lat="44.647483612159625" lon="10.453905161895475"><ele>134.66666666666666</ele><time>2026-04-04T16:46:54Z</time></trkpt><trkpt lat="44.64760153999327" lon="10.454062954870926"><ele>135.0</ele><time>2026-04-04T16:46:55Z</time></trkpt><trkpt lat="44.64771979319742" lon="10.454222395581677"><ele>134.66666666666666</ele><time>2026-04-04T16:46:56Z</time></trkpt><trkpt lat="44.647842123608704" lon="10.454387147269653"><ele>134.33333333333331</ele><time>2026-04-04T16:46:57Z</time></trkpt><trkpt lat="44.647963270151415" lon="10.454554882992984"><ele>134.0</ele><time>2026-04-04T16:46:58Z</time></trkpt><trkpt lat="44.648085230668364" lon="10.454722613422838"><ele>134.0</ele><time>2026-04-04T16:46:59Z</time></trkpt><trkpt lat="44.648197258762416" lon="10.454871447929044"><ele>134.0</ele><time>2026-04-04T16:47:00Z</time></trkpt><trkpt lat="44.64829975109394" lon="10.455004258438453"><ele>134.0</ele><time>2026-04-04T16:47:01Z</time></trkpt><trkpt lat="44.648404457571395" lon="10.455140313279236"><ele>134.0</ele><time>2026-04-04T16:47:02Z</time></trkpt><trkpt lat="44.64851146806771" lon="10.455277918774634"><ele>134.0</ele><time>2026-04-04T16:47:03Z</time></trkpt><trkpt lat="44.64862101671352" lon="10.45541743535168"><ele>134.0</ele><time>2026-04-04T16:47:04Z</time></trkpt><trkpt lat="44.64872750220335" lon="10.45555235065044"><ele>134.0</ele><time>2026-04-04T16:47:05Z</time></trkpt><trkpt lat="44.64883103823058" lon="10.455671563481935"><ele>134.0</ele><time>2026-04-04T16:47:06Z</time></trkpt><trkpt lat="44.64893824911639" lon="10.455786397162935"><ele>134.5</ele><time>2026-04-04T16:47:07Z</time></trkpt><trkpt lat="44.64904710512444" lon="10.455890317052228"><ele>135.0</ele><time>2026-04-04T16:47:08Z</time></trkpt><trkpt lat="44.64915252954293" lon="10.455983131635774"><ele>135.5</ele><time>2026-04-04T16:47:09Z</time></trkpt><trkpt lat="44.649266958797035" lon="10.456067036678535"><ele>136.0</ele><time>2026-04-04T16:47:10Z</time></trkpt><trkpt lat="44.64938722108595" lon="10.456139539699445"><ele>135.8</ele><time>2026-04-04T16:47:11Z</time></trkpt><trkpt lat="44.6495014235924" lon="10.456189994726754"><ele>135.6</ele><time>2026-04-04T16:47:12Z</time></trkpt><trkpt lat="44.649606687696924" lon="10.456248019666814"><ele>135.4</ele><time>2026-04-04T16:47:13Z</time></trkpt><trkpt lat="44.649706911267195" lon="10.456307437859529"><ele>135.2</ele><time>2026-04-04T16:47:14Z</time></trkpt><trkpt lat="44.64979590752224" lon="10.45635509201762"><ele>135.0</ele><time>2026-04-04T16:47:15Z</time></trkpt><trkpt lat="44.64988629501975" lon="10.456402078784146"><ele>134.83333333333334</ele><time>2026-04-04T16:47:16Z</time></trkpt><trkpt lat="44.64996957361201" lon="10.456443640922092"><ele>134.66666666666666</ele><time>2026-04-04T16:47:17Z</time></trkpt><trkpt lat="44.65004415503005" lon="10.456480223015"><ele>134.5</ele><time>2026-04-04T16:47:18Z</time></trkpt><trkpt lat="44.650113402095535" lon="10.45652000063708"><ele>134.33333333333331</ele><time>2026-04-04T16:47:19Z</time></trkpt><trkpt lat="44.65018943990327" lon="10.456565367598087"><ele>134.16666666666666</ele><time>2026-04-04T16:47:21Z</time></trkpt><trkpt lat="44.65026490619891" lon="10.45660920655068"><ele>134.0</ele><time>2026-04-04T16:47:24Z</time></trkpt><trkpt lat="44.650325371069236" lon="10.456671503406728"><ele>134.0</ele><time>2026-04-04T16:47:27Z</time></trkpt><trkpt lat="44.650379565102504" lon="10.456531635332418"><ele>134.0</ele><time>2026-04-04T16:47:28Z</time></trkpt><trkpt lat="44.65043996899678" lon="10.45643554770761"><ele>134.0</ele><time>2026-04-04T16:47:30Z</time></trkpt><trkpt lat="44.65050722547292" lon="10.456314019374425"><ele>134.0</ele><time>2026-04-04T16:47:32Z</time></trkpt><trkpt lat="44.65055254201046" lon="10.456233200272024"><ele>134.0</ele><time>2026-04-04T16:47:33Z</time></trkpt><trkpt lat="44.650600653260874" lon="10.456147396630211"><ele>134.0</ele><time>2026-04-04T16:47:34Z</time></trkpt><trkpt lat="44.65063893636481" lon="10.456038674313508"><ele>134.0</ele><time>2026-04-04T16:47:35Z</time></trkpt><trkpt lat="44.65069733359827" lon="10.455944319712408"><ele>134.0</ele><time>2026-04-04T16:47:36Z</time></trkpt><trkpt lat="44.6507564535245" lon="10.455845498181656"><ele>134.0</ele><time>2026-04-04T16:47:37Z</time></trkpt><trkpt lat="44.650816302983294" lon="10.455733780497411"><ele>134.0</ele><time>2026-04-04T16:47:38Z</time></trkpt><trkpt lat="44.650871056526114" lon="10.455631683727853"><ele>134.0</ele><time>2026-04-04T16:47:38.999Z</time></trkpt><trkpt lat="44.6509238964454" lon="10.455543838933155"><ele>134.0</ele><time>2026-04-04T16:47:39.999Z</time></trkpt><trkpt lat="44.650973856528886" lon="10.455464718639083"><ele>134.0</ele><time>2026-04-04T16:47:40.999Z</time></trkpt><trkpt lat="44.65102336823112" lon="10.455389279350165"><ele>134.0</ele><time>2026-04-04T16:47:41.999Z</time></trkpt><trkpt lat="44.651080031140246" lon="10.455306544441305"><ele>134.0</ele><time>2026-04-04T16:47:42.999Z</time></trkpt><trkpt lat="44.651137834199076" lon="10.455216643199579"><ele>134.0</ele><time>2026-04-04T16:47:43.999Z</time></trkpt><trkpt lat="44.651186440119126" lon="10.45513900366832"><ele>133.83333333333331</ele><time>2026-04-04T16:47:44.999Z</time></trkpt><trkpt lat="44.65123152317383" lon="10.455065759895087"><ele>133.66666666666666</ele><time>2026-04-04T16:47:45.999Z</time></trkpt><trkpt lat="44.651281212924076" lon="10.4549960646387"><ele>133.5</ele><time>2026-04-04T16:47:46.999Z</time></trkpt><trkpt lat="44.65133495170485" lon="10.454921889281364"><ele>133.33333333333334</ele><time>2026-04-04T16:47:47.999Z</time></trkpt><trkpt lat="44.65138982591368" lon="10.454832339068926"><ele>133.16666666666669</ele><time>2026-04-04T16:47:48.999Z</time></trkpt><trkpt lat="44.65144553425496" lon="10.45473837825133"><ele>133.0</ele><time>2026-04-04T16:47:49.999Z</time></trkpt><trkpt lat="44.651511959469836" lon="10.454641522717033"><ele>133.20000000000002</ele><time>2026-04-04T16:47:50.999Z</time></trkpt><trkpt lat="44.65157848317065" lon="10.454554768766236"><ele>133.4</ele><time>2026-04-04T16:47:51.999Z</time></trkpt><trkpt lat="44.65163417388818" lon="10.454476890925733"><ele>133.60000000000002</ele><time>2026-04-04T16:47:52.999Z</time></trkpt><trkpt lat="44.651676974901775" lon="10.454404567256955"><ele>133.8</ele><time>2026-04-04T16:47:53.999Z</time></trkpt><trkpt lat="44.65175034850098" lon="10.454313131750403"><ele>134.0</ele><time>2026-04-04T16:47:55.999Z</time></trkpt><trkpt lat="44.651620288655835" lon="10.454141870627046"><ele>134.0</ele><time>2026-04-04T16:47:58.999Z</time></trkpt><trkpt lat="44.65153368602272" lon="10.454121989522164"><ele>134.0</ele><time>2026-04-04T16:48:00.999Z</time></trkpt><trkpt lat="44.65145107030626" lon="10.45409785575842"><ele>134.0</ele><time>2026-04-04T16:48:02.999Z</time></trkpt><trkpt lat="44.65136432788526" lon="10.454072516501476"><ele>134.0</ele><time>2026-04-04T16:48:04.999Z</time></trkpt><trkpt lat="44.65128927190332" lon="10.454050591063144"><ele>134.0</ele><time>2026-04-04T16:48:06.999Z</time></trkpt><trkpt lat="44.651213568356546" lon="10.454028569184436"><ele>134.0</ele><time>2026-04-04T16:48:10.999Z</time></trkpt><trkpt lat="44.6511397205927" lon="10.454042612376208"><ele>134.0</ele><time>2026-04-04T16:48:39.999Z</time></trkpt><trkpt lat="44.651068232192124" lon="10.4539991154371"><ele>134.0</ele><time>2026-04-04T16:48:41.999Z</time></trkpt><trkpt lat="44.65097649840394" lon="10.453974638504938"><ele>134.0</ele><time>2026-04-04T16:48:43.999Z</time></trkpt><trkpt lat="44.650875632164755" lon="10.453952902806279"><ele>134.0</ele><time>2026-04-04T16:48:46Z</time></trkpt><trkpt lat="44.65078651177608" lon="10.453908186366895"><ele>134.0</ele><time>2026-04-04T16:48:48Z</time></trkpt><trkpt lat="44.65068692450564" lon="10.45387074568492"><ele>134.0</ele><time>2026-04-04T16:48:50Z</time></trkpt><trkpt lat="44.650597724074245" lon="10.45384349356109"><ele>134.0</ele><time>2026-04-04T16:48:52Z</time></trkpt><trkpt lat="44.65055507202426" lon="10.453920090759093"><ele>134.0</ele><time>2026-04-04T16:48:57Z</time></trkpt><trkpt lat="44.65068713230058" lon="10.45390069397887"><ele>134.0</ele><time>2026-04-04T16:49:01Z</time></trkpt><trkpt lat="44.65075815827501" lon="10.453929549558909"><ele>134.0</ele><time>2026-04-04T16:49:03Z</time></trkpt><trkpt lat="44.65081894432962" lon="10.45396243671023"><ele>134.0</ele><time>2026-04-04T16:49:05Z</time></trkpt><trkpt lat="44.6508964862091" lon="10.453955156647343"><ele>134.0</ele><time>2026-04-04T16:51:13Z</time></trkpt><trkpt lat="44.65097325132135" lon="10.453973122205454"><ele>134.0</ele><time>2026-04-04T16:51:16Z</time></trkpt><trkpt lat="44.651043732131384" lon="10.45399625539011"><ele>134.0</ele><time>2026-04-04T16:51:21Z</time></trkpt><trkpt lat="44.651112145190176" lon="10.45404446519935"><ele>134.0</ele><time>2026-04-04T16:51:25Z</time></trkpt><trkpt lat="44.65110403517399" lon="10.454134948442778"><ele>134.0</ele><time>2026-04-04T16:51:31Z</time></trkpt><trkpt lat="44.65109826716311" lon="10.454236497741737"><ele>134.0</ele><time>2026-04-04T16:51:36Z</time></trkpt><trkpt lat="44.651124228849056" lon="10.454145151699985"><ele>134.0</ele><time>2026-04-04T16:51:45Z</time></trkpt><trkpt lat="44.65118930821509" lon="10.454149956378265"><ele>134.0</ele><time>2026-04-04T16:53:29Z</time></trkpt></trkseg></trk></gpx>